<?xml version="1.0" encoding="UTF-8" standalone="no" ?>
<gpx xmlns="http://www.topografix.com/GPX/1/1" xmlns:xsi="http://www.w3.org/2001/XMLSchema-instance" xsi:schemaLocation="http://www.topografix.com/GPX/1/1 http://www.topografix.com/GPX/1/1/gpx.xsd" version="1.1" creator="VisuGPX - https://www.visugpx.com">
  <metadata>
    <name>Rando VTT les monts d'Ambazac 2022</name>
    <desc><![CDATA[Ça grimpe dur.. ]]></desc>
  </metadata>
  <trk>
    <name><![CDATA[Rando VTT les monts d'Ambazac 2022_1]]></name>
    <trkseg>
      <trkpt lat="45.95845" lon="1.3974">
        <ele>388.6</ele>
        <time>2022-11-20T07:36:06Z</time>
      </trkpt>
      <trkpt lat="45.95844" lon="1.39752">
        <ele>388.6</ele>
        <time>2022-11-20T07:36:15Z</time>
      </trkpt>
      <trkpt lat="45.95847" lon="1.39767">
        <ele>388.6</ele>
        <time>2022-11-20T07:36:22Z</time>
      </trkpt>
      <trkpt lat="45.95857" lon="1.39776">
        <ele>388.6</ele>
        <time>2022-11-20T07:36:26Z</time>
      </trkpt>
      <trkpt lat="45.95864" lon="1.39777">
        <ele>388.2</ele>
        <time>2022-11-20T07:36:28Z</time>
      </trkpt>
      <trkpt lat="45.95874" lon="1.39781">
        <ele>387.8</ele>
        <time>2022-11-20T07:36:31Z</time>
      </trkpt>
      <trkpt lat="45.95885" lon="1.39797">
        <ele>387.6</ele>
        <time>2022-11-20T07:36:36Z</time>
      </trkpt>
      <trkpt lat="45.95884" lon="1.3982">
        <ele>387.6</ele>
        <time>2022-11-20T07:36:40Z</time>
      </trkpt>
      <trkpt lat="45.95882" lon="1.39826">
        <ele>387.6</ele>
        <time>2022-11-20T07:36:41Z</time>
      </trkpt>
      <trkpt lat="45.95876" lon="1.39848">
        <ele>386.6</ele>
        <time>2022-11-20T07:36:44Z</time>
      </trkpt>
      <trkpt lat="45.95875" lon="1.39865">
        <ele>385.8</ele>
        <time>2022-11-20T07:36:46Z</time>
      </trkpt>
      <trkpt lat="45.95876" lon="1.39883">
        <ele>385</ele>
        <time>2022-11-20T07:36:48Z</time>
      </trkpt>
      <trkpt lat="45.9588" lon="1.39913">
        <ele>384</ele>
        <time>2022-11-20T07:36:51Z</time>
      </trkpt>
      <trkpt lat="45.95881" lon="1.39923">
        <ele>383.6</ele>
        <time>2022-11-20T07:36:52Z</time>
      </trkpt>
      <trkpt lat="45.95881" lon="1.39934">
        <ele>383.2</ele>
        <time>2022-11-20T07:36:53Z</time>
      </trkpt>
      <trkpt lat="45.95881" lon="1.39944">
        <ele>382.4</ele>
        <time>2022-11-20T07:36:54Z</time>
      </trkpt>
      <trkpt lat="45.95883" lon="1.39976">
        <ele>381.4</ele>
        <time>2022-11-20T07:36:57Z</time>
      </trkpt>
      <trkpt lat="45.95883" lon="1.40006">
        <ele>380.8</ele>
        <time>2022-11-20T07:37:00Z</time>
      </trkpt>
      <trkpt lat="45.9588" lon="1.40024">
        <ele>380.4</ele>
        <time>2022-11-20T07:37:02Z</time>
      </trkpt>
      <trkpt lat="45.95878" lon="1.40031">
        <ele>380.2</ele>
        <time>2022-11-20T07:37:03Z</time>
      </trkpt>
      <trkpt lat="45.95876" lon="1.40038">
        <ele>380.2</ele>
        <time>2022-11-20T07:37:04Z</time>
      </trkpt>
      <trkpt lat="45.95872" lon="1.40043">
        <ele>380.2</ele>
        <time>2022-11-20T07:37:05Z</time>
      </trkpt>
      <trkpt lat="45.95858" lon="1.40061">
        <ele>380.6</ele>
        <time>2022-11-20T07:37:09Z</time>
      </trkpt>
      <trkpt lat="45.95851" lon="1.40069">
        <ele>381.2</ele>
        <time>2022-11-20T07:37:11Z</time>
      </trkpt>
      <trkpt lat="45.95845" lon="1.40076">
        <ele>381.6</ele>
        <time>2022-11-20T07:37:13Z</time>
      </trkpt>
      <trkpt lat="45.95839" lon="1.40083">
        <ele>382.2</ele>
        <time>2022-11-20T07:37:15Z</time>
      </trkpt>
      <trkpt lat="45.95837" lon="1.40086">
        <ele>382.4</ele>
        <time>2022-11-20T07:37:16Z</time>
      </trkpt>
      <trkpt lat="45.95836" lon="1.40089">
        <ele>382.4</ele>
        <time>2022-11-20T07:37:17Z</time>
      </trkpt>
      <trkpt lat="45.95836" lon="1.40093">
        <ele>382.6</ele>
        <time>2022-11-20T07:37:18Z</time>
      </trkpt>
      <trkpt lat="45.95835" lon="1.40124">
        <ele>382.6</ele>
        <time>2022-11-20T07:37:23Z</time>
      </trkpt>
      <trkpt lat="45.95837" lon="1.4017">
        <ele>381</ele>
        <time>2022-11-20T07:37:29Z</time>
      </trkpt>
      <trkpt lat="45.95838" lon="1.40179">
        <ele>380.8</ele>
        <time>2022-11-20T07:37:30Z</time>
      </trkpt>
      <trkpt lat="45.95839" lon="1.40196">
        <ele>379.8</ele>
        <time>2022-11-20T07:37:32Z</time>
      </trkpt>
      <trkpt lat="45.9584" lon="1.40212">
        <ele>378.8</ele>
        <time>2022-11-20T07:37:34Z</time>
      </trkpt>
      <trkpt lat="45.9584" lon="1.40223">
        <ele>377.6</ele>
        <time>2022-11-20T07:37:36Z</time>
      </trkpt>
      <trkpt lat="45.95837" lon="1.40227">
        <ele>377</ele>
        <time>2022-11-20T07:37:37Z</time>
      </trkpt>
      <trkpt lat="45.95829" lon="1.40229">
        <ele>376.6</ele>
        <time>2022-11-20T07:37:39Z</time>
      </trkpt>
      <trkpt lat="45.95825" lon="1.40229">
        <ele>376.4</ele>
        <time>2022-11-20T07:37:40Z</time>
      </trkpt>
      <trkpt lat="45.95803" lon="1.40221">
        <ele>376.8</ele>
        <time>2022-11-20T07:37:45Z</time>
      </trkpt>
      <trkpt lat="45.95775" lon="1.40212">
        <ele>376.6</ele>
        <time>2022-11-20T07:37:52Z</time>
      </trkpt>
      <trkpt lat="45.9577" lon="1.40211">
        <ele>376.4</ele>
        <time>2022-11-20T07:37:54Z</time>
      </trkpt>
      <trkpt lat="45.95768" lon="1.40214">
        <ele>376.4</ele>
        <time>2022-11-20T07:37:55Z</time>
      </trkpt>
      <trkpt lat="45.95763" lon="1.40236">
        <ele>376</ele>
        <time>2022-11-20T07:37:59Z</time>
      </trkpt>
      <trkpt lat="45.95761" lon="1.40242">
        <ele>375.6</ele>
        <time>2022-11-20T07:38:00Z</time>
      </trkpt>
      <trkpt lat="45.95756" lon="1.40247">
        <ele>375.2</ele>
        <time>2022-11-20T07:38:01Z</time>
      </trkpt>
      <trkpt lat="45.95751" lon="1.40253">
        <ele>375</ele>
        <time>2022-11-20T07:38:02Z</time>
      </trkpt>
      <trkpt lat="45.95746" lon="1.40257">
        <ele>374.8</ele>
        <time>2022-11-20T07:38:03Z</time>
      </trkpt>
      <trkpt lat="45.95728" lon="1.40273">
        <ele>374.2</ele>
        <time>2022-11-20T07:38:06Z</time>
      </trkpt>
      <trkpt lat="45.9571" lon="1.4029">
        <ele>373.6</ele>
        <time>2022-11-20T07:38:09Z</time>
      </trkpt>
      <trkpt lat="45.95694" lon="1.40306">
        <ele>373</ele>
        <time>2022-11-20T07:38:12Z</time>
      </trkpt>
      <trkpt lat="45.95677" lon="1.40325">
        <ele>372.6</ele>
        <time>2022-11-20T07:38:15Z</time>
      </trkpt>
      <trkpt lat="45.95669" lon="1.40341">
        <ele>371.6</ele>
        <time>2022-11-20T07:38:17Z</time>
      </trkpt>
      <trkpt lat="45.95664" lon="1.40356">
        <ele>370.4</ele>
        <time>2022-11-20T07:38:19Z</time>
      </trkpt>
      <trkpt lat="45.95659" lon="1.4037">
        <ele>368.8</ele>
        <time>2022-11-20T07:38:22Z</time>
      </trkpt>
      <trkpt lat="45.95658" lon="1.40372">
        <ele>368.4</ele>
        <time>2022-11-20T07:38:23Z</time>
      </trkpt>
      <trkpt lat="45.95655" lon="1.40379">
        <ele>367.6</ele>
        <time>2022-11-20T07:38:26Z</time>
      </trkpt>
      <trkpt lat="45.95651" lon="1.40383">
        <ele>367.4</ele>
        <time>2022-11-20T07:38:28Z</time>
      </trkpt>
      <trkpt lat="45.95632" lon="1.40401">
        <ele>366.8</ele>
        <time>2022-11-20T07:38:35Z</time>
      </trkpt>
      <trkpt lat="45.95623" lon="1.404">
        <ele>366.8</ele>
        <time>2022-11-20T07:38:37Z</time>
      </trkpt>
      <trkpt lat="45.95613" lon="1.40395">
        <ele>366.6</ele>
        <time>2022-11-20T07:38:39Z</time>
      </trkpt>
      <trkpt lat="45.95608" lon="1.40392">
        <ele>366.6</ele>
        <time>2022-11-20T07:38:40Z</time>
      </trkpt>
      <trkpt lat="45.95594" lon="1.40387">
        <ele>366.6</ele>
        <time>2022-11-20T07:38:43Z</time>
      </trkpt>
      <trkpt lat="45.95579" lon="1.40386">
        <ele>366.8</ele>
        <time>2022-11-20T07:38:46Z</time>
      </trkpt>
      <trkpt lat="45.95575" lon="1.40387">
        <ele>366.8</ele>
        <time>2022-11-20T07:38:47Z</time>
      </trkpt>
      <trkpt lat="45.95566" lon="1.40389">
        <ele>366.8</ele>
        <time>2022-11-20T07:38:49Z</time>
      </trkpt>
      <trkpt lat="45.95558" lon="1.40392">
        <ele>367</ele>
        <time>2022-11-20T07:38:51Z</time>
      </trkpt>
      <trkpt lat="45.95546" lon="1.40388">
        <ele>367.4</ele>
        <time>2022-11-20T07:38:55Z</time>
      </trkpt>
      <trkpt lat="45.95543" lon="1.40381">
        <ele>367.8</ele>
        <time>2022-11-20T07:38:57Z</time>
      </trkpt>
      <trkpt lat="45.95541" lon="1.40368">
        <ele>368.4</ele>
        <time>2022-11-20T07:39:00Z</time>
      </trkpt>
      <trkpt lat="45.9554" lon="1.40358">
        <ele>368.8</ele>
        <time>2022-11-20T07:39:02Z</time>
      </trkpt>
      <trkpt lat="45.95534" lon="1.40332">
        <ele>369.6</ele>
        <time>2022-11-20T07:39:07Z</time>
      </trkpt>
      <trkpt lat="45.95532" lon="1.4032">
        <ele>369.8</ele>
        <time>2022-11-20T07:39:12Z</time>
      </trkpt>
      <trkpt lat="45.9553" lon="1.40317">
        <ele>369.8</ele>
        <time>2022-11-20T07:39:15Z</time>
      </trkpt>
      <trkpt lat="45.95527" lon="1.40314">
        <ele>369.8</ele>
        <time>2022-11-20T07:39:17Z</time>
      </trkpt>
      <trkpt lat="45.95525" lon="1.40313">
        <ele>369.8</ele>
        <time>2022-11-20T07:39:18Z</time>
      </trkpt>
      <trkpt lat="45.95511" lon="1.40316">
        <ele>370.4</ele>
        <time>2022-11-20T07:39:23Z</time>
      </trkpt>
      <trkpt lat="45.95505" lon="1.4032">
        <ele>370.8</ele>
        <time>2022-11-20T07:39:25Z</time>
      </trkpt>
      <trkpt lat="45.95501" lon="1.40322">
        <ele>370.8</ele>
        <time>2022-11-20T07:39:26Z</time>
      </trkpt>
      <trkpt lat="45.95484" lon="1.4033">
        <ele>372</ele>
        <time>2022-11-20T07:39:31Z</time>
      </trkpt>
      <trkpt lat="45.9548" lon="1.40332">
        <ele>372.2</ele>
        <time>2022-11-20T07:39:32Z</time>
      </trkpt>
      <trkpt lat="45.95469" lon="1.40335">
        <ele>373</ele>
        <time>2022-11-20T07:39:35Z</time>
      </trkpt>
      <trkpt lat="45.95456" lon="1.40336">
        <ele>374</ele>
        <time>2022-11-20T07:39:39Z</time>
      </trkpt>
      <trkpt lat="45.95452" lon="1.40337">
        <ele>374.2</ele>
        <time>2022-11-20T07:39:40Z</time>
      </trkpt>
      <trkpt lat="45.95433" lon="1.4034">
        <ele>375.4</ele>
        <time>2022-11-20T07:39:45Z</time>
      </trkpt>
      <trkpt lat="45.95419" lon="1.40343">
        <ele>376.2</ele>
        <time>2022-11-20T07:39:49Z</time>
      </trkpt>
      <trkpt lat="45.95411" lon="1.40345">
        <ele>376.6</ele>
        <time>2022-11-20T07:39:51Z</time>
      </trkpt>
      <trkpt lat="45.95394" lon="1.40347">
        <ele>377.6</ele>
        <time>2022-11-20T07:39:56Z</time>
      </trkpt>
      <trkpt lat="45.95391" lon="1.40347">
        <ele>377.8</ele>
        <time>2022-11-20T07:39:57Z</time>
      </trkpt>
      <trkpt lat="45.95373" lon="1.40354">
        <ele>378.6</ele>
        <time>2022-11-20T07:40:02Z</time>
      </trkpt>
      <trkpt lat="45.95369" lon="1.40356">
        <ele>378.8</ele>
        <time>2022-11-20T07:40:03Z</time>
      </trkpt>
      <trkpt lat="45.95357" lon="1.40364">
        <ele>379.8</ele>
        <time>2022-11-20T07:40:07Z</time>
      </trkpt>
      <trkpt lat="45.95352" lon="1.40369">
        <ele>380.4</ele>
        <time>2022-11-20T07:40:09Z</time>
      </trkpt>
      <trkpt lat="45.95343" lon="1.40377">
        <ele>380.8</ele>
        <time>2022-11-20T07:40:12Z</time>
      </trkpt>
      <trkpt lat="45.9532" lon="1.40397">
        <ele>382</ele>
        <time>2022-11-20T07:40:19Z</time>
      </trkpt>
      <trkpt lat="45.95307" lon="1.40413">
        <ele>383</ele>
        <time>2022-11-20T07:40:24Z</time>
      </trkpt>
      <trkpt lat="45.95303" lon="1.40419">
        <ele>383.4</ele>
        <time>2022-11-20T07:40:26Z</time>
      </trkpt>
      <trkpt lat="45.95297" lon="1.40432">
        <ele>384</ele>
        <time>2022-11-20T07:40:29Z</time>
      </trkpt>
      <trkpt lat="45.95295" lon="1.40436">
        <ele>384.2</ele>
        <time>2022-11-20T07:40:30Z</time>
      </trkpt>
      <trkpt lat="45.95289" lon="1.4045">
        <ele>384.8</ele>
        <time>2022-11-20T07:40:33Z</time>
      </trkpt>
      <trkpt lat="45.95279" lon="1.40481">
        <ele>385.2</ele>
        <time>2022-11-20T07:40:39Z</time>
      </trkpt>
      <trkpt lat="45.95277" lon="1.40487">
        <ele>385.2</ele>
        <time>2022-11-20T07:40:40Z</time>
      </trkpt>
      <trkpt lat="45.95276" lon="1.40493">
        <ele>385.2</ele>
        <time>2022-11-20T07:40:41Z</time>
      </trkpt>
      <trkpt lat="45.95274" lon="1.40531">
        <ele>385.4</ele>
        <time>2022-11-20T07:40:47Z</time>
      </trkpt>
      <trkpt lat="45.95273" lon="1.40538">
        <ele>385.4</ele>
        <time>2022-11-20T07:40:48Z</time>
      </trkpt>
      <trkpt lat="45.95272" lon="1.40545">
        <ele>385.4</ele>
        <time>2022-11-20T07:40:49Z</time>
      </trkpt>
      <trkpt lat="45.95263" lon="1.4057">
        <ele>385.6</ele>
        <time>2022-11-20T07:40:53Z</time>
      </trkpt>
      <trkpt lat="45.95261" lon="1.40575">
        <ele>385.6</ele>
        <time>2022-11-20T07:40:54Z</time>
      </trkpt>
      <trkpt lat="45.95245" lon="1.406">
        <ele>385.4</ele>
        <time>2022-11-20T07:40:59Z</time>
      </trkpt>
      <trkpt lat="45.95242" lon="1.40614">
        <ele>384.8</ele>
        <time>2022-11-20T07:41:01Z</time>
      </trkpt>
      <trkpt lat="45.95241" lon="1.40622">
        <ele>384.8</ele>
        <time>2022-11-20T07:41:02Z</time>
      </trkpt>
      <trkpt lat="45.95242" lon="1.4063">
        <ele>384.6</ele>
        <time>2022-11-20T07:41:03Z</time>
      </trkpt>
      <trkpt lat="45.95246" lon="1.40645">
        <ele>384.6</ele>
        <time>2022-11-20T07:41:05Z</time>
      </trkpt>
      <trkpt lat="45.95248" lon="1.40652">
        <ele>384.8</ele>
        <time>2022-11-20T07:41:06Z</time>
      </trkpt>
      <trkpt lat="45.95259" lon="1.40676">
        <ele>386.2</ele>
        <time>2022-11-20T07:41:10Z</time>
      </trkpt>
      <trkpt lat="45.95262" lon="1.40682">
        <ele>386.4</ele>
        <time>2022-11-20T07:41:11Z</time>
      </trkpt>
      <trkpt lat="45.95268" lon="1.40693">
        <ele>386.8</ele>
        <time>2022-11-20T07:41:13Z</time>
      </trkpt>
      <trkpt lat="45.95274" lon="1.40705">
        <ele>387</ele>
        <time>2022-11-20T07:41:15Z</time>
      </trkpt>
      <trkpt lat="45.95285" lon="1.40722">
        <ele>387</ele>
        <time>2022-11-20T07:41:18Z</time>
      </trkpt>
      <trkpt lat="45.95291" lon="1.40733">
        <ele>386.8</ele>
        <time>2022-11-20T07:41:20Z</time>
      </trkpt>
      <trkpt lat="45.95306" lon="1.40755">
        <ele>386</ele>
        <time>2022-11-20T07:41:24Z</time>
      </trkpt>
      <trkpt lat="45.95318" lon="1.40793">
        <ele>385.8</ele>
        <time>2022-11-20T07:41:30Z</time>
      </trkpt>
      <trkpt lat="45.9533" lon="1.40834">
        <ele>385.8</ele>
        <time>2022-11-20T07:41:36Z</time>
      </trkpt>
      <trkpt lat="45.95344" lon="1.4087">
        <ele>386.8</ele>
        <time>2022-11-20T07:41:43Z</time>
      </trkpt>
      <trkpt lat="45.95353" lon="1.40886">
        <ele>387.6</ele>
        <time>2022-11-20T07:41:47Z</time>
      </trkpt>
      <trkpt lat="45.95358" lon="1.409">
        <ele>388.6</ele>
        <time>2022-11-20T07:41:50Z</time>
      </trkpt>
      <trkpt lat="45.9536" lon="1.40904">
        <ele>389</ele>
        <time>2022-11-20T07:41:51Z</time>
      </trkpt>
      <trkpt lat="45.95368" lon="1.4092">
        <ele>390.2</ele>
        <time>2022-11-20T07:41:55Z</time>
      </trkpt>
      <trkpt lat="45.95371" lon="1.40924">
        <ele>390.4</ele>
        <time>2022-11-20T07:41:56Z</time>
      </trkpt>
      <trkpt lat="45.95373" lon="1.40927">
        <ele>390.4</ele>
        <time>2022-11-20T07:41:57Z</time>
      </trkpt>
      <trkpt lat="45.95379" lon="1.40939">
        <ele>391.2</ele>
        <time>2022-11-20T07:42:00Z</time>
      </trkpt>
      <trkpt lat="45.9539" lon="1.40956">
        <ele>392.2</ele>
        <time>2022-11-20T07:42:04Z</time>
      </trkpt>
      <trkpt lat="45.95393" lon="1.4096">
        <ele>392.4</ele>
        <time>2022-11-20T07:42:05Z</time>
      </trkpt>
      <trkpt lat="45.95405" lon="1.40982">
        <ele>393.6</ele>
        <time>2022-11-20T07:42:10Z</time>
      </trkpt>
      <trkpt lat="45.95408" lon="1.40989">
        <ele>394.2</ele>
        <time>2022-11-20T07:42:12Z</time>
      </trkpt>
      <trkpt lat="45.95412" lon="1.40997">
        <ele>394.8</ele>
        <time>2022-11-20T07:42:14Z</time>
      </trkpt>
      <trkpt lat="45.9542" lon="1.41011">
        <ele>395.8</ele>
        <time>2022-11-20T07:42:18Z</time>
      </trkpt>
      <trkpt lat="45.95423" lon="1.41017">
        <ele>396.6</ele>
        <time>2022-11-20T07:42:20Z</time>
      </trkpt>
      <trkpt lat="45.95427" lon="1.41022">
        <ele>397.2</ele>
        <time>2022-11-20T07:42:22Z</time>
      </trkpt>
      <trkpt lat="45.95432" lon="1.4103">
        <ele>398.2</ele>
        <time>2022-11-20T07:42:25Z</time>
      </trkpt>
      <trkpt lat="45.95436" lon="1.41036">
        <ele>398.8</ele>
        <time>2022-11-20T07:42:27Z</time>
      </trkpt>
      <trkpt lat="45.95439" lon="1.41043">
        <ele>399.4</ele>
        <time>2022-11-20T07:42:29Z</time>
      </trkpt>
      <trkpt lat="45.95443" lon="1.41052">
        <ele>400.8</ele>
        <time>2022-11-20T07:42:32Z</time>
      </trkpt>
      <trkpt lat="45.95446" lon="1.41061">
        <ele>401.6</ele>
        <time>2022-11-20T07:42:35Z</time>
      </trkpt>
      <trkpt lat="45.95447" lon="1.41067">
        <ele>402.2</ele>
        <time>2022-11-20T07:42:37Z</time>
      </trkpt>
      <trkpt lat="45.95445" lon="1.41085">
        <ele>403</ele>
        <time>2022-11-20T07:42:42Z</time>
      </trkpt>
      <trkpt lat="45.95444" lon="1.41088">
        <ele>403.2</ele>
        <time>2022-11-20T07:42:43Z</time>
      </trkpt>
      <trkpt lat="45.95439" lon="1.41107">
        <ele>404.2</ele>
        <time>2022-11-20T07:42:49Z</time>
      </trkpt>
      <trkpt lat="45.95438" lon="1.4111">
        <ele>404.4</ele>
        <time>2022-11-20T07:42:50Z</time>
      </trkpt>
      <trkpt lat="45.95447" lon="1.41133">
        <ele>404.8</ele>
        <time>2022-11-20T07:42:56Z</time>
      </trkpt>
      <trkpt lat="45.95449" lon="1.41143">
        <ele>405.2</ele>
        <time>2022-11-20T07:42:59Z</time>
      </trkpt>
      <trkpt lat="45.95452" lon="1.41154">
        <ele>405.8</ele>
        <time>2022-11-20T07:43:02Z</time>
      </trkpt>
      <trkpt lat="45.95451" lon="1.41162">
        <ele>406.4</ele>
        <time>2022-11-20T07:43:04Z</time>
      </trkpt>
      <trkpt lat="45.95451" lon="1.41177">
        <ele>407.4</ele>
        <time>2022-11-20T07:43:08Z</time>
      </trkpt>
      <trkpt lat="45.95451" lon="1.41182">
        <ele>407.6</ele>
        <time>2022-11-20T07:43:09Z</time>
      </trkpt>
      <trkpt lat="45.9545" lon="1.41208">
        <ele>408.4</ele>
        <time>2022-11-20T07:43:15Z</time>
      </trkpt>
      <trkpt lat="45.95449" lon="1.4122">
        <ele>408.8</ele>
        <time>2022-11-20T07:43:18Z</time>
      </trkpt>
      <trkpt lat="45.95448" lon="1.41236">
        <ele>409.4</ele>
        <time>2022-11-20T07:43:22Z</time>
      </trkpt>
      <trkpt lat="45.95446" lon="1.4125">
        <ele>409.6</ele>
        <time>2022-11-20T07:43:25Z</time>
      </trkpt>
      <trkpt lat="45.95445" lon="1.41255">
        <ele>409.6</ele>
        <time>2022-11-20T07:43:26Z</time>
      </trkpt>
      <trkpt lat="45.95445" lon="1.41269">
        <ele>409.4</ele>
        <time>2022-11-20T07:43:29Z</time>
      </trkpt>
      <trkpt lat="45.95443" lon="1.41279">
        <ele>409.2</ele>
        <time>2022-11-20T07:43:31Z</time>
      </trkpt>
      <trkpt lat="45.95442" lon="1.41285">
        <ele>409</ele>
        <time>2022-11-20T07:43:32Z</time>
      </trkpt>
      <trkpt lat="45.9544" lon="1.41298">
        <ele>408.6</ele>
        <time>2022-11-20T07:43:34Z</time>
      </trkpt>
      <trkpt lat="45.9544" lon="1.41309">
        <ele>408.4</ele>
        <time>2022-11-20T07:43:36Z</time>
      </trkpt>
      <trkpt lat="45.9544" lon="1.41314">
        <ele>408.4</ele>
        <time>2022-11-20T07:43:37Z</time>
      </trkpt>
      <trkpt lat="45.95439" lon="1.41325">
        <ele>408.6</ele>
        <time>2022-11-20T07:43:39Z</time>
      </trkpt>
      <trkpt lat="45.95437" lon="1.41356">
        <ele>406.8</ele>
        <time>2022-11-20T07:43:44Z</time>
      </trkpt>
      <trkpt lat="45.95432" lon="1.41379">
        <ele>405.6</ele>
        <time>2022-11-20T07:43:46Z</time>
      </trkpt>
      <trkpt lat="45.95429" lon="1.41407">
        <ele>404.4</ele>
        <time>2022-11-20T07:43:48Z</time>
      </trkpt>
      <trkpt lat="45.95423" lon="1.4145">
        <ele>403</ele>
        <time>2022-11-20T07:43:51Z</time>
      </trkpt>
      <trkpt lat="45.95422" lon="1.41471">
        <ele>402</ele>
        <time>2022-11-20T07:43:53Z</time>
      </trkpt>
      <trkpt lat="45.95422" lon="1.41483">
        <ele>401.2</ele>
        <time>2022-11-20T07:43:54Z</time>
      </trkpt>
      <trkpt lat="45.9542" lon="1.41493">
        <ele>400.8</ele>
        <time>2022-11-20T07:43:55Z</time>
      </trkpt>
      <trkpt lat="45.95417" lon="1.41516">
        <ele>399.6</ele>
        <time>2022-11-20T07:43:58Z</time>
      </trkpt>
      <trkpt lat="45.95416" lon="1.41532">
        <ele>398.6</ele>
        <time>2022-11-20T07:44:00Z</time>
      </trkpt>
      <trkpt lat="45.95413" lon="1.41551">
        <ele>397.4</ele>
        <time>2022-11-20T07:44:02Z</time>
      </trkpt>
      <trkpt lat="45.95407" lon="1.4159">
        <ele>396.8</ele>
        <time>2022-11-20T07:44:06Z</time>
      </trkpt>
      <trkpt lat="45.95387" lon="1.41641">
        <ele>397</ele>
        <time>2022-11-20T07:44:12Z</time>
      </trkpt>
      <trkpt lat="45.95372" lon="1.41675">
        <ele>396.8</ele>
        <time>2022-11-20T07:44:18Z</time>
      </trkpt>
      <trkpt lat="45.95371" lon="1.41687">
        <ele>396.8</ele>
        <time>2022-11-20T07:44:21Z</time>
      </trkpt>
      <trkpt lat="45.95371" lon="1.41694">
        <ele>397.2</ele>
        <time>2022-11-20T07:44:23Z</time>
      </trkpt>
      <trkpt lat="45.95371" lon="1.41706">
        <ele>397.2</ele>
        <time>2022-11-20T07:44:26Z</time>
      </trkpt>
      <trkpt lat="45.95371" lon="1.4172">
        <ele>398</ele>
        <time>2022-11-20T07:44:30Z</time>
      </trkpt>
      <trkpt lat="45.95371" lon="1.41726">
        <ele>398.2</ele>
        <time>2022-11-20T07:44:31Z</time>
      </trkpt>
      <trkpt lat="45.95369" lon="1.41745">
        <ele>398.4</ele>
        <time>2022-11-20T07:44:34Z</time>
      </trkpt>
      <trkpt lat="45.95368" lon="1.4175">
        <ele>398.6</ele>
        <time>2022-11-20T07:44:35Z</time>
      </trkpt>
      <trkpt lat="45.95368" lon="1.41756">
        <ele>398.8</ele>
        <time>2022-11-20T07:44:36Z</time>
      </trkpt>
      <trkpt lat="45.95367" lon="1.41776">
        <ele>399.2</ele>
        <time>2022-11-20T07:44:39Z</time>
      </trkpt>
      <trkpt lat="45.95367" lon="1.41784">
        <ele>399.2</ele>
        <time>2022-11-20T07:44:40Z</time>
      </trkpt>
      <trkpt lat="45.95365" lon="1.41798">
        <ele>399.8</ele>
        <time>2022-11-20T07:44:42Z</time>
      </trkpt>
      <trkpt lat="45.95359" lon="1.41843">
        <ele>400.6</ele>
        <time>2022-11-20T07:44:48Z</time>
      </trkpt>
      <trkpt lat="45.95358" lon="1.41856">
        <ele>400.8</ele>
        <time>2022-11-20T07:44:50Z</time>
      </trkpt>
      <trkpt lat="45.95357" lon="1.41869">
        <ele>401</ele>
        <time>2022-11-20T07:44:52Z</time>
      </trkpt>
      <trkpt lat="45.95357" lon="1.41879">
        <ele>401.4</ele>
        <time>2022-11-20T07:44:54Z</time>
      </trkpt>
      <trkpt lat="45.95359" lon="1.41898">
        <ele>401.8</ele>
        <time>2022-11-20T07:44:57Z</time>
      </trkpt>
      <trkpt lat="45.9536" lon="1.41912">
        <ele>402.2</ele>
        <time>2022-11-20T07:44:59Z</time>
      </trkpt>
      <trkpt lat="45.9536" lon="1.41918">
        <ele>402.4</ele>
        <time>2022-11-20T07:45:00Z</time>
      </trkpt>
      <trkpt lat="45.95361" lon="1.41944">
        <ele>403</ele>
        <time>2022-11-20T07:45:04Z</time>
      </trkpt>
      <trkpt lat="45.95363" lon="1.41965">
        <ele>403</ele>
        <time>2022-11-20T07:45:07Z</time>
      </trkpt>
      <trkpt lat="45.95366" lon="1.41985">
        <ele>402.8</ele>
        <time>2022-11-20T07:45:10Z</time>
      </trkpt>
      <trkpt lat="45.95369" lon="1.42006">
        <ele>402.2</ele>
        <time>2022-11-20T07:45:13Z</time>
      </trkpt>
      <trkpt lat="45.9537" lon="1.42018">
        <ele>401.8</ele>
        <time>2022-11-20T07:45:15Z</time>
      </trkpt>
      <trkpt lat="45.95372" lon="1.42033">
        <ele>401.4</ele>
        <time>2022-11-20T07:45:18Z</time>
      </trkpt>
      <trkpt lat="45.95374" lon="1.42047">
        <ele>401.4</ele>
        <time>2022-11-20T07:45:21Z</time>
      </trkpt>
      <trkpt lat="45.95376" lon="1.42055">
        <ele>401</ele>
        <time>2022-11-20T07:45:23Z</time>
      </trkpt>
      <trkpt lat="45.95378" lon="1.42061">
        <ele>400.8</ele>
        <time>2022-11-20T07:45:25Z</time>
      </trkpt>
      <trkpt lat="45.95382" lon="1.42079">
        <ele>400.8</ele>
        <time>2022-11-20T07:45:29Z</time>
      </trkpt>
      <trkpt lat="45.95391" lon="1.42111">
        <ele>401.2</ele>
        <time>2022-11-20T07:45:36Z</time>
      </trkpt>
      <trkpt lat="45.95395" lon="1.42118">
        <ele>401.2</ele>
        <time>2022-11-20T07:45:37Z</time>
      </trkpt>
      <trkpt lat="45.95399" lon="1.42133">
        <ele>401.4</ele>
        <time>2022-11-20T07:45:40Z</time>
      </trkpt>
      <trkpt lat="45.95403" lon="1.42144">
        <ele>402.2</ele>
        <time>2022-11-20T07:45:42Z</time>
      </trkpt>
      <trkpt lat="45.95407" lon="1.42154">
        <ele>402.4</ele>
        <time>2022-11-20T07:45:43Z</time>
      </trkpt>
      <trkpt lat="45.95414" lon="1.4217">
        <ele>402.8</ele>
        <time>2022-11-20T07:45:45Z</time>
      </trkpt>
      <trkpt lat="45.95417" lon="1.42179">
        <ele>403</ele>
        <time>2022-11-20T07:45:47Z</time>
      </trkpt>
      <trkpt lat="45.95419" lon="1.42183">
        <ele>403.2</ele>
        <time>2022-11-20T07:45:48Z</time>
      </trkpt>
      <trkpt lat="45.95423" lon="1.42198">
        <ele>403.4</ele>
        <time>2022-11-20T07:45:50Z</time>
      </trkpt>
      <trkpt lat="45.95425" lon="1.42204">
        <ele>403.6</ele>
        <time>2022-11-20T07:45:51Z</time>
      </trkpt>
      <trkpt lat="45.95427" lon="1.42211">
        <ele>403.6</ele>
        <time>2022-11-20T07:45:52Z</time>
      </trkpt>
      <trkpt lat="45.95432" lon="1.42231">
        <ele>403.4</ele>
        <time>2022-11-20T07:45:55Z</time>
      </trkpt>
      <trkpt lat="45.95432" lon="1.42246">
        <ele>402.8</ele>
        <time>2022-11-20T07:45:57Z</time>
      </trkpt>
      <trkpt lat="45.95432" lon="1.42263">
        <ele>402.4</ele>
        <time>2022-11-20T07:45:59Z</time>
      </trkpt>
      <trkpt lat="45.95431" lon="1.42297">
        <ele>401.6</ele>
        <time>2022-11-20T07:46:03Z</time>
      </trkpt>
      <trkpt lat="45.95424" lon="1.42349">
        <ele>401.6</ele>
        <time>2022-11-20T07:46:08Z</time>
      </trkpt>
      <trkpt lat="45.95424" lon="1.42367">
        <ele>401.6</ele>
        <time>2022-11-20T07:46:10Z</time>
      </trkpt>
      <trkpt lat="45.95428" lon="1.42385">
        <ele>401.8</ele>
        <time>2022-11-20T07:46:12Z</time>
      </trkpt>
      <trkpt lat="45.9543" lon="1.42394">
        <ele>401.6</ele>
        <time>2022-11-20T07:46:13Z</time>
      </trkpt>
      <trkpt lat="45.95433" lon="1.42402">
        <ele>401.6</ele>
        <time>2022-11-20T07:46:14Z</time>
      </trkpt>
      <trkpt lat="45.95446" lon="1.42433">
        <ele>402</ele>
        <time>2022-11-20T07:46:18Z</time>
      </trkpt>
      <trkpt lat="45.95457" lon="1.42459">
        <ele>402.4</ele>
        <time>2022-11-20T07:46:22Z</time>
      </trkpt>
      <trkpt lat="45.95459" lon="1.42465">
        <ele>402.4</ele>
        <time>2022-11-20T07:46:23Z</time>
      </trkpt>
      <trkpt lat="45.95461" lon="1.4247">
        <ele>402.4</ele>
        <time>2022-11-20T07:46:24Z</time>
      </trkpt>
      <trkpt lat="45.95458" lon="1.42479">
        <ele>402.8</ele>
        <time>2022-11-20T07:46:26Z</time>
      </trkpt>
      <trkpt lat="45.95441" lon="1.42494">
        <ele>403.8</ele>
        <time>2022-11-20T07:46:31Z</time>
      </trkpt>
      <trkpt lat="45.95438" lon="1.42496">
        <ele>403.8</ele>
        <time>2022-11-20T07:46:32Z</time>
      </trkpt>
      <trkpt lat="45.95407" lon="1.42511">
        <ele>404.6</ele>
        <time>2022-11-20T07:46:40Z</time>
      </trkpt>
      <trkpt lat="45.95391" lon="1.42513">
        <ele>404.6</ele>
        <time>2022-11-20T07:46:43Z</time>
      </trkpt>
      <trkpt lat="45.95381" lon="1.4251">
        <ele>404.4</ele>
        <time>2022-11-20T07:46:45Z</time>
      </trkpt>
      <trkpt lat="45.95362" lon="1.42498">
        <ele>403.6</ele>
        <time>2022-11-20T07:46:49Z</time>
      </trkpt>
      <trkpt lat="45.95357" lon="1.42496">
        <ele>403.4</ele>
        <time>2022-11-20T07:46:50Z</time>
      </trkpt>
      <trkpt lat="45.95352" lon="1.42496">
        <ele>403.4</ele>
        <time>2022-11-20T07:46:51Z</time>
      </trkpt>
      <trkpt lat="45.95336" lon="1.42498">
        <ele>403.2</ele>
        <time>2022-11-20T07:46:54Z</time>
      </trkpt>
      <trkpt lat="45.953" lon="1.42505">
        <ele>403.8</ele>
        <time>2022-11-20T07:47:01Z</time>
      </trkpt>
      <trkpt lat="45.95273" lon="1.42512">
        <ele>404.4</ele>
        <time>2022-11-20T07:47:07Z</time>
      </trkpt>
      <trkpt lat="45.95245" lon="1.42519">
        <ele>404.6</ele>
        <time>2022-11-20T07:47:13Z</time>
      </trkpt>
      <trkpt lat="45.9524" lon="1.42522">
        <ele>404.6</ele>
        <time>2022-11-20T07:47:14Z</time>
      </trkpt>
      <trkpt lat="45.95232" lon="1.42531">
        <ele>404.8</ele>
        <time>2022-11-20T07:47:16Z</time>
      </trkpt>
      <trkpt lat="45.95228" lon="1.42543">
        <ele>404.8</ele>
        <time>2022-11-20T07:47:18Z</time>
      </trkpt>
      <trkpt lat="45.95226" lon="1.42555">
        <ele>404.8</ele>
        <time>2022-11-20T07:47:20Z</time>
      </trkpt>
      <trkpt lat="45.95226" lon="1.4256">
        <ele>404.8</ele>
        <time>2022-11-20T07:47:21Z</time>
      </trkpt>
      <trkpt lat="45.95227" lon="1.42569">
        <ele>405</ele>
        <time>2022-11-20T07:47:23Z</time>
      </trkpt>
      <trkpt lat="45.95227" lon="1.42575">
        <ele>405.2</ele>
        <time>2022-11-20T07:47:24Z</time>
      </trkpt>
      <trkpt lat="45.95226" lon="1.42585">
        <ele>405.6</ele>
        <time>2022-11-20T07:47:26Z</time>
      </trkpt>
      <trkpt lat="45.9522" lon="1.42606">
        <ele>405.6</ele>
        <time>2022-11-20T07:47:29Z</time>
      </trkpt>
      <trkpt lat="45.95216" lon="1.4262">
        <ele>405.8</ele>
        <time>2022-11-20T07:47:31Z</time>
      </trkpt>
      <trkpt lat="45.95212" lon="1.42639">
        <ele>405.8</ele>
        <time>2022-11-20T07:47:34Z</time>
      </trkpt>
      <trkpt lat="45.95211" lon="1.42646">
        <ele>405.8</ele>
        <time>2022-11-20T07:47:35Z</time>
      </trkpt>
      <trkpt lat="45.9521" lon="1.42654">
        <ele>405.8</ele>
        <time>2022-11-20T07:47:36Z</time>
      </trkpt>
      <trkpt lat="45.95202" lon="1.42692">
        <ele>406.2</ele>
        <time>2022-11-20T07:47:41Z</time>
      </trkpt>
      <trkpt lat="45.95195" lon="1.42717">
        <ele>406.8</ele>
        <time>2022-11-20T07:47:45Z</time>
      </trkpt>
      <trkpt lat="45.95189" lon="1.42743">
        <ele>407</ele>
        <time>2022-11-20T07:47:49Z</time>
      </trkpt>
      <trkpt lat="45.95175" lon="1.42793">
        <ele>407.8</ele>
        <time>2022-11-20T07:47:57Z</time>
      </trkpt>
      <trkpt lat="45.95173" lon="1.42798">
        <ele>408</ele>
        <time>2022-11-20T07:47:58Z</time>
      </trkpt>
      <trkpt lat="45.95164" lon="1.42837">
        <ele>409</ele>
        <time>2022-11-20T07:48:05Z</time>
      </trkpt>
      <trkpt lat="45.95152" lon="1.42882">
        <ele>410</ele>
        <time>2022-11-20T07:48:14Z</time>
      </trkpt>
      <trkpt lat="45.95152" lon="1.42887">
        <ele>410</ele>
        <time>2022-11-20T07:48:15Z</time>
      </trkpt>
      <trkpt lat="45.95154" lon="1.42902">
        <ele>410.6</ele>
        <time>2022-11-20T07:48:19Z</time>
      </trkpt>
      <trkpt lat="45.95156" lon="1.42904">
        <ele>410.8</ele>
        <time>2022-11-20T07:48:20Z</time>
      </trkpt>
      <trkpt lat="45.95161" lon="1.42907">
        <ele>411.2</ele>
        <time>2022-11-20T07:48:22Z</time>
      </trkpt>
      <trkpt lat="45.95171" lon="1.42911">
        <ele>411.4</ele>
        <time>2022-11-20T07:48:25Z</time>
      </trkpt>
      <trkpt lat="45.95187" lon="1.42915">
        <ele>411.8</ele>
        <time>2022-11-20T07:48:30Z</time>
      </trkpt>
      <trkpt lat="45.95199" lon="1.42928">
        <ele>412.2</ele>
        <time>2022-11-20T07:48:34Z</time>
      </trkpt>
      <trkpt lat="45.95201" lon="1.42949">
        <ele>412.6</ele>
        <time>2022-11-20T07:48:38Z</time>
      </trkpt>
      <trkpt lat="45.95204" lon="1.42963">
        <ele>412.8</ele>
        <time>2022-11-20T07:48:41Z</time>
      </trkpt>
      <trkpt lat="45.95207" lon="1.42973">
        <ele>412.6</ele>
        <time>2022-11-20T07:48:43Z</time>
      </trkpt>
      <trkpt lat="45.95211" lon="1.42982">
        <ele>412.8</ele>
        <time>2022-11-20T07:48:45Z</time>
      </trkpt>
      <trkpt lat="45.95221" lon="1.43">
        <ele>412.8</ele>
        <time>2022-11-20T07:48:49Z</time>
      </trkpt>
      <trkpt lat="45.95229" lon="1.43012">
        <ele>410.6</ele>
        <time>2022-11-20T07:48:52Z</time>
      </trkpt>
      <trkpt lat="45.95234" lon="1.43018">
        <ele>409.4</ele>
        <time>2022-11-20T07:48:54Z</time>
      </trkpt>
      <trkpt lat="45.95238" lon="1.43023">
        <ele>409.2</ele>
        <time>2022-11-20T07:48:55Z</time>
      </trkpt>
      <trkpt lat="45.95245" lon="1.43033">
        <ele>408.2</ele>
        <time>2022-11-20T07:48:57Z</time>
      </trkpt>
      <trkpt lat="45.95251" lon="1.43046">
        <ele>407.2</ele>
        <time>2022-11-20T07:48:59Z</time>
      </trkpt>
      <trkpt lat="45.95256" lon="1.43058">
        <ele>406.2</ele>
        <time>2022-11-20T07:49:01Z</time>
      </trkpt>
      <trkpt lat="45.95257" lon="1.43063">
        <ele>405.4</ele>
        <time>2022-11-20T07:49:02Z</time>
      </trkpt>
      <trkpt lat="45.95261" lon="1.43071">
        <ele>404.6</ele>
        <time>2022-11-20T07:49:03Z</time>
      </trkpt>
      <trkpt lat="45.95261" lon="1.43078">
        <ele>403.4</ele>
        <time>2022-11-20T07:49:04Z</time>
      </trkpt>
      <trkpt lat="45.95266" lon="1.4309">
        <ele>402</ele>
        <time>2022-11-20T07:49:06Z</time>
      </trkpt>
      <trkpt lat="45.9527" lon="1.43095">
        <ele>401.8</ele>
        <time>2022-11-20T07:49:07Z</time>
      </trkpt>
      <trkpt lat="45.95278" lon="1.43103">
        <ele>400.8</ele>
        <time>2022-11-20T07:49:09Z</time>
      </trkpt>
      <trkpt lat="45.95287" lon="1.43108">
        <ele>400.2</ele>
        <time>2022-11-20T07:49:10Z</time>
      </trkpt>
      <trkpt lat="45.95294" lon="1.43112">
        <ele>399.6</ele>
        <time>2022-11-20T07:49:11Z</time>
      </trkpt>
      <trkpt lat="45.95305" lon="1.43122">
        <ele>398.6</ele>
        <time>2022-11-20T07:49:13Z</time>
      </trkpt>
      <trkpt lat="45.9531" lon="1.43129">
        <ele>398.2</ele>
        <time>2022-11-20T07:49:14Z</time>
      </trkpt>
      <trkpt lat="45.95322" lon="1.43147">
        <ele>397.6</ele>
        <time>2022-11-20T07:49:16Z</time>
      </trkpt>
      <trkpt lat="45.95328" lon="1.43156">
        <ele>397</ele>
        <time>2022-11-20T07:49:17Z</time>
      </trkpt>
      <trkpt lat="45.95338" lon="1.43173">
        <ele>396</ele>
        <time>2022-11-20T07:49:19Z</time>
      </trkpt>
      <trkpt lat="45.95355" lon="1.432">
        <ele>395.4</ele>
        <time>2022-11-20T07:49:22Z</time>
      </trkpt>
      <trkpt lat="45.9536" lon="1.43209">
        <ele>395</ele>
        <time>2022-11-20T07:49:23Z</time>
      </trkpt>
      <trkpt lat="45.95365" lon="1.43218">
        <ele>394.8</ele>
        <time>2022-11-20T07:49:24Z</time>
      </trkpt>
      <trkpt lat="45.95381" lon="1.43271">
        <ele>394.2</ele>
        <time>2022-11-20T07:49:29Z</time>
      </trkpt>
      <trkpt lat="45.95388" lon="1.43336">
        <ele>394</ele>
        <time>2022-11-20T07:49:35Z</time>
      </trkpt>
      <trkpt lat="45.95392" lon="1.43356">
        <ele>393.8</ele>
        <time>2022-11-20T07:49:37Z</time>
      </trkpt>
      <trkpt lat="45.954" lon="1.43405">
        <ele>393.8</ele>
        <time>2022-11-20T07:49:42Z</time>
      </trkpt>
      <trkpt lat="45.95409" lon="1.43472">
        <ele>393.2</ele>
        <time>2022-11-20T07:49:49Z</time>
      </trkpt>
      <trkpt lat="45.95412" lon="1.43511">
        <ele>392.8</ele>
        <time>2022-11-20T07:49:53Z</time>
      </trkpt>
      <trkpt lat="45.95417" lon="1.43551">
        <ele>392.6</ele>
        <time>2022-11-20T07:49:57Z</time>
      </trkpt>
      <trkpt lat="45.95427" lon="1.43588">
        <ele>391.4</ele>
        <time>2022-11-20T07:50:01Z</time>
      </trkpt>
      <trkpt lat="45.95433" lon="1.43605">
        <ele>390.8</ele>
        <time>2022-11-20T07:50:03Z</time>
      </trkpt>
      <trkpt lat="45.9544" lon="1.43621">
        <ele>390.4</ele>
        <time>2022-11-20T07:50:05Z</time>
      </trkpt>
      <trkpt lat="45.9546" lon="1.43673">
        <ele>389.2</ele>
        <time>2022-11-20T07:50:11Z</time>
      </trkpt>
      <trkpt lat="45.95462" lon="1.43683">
        <ele>389</ele>
        <time>2022-11-20T07:50:12Z</time>
      </trkpt>
      <trkpt lat="45.95465" lon="1.43713">
        <ele>388.6</ele>
        <time>2022-11-20T07:50:15Z</time>
      </trkpt>
      <trkpt lat="45.95464" lon="1.43723">
        <ele>388.4</ele>
        <time>2022-11-20T07:50:16Z</time>
      </trkpt>
      <trkpt lat="45.95462" lon="1.43771">
        <ele>388.2</ele>
        <time>2022-11-20T07:50:21Z</time>
      </trkpt>
      <trkpt lat="45.95462" lon="1.4378">
        <ele>388</ele>
        <time>2022-11-20T07:50:22Z</time>
      </trkpt>
      <trkpt lat="45.95463" lon="1.43796">
        <ele>386.8</ele>
        <time>2022-11-20T07:50:24Z</time>
      </trkpt>
      <trkpt lat="45.95465" lon="1.43812">
        <ele>385.8</ele>
        <time>2022-11-20T07:50:26Z</time>
      </trkpt>
      <trkpt lat="45.95468" lon="1.4382">
        <ele>385.4</ele>
        <time>2022-11-20T07:50:27Z</time>
      </trkpt>
      <trkpt lat="45.95482" lon="1.43854">
        <ele>384.6</ele>
        <time>2022-11-20T07:50:31Z</time>
      </trkpt>
      <trkpt lat="45.95486" lon="1.43864">
        <ele>384.4</ele>
        <time>2022-11-20T07:50:32Z</time>
      </trkpt>
      <trkpt lat="45.95494" lon="1.43897">
        <ele>383.6</ele>
        <time>2022-11-20T07:50:36Z</time>
      </trkpt>
      <trkpt lat="45.95495" lon="1.43904">
        <ele>383.2</ele>
        <time>2022-11-20T07:50:37Z</time>
      </trkpt>
      <trkpt lat="45.95496" lon="1.43936">
        <ele>383</ele>
        <time>2022-11-20T07:50:41Z</time>
      </trkpt>
      <trkpt lat="45.95501" lon="1.43998">
        <ele>382.8</ele>
        <time>2022-11-20T07:50:48Z</time>
      </trkpt>
      <trkpt lat="45.95509" lon="1.44041">
        <ele>382.6</ele>
        <time>2022-11-20T07:50:53Z</time>
      </trkpt>
      <trkpt lat="45.95512" lon="1.44049">
        <ele>382.4</ele>
        <time>2022-11-20T07:50:54Z</time>
      </trkpt>
      <trkpt lat="45.95517" lon="1.44064">
        <ele>382.4</ele>
        <time>2022-11-20T07:50:56Z</time>
      </trkpt>
      <trkpt lat="45.95524" lon="1.44076">
        <ele>382.4</ele>
        <time>2022-11-20T07:50:58Z</time>
      </trkpt>
      <trkpt lat="45.95526" lon="1.44082">
        <ele>382.4</ele>
        <time>2022-11-20T07:50:59Z</time>
      </trkpt>
      <trkpt lat="45.95551" lon="1.44128">
        <ele>382.2</ele>
        <time>2022-11-20T07:51:07Z</time>
      </trkpt>
      <trkpt lat="45.95557" lon="1.44136">
        <ele>382.2</ele>
        <time>2022-11-20T07:51:09Z</time>
      </trkpt>
      <trkpt lat="45.95565" lon="1.44142">
        <ele>382.4</ele>
        <time>2022-11-20T07:51:11Z</time>
      </trkpt>
      <trkpt lat="45.95585" lon="1.44151">
        <ele>382.4</ele>
        <time>2022-11-20T07:51:16Z</time>
      </trkpt>
      <trkpt lat="45.95599" lon="1.4416">
        <ele>382</ele>
        <time>2022-11-20T07:51:20Z</time>
      </trkpt>
      <trkpt lat="45.95607" lon="1.44168">
        <ele>382</ele>
        <time>2022-11-20T07:51:22Z</time>
      </trkpt>
      <trkpt lat="45.95631" lon="1.44193">
        <ele>382.8</ele>
        <time>2022-11-20T07:51:28Z</time>
      </trkpt>
      <trkpt lat="45.95643" lon="1.44208">
        <ele>383.6</ele>
        <time>2022-11-20T07:51:32Z</time>
      </trkpt>
      <trkpt lat="45.95645" lon="1.44211">
        <ele>383.6</ele>
        <time>2022-11-20T07:51:33Z</time>
      </trkpt>
      <trkpt lat="45.95646" lon="1.44214">
        <ele>383.8</ele>
        <time>2022-11-20T07:51:34Z</time>
      </trkpt>
      <trkpt lat="45.95648" lon="1.44218">
        <ele>384</ele>
        <time>2022-11-20T07:51:35Z</time>
      </trkpt>
      <trkpt lat="45.95649" lon="1.44226">
        <ele>384.4</ele>
        <time>2022-11-20T07:51:37Z</time>
      </trkpt>
      <trkpt lat="45.9565" lon="1.44231">
        <ele>384.6</ele>
        <time>2022-11-20T07:51:38Z</time>
      </trkpt>
      <trkpt lat="45.95653" lon="1.44247">
        <ele>385.8</ele>
        <time>2022-11-20T07:51:42Z</time>
      </trkpt>
      <trkpt lat="45.95655" lon="1.44261">
        <ele>386.8</ele>
        <time>2022-11-20T07:51:45Z</time>
      </trkpt>
      <trkpt lat="45.95655" lon="1.44266">
        <ele>387</ele>
        <time>2022-11-20T07:51:46Z</time>
      </trkpt>
      <trkpt lat="45.95656" lon="1.44281">
        <ele>388.2</ele>
        <time>2022-11-20T07:51:49Z</time>
      </trkpt>
      <trkpt lat="45.95655" lon="1.44297">
        <ele>388.6</ele>
        <time>2022-11-20T07:51:52Z</time>
      </trkpt>
      <trkpt lat="45.9565" lon="1.44312">
        <ele>389.4</ele>
        <time>2022-11-20T07:51:55Z</time>
      </trkpt>
      <trkpt lat="45.95646" lon="1.44332">
        <ele>390.6</ele>
        <time>2022-11-20T07:52:00Z</time>
      </trkpt>
      <trkpt lat="45.95645" lon="1.44336">
        <ele>391.2</ele>
        <time>2022-11-20T07:52:01Z</time>
      </trkpt>
      <trkpt lat="45.95645" lon="1.44336">
        <ele>391.8</ele>
        <time>2022-11-20T07:52:02Z</time>
      </trkpt>
      <trkpt lat="45.95642" lon="1.44355">
        <ele>393</ele>
        <time>2022-11-20T07:52:06Z</time>
      </trkpt>
      <trkpt lat="45.95639" lon="1.44365">
        <ele>393.6</ele>
        <time>2022-11-20T07:52:09Z</time>
      </trkpt>
      <trkpt lat="45.95639" lon="1.44372">
        <ele>394.2</ele>
        <time>2022-11-20T07:52:11Z</time>
      </trkpt>
      <trkpt lat="45.9564" lon="1.44386">
        <ele>394.6</ele>
        <time>2022-11-20T07:52:15Z</time>
      </trkpt>
      <trkpt lat="45.95647" lon="1.44396">
        <ele>395.2</ele>
        <time>2022-11-20T07:52:19Z</time>
      </trkpt>
      <trkpt lat="45.9565" lon="1.44399">
        <ele>395.4</ele>
        <time>2022-11-20T07:52:20Z</time>
      </trkpt>
      <trkpt lat="45.95674" lon="1.44411">
        <ele>394.6</ele>
        <time>2022-11-20T07:52:25Z</time>
      </trkpt>
      <trkpt lat="45.9568" lon="1.44413">
        <ele>394.2</ele>
        <time>2022-11-20T07:52:26Z</time>
      </trkpt>
      <trkpt lat="45.95699" lon="1.44417">
        <ele>393</ele>
        <time>2022-11-20T07:52:29Z</time>
      </trkpt>
      <trkpt lat="45.95713" lon="1.4442">
        <ele>392.2</ele>
        <time>2022-11-20T07:52:31Z</time>
      </trkpt>
      <trkpt lat="45.95726" lon="1.44423">
        <ele>391.8</ele>
        <time>2022-11-20T07:52:33Z</time>
      </trkpt>
      <trkpt lat="45.95745" lon="1.44424">
        <ele>391.6</ele>
        <time>2022-11-20T07:52:36Z</time>
      </trkpt>
      <trkpt lat="45.95751" lon="1.44423">
        <ele>391.8</ele>
        <time>2022-11-20T07:52:37Z</time>
      </trkpt>
      <trkpt lat="45.95763" lon="1.44419">
        <ele>392</ele>
        <time>2022-11-20T07:52:39Z</time>
      </trkpt>
      <trkpt lat="45.95773" lon="1.44411">
        <ele>392</ele>
        <time>2022-11-20T07:52:41Z</time>
      </trkpt>
      <trkpt lat="45.95794" lon="1.44393">
        <ele>392.6</ele>
        <time>2022-11-20T07:52:46Z</time>
      </trkpt>
      <trkpt lat="45.95808" lon="1.44381">
        <ele>392.8</ele>
        <time>2022-11-20T07:52:49Z</time>
      </trkpt>
      <trkpt lat="45.95824" lon="1.44368">
        <ele>392.6</ele>
        <time>2022-11-20T07:52:52Z</time>
      </trkpt>
      <trkpt lat="45.95836" lon="1.44357">
        <ele>391.8</ele>
        <time>2022-11-20T07:52:54Z</time>
      </trkpt>
      <trkpt lat="45.95855" lon="1.44341">
        <ele>391.4</ele>
        <time>2022-11-20T07:52:57Z</time>
      </trkpt>
      <trkpt lat="45.95868" lon="1.44329">
        <ele>390.6</ele>
        <time>2022-11-20T07:52:59Z</time>
      </trkpt>
      <trkpt lat="45.95887" lon="1.44313">
        <ele>389.2</ele>
        <time>2022-11-20T07:53:02Z</time>
      </trkpt>
      <trkpt lat="45.95904" lon="1.44298">
        <ele>388.2</ele>
        <time>2022-11-20T07:53:05Z</time>
      </trkpt>
      <trkpt lat="45.95929" lon="1.44276">
        <ele>388.2</ele>
        <time>2022-11-20T07:53:10Z</time>
      </trkpt>
      <trkpt lat="45.95957" lon="1.4427">
        <ele>388.8</ele>
        <time>2022-11-20T07:53:15Z</time>
      </trkpt>
      <trkpt lat="45.95991" lon="1.44264">
        <ele>389.2</ele>
        <time>2022-11-20T07:53:21Z</time>
      </trkpt>
      <trkpt lat="45.95996" lon="1.44262">
        <ele>389.2</ele>
        <time>2022-11-20T07:53:22Z</time>
      </trkpt>
      <trkpt lat="45.96007" lon="1.44258">
        <ele>389.2</ele>
        <time>2022-11-20T07:53:24Z</time>
      </trkpt>
      <trkpt lat="45.96029" lon="1.44249">
        <ele>389.2</ele>
        <time>2022-11-20T07:53:28Z</time>
      </trkpt>
      <trkpt lat="45.96062" lon="1.44233">
        <ele>389.2</ele>
        <time>2022-11-20T07:53:34Z</time>
      </trkpt>
      <trkpt lat="45.96077" lon="1.44227">
        <ele>389.2</ele>
        <time>2022-11-20T07:53:37Z</time>
      </trkpt>
      <trkpt lat="45.96082" lon="1.44224">
        <ele>389.2</ele>
        <time>2022-11-20T07:53:38Z</time>
      </trkpt>
      <trkpt lat="45.96091" lon="1.44219">
        <ele>389.6</ele>
        <time>2022-11-20T07:53:40Z</time>
      </trkpt>
      <trkpt lat="45.96117" lon="1.4421">
        <ele>389.8</ele>
        <time>2022-11-20T07:53:45Z</time>
      </trkpt>
      <trkpt lat="45.96148" lon="1.44192">
        <ele>389.8</ele>
        <time>2022-11-20T07:53:51Z</time>
      </trkpt>
      <trkpt lat="45.96153" lon="1.44189">
        <ele>390</ele>
        <time>2022-11-20T07:53:52Z</time>
      </trkpt>
      <trkpt lat="45.96174" lon="1.44181">
        <ele>390.2</ele>
        <time>2022-11-20T07:53:56Z</time>
      </trkpt>
      <trkpt lat="45.96179" lon="1.4418">
        <ele>390.4</ele>
        <time>2022-11-20T07:53:57Z</time>
      </trkpt>
      <trkpt lat="45.96214" lon="1.4417">
        <ele>390.4</ele>
        <time>2022-11-20T07:54:04Z</time>
      </trkpt>
      <trkpt lat="45.96222" lon="1.44173">
        <ele>390.6</ele>
        <time>2022-11-20T07:54:06Z</time>
      </trkpt>
      <trkpt lat="45.96224" lon="1.44177">
        <ele>390.6</ele>
        <time>2022-11-20T07:54:07Z</time>
      </trkpt>
      <trkpt lat="45.96225" lon="1.44182">
        <ele>390.8</ele>
        <time>2022-11-20T07:54:08Z</time>
      </trkpt>
      <trkpt lat="45.96225" lon="1.44194">
        <ele>391</ele>
        <time>2022-11-20T07:54:10Z</time>
      </trkpt>
      <trkpt lat="45.96224" lon="1.44211">
        <ele>391.4</ele>
        <time>2022-11-20T07:54:13Z</time>
      </trkpt>
      <trkpt lat="45.96223" lon="1.44216">
        <ele>391.6</ele>
        <time>2022-11-20T07:54:14Z</time>
      </trkpt>
      <trkpt lat="45.96222" lon="1.44227">
        <ele>392</ele>
        <time>2022-11-20T07:54:16Z</time>
      </trkpt>
      <trkpt lat="45.96222" lon="1.44233">
        <ele>392.4</ele>
        <time>2022-11-20T07:54:17Z</time>
      </trkpt>
      <trkpt lat="45.9622" lon="1.44257">
        <ele>393.6</ele>
        <time>2022-11-20T07:54:22Z</time>
      </trkpt>
      <trkpt lat="45.9622" lon="1.44262">
        <ele>393.8</ele>
        <time>2022-11-20T07:54:23Z</time>
      </trkpt>
      <trkpt lat="45.9622" lon="1.44287">
        <ele>394.6</ele>
        <time>2022-11-20T07:54:29Z</time>
      </trkpt>
      <trkpt lat="45.9622" lon="1.44291">
        <ele>394.8</ele>
        <time>2022-11-20T07:54:30Z</time>
      </trkpt>
      <trkpt lat="45.96222" lon="1.4431">
        <ele>395.6</ele>
        <time>2022-11-20T07:54:34Z</time>
      </trkpt>
      <trkpt lat="45.96222" lon="1.44326">
        <ele>396.2</ele>
        <time>2022-11-20T07:54:38Z</time>
      </trkpt>
      <trkpt lat="45.96222" lon="1.44333">
        <ele>396.8</ele>
        <time>2022-11-20T07:54:40Z</time>
      </trkpt>
      <trkpt lat="45.96222" lon="1.44349">
        <ele>397.8</ele>
        <time>2022-11-20T07:54:44Z</time>
      </trkpt>
      <trkpt lat="45.96223" lon="1.44366">
        <ele>399</ele>
        <time>2022-11-20T07:54:49Z</time>
      </trkpt>
      <trkpt lat="45.96224" lon="1.44369">
        <ele>399.2</ele>
        <time>2022-11-20T07:54:50Z</time>
      </trkpt>
      <trkpt lat="45.96227" lon="1.44387">
        <ele>400</ele>
        <time>2022-11-20T07:54:55Z</time>
      </trkpt>
      <trkpt lat="45.96228" lon="1.44395">
        <ele>400.4</ele>
        <time>2022-11-20T07:54:57Z</time>
      </trkpt>
      <trkpt lat="45.9623" lon="1.44408">
        <ele>401.2</ele>
        <time>2022-11-20T07:55:01Z</time>
      </trkpt>
      <trkpt lat="45.96228" lon="1.44423">
        <ele>402.2</ele>
        <time>2022-11-20T07:55:05Z</time>
      </trkpt>
      <trkpt lat="45.96227" lon="1.44438">
        <ele>403.2</ele>
        <time>2022-11-20T07:55:09Z</time>
      </trkpt>
      <trkpt lat="45.96229" lon="1.44444">
        <ele>403.6</ele>
        <time>2022-11-20T07:55:11Z</time>
      </trkpt>
      <trkpt lat="45.9623" lon="1.44453">
        <ele>404.4</ele>
        <time>2022-11-20T07:55:14Z</time>
      </trkpt>
      <trkpt lat="45.96228" lon="1.44462">
        <ele>405.2</ele>
        <time>2022-11-20T07:55:17Z</time>
      </trkpt>
      <trkpt lat="45.96229" lon="1.44465">
        <ele>405.4</ele>
        <time>2022-11-20T07:55:18Z</time>
      </trkpt>
      <trkpt lat="45.96229" lon="1.44478">
        <ele>406.4</ele>
        <time>2022-11-20T07:55:22Z</time>
      </trkpt>
      <trkpt lat="45.96229" lon="1.44481">
        <ele>406.6</ele>
        <time>2022-11-20T07:55:23Z</time>
      </trkpt>
      <trkpt lat="45.9623" lon="1.44498">
        <ele>407.2</ele>
        <time>2022-11-20T07:55:28Z</time>
      </trkpt>
      <trkpt lat="45.96232" lon="1.44505">
        <ele>407.8</ele>
        <time>2022-11-20T07:55:30Z</time>
      </trkpt>
      <trkpt lat="45.96235" lon="1.44518">
        <ele>408.4</ele>
        <time>2022-11-20T07:55:34Z</time>
      </trkpt>
      <trkpt lat="45.96235" lon="1.44521">
        <ele>408.8</ele>
        <time>2022-11-20T07:55:35Z</time>
      </trkpt>
      <trkpt lat="45.96241" lon="1.44539">
        <ele>409.8</ele>
        <time>2022-11-20T07:55:40Z</time>
      </trkpt>
      <trkpt lat="45.96243" lon="1.44544">
        <ele>410</ele>
        <time>2022-11-20T07:55:41Z</time>
      </trkpt>
      <trkpt lat="45.96256" lon="1.4457">
        <ele>411</ele>
        <time>2022-11-20T07:55:48Z</time>
      </trkpt>
      <trkpt lat="45.96257" lon="1.44575">
        <ele>411.2</ele>
        <time>2022-11-20T07:55:49Z</time>
      </trkpt>
      <trkpt lat="45.96263" lon="1.44612">
        <ele>411.8</ele>
        <time>2022-11-20T07:55:56Z</time>
      </trkpt>
      <trkpt lat="45.96264" lon="1.44623">
        <ele>412</ele>
        <time>2022-11-20T07:55:58Z</time>
      </trkpt>
      <trkpt lat="45.96267" lon="1.44658">
        <ele>412.6</ele>
        <time>2022-11-20T07:56:04Z</time>
      </trkpt>
      <trkpt lat="45.96273" lon="1.44712">
        <ele>412.2</ele>
        <time>2022-11-20T07:56:12Z</time>
      </trkpt>
      <trkpt lat="45.9628" lon="1.44763">
        <ele>411.2</ele>
        <time>2022-11-20T07:56:18Z</time>
      </trkpt>
      <trkpt lat="45.96283" lon="1.44782">
        <ele>411</ele>
        <time>2022-11-20T07:56:20Z</time>
      </trkpt>
      <trkpt lat="45.96287" lon="1.4481">
        <ele>409.8</ele>
        <time>2022-11-20T07:56:23Z</time>
      </trkpt>
      <trkpt lat="45.96289" lon="1.44828">
        <ele>409.4</ele>
        <time>2022-11-20T07:56:25Z</time>
      </trkpt>
      <trkpt lat="45.96295" lon="1.44867">
        <ele>408.4</ele>
        <time>2022-11-20T07:56:29Z</time>
      </trkpt>
      <trkpt lat="45.963" lon="1.44885">
        <ele>407.6</ele>
        <time>2022-11-20T07:56:31Z</time>
      </trkpt>
      <trkpt lat="45.96304" lon="1.44894">
        <ele>407.4</ele>
        <time>2022-11-20T07:56:32Z</time>
      </trkpt>
      <trkpt lat="45.96309" lon="1.44903">
        <ele>407</ele>
        <time>2022-11-20T07:56:33Z</time>
      </trkpt>
      <trkpt lat="45.96326" lon="1.44944">
        <ele>406</ele>
        <time>2022-11-20T07:56:37Z</time>
      </trkpt>
      <trkpt lat="45.9633" lon="1.44955">
        <ele>406</ele>
        <time>2022-11-20T07:56:38Z</time>
      </trkpt>
      <trkpt lat="45.96338" lon="1.44977">
        <ele>404.8</ele>
        <time>2022-11-20T07:56:40Z</time>
      </trkpt>
      <trkpt lat="45.96346" lon="1.44997">
        <ele>403.2</ele>
        <time>2022-11-20T07:56:42Z</time>
      </trkpt>
      <trkpt lat="45.96351" lon="1.45005">
        <ele>402.6</ele>
        <time>2022-11-20T07:56:43Z</time>
      </trkpt>
      <trkpt lat="45.9636" lon="1.45022">
        <ele>402.2</ele>
        <time>2022-11-20T07:56:45Z</time>
      </trkpt>
      <trkpt lat="45.96363" lon="1.45041">
        <ele>402</ele>
        <time>2022-11-20T07:56:47Z</time>
      </trkpt>
      <trkpt lat="45.96362" lon="1.45078">
        <ele>402.2</ele>
        <time>2022-11-20T07:56:51Z</time>
      </trkpt>
      <trkpt lat="45.96365" lon="1.45136">
        <ele>401.6</ele>
        <time>2022-11-20T07:56:57Z</time>
      </trkpt>
      <trkpt lat="45.96364" lon="1.45145">
        <ele>401.4</ele>
        <time>2022-11-20T07:56:58Z</time>
      </trkpt>
      <trkpt lat="45.96362" lon="1.45155">
        <ele>401</ele>
        <time>2022-11-20T07:56:59Z</time>
      </trkpt>
      <trkpt lat="45.96356" lon="1.45182">
        <ele>400.8</ele>
        <time>2022-11-20T07:57:02Z</time>
      </trkpt>
      <trkpt lat="45.96345" lon="1.45237">
        <ele>401.2</ele>
        <time>2022-11-20T07:57:09Z</time>
      </trkpt>
      <trkpt lat="45.96339" lon="1.45276">
        <ele>402</ele>
        <time>2022-11-20T07:57:15Z</time>
      </trkpt>
      <trkpt lat="45.96336" lon="1.45306">
        <ele>403.2</ele>
        <time>2022-11-20T07:57:20Z</time>
      </trkpt>
      <trkpt lat="45.96335" lon="1.45313">
        <ele>403.2</ele>
        <time>2022-11-20T07:57:21Z</time>
      </trkpt>
      <trkpt lat="45.96332" lon="1.45364">
        <ele>404</ele>
        <time>2022-11-20T07:57:28Z</time>
      </trkpt>
      <trkpt lat="45.96334" lon="1.45384">
        <ele>404.2</ele>
        <time>2022-11-20T07:57:31Z</time>
      </trkpt>
      <trkpt lat="45.96336" lon="1.45406">
        <ele>404.2</ele>
        <time>2022-11-20T07:57:34Z</time>
      </trkpt>
      <trkpt lat="45.96347" lon="1.45462">
        <ele>402.8</ele>
        <time>2022-11-20T07:57:41Z</time>
      </trkpt>
      <trkpt lat="45.96348" lon="1.45477">
        <ele>401.8</ele>
        <time>2022-11-20T07:57:43Z</time>
      </trkpt>
      <trkpt lat="45.96349" lon="1.45493">
        <ele>401.4</ele>
        <time>2022-11-20T07:57:45Z</time>
      </trkpt>
      <trkpt lat="45.9635" lon="1.45501">
        <ele>401</ele>
        <time>2022-11-20T07:57:46Z</time>
      </trkpt>
      <trkpt lat="45.96351" lon="1.4551">
        <ele>400.6</ele>
        <time>2022-11-20T07:57:47Z</time>
      </trkpt>
      <trkpt lat="45.96355" lon="1.45531">
        <ele>399.4</ele>
        <time>2022-11-20T07:57:49Z</time>
      </trkpt>
      <trkpt lat="45.96361" lon="1.45556">
        <ele>398</ele>
        <time>2022-11-20T07:57:51Z</time>
      </trkpt>
      <trkpt lat="45.96368" lon="1.45581">
        <ele>396</ele>
        <time>2022-11-20T07:57:53Z</time>
      </trkpt>
      <trkpt lat="45.96375" lon="1.456">
        <ele>395.4</ele>
        <time>2022-11-20T07:57:55Z</time>
      </trkpt>
      <trkpt lat="45.96382" lon="1.45623">
        <ele>396.4</ele>
        <time>2022-11-20T07:57:59Z</time>
      </trkpt>
      <trkpt lat="45.96385" lon="1.4563">
        <ele>397.6</ele>
        <time>2022-11-20T07:58:01Z</time>
      </trkpt>
      <trkpt lat="45.9639" lon="1.45639">
        <ele>398.8</ele>
        <time>2022-11-20T07:58:04Z</time>
      </trkpt>
      <trkpt lat="45.96395" lon="1.45652">
        <ele>400</ele>
        <time>2022-11-20T07:58:08Z</time>
      </trkpt>
      <trkpt lat="45.96396" lon="1.45656">
        <ele>400.4</ele>
        <time>2022-11-20T07:58:10Z</time>
      </trkpt>
      <trkpt lat="45.96398" lon="1.45661">
        <ele>401.2</ele>
        <time>2022-11-20T07:58:12Z</time>
      </trkpt>
      <trkpt lat="45.96408" lon="1.45669">
        <ele>402.2</ele>
        <time>2022-11-20T07:58:16Z</time>
      </trkpt>
      <trkpt lat="45.9641" lon="1.45671">
        <ele>402.4</ele>
        <time>2022-11-20T07:58:17Z</time>
      </trkpt>
      <trkpt lat="45.96414" lon="1.45679">
        <ele>403.4</ele>
        <time>2022-11-20T07:58:20Z</time>
      </trkpt>
      <trkpt lat="45.96419" lon="1.45688">
        <ele>404.6</ele>
        <time>2022-11-20T07:58:24Z</time>
      </trkpt>
      <trkpt lat="45.96423" lon="1.45697">
        <ele>406</ele>
        <time>2022-11-20T07:58:29Z</time>
      </trkpt>
      <trkpt lat="45.96425" lon="1.45701">
        <ele>406.6</ele>
        <time>2022-11-20T07:58:31Z</time>
      </trkpt>
      <trkpt lat="45.96426" lon="1.45705">
        <ele>407.2</ele>
        <time>2022-11-20T07:58:33Z</time>
      </trkpt>
      <trkpt lat="45.9643" lon="1.45712">
        <ele>408.2</ele>
        <time>2022-11-20T07:58:37Z</time>
      </trkpt>
      <trkpt lat="45.96432" lon="1.45716">
        <ele>409</ele>
        <time>2022-11-20T07:58:39Z</time>
      </trkpt>
      <trkpt lat="45.96433" lon="1.45718">
        <ele>409.4</ele>
        <time>2022-11-20T07:58:40Z</time>
      </trkpt>
      <trkpt lat="45.96439" lon="1.45724">
        <ele>410.4</ele>
        <time>2022-11-20T07:58:45Z</time>
      </trkpt>
      <trkpt lat="45.9644" lon="1.45725">
        <ele>410.6</ele>
        <time>2022-11-20T07:58:46Z</time>
      </trkpt>
      <trkpt lat="45.96443" lon="1.45728">
        <ele>411.6</ele>
        <time>2022-11-20T07:58:49Z</time>
      </trkpt>
      <trkpt lat="45.96447" lon="1.45732">
        <ele>412.6</ele>
        <time>2022-11-20T07:58:53Z</time>
      </trkpt>
      <trkpt lat="45.96449" lon="1.45733">
        <ele>412.8</ele>
        <time>2022-11-20T07:58:55Z</time>
      </trkpt>
      <trkpt lat="45.96452" lon="1.45734">
        <ele>413.8</ele>
        <time>2022-11-20T07:58:58Z</time>
      </trkpt>
      <trkpt lat="45.96453" lon="1.45734">
        <ele>414.2</ele>
        <time>2022-11-20T07:59:01Z</time>
      </trkpt>
      <trkpt lat="45.96459" lon="1.45737">
        <ele>414.8</ele>
        <time>2022-11-20T07:59:05Z</time>
      </trkpt>
      <trkpt lat="45.96464" lon="1.45739">
        <ele>415.2</ele>
        <time>2022-11-20T07:59:09Z</time>
      </trkpt>
      <trkpt lat="45.96469" lon="1.4574">
        <ele>415.8</ele>
        <time>2022-11-20T07:59:12Z</time>
      </trkpt>
      <trkpt lat="45.96476" lon="1.45742">
        <ele>416.2</ele>
        <time>2022-11-20T07:59:16Z</time>
      </trkpt>
      <trkpt lat="45.96485" lon="1.45744">
        <ele>416.8</ele>
        <time>2022-11-20T07:59:22Z</time>
      </trkpt>
      <trkpt lat="45.96488" lon="1.45745">
        <ele>416.8</ele>
        <time>2022-11-20T07:59:24Z</time>
      </trkpt>
      <trkpt lat="45.96502" lon="1.45747">
        <ele>417.6</ele>
        <time>2022-11-20T07:59:31Z</time>
      </trkpt>
      <trkpt lat="45.96506" lon="1.45747">
        <ele>417.8</ele>
        <time>2022-11-20T07:59:34Z</time>
      </trkpt>
      <trkpt lat="45.96513" lon="1.45748">
        <ele>418.2</ele>
        <time>2022-11-20T07:59:38Z</time>
      </trkpt>
      <trkpt lat="45.96524" lon="1.45747">
        <ele>418.8</ele>
        <time>2022-11-20T07:59:44Z</time>
      </trkpt>
      <trkpt lat="45.96527" lon="1.45747">
        <ele>418.8</ele>
        <time>2022-11-20T07:59:45Z</time>
      </trkpt>
      <trkpt lat="45.96529" lon="1.45747">
        <ele>419</ele>
        <time>2022-11-20T07:59:46Z</time>
      </trkpt>
      <trkpt lat="45.96539" lon="1.45751">
        <ele>419.2</ele>
        <time>2022-11-20T07:59:49Z</time>
      </trkpt>
      <trkpt lat="45.96562" lon="1.45764">
        <ele>419.4</ele>
        <time>2022-11-20T07:59:55Z</time>
      </trkpt>
      <trkpt lat="45.96584" lon="1.45781">
        <ele>419.4</ele>
        <time>2022-11-20T08:00:02Z</time>
      </trkpt>
      <trkpt lat="45.96596" lon="1.45788">
        <ele>419.4</ele>
        <time>2022-11-20T08:00:06Z</time>
      </trkpt>
      <trkpt lat="45.96601" lon="1.45792">
        <ele>419.2</ele>
        <time>2022-11-20T08:00:08Z</time>
      </trkpt>
      <trkpt lat="45.96604" lon="1.45795">
        <ele>419</ele>
        <time>2022-11-20T08:00:09Z</time>
      </trkpt>
      <trkpt lat="45.96621" lon="1.45804">
        <ele>418</ele>
        <time>2022-11-20T08:00:13Z</time>
      </trkpt>
      <trkpt lat="45.96626" lon="1.45806">
        <ele>417.6</ele>
        <time>2022-11-20T08:00:14Z</time>
      </trkpt>
      <trkpt lat="45.96636" lon="1.45811">
        <ele>417</ele>
        <time>2022-11-20T08:00:16Z</time>
      </trkpt>
      <trkpt lat="45.96644" lon="1.45813">
        <ele>416.4</ele>
        <time>2022-11-20T08:00:18Z</time>
      </trkpt>
      <trkpt lat="45.96646" lon="1.45814">
        <ele>416.4</ele>
        <time>2022-11-20T08:00:19Z</time>
      </trkpt>
      <trkpt lat="45.96655" lon="1.45817">
        <ele>416</ele>
        <time>2022-11-20T08:00:21Z</time>
      </trkpt>
      <trkpt lat="45.96662" lon="1.45818">
        <ele>415.6</ele>
        <time>2022-11-20T08:00:23Z</time>
      </trkpt>
      <trkpt lat="45.96666" lon="1.45818">
        <ele>415.4</ele>
        <time>2022-11-20T08:00:24Z</time>
      </trkpt>
      <trkpt lat="45.96668" lon="1.45818">
        <ele>415</ele>
        <time>2022-11-20T08:00:25Z</time>
      </trkpt>
      <trkpt lat="45.96676" lon="1.45819">
        <ele>414.4</ele>
        <time>2022-11-20T08:00:27Z</time>
      </trkpt>
      <trkpt lat="45.96681" lon="1.45821">
        <ele>414.2</ele>
        <time>2022-11-20T08:00:28Z</time>
      </trkpt>
      <trkpt lat="45.96693" lon="1.45823">
        <ele>414</ele>
        <time>2022-11-20T08:00:30Z</time>
      </trkpt>
      <trkpt lat="45.96708" lon="1.45826">
        <ele>413.6</ele>
        <time>2022-11-20T08:00:33Z</time>
      </trkpt>
      <trkpt lat="45.96717" lon="1.45825">
        <ele>413.4</ele>
        <time>2022-11-20T08:00:35Z</time>
      </trkpt>
      <trkpt lat="45.96724" lon="1.45822">
        <ele>413.4</ele>
        <time>2022-11-20T08:00:37Z</time>
      </trkpt>
      <trkpt lat="45.96732" lon="1.45818">
        <ele>413.8</ele>
        <time>2022-11-20T08:00:40Z</time>
      </trkpt>
      <trkpt lat="45.96739" lon="1.45813">
        <ele>414.4</ele>
        <time>2022-11-20T08:00:42Z</time>
      </trkpt>
      <trkpt lat="45.96746" lon="1.4581">
        <ele>414.6</ele>
        <time>2022-11-20T08:00:44Z</time>
      </trkpt>
      <trkpt lat="45.9675" lon="1.45808">
        <ele>414.8</ele>
        <time>2022-11-20T08:00:45Z</time>
      </trkpt>
      <trkpt lat="45.96758" lon="1.45804">
        <ele>415.4</ele>
        <time>2022-11-20T08:00:48Z</time>
      </trkpt>
      <trkpt lat="45.9677" lon="1.45804">
        <ele>415.6</ele>
        <time>2022-11-20T08:00:51Z</time>
      </trkpt>
      <trkpt lat="45.96774" lon="1.45805">
        <ele>415.6</ele>
        <time>2022-11-20T08:00:52Z</time>
      </trkpt>
      <trkpt lat="45.96795" lon="1.45808">
        <ele>415.4</ele>
        <time>2022-11-20T08:00:58Z</time>
      </trkpt>
      <trkpt lat="45.96812" lon="1.45818">
        <ele>415.8</ele>
        <time>2022-11-20T08:01:02Z</time>
      </trkpt>
      <trkpt lat="45.96816" lon="1.45819">
        <ele>415.6</ele>
        <time>2022-11-20T08:01:03Z</time>
      </trkpt>
      <trkpt lat="45.96824" lon="1.45821">
        <ele>415.8</ele>
        <time>2022-11-20T08:01:06Z</time>
      </trkpt>
      <trkpt lat="45.96834" lon="1.45813">
        <ele>416.4</ele>
        <time>2022-11-20T08:01:11Z</time>
      </trkpt>
      <trkpt lat="45.96835" lon="1.45812">
        <ele>416.6</ele>
        <time>2022-11-20T08:01:12Z</time>
      </trkpt>
      <trkpt lat="45.96844" lon="1.45806">
        <ele>417.8</ele>
        <time>2022-11-20T08:01:16Z</time>
      </trkpt>
      <trkpt lat="45.96849" lon="1.45804">
        <ele>418</ele>
        <time>2022-11-20T08:01:18Z</time>
      </trkpt>
      <trkpt lat="45.96863" lon="1.45802">
        <ele>418.8</ele>
        <time>2022-11-20T08:01:22Z</time>
      </trkpt>
      <trkpt lat="45.9687" lon="1.45804">
        <ele>419.2</ele>
        <time>2022-11-20T08:01:24Z</time>
      </trkpt>
      <trkpt lat="45.96883" lon="1.45809">
        <ele>420.2</ele>
        <time>2022-11-20T08:01:29Z</time>
      </trkpt>
      <trkpt lat="45.96889" lon="1.45813">
        <ele>420.6</ele>
        <time>2022-11-20T08:01:31Z</time>
      </trkpt>
      <trkpt lat="45.96908" lon="1.45834">
        <ele>420.8</ele>
        <time>2022-11-20T08:01:38Z</time>
      </trkpt>
      <trkpt lat="45.96918" lon="1.45844">
        <ele>421.2</ele>
        <time>2022-11-20T08:01:42Z</time>
      </trkpt>
      <trkpt lat="45.9692" lon="1.45848">
        <ele>421.2</ele>
        <time>2022-11-20T08:01:43Z</time>
      </trkpt>
      <trkpt lat="45.96923" lon="1.45851">
        <ele>421.2</ele>
        <time>2022-11-20T08:01:44Z</time>
      </trkpt>
      <trkpt lat="45.96934" lon="1.45865">
        <ele>420.8</ele>
        <time>2022-11-20T08:01:48Z</time>
      </trkpt>
      <trkpt lat="45.96944" lon="1.45873">
        <ele>420.6</ele>
        <time>2022-11-20T08:01:51Z</time>
      </trkpt>
      <trkpt lat="45.96947" lon="1.45876">
        <ele>420.6</ele>
        <time>2022-11-20T08:01:52Z</time>
      </trkpt>
      <trkpt lat="45.96951" lon="1.45882">
        <ele>420.8</ele>
        <time>2022-11-20T08:01:54Z</time>
      </trkpt>
      <trkpt lat="45.96955" lon="1.4589">
        <ele>421</ele>
        <time>2022-11-20T08:01:56Z</time>
      </trkpt>
      <trkpt lat="45.96958" lon="1.45894">
        <ele>420.8</ele>
        <time>2022-11-20T08:01:57Z</time>
      </trkpt>
      <trkpt lat="45.96961" lon="1.45897">
        <ele>420.8</ele>
        <time>2022-11-20T08:01:58Z</time>
      </trkpt>
      <trkpt lat="45.96974" lon="1.45914">
        <ele>420.4</ele>
        <time>2022-11-20T08:02:02Z</time>
      </trkpt>
      <trkpt lat="45.96986" lon="1.45931">
        <ele>420.2</ele>
        <time>2022-11-20T08:02:06Z</time>
      </trkpt>
      <trkpt lat="45.96993" lon="1.45938">
        <ele>420</ele>
        <time>2022-11-20T08:02:08Z</time>
      </trkpt>
      <trkpt lat="45.96998" lon="1.45945">
        <ele>420</ele>
        <time>2022-11-20T08:02:10Z</time>
      </trkpt>
      <trkpt lat="45.97001" lon="1.45953">
        <ele>419.6</ele>
        <time>2022-11-20T08:02:12Z</time>
      </trkpt>
      <trkpt lat="45.97002" lon="1.45957">
        <ele>419.4</ele>
        <time>2022-11-20T08:02:13Z</time>
      </trkpt>
      <trkpt lat="45.97004" lon="1.45964">
        <ele>419.4</ele>
        <time>2022-11-20T08:02:14Z</time>
      </trkpt>
      <trkpt lat="45.97006" lon="1.45974">
        <ele>419.4</ele>
        <time>2022-11-20T08:02:16Z</time>
      </trkpt>
      <trkpt lat="45.97012" lon="1.45983">
        <ele>419.8</ele>
        <time>2022-11-20T08:02:18Z</time>
      </trkpt>
      <trkpt lat="45.97021" lon="1.4599">
        <ele>420.4</ele>
        <time>2022-11-20T08:02:22Z</time>
      </trkpt>
      <trkpt lat="45.97033" lon="1.46001">
        <ele>420.6</ele>
        <time>2022-11-20T08:02:27Z</time>
      </trkpt>
      <trkpt lat="45.97037" lon="1.46008">
        <ele>420.4</ele>
        <time>2022-11-20T08:02:29Z</time>
      </trkpt>
      <trkpt lat="45.97044" lon="1.46014">
        <ele>420.2</ele>
        <time>2022-11-20T08:02:31Z</time>
      </trkpt>
      <trkpt lat="45.97047" lon="1.46016">
        <ele>420.2</ele>
        <time>2022-11-20T08:02:32Z</time>
      </trkpt>
      <trkpt lat="45.97051" lon="1.4602">
        <ele>420.2</ele>
        <time>2022-11-20T08:02:34Z</time>
      </trkpt>
      <trkpt lat="45.9706" lon="1.46033">
        <ele>420.4</ele>
        <time>2022-11-20T08:02:37Z</time>
      </trkpt>
      <trkpt lat="45.97081" lon="1.46064">
        <ele>421.2</ele>
        <time>2022-11-20T08:02:43Z</time>
      </trkpt>
      <trkpt lat="45.97084" lon="1.46068">
        <ele>421.2</ele>
        <time>2022-11-20T08:02:44Z</time>
      </trkpt>
      <trkpt lat="45.97095" lon="1.46093">
        <ele>422.4</ele>
        <time>2022-11-20T08:02:50Z</time>
      </trkpt>
      <trkpt lat="45.97102" lon="1.4612">
        <ele>423.4</ele>
        <time>2022-11-20T08:02:55Z</time>
      </trkpt>
      <trkpt lat="45.97104" lon="1.4613">
        <ele>423.8</ele>
        <time>2022-11-20T08:02:57Z</time>
      </trkpt>
      <trkpt lat="45.97111" lon="1.46154">
        <ele>424.4</ele>
        <time>2022-11-20T08:03:02Z</time>
      </trkpt>
      <trkpt lat="45.97114" lon="1.46164">
        <ele>424.8</ele>
        <time>2022-11-20T08:03:04Z</time>
      </trkpt>
      <trkpt lat="45.97125" lon="1.46195">
        <ele>424.8</ele>
        <time>2022-11-20T08:03:11Z</time>
      </trkpt>
      <trkpt lat="45.97133" lon="1.46228">
        <ele>424.2</ele>
        <time>2022-11-20T08:03:16Z</time>
      </trkpt>
      <trkpt lat="45.97139" lon="1.46249">
        <ele>423.4</ele>
        <time>2022-11-20T08:03:19Z</time>
      </trkpt>
      <trkpt lat="45.97149" lon="1.46281">
        <ele>423</ele>
        <time>2022-11-20T08:03:24Z</time>
      </trkpt>
      <trkpt lat="45.97155" lon="1.46303">
        <ele>422.8</ele>
        <time>2022-11-20T08:03:28Z</time>
      </trkpt>
      <trkpt lat="45.97158" lon="1.46312">
        <ele>422.6</ele>
        <time>2022-11-20T08:03:30Z</time>
      </trkpt>
      <trkpt lat="45.97161" lon="1.4632">
        <ele>422.6</ele>
        <time>2022-11-20T08:03:32Z</time>
      </trkpt>
      <trkpt lat="45.97165" lon="1.46322">
        <ele>422.8</ele>
        <time>2022-11-20T08:03:34Z</time>
      </trkpt>
      <trkpt lat="45.97176" lon="1.46309">
        <ele>423</ele>
        <time>2022-11-20T08:03:38Z</time>
      </trkpt>
      <trkpt lat="45.97196" lon="1.46282">
        <ele>424.4</ele>
        <time>2022-11-20T08:03:45Z</time>
      </trkpt>
      <trkpt lat="45.97203" lon="1.4627">
        <ele>425.4</ele>
        <time>2022-11-20T08:03:48Z</time>
      </trkpt>
      <trkpt lat="45.97205" lon="1.46266">
        <ele>425.6</ele>
        <time>2022-11-20T08:03:49Z</time>
      </trkpt>
      <trkpt lat="45.97213" lon="1.46251">
        <ele>426.6</ele>
        <time>2022-11-20T08:03:53Z</time>
      </trkpt>
      <trkpt lat="45.97219" lon="1.46247">
        <ele>427</ele>
        <time>2022-11-20T08:03:55Z</time>
      </trkpt>
      <trkpt lat="45.97222" lon="1.46247">
        <ele>427.2</ele>
        <time>2022-11-20T08:03:56Z</time>
      </trkpt>
      <trkpt lat="45.97228" lon="1.46252">
        <ele>427.8</ele>
        <time>2022-11-20T08:03:58Z</time>
      </trkpt>
      <trkpt lat="45.97239" lon="1.4626">
        <ele>428.4</ele>
        <time>2022-11-20T08:04:02Z</time>
      </trkpt>
      <trkpt lat="45.97241" lon="1.46259">
        <ele>428.4</ele>
        <time>2022-11-20T08:04:03Z</time>
      </trkpt>
      <trkpt lat="45.97247" lon="1.46252">
        <ele>428.2</ele>
        <time>2022-11-20T08:04:06Z</time>
      </trkpt>
      <trkpt lat="45.97259" lon="1.46228">
        <ele>427.8</ele>
        <time>2022-11-20T08:04:12Z</time>
      </trkpt>
      <trkpt lat="45.97269" lon="1.46198">
        <ele>428.4</ele>
        <time>2022-11-20T08:04:18Z</time>
      </trkpt>
      <trkpt lat="45.97289" lon="1.46151">
        <ele>427.4</ele>
        <time>2022-11-20T08:04:25Z</time>
      </trkpt>
      <trkpt lat="45.97306" lon="1.46115">
        <ele>426.6</ele>
        <time>2022-11-20T08:04:30Z</time>
      </trkpt>
      <trkpt lat="45.97313" lon="1.46101">
        <ele>426.4</ele>
        <time>2022-11-20T08:04:32Z</time>
      </trkpt>
      <trkpt lat="45.97336" lon="1.46068">
        <ele>426.4</ele>
        <time>2022-11-20T08:04:38Z</time>
      </trkpt>
      <trkpt lat="45.9736" lon="1.46037">
        <ele>426.8</ele>
        <time>2022-11-20T08:04:45Z</time>
      </trkpt>
      <trkpt lat="45.97392" lon="1.45999">
        <ele>427</ele>
        <time>2022-11-20T08:04:53Z</time>
      </trkpt>
      <trkpt lat="45.97399" lon="1.45989">
        <ele>427.2</ele>
        <time>2022-11-20T08:04:55Z</time>
      </trkpt>
      <trkpt lat="45.97406" lon="1.45981">
        <ele>427.4</ele>
        <time>2022-11-20T08:04:57Z</time>
      </trkpt>
      <trkpt lat="45.97413" lon="1.45974">
        <ele>427.6</ele>
        <time>2022-11-20T08:04:59Z</time>
      </trkpt>
      <trkpt lat="45.97417" lon="1.4597">
        <ele>427.6</ele>
        <time>2022-11-20T08:05:00Z</time>
      </trkpt>
      <trkpt lat="45.97439" lon="1.45942">
        <ele>428.6</ele>
        <time>2022-11-20T08:05:07Z</time>
      </trkpt>
      <trkpt lat="45.97442" lon="1.45938">
        <ele>428.8</ele>
        <time>2022-11-20T08:05:08Z</time>
      </trkpt>
      <trkpt lat="45.97459" lon="1.45913">
        <ele>429.2</ele>
        <time>2022-11-20T08:05:14Z</time>
      </trkpt>
      <trkpt lat="45.97469" lon="1.45899">
        <ele>429.2</ele>
        <time>2022-11-20T08:05:17Z</time>
      </trkpt>
      <trkpt lat="45.97479" lon="1.45884">
        <ele>429.2</ele>
        <time>2022-11-20T08:05:20Z</time>
      </trkpt>
      <trkpt lat="45.97486" lon="1.45875">
        <ele>429.4</ele>
        <time>2022-11-20T08:05:22Z</time>
      </trkpt>
      <trkpt lat="45.97494" lon="1.45869">
        <ele>429.6</ele>
        <time>2022-11-20T08:05:24Z</time>
      </trkpt>
      <trkpt lat="45.97499" lon="1.45869">
        <ele>429.8</ele>
        <time>2022-11-20T08:05:25Z</time>
      </trkpt>
      <trkpt lat="45.97503" lon="1.45871">
        <ele>430</ele>
        <time>2022-11-20T08:05:26Z</time>
      </trkpt>
      <trkpt lat="45.9751" lon="1.45878">
        <ele>430.2</ele>
        <time>2022-11-20T08:05:28Z</time>
      </trkpt>
      <trkpt lat="45.97513" lon="1.45882">
        <ele>430.4</ele>
        <time>2022-11-20T08:05:29Z</time>
      </trkpt>
      <trkpt lat="45.97538" lon="1.45913">
        <ele>431</ele>
        <time>2022-11-20T08:05:37Z</time>
      </trkpt>
      <trkpt lat="45.97541" lon="1.45917">
        <ele>431.2</ele>
        <time>2022-11-20T08:05:38Z</time>
      </trkpt>
      <trkpt lat="45.97565" lon="1.45934">
        <ele>432</ele>
        <time>2022-11-20T08:05:45Z</time>
      </trkpt>
      <trkpt lat="45.97575" lon="1.45944">
        <ele>433</ele>
        <time>2022-11-20T08:05:50Z</time>
      </trkpt>
      <trkpt lat="45.97577" lon="1.45946">
        <ele>433.4</ele>
        <time>2022-11-20T08:05:51Z</time>
      </trkpt>
      <trkpt lat="45.97582" lon="1.45952">
        <ele>434.4</ele>
        <time>2022-11-20T08:05:54Z</time>
      </trkpt>
      <trkpt lat="45.97589" lon="1.45959">
        <ele>435.6</ele>
        <time>2022-11-20T08:05:58Z</time>
      </trkpt>
      <trkpt lat="45.97595" lon="1.45964">
        <ele>436.8</ele>
        <time>2022-11-20T08:06:03Z</time>
      </trkpt>
      <trkpt lat="45.97599" lon="1.45967">
        <ele>437.2</ele>
        <time>2022-11-20T08:06:06Z</time>
      </trkpt>
      <trkpt lat="45.97603" lon="1.45972">
        <ele>438</ele>
        <time>2022-11-20T08:06:09Z</time>
      </trkpt>
      <trkpt lat="45.97603" lon="1.45972">
        <ele>439.2</ele>
        <time>2022-11-20T08:06:12Z</time>
      </trkpt>
      <trkpt lat="45.97614" lon="1.45983">
        <ele>439.8</ele>
        <time>2022-11-20T08:06:16Z</time>
      </trkpt>
      <trkpt lat="45.97617" lon="1.45985">
        <ele>440.2</ele>
        <time>2022-11-20T08:06:18Z</time>
      </trkpt>
      <trkpt lat="45.97621" lon="1.45989">
        <ele>441.4</ele>
        <time>2022-11-20T08:06:22Z</time>
      </trkpt>
      <trkpt lat="45.97622" lon="1.45991">
        <ele>442.2</ele>
        <time>2022-11-20T08:06:24Z</time>
      </trkpt>
      <trkpt lat="45.97625" lon="1.45992">
        <ele>442.4</ele>
        <time>2022-11-20T08:06:25Z</time>
      </trkpt>
      <trkpt lat="45.97629" lon="1.45994">
        <ele>443.4</ele>
        <time>2022-11-20T08:06:29Z</time>
      </trkpt>
      <trkpt lat="45.9763" lon="1.45995">
        <ele>443.6</ele>
        <time>2022-11-20T08:06:30Z</time>
      </trkpt>
      <trkpt lat="45.97635" lon="1.45998">
        <ele>444.6</ele>
        <time>2022-11-20T08:06:34Z</time>
      </trkpt>
      <trkpt lat="45.9764" lon="1.45999">
        <ele>445.2</ele>
        <time>2022-11-20T08:06:38Z</time>
      </trkpt>
      <trkpt lat="45.97645" lon="1.45999">
        <ele>445.8</ele>
        <time>2022-11-20T08:06:41Z</time>
      </trkpt>
      <trkpt lat="45.97653" lon="1.46001">
        <ele>447</ele>
        <time>2022-11-20T08:06:46Z</time>
      </trkpt>
      <trkpt lat="45.97654" lon="1.46">
        <ele>447.2</ele>
        <time>2022-11-20T08:06:47Z</time>
      </trkpt>
      <trkpt lat="45.97664" lon="1.46002">
        <ele>448.2</ele>
        <time>2022-11-20T08:06:53Z</time>
      </trkpt>
      <trkpt lat="45.97666" lon="1.46003">
        <ele>448.4</ele>
        <time>2022-11-20T08:06:55Z</time>
      </trkpt>
      <trkpt lat="45.97677" lon="1.46003">
        <ele>449.2</ele>
        <time>2022-11-20T08:07:01Z</time>
      </trkpt>
      <trkpt lat="45.97678" lon="1.46003">
        <ele>449.2</ele>
        <time>2022-11-20T08:07:02Z</time>
      </trkpt>
      <trkpt lat="45.97687" lon="1.45997">
        <ele>450</ele>
        <time>2022-11-20T08:07:09Z</time>
      </trkpt>
      <trkpt lat="45.9769" lon="1.45994">
        <ele>450.4</ele>
        <time>2022-11-20T08:07:11Z</time>
      </trkpt>
      <trkpt lat="45.97701" lon="1.45991">
        <ele>451.4</ele>
        <time>2022-11-20T08:07:17Z</time>
      </trkpt>
      <trkpt lat="45.97715" lon="1.45985">
        <ele>452</ele>
        <time>2022-11-20T08:07:24Z</time>
      </trkpt>
      <trkpt lat="45.97721" lon="1.45982">
        <ele>452.4</ele>
        <time>2022-11-20T08:07:27Z</time>
      </trkpt>
      <trkpt lat="45.97733" lon="1.45977">
        <ele>453.2</ele>
        <time>2022-11-20T08:07:33Z</time>
      </trkpt>
      <trkpt lat="45.97738" lon="1.45974">
        <ele>453.4</ele>
        <time>2022-11-20T08:07:35Z</time>
      </trkpt>
      <trkpt lat="45.97749" lon="1.45967">
        <ele>453.8</ele>
        <time>2022-11-20T08:07:40Z</time>
      </trkpt>
      <trkpt lat="45.9776" lon="1.45962">
        <ele>454.4</ele>
        <time>2022-11-20T08:07:45Z</time>
      </trkpt>
      <trkpt lat="45.97764" lon="1.4596">
        <ele>454.8</ele>
        <time>2022-11-20T08:07:47Z</time>
      </trkpt>
      <trkpt lat="45.97784" lon="1.45949">
        <ele>455.6</ele>
        <time>2022-11-20T08:07:56Z</time>
      </trkpt>
      <trkpt lat="45.97804" lon="1.45942">
        <ele>456.8</ele>
        <time>2022-11-20T08:08:03Z</time>
      </trkpt>
      <trkpt lat="45.97821" lon="1.45941">
        <ele>457.6</ele>
        <time>2022-11-20T08:08:09Z</time>
      </trkpt>
      <trkpt lat="45.97824" lon="1.45941">
        <ele>457.8</ele>
        <time>2022-11-20T08:08:10Z</time>
      </trkpt>
      <trkpt lat="45.97844" lon="1.4594">
        <ele>458.6</ele>
        <time>2022-11-20T08:08:16Z</time>
      </trkpt>
      <trkpt lat="45.97856" lon="1.45935">
        <ele>458.8</ele>
        <time>2022-11-20T08:08:20Z</time>
      </trkpt>
      <trkpt lat="45.97868" lon="1.45931">
        <ele>459.6</ele>
        <time>2022-11-20T08:08:23Z</time>
      </trkpt>
      <trkpt lat="45.97876" lon="1.4593">
        <ele>460</ele>
        <time>2022-11-20T08:08:25Z</time>
      </trkpt>
      <trkpt lat="45.97893" lon="1.45927">
        <ele>460.4</ele>
        <time>2022-11-20T08:08:30Z</time>
      </trkpt>
      <trkpt lat="45.97909" lon="1.45923">
        <ele>461</ele>
        <time>2022-11-20T08:08:35Z</time>
      </trkpt>
      <trkpt lat="45.97919" lon="1.45921">
        <ele>461.2</ele>
        <time>2022-11-20T08:08:38Z</time>
      </trkpt>
      <trkpt lat="45.97956" lon="1.45914">
        <ele>462.2</ele>
        <time>2022-11-20T08:08:50Z</time>
      </trkpt>
      <trkpt lat="45.9798" lon="1.45916">
        <ele>462.6</ele>
        <time>2022-11-20T08:08:58Z</time>
      </trkpt>
      <trkpt lat="45.97996" lon="1.45914">
        <ele>462.8</ele>
        <time>2022-11-20T08:09:04Z</time>
      </trkpt>
      <trkpt lat="45.98006" lon="1.45912">
        <ele>463.2</ele>
        <time>2022-11-20T08:09:07Z</time>
      </trkpt>
      <trkpt lat="45.98016" lon="1.45912">
        <ele>463.4</ele>
        <time>2022-11-20T08:09:10Z</time>
      </trkpt>
      <trkpt lat="45.98035" lon="1.45922">
        <ele>463.8</ele>
        <time>2022-11-20T08:09:16Z</time>
      </trkpt>
      <trkpt lat="45.98052" lon="1.45935">
        <ele>464</ele>
        <time>2022-11-20T08:09:23Z</time>
      </trkpt>
      <trkpt lat="45.98056" lon="1.45939">
        <ele>464.2</ele>
        <time>2022-11-20T08:09:27Z</time>
      </trkpt>
      <trkpt lat="45.98056" lon="1.4594">
        <ele>464</ele>
        <time>2022-11-20T08:09:28Z</time>
      </trkpt>
      <trkpt lat="45.98055" lon="1.45941">
        <ele>464</ele>
        <time>2022-11-20T08:09:43Z</time>
      </trkpt>
      <trkpt lat="45.98056" lon="1.45941">
        <ele>464.2</ele>
        <time>2022-11-20T08:09:58Z</time>
      </trkpt>
      <trkpt lat="45.98055" lon="1.45941">
        <ele>464.2</ele>
        <time>2022-11-20T08:10:02Z</time>
      </trkpt>
      <trkpt lat="45.98055" lon="1.45941">
        <ele>464</ele>
        <time>2022-11-20T08:10:21Z</time>
      </trkpt>
      <trkpt lat="45.98056" lon="1.45941">
        <ele>463.8</ele>
        <time>2022-11-20T08:10:39Z</time>
      </trkpt>
      <trkpt lat="45.98057" lon="1.45941">
        <ele>463.8</ele>
        <time>2022-11-20T08:10:58Z</time>
      </trkpt>
      <trkpt lat="45.98057" lon="1.45941">
        <ele>463.8</ele>
        <time>2022-11-20T08:11:22Z</time>
      </trkpt>
      <trkpt lat="45.98056" lon="1.45943">
        <ele>463.8</ele>
        <time>2022-11-20T08:11:38Z</time>
      </trkpt>
      <trkpt lat="45.98056" lon="1.45945">
        <ele>463.8</ele>
        <time>2022-11-20T08:11:55Z</time>
      </trkpt>
      <trkpt lat="45.98056" lon="1.45945">
        <ele>463.8</ele>
        <time>2022-11-20T08:12:13Z</time>
      </trkpt>
      <trkpt lat="45.98055" lon="1.45946">
        <ele>463.8</ele>
        <time>2022-11-20T08:12:32Z</time>
      </trkpt>
      <trkpt lat="45.98056" lon="1.45944">
        <ele>463.8</ele>
        <time>2022-11-20T08:12:49Z</time>
      </trkpt>
      <trkpt lat="45.9806" lon="1.45941">
        <ele>463.8</ele>
        <time>2022-11-20T08:13:08Z</time>
      </trkpt>
      <trkpt lat="45.9807" lon="1.45935">
        <ele>463.8</ele>
        <time>2022-11-20T08:13:13Z</time>
      </trkpt>
      <trkpt lat="45.98085" lon="1.45932">
        <ele>463.8</ele>
        <time>2022-11-20T08:13:18Z</time>
      </trkpt>
      <trkpt lat="45.98101" lon="1.45926">
        <ele>464</ele>
        <time>2022-11-20T08:13:24Z</time>
      </trkpt>
      <trkpt lat="45.98116" lon="1.45917">
        <ele>464.2</ele>
        <time>2022-11-20T08:13:29Z</time>
      </trkpt>
      <trkpt lat="45.98131" lon="1.45904">
        <ele>464.8</ele>
        <time>2022-11-20T08:13:34Z</time>
      </trkpt>
      <trkpt lat="45.98138" lon="1.45898">
        <ele>465</ele>
        <time>2022-11-20T08:13:36Z</time>
      </trkpt>
      <trkpt lat="45.9815" lon="1.45893">
        <ele>465</ele>
        <time>2022-11-20T08:13:39Z</time>
      </trkpt>
      <trkpt lat="45.98157" lon="1.45888">
        <ele>465.2</ele>
        <time>2022-11-20T08:13:41Z</time>
      </trkpt>
      <trkpt lat="45.98173" lon="1.45878">
        <ele>465.2</ele>
        <time>2022-11-20T08:13:45Z</time>
      </trkpt>
      <trkpt lat="45.98185" lon="1.45873">
        <ele>466</ele>
        <time>2022-11-20T08:13:48Z</time>
      </trkpt>
      <trkpt lat="45.98192" lon="1.4587">
        <ele>466.2</ele>
        <time>2022-11-20T08:13:50Z</time>
      </trkpt>
      <trkpt lat="45.98204" lon="1.45863">
        <ele>466.2</ele>
        <time>2022-11-20T08:13:54Z</time>
      </trkpt>
      <trkpt lat="45.98225" lon="1.45843">
        <ele>467.4</ele>
        <time>2022-11-20T08:14:02Z</time>
      </trkpt>
      <trkpt lat="45.98227" lon="1.4584">
        <ele>467.2</ele>
        <time>2022-11-20T08:14:03Z</time>
      </trkpt>
      <trkpt lat="45.98242" lon="1.4582">
        <ele>468.2</ele>
        <time>2022-11-20T08:14:10Z</time>
      </trkpt>
      <trkpt lat="45.98245" lon="1.45816">
        <ele>468.4</ele>
        <time>2022-11-20T08:14:12Z</time>
      </trkpt>
      <trkpt lat="45.9825" lon="1.45805">
        <ele>469.4</ele>
        <time>2022-11-20T08:14:17Z</time>
      </trkpt>
      <trkpt lat="45.98261" lon="1.4579">
        <ele>470.2</ele>
        <time>2022-11-20T08:14:23Z</time>
      </trkpt>
      <trkpt lat="45.98264" lon="1.45787">
        <ele>470.4</ele>
        <time>2022-11-20T08:14:25Z</time>
      </trkpt>
      <trkpt lat="45.98272" lon="1.45779">
        <ele>471</ele>
        <time>2022-11-20T08:14:29Z</time>
      </trkpt>
      <trkpt lat="45.98279" lon="1.45772">
        <ele>471.6</ele>
        <time>2022-11-20T08:14:33Z</time>
      </trkpt>
      <trkpt lat="45.98287" lon="1.45761">
        <ele>472.6</ele>
        <time>2022-11-20T08:14:38Z</time>
      </trkpt>
      <trkpt lat="45.98289" lon="1.45759">
        <ele>472.8</ele>
        <time>2022-11-20T08:14:39Z</time>
      </trkpt>
      <trkpt lat="45.983" lon="1.45748">
        <ele>474</ele>
        <time>2022-11-20T08:14:45Z</time>
      </trkpt>
      <trkpt lat="45.98311" lon="1.45737">
        <ele>475.2</ele>
        <time>2022-11-20T08:14:50Z</time>
      </trkpt>
      <trkpt lat="45.98319" lon="1.4573">
        <ele>475.8</ele>
        <time>2022-11-20T08:14:53Z</time>
      </trkpt>
      <trkpt lat="45.98324" lon="1.45725">
        <ele>476.4</ele>
        <time>2022-11-20T08:14:55Z</time>
      </trkpt>
      <trkpt lat="45.98338" lon="1.45716">
        <ele>477.4</ele>
        <time>2022-11-20T08:15:00Z</time>
      </trkpt>
      <trkpt lat="45.98361" lon="1.45704">
        <ele>478.6</ele>
        <time>2022-11-20T08:15:09Z</time>
      </trkpt>
      <trkpt lat="45.98376" lon="1.45699">
        <ele>479.8</ele>
        <time>2022-11-20T08:15:15Z</time>
      </trkpt>
      <trkpt lat="45.98378" lon="1.45698">
        <ele>480.2</ele>
        <time>2022-11-20T08:15:16Z</time>
      </trkpt>
      <trkpt lat="45.98388" lon="1.45695">
        <ele>480.8</ele>
        <time>2022-11-20T08:15:20Z</time>
      </trkpt>
      <trkpt lat="45.98397" lon="1.45692">
        <ele>481</ele>
        <time>2022-11-20T08:15:23Z</time>
      </trkpt>
      <trkpt lat="45.98427" lon="1.45682">
        <ele>481.6</ele>
        <time>2022-11-20T08:15:32Z</time>
      </trkpt>
      <trkpt lat="45.98463" lon="1.45675">
        <ele>481.8</ele>
        <time>2022-11-20T08:15:41Z</time>
      </trkpt>
      <trkpt lat="45.98501" lon="1.45668">
        <ele>481.6</ele>
        <time>2022-11-20T08:15:49Z</time>
      </trkpt>
      <trkpt lat="45.98542" lon="1.45663">
        <ele>481.6</ele>
        <time>2022-11-20T08:15:57Z</time>
      </trkpt>
      <trkpt lat="45.98547" lon="1.45662">
        <ele>482</ele>
        <time>2022-11-20T08:15:58Z</time>
      </trkpt>
      <trkpt lat="45.98578" lon="1.45657">
        <ele>482</ele>
        <time>2022-11-20T08:16:04Z</time>
      </trkpt>
      <trkpt lat="45.98592" lon="1.45653">
        <ele>482.2</ele>
        <time>2022-11-20T08:16:07Z</time>
      </trkpt>
      <trkpt lat="45.986" lon="1.45648">
        <ele>482.2</ele>
        <time>2022-11-20T08:16:09Z</time>
      </trkpt>
      <trkpt lat="45.98604" lon="1.4565">
        <ele>482.6</ele>
        <time>2022-11-20T08:16:11Z</time>
      </trkpt>
      <trkpt lat="45.98604" lon="1.45653">
        <ele>482.8</ele>
        <time>2022-11-20T08:16:12Z</time>
      </trkpt>
      <trkpt lat="45.98603" lon="1.45655">
        <ele>483</ele>
        <time>2022-11-20T08:16:13Z</time>
      </trkpt>
      <trkpt lat="45.98601" lon="1.45656">
        <ele>483</ele>
        <time>2022-11-20T08:16:14Z</time>
      </trkpt>
      <trkpt lat="45.98596" lon="1.45659">
        <ele>483.4</ele>
        <time>2022-11-20T08:16:16Z</time>
      </trkpt>
      <trkpt lat="45.9859" lon="1.45664">
        <ele>484.2</ele>
        <time>2022-11-20T08:16:18Z</time>
      </trkpt>
      <trkpt lat="45.98577" lon="1.45678">
        <ele>484.6</ele>
        <time>2022-11-20T08:16:23Z</time>
      </trkpt>
      <trkpt lat="45.9857" lon="1.45688">
        <ele>485.4</ele>
        <time>2022-11-20T08:16:28Z</time>
      </trkpt>
      <trkpt lat="45.9856" lon="1.457">
        <ele>486.4</ele>
        <time>2022-11-20T08:16:34Z</time>
      </trkpt>
      <trkpt lat="45.98558" lon="1.45701">
        <ele>486.4</ele>
        <time>2022-11-20T08:16:35Z</time>
      </trkpt>
      <trkpt lat="45.98549" lon="1.4571">
        <ele>487.6</ele>
        <time>2022-11-20T08:16:41Z</time>
      </trkpt>
      <trkpt lat="45.98547" lon="1.45713">
        <ele>487.8</ele>
        <time>2022-11-20T08:16:42Z</time>
      </trkpt>
      <trkpt lat="45.98535" lon="1.45723">
        <ele>488.8</ele>
        <time>2022-11-20T08:16:48Z</time>
      </trkpt>
      <trkpt lat="45.98531" lon="1.45725">
        <ele>489</ele>
        <time>2022-11-20T08:16:50Z</time>
      </trkpt>
      <trkpt lat="45.98514" lon="1.45735">
        <ele>489.8</ele>
        <time>2022-11-20T08:16:55Z</time>
      </trkpt>
      <trkpt lat="45.985" lon="1.45745">
        <ele>490.4</ele>
        <time>2022-11-20T08:17:01Z</time>
      </trkpt>
      <trkpt lat="45.98493" lon="1.45751">
        <ele>491</ele>
        <time>2022-11-20T08:17:04Z</time>
      </trkpt>
      <trkpt lat="45.98487" lon="1.45762">
        <ele>491.4</ele>
        <time>2022-11-20T08:17:08Z</time>
      </trkpt>
      <trkpt lat="45.98482" lon="1.45768">
        <ele>492</ele>
        <time>2022-11-20T08:17:10Z</time>
      </trkpt>
      <trkpt lat="45.98474" lon="1.4578">
        <ele>493</ele>
        <time>2022-11-20T08:17:14Z</time>
      </trkpt>
      <trkpt lat="45.98472" lon="1.45783">
        <ele>493.2</ele>
        <time>2022-11-20T08:17:15Z</time>
      </trkpt>
      <trkpt lat="45.98455" lon="1.45808">
        <ele>494.2</ele>
        <time>2022-11-20T08:17:23Z</time>
      </trkpt>
      <trkpt lat="45.98449" lon="1.45827">
        <ele>494.4</ele>
        <time>2022-11-20T08:17:28Z</time>
      </trkpt>
      <trkpt lat="45.98446" lon="1.45855">
        <ele>494.2</ele>
        <time>2022-11-20T08:17:33Z</time>
      </trkpt>
      <trkpt lat="45.9844" lon="1.459">
        <ele>492.8</ele>
        <time>2022-11-20T08:17:40Z</time>
      </trkpt>
      <trkpt lat="45.9844" lon="1.45906">
        <ele>492.4</ele>
        <time>2022-11-20T08:17:41Z</time>
      </trkpt>
      <trkpt lat="45.98439" lon="1.45924">
        <ele>491.8</ele>
        <time>2022-11-20T08:17:44Z</time>
      </trkpt>
      <trkpt lat="45.98441" lon="1.45947">
        <ele>491.8</ele>
        <time>2022-11-20T08:17:48Z</time>
      </trkpt>
      <trkpt lat="45.98443" lon="1.45977">
        <ele>491.2</ele>
        <time>2022-11-20T08:17:53Z</time>
      </trkpt>
      <trkpt lat="45.98443" lon="1.45997">
        <ele>490.8</ele>
        <time>2022-11-20T08:17:56Z</time>
      </trkpt>
      <trkpt lat="45.98442" lon="1.4601">
        <ele>490.8</ele>
        <time>2022-11-20T08:17:58Z</time>
      </trkpt>
      <trkpt lat="45.98439" lon="1.46054">
        <ele>489.6</ele>
        <time>2022-11-20T08:18:05Z</time>
      </trkpt>
      <trkpt lat="45.98436" lon="1.4609">
        <ele>488.6</ele>
        <time>2022-11-20T08:18:10Z</time>
      </trkpt>
      <trkpt lat="45.98436" lon="1.46117">
        <ele>488</ele>
        <time>2022-11-20T08:18:14Z</time>
      </trkpt>
      <trkpt lat="45.98441" lon="1.46152">
        <ele>487.4</ele>
        <time>2022-11-20T08:18:19Z</time>
      </trkpt>
      <trkpt lat="45.98443" lon="1.46167">
        <ele>486.8</ele>
        <time>2022-11-20T08:18:21Z</time>
      </trkpt>
      <trkpt lat="45.98444" lon="1.46175">
        <ele>486.2</ele>
        <time>2022-11-20T08:18:22Z</time>
      </trkpt>
      <trkpt lat="45.98445" lon="1.46193">
        <ele>485</ele>
        <time>2022-11-20T08:18:24Z</time>
      </trkpt>
      <trkpt lat="45.98445" lon="1.4621">
        <ele>483.8</ele>
        <time>2022-11-20T08:18:26Z</time>
      </trkpt>
      <trkpt lat="45.98445" lon="1.46219">
        <ele>483.4</ele>
        <time>2022-11-20T08:18:27Z</time>
      </trkpt>
      <trkpt lat="45.98442" lon="1.4626">
        <ele>482.6</ele>
        <time>2022-11-20T08:18:32Z</time>
      </trkpt>
      <trkpt lat="45.98441" lon="1.46267">
        <ele>482.4</ele>
        <time>2022-11-20T08:18:33Z</time>
      </trkpt>
      <trkpt lat="45.98434" lon="1.46301">
        <ele>481</ele>
        <time>2022-11-20T08:18:37Z</time>
      </trkpt>
      <trkpt lat="45.98433" lon="1.46311">
        <ele>480.6</ele>
        <time>2022-11-20T08:18:38Z</time>
      </trkpt>
      <trkpt lat="45.98431" lon="1.46327">
        <ele>479.4</ele>
        <time>2022-11-20T08:18:40Z</time>
      </trkpt>
      <trkpt lat="45.98431" lon="1.46341">
        <ele>478.2</ele>
        <time>2022-11-20T08:18:42Z</time>
      </trkpt>
      <trkpt lat="45.98431" lon="1.46348">
        <ele>477.8</ele>
        <time>2022-11-20T08:18:43Z</time>
      </trkpt>
      <trkpt lat="45.98433" lon="1.46356">
        <ele>477</ele>
        <time>2022-11-20T08:18:44Z</time>
      </trkpt>
      <trkpt lat="45.98435" lon="1.46364">
        <ele>476.4</ele>
        <time>2022-11-20T08:18:45Z</time>
      </trkpt>
      <trkpt lat="45.98438" lon="1.46371">
        <ele>475.4</ele>
        <time>2022-11-20T08:18:46Z</time>
      </trkpt>
      <trkpt lat="45.98441" lon="1.4638">
        <ele>474.6</ele>
        <time>2022-11-20T08:18:47Z</time>
      </trkpt>
      <trkpt lat="45.98443" lon="1.46388">
        <ele>474.2</ele>
        <time>2022-11-20T08:18:48Z</time>
      </trkpt>
      <trkpt lat="45.98448" lon="1.46402">
        <ele>472.8</ele>
        <time>2022-11-20T08:18:50Z</time>
      </trkpt>
      <trkpt lat="45.98451" lon="1.46408">
        <ele>472.2</ele>
        <time>2022-11-20T08:18:51Z</time>
      </trkpt>
      <trkpt lat="45.98455" lon="1.46413">
        <ele>471.2</ele>
        <time>2022-11-20T08:18:52Z</time>
      </trkpt>
      <trkpt lat="45.98465" lon="1.46425">
        <ele>469.6</ele>
        <time>2022-11-20T08:18:54Z</time>
      </trkpt>
      <trkpt lat="45.9847" lon="1.46431">
        <ele>468.6</ele>
        <time>2022-11-20T08:18:55Z</time>
      </trkpt>
      <trkpt lat="45.98483" lon="1.46443">
        <ele>467.2</ele>
        <time>2022-11-20T08:18:57Z</time>
      </trkpt>
      <trkpt lat="45.98496" lon="1.46453">
        <ele>466</ele>
        <time>2022-11-20T08:18:59Z</time>
      </trkpt>
      <trkpt lat="45.98501" lon="1.46458">
        <ele>465.2</ele>
        <time>2022-11-20T08:19:00Z</time>
      </trkpt>
      <trkpt lat="45.98507" lon="1.46462">
        <ele>464.6</ele>
        <time>2022-11-20T08:19:01Z</time>
      </trkpt>
      <trkpt lat="45.9852" lon="1.46475">
        <ele>463.4</ele>
        <time>2022-11-20T08:19:04Z</time>
      </trkpt>
      <trkpt lat="45.98522" lon="1.46479">
        <ele>462.6</ele>
        <time>2022-11-20T08:19:05Z</time>
      </trkpt>
      <trkpt lat="45.98523" lon="1.46485">
        <ele>462.2</ele>
        <time>2022-11-20T08:19:06Z</time>
      </trkpt>
      <trkpt lat="45.98519" lon="1.46496">
        <ele>461.2</ele>
        <time>2022-11-20T08:19:08Z</time>
      </trkpt>
      <trkpt lat="45.98511" lon="1.46521">
        <ele>459.2</ele>
        <time>2022-11-20T08:19:11Z</time>
      </trkpt>
      <trkpt lat="45.98511" lon="1.46521">
        <ele>457.6</ele>
        <time>2022-11-20T08:19:12Z</time>
      </trkpt>
      <trkpt lat="45.98505" lon="1.46543">
        <ele>457.6</ele>
        <time>2022-11-20T08:19:13Z</time>
      </trkpt>
      <trkpt lat="45.98499" lon="1.46561">
        <ele>456.2</ele>
        <time>2022-11-20T08:19:15Z</time>
      </trkpt>
      <trkpt lat="45.98496" lon="1.46569">
        <ele>454.8</ele>
        <time>2022-11-20T08:19:16Z</time>
      </trkpt>
      <trkpt lat="45.98492" lon="1.46576">
        <ele>453.6</ele>
        <time>2022-11-20T08:19:17Z</time>
      </trkpt>
      <trkpt lat="45.98484" lon="1.4659">
        <ele>452.6</ele>
        <time>2022-11-20T08:19:19Z</time>
      </trkpt>
      <trkpt lat="45.98472" lon="1.46611">
        <ele>451.2</ele>
        <time>2022-11-20T08:19:22Z</time>
      </trkpt>
      <trkpt lat="45.98469" lon="1.46618">
        <ele>450</ele>
        <time>2022-11-20T08:19:23Z</time>
      </trkpt>
      <trkpt lat="45.98467" lon="1.46627">
        <ele>448.6</ele>
        <time>2022-11-20T08:19:24Z</time>
      </trkpt>
      <trkpt lat="45.98465" lon="1.46634">
        <ele>447</ele>
        <time>2022-11-20T08:19:25Z</time>
      </trkpt>
      <trkpt lat="45.98463" lon="1.46647">
        <ele>445.2</ele>
        <time>2022-11-20T08:19:27Z</time>
      </trkpt>
      <trkpt lat="45.98461" lon="1.4666">
        <ele>444</ele>
        <time>2022-11-20T08:19:29Z</time>
      </trkpt>
      <trkpt lat="45.9846" lon="1.46668">
        <ele>443.4</ele>
        <time>2022-11-20T08:19:30Z</time>
      </trkpt>
      <trkpt lat="45.98458" lon="1.46674">
        <ele>443</ele>
        <time>2022-11-20T08:19:31Z</time>
      </trkpt>
      <trkpt lat="45.98456" lon="1.4668">
        <ele>442.6</ele>
        <time>2022-11-20T08:19:32Z</time>
      </trkpt>
      <trkpt lat="45.98451" lon="1.46692">
        <ele>442</ele>
        <time>2022-11-20T08:19:34Z</time>
      </trkpt>
      <trkpt lat="45.98448" lon="1.46699">
        <ele>441.8</ele>
        <time>2022-11-20T08:19:35Z</time>
      </trkpt>
      <trkpt lat="45.98443" lon="1.46713">
        <ele>441.4</ele>
        <time>2022-11-20T08:19:37Z</time>
      </trkpt>
      <trkpt lat="45.98433" lon="1.46733">
        <ele>441</ele>
        <time>2022-11-20T08:19:40Z</time>
      </trkpt>
      <trkpt lat="45.98415" lon="1.46757">
        <ele>441</ele>
        <time>2022-11-20T08:19:44Z</time>
      </trkpt>
      <trkpt lat="45.98409" lon="1.46768">
        <ele>441</ele>
        <time>2022-11-20T08:19:46Z</time>
      </trkpt>
      <trkpt lat="45.98408" lon="1.46774">
        <ele>440.6</ele>
        <time>2022-11-20T08:19:47Z</time>
      </trkpt>
      <trkpt lat="45.9841" lon="1.46778">
        <ele>440.2</ele>
        <time>2022-11-20T08:19:48Z</time>
      </trkpt>
      <trkpt lat="45.98418" lon="1.46785">
        <ele>439.8</ele>
        <time>2022-11-20T08:19:50Z</time>
      </trkpt>
      <trkpt lat="45.98422" lon="1.46789">
        <ele>439.6</ele>
        <time>2022-11-20T08:19:51Z</time>
      </trkpt>
      <trkpt lat="45.98433" lon="1.46796">
        <ele>438.4</ele>
        <time>2022-11-20T08:19:53Z</time>
      </trkpt>
      <trkpt lat="45.98445" lon="1.46803">
        <ele>437.6</ele>
        <time>2022-11-20T08:19:55Z</time>
      </trkpt>
      <trkpt lat="45.98451" lon="1.46806">
        <ele>437</ele>
        <time>2022-11-20T08:19:56Z</time>
      </trkpt>
      <trkpt lat="45.98468" lon="1.46817">
        <ele>435.8</ele>
        <time>2022-11-20T08:19:59Z</time>
      </trkpt>
      <trkpt lat="45.98482" lon="1.46826">
        <ele>435.4</ele>
        <time>2022-11-20T08:20:02Z</time>
      </trkpt>
      <trkpt lat="45.98486" lon="1.46829">
        <ele>435</ele>
        <time>2022-11-20T08:20:03Z</time>
      </trkpt>
      <trkpt lat="45.98495" lon="1.46833">
        <ele>434.6</ele>
        <time>2022-11-20T08:20:05Z</time>
      </trkpt>
      <trkpt lat="45.98502" lon="1.46838">
        <ele>434.2</ele>
        <time>2022-11-20T08:20:07Z</time>
      </trkpt>
      <trkpt lat="45.98519" lon="1.4685">
        <ele>433.6</ele>
        <time>2022-11-20T08:20:11Z</time>
      </trkpt>
      <trkpt lat="45.98524" lon="1.46854">
        <ele>433</ele>
        <time>2022-11-20T08:20:12Z</time>
      </trkpt>
      <trkpt lat="45.98532" lon="1.46863">
        <ele>431.4</ele>
        <time>2022-11-20T08:20:14Z</time>
      </trkpt>
      <trkpt lat="45.98541" lon="1.46873">
        <ele>430</ele>
        <time>2022-11-20T08:20:16Z</time>
      </trkpt>
      <trkpt lat="45.98546" lon="1.46878">
        <ele>429.4</ele>
        <time>2022-11-20T08:20:17Z</time>
      </trkpt>
      <trkpt lat="45.98551" lon="1.46882">
        <ele>429.2</ele>
        <time>2022-11-20T08:20:18Z</time>
      </trkpt>
      <trkpt lat="45.9856" lon="1.46889">
        <ele>428.6</ele>
        <time>2022-11-20T08:20:20Z</time>
      </trkpt>
      <trkpt lat="45.98572" lon="1.46899">
        <ele>427.8</ele>
        <time>2022-11-20T08:20:23Z</time>
      </trkpt>
      <trkpt lat="45.98592" lon="1.46914">
        <ele>427.4</ele>
        <time>2022-11-20T08:20:28Z</time>
      </trkpt>
      <trkpt lat="45.986" lon="1.4692">
        <ele>427.2</ele>
        <time>2022-11-20T08:20:30Z</time>
      </trkpt>
      <trkpt lat="45.98618" lon="1.46935">
        <ele>426.4</ele>
        <time>2022-11-20T08:20:34Z</time>
      </trkpt>
      <trkpt lat="45.98633" lon="1.46947">
        <ele>425.8</ele>
        <time>2022-11-20T08:20:37Z</time>
      </trkpt>
      <trkpt lat="45.98643" lon="1.46955">
        <ele>425.4</ele>
        <time>2022-11-20T08:20:39Z</time>
      </trkpt>
      <trkpt lat="45.98657" lon="1.46967">
        <ele>424</ele>
        <time>2022-11-20T08:20:42Z</time>
      </trkpt>
      <trkpt lat="45.98669" lon="1.46979">
        <ele>423.2</ele>
        <time>2022-11-20T08:20:45Z</time>
      </trkpt>
      <trkpt lat="45.98676" lon="1.46985">
        <ele>423</ele>
        <time>2022-11-20T08:20:47Z</time>
      </trkpt>
      <trkpt lat="45.98693" lon="1.46999">
        <ele>422.8</ele>
        <time>2022-11-20T08:20:52Z</time>
      </trkpt>
      <trkpt lat="45.98708" lon="1.47013">
        <ele>422.6</ele>
        <time>2022-11-20T08:20:56Z</time>
      </trkpt>
      <trkpt lat="45.98716" lon="1.47019">
        <ele>422.4</ele>
        <time>2022-11-20T08:20:58Z</time>
      </trkpt>
      <trkpt lat="45.98722" lon="1.47025">
        <ele>422</ele>
        <time>2022-11-20T08:21:00Z</time>
      </trkpt>
      <trkpt lat="45.98728" lon="1.47027">
        <ele>421.6</ele>
        <time>2022-11-20T08:21:02Z</time>
      </trkpt>
      <trkpt lat="45.9873" lon="1.47027">
        <ele>421.4</ele>
        <time>2022-11-20T08:21:03Z</time>
      </trkpt>
      <trkpt lat="45.98735" lon="1.47023">
        <ele>421.2</ele>
        <time>2022-11-20T08:21:05Z</time>
      </trkpt>
      <trkpt lat="45.98748" lon="1.47007">
        <ele>421.2</ele>
        <time>2022-11-20T08:21:12Z</time>
      </trkpt>
      <trkpt lat="45.98763" lon="1.47011">
        <ele>421</ele>
        <time>2022-11-20T08:21:17Z</time>
      </trkpt>
      <trkpt lat="45.98769" lon="1.47012">
        <ele>421</ele>
        <time>2022-11-20T08:21:19Z</time>
      </trkpt>
      <trkpt lat="45.98772" lon="1.47012">
        <ele>420.8</ele>
        <time>2022-11-20T08:21:20Z</time>
      </trkpt>
      <trkpt lat="45.98782" lon="1.47013">
        <ele>420.6</ele>
        <time>2022-11-20T08:21:23Z</time>
      </trkpt>
      <trkpt lat="45.98786" lon="1.47014">
        <ele>420.4</ele>
        <time>2022-11-20T08:21:24Z</time>
      </trkpt>
      <trkpt lat="45.98803" lon="1.47018">
        <ele>420</ele>
        <time>2022-11-20T08:21:28Z</time>
      </trkpt>
      <trkpt lat="45.98807" lon="1.47019">
        <ele>419.8</ele>
        <time>2022-11-20T08:21:29Z</time>
      </trkpt>
      <trkpt lat="45.98811" lon="1.47019">
        <ele>419.8</ele>
        <time>2022-11-20T08:21:30Z</time>
      </trkpt>
      <trkpt lat="45.9883" lon="1.47021">
        <ele>419.8</ele>
        <time>2022-11-20T08:21:35Z</time>
      </trkpt>
      <trkpt lat="45.98834" lon="1.47021">
        <ele>419.4</ele>
        <time>2022-11-20T08:21:36Z</time>
      </trkpt>
      <trkpt lat="45.98842" lon="1.4702">
        <ele>418.6</ele>
        <time>2022-11-20T08:21:38Z</time>
      </trkpt>
      <trkpt lat="45.98846" lon="1.47019">
        <ele>418.4</ele>
        <time>2022-11-20T08:21:39Z</time>
      </trkpt>
      <trkpt lat="45.98855" lon="1.4702">
        <ele>417.6</ele>
        <time>2022-11-20T08:21:41Z</time>
      </trkpt>
      <trkpt lat="45.98865" lon="1.47019">
        <ele>417</ele>
        <time>2022-11-20T08:21:44Z</time>
      </trkpt>
      <trkpt lat="45.98869" lon="1.47018">
        <ele>416.4</ele>
        <time>2022-11-20T08:21:45Z</time>
      </trkpt>
      <trkpt lat="45.98874" lon="1.47016">
        <ele>415.8</ele>
        <time>2022-11-20T08:21:46Z</time>
      </trkpt>
      <trkpt lat="45.98883" lon="1.47013">
        <ele>415.2</ele>
        <time>2022-11-20T08:21:48Z</time>
      </trkpt>
      <trkpt lat="45.98892" lon="1.47009">
        <ele>414.6</ele>
        <time>2022-11-20T08:21:50Z</time>
      </trkpt>
      <trkpt lat="45.98902" lon="1.47007">
        <ele>414</ele>
        <time>2022-11-20T08:21:52Z</time>
      </trkpt>
      <trkpt lat="45.98918" lon="1.47004">
        <ele>412.4</ele>
        <time>2022-11-20T08:21:55Z</time>
      </trkpt>
      <trkpt lat="45.9893" lon="1.47003">
        <ele>411.6</ele>
        <time>2022-11-20T08:21:57Z</time>
      </trkpt>
      <trkpt lat="45.98937" lon="1.47004">
        <ele>411</ele>
        <time>2022-11-20T08:21:58Z</time>
      </trkpt>
      <trkpt lat="45.98955" lon="1.47001">
        <ele>409.6</ele>
        <time>2022-11-20T08:22:01Z</time>
      </trkpt>
      <trkpt lat="45.98968" lon="1.46997">
        <ele>408.4</ele>
        <time>2022-11-20T08:22:03Z</time>
      </trkpt>
      <trkpt lat="45.98997" lon="1.46985">
        <ele>407.4</ele>
        <time>2022-11-20T08:22:08Z</time>
      </trkpt>
      <trkpt lat="45.99" lon="1.46983">
        <ele>406.8</ele>
        <time>2022-11-20T08:22:09Z</time>
      </trkpt>
      <trkpt lat="45.99007" lon="1.4698">
        <ele>406.2</ele>
        <time>2022-11-20T08:22:11Z</time>
      </trkpt>
      <trkpt lat="45.99013" lon="1.46977">
        <ele>405.8</ele>
        <time>2022-11-20T08:22:14Z</time>
      </trkpt>
      <trkpt lat="45.99027" lon="1.46971">
        <ele>405.6</ele>
        <time>2022-11-20T08:22:21Z</time>
      </trkpt>
      <trkpt lat="45.9904" lon="1.46967">
        <ele>405.4</ele>
        <time>2022-11-20T08:22:28Z</time>
      </trkpt>
      <trkpt lat="45.99052" lon="1.4696">
        <ele>405.2</ele>
        <time>2022-11-20T08:22:35Z</time>
      </trkpt>
      <trkpt lat="45.99062" lon="1.46957">
        <ele>405.2</ele>
        <time>2022-11-20T08:22:42Z</time>
      </trkpt>
      <trkpt lat="45.99063" lon="1.46956">
        <ele>405.2</ele>
        <time>2022-11-20T08:22:43Z</time>
      </trkpt>
      <trkpt lat="45.99066" lon="1.46955">
        <ele>405.2</ele>
        <time>2022-11-20T08:22:45Z</time>
      </trkpt>
      <trkpt lat="45.99069" lon="1.46956">
        <ele>405</ele>
        <time>2022-11-20T08:22:47Z</time>
      </trkpt>
      <trkpt lat="45.9907" lon="1.46956">
        <ele>404.8</ele>
        <time>2022-11-20T08:22:48Z</time>
      </trkpt>
      <trkpt lat="45.99076" lon="1.46956">
        <ele>404.8</ele>
        <time>2022-11-20T08:22:52Z</time>
      </trkpt>
      <trkpt lat="45.9908" lon="1.46953">
        <ele>405.2</ele>
        <time>2022-11-20T08:22:55Z</time>
      </trkpt>
      <trkpt lat="45.99092" lon="1.4694">
        <ele>405.6</ele>
        <time>2022-11-20T08:23:02Z</time>
      </trkpt>
      <trkpt lat="45.99101" lon="1.46932">
        <ele>406.2</ele>
        <time>2022-11-20T08:23:06Z</time>
      </trkpt>
      <trkpt lat="45.99104" lon="1.46931">
        <ele>406.4</ele>
        <time>2022-11-20T08:23:07Z</time>
      </trkpt>
      <trkpt lat="45.99115" lon="1.46928">
        <ele>406.6</ele>
        <time>2022-11-20T08:23:12Z</time>
      </trkpt>
      <trkpt lat="45.99123" lon="1.46926">
        <ele>407.6</ele>
        <time>2022-11-20T08:23:15Z</time>
      </trkpt>
      <trkpt lat="45.99134" lon="1.46928">
        <ele>408.2</ele>
        <time>2022-11-20T08:23:19Z</time>
      </trkpt>
      <trkpt lat="45.99139" lon="1.46929">
        <ele>408.6</ele>
        <time>2022-11-20T08:23:21Z</time>
      </trkpt>
      <trkpt lat="45.99147" lon="1.46929">
        <ele>409.6</ele>
        <time>2022-11-20T08:23:25Z</time>
      </trkpt>
      <trkpt lat="45.99152" lon="1.46929">
        <ele>409.8</ele>
        <time>2022-11-20T08:23:27Z</time>
      </trkpt>
      <trkpt lat="45.99164" lon="1.46933">
        <ele>411</ele>
        <time>2022-11-20T08:23:32Z</time>
      </trkpt>
      <trkpt lat="45.99168" lon="1.46934">
        <ele>411</ele>
        <time>2022-11-20T08:23:33Z</time>
      </trkpt>
      <trkpt lat="45.99181" lon="1.4694">
        <ele>412</ele>
        <time>2022-11-20T08:23:38Z</time>
      </trkpt>
      <trkpt lat="45.99184" lon="1.46941">
        <ele>412.2</ele>
        <time>2022-11-20T08:23:39Z</time>
      </trkpt>
      <trkpt lat="45.99196" lon="1.46947">
        <ele>413</ele>
        <time>2022-11-20T08:23:45Z</time>
      </trkpt>
      <trkpt lat="45.99202" lon="1.46949">
        <ele>413.6</ele>
        <time>2022-11-20T08:23:47Z</time>
      </trkpt>
      <trkpt lat="45.99209" lon="1.4695">
        <ele>414.2</ele>
        <time>2022-11-20T08:23:50Z</time>
      </trkpt>
      <trkpt lat="45.99222" lon="1.46956">
        <ele>415</ele>
        <time>2022-11-20T08:23:55Z</time>
      </trkpt>
      <trkpt lat="45.9923" lon="1.4696">
        <ele>415.2</ele>
        <time>2022-11-20T08:23:58Z</time>
      </trkpt>
      <trkpt lat="45.99239" lon="1.46963">
        <ele>415.8</ele>
        <time>2022-11-20T08:24:02Z</time>
      </trkpt>
      <trkpt lat="45.99246" lon="1.46967">
        <ele>416</ele>
        <time>2022-11-20T08:24:05Z</time>
      </trkpt>
      <trkpt lat="45.99253" lon="1.46972">
        <ele>416</ele>
        <time>2022-11-20T08:24:07Z</time>
      </trkpt>
      <trkpt lat="45.99268" lon="1.46981">
        <ele>415.8</ele>
        <time>2022-11-20T08:24:11Z</time>
      </trkpt>
      <trkpt lat="45.99274" lon="1.46993">
        <ele>416</ele>
        <time>2022-11-20T08:24:15Z</time>
      </trkpt>
      <trkpt lat="45.99277" lon="1.46996">
        <ele>416</ele>
        <time>2022-11-20T08:24:16Z</time>
      </trkpt>
      <trkpt lat="45.99279" lon="1.47">
        <ele>416</ele>
        <time>2022-11-20T08:24:17Z</time>
      </trkpt>
      <trkpt lat="45.99286" lon="1.47013">
        <ele>416</ele>
        <time>2022-11-20T08:24:19Z</time>
      </trkpt>
      <trkpt lat="45.9929" lon="1.47018">
        <ele>416</ele>
        <time>2022-11-20T08:24:20Z</time>
      </trkpt>
      <trkpt lat="45.99293" lon="1.47023">
        <ele>415.8</ele>
        <time>2022-11-20T08:24:21Z</time>
      </trkpt>
      <trkpt lat="45.99299" lon="1.47032">
        <ele>416</ele>
        <time>2022-11-20T08:24:23Z</time>
      </trkpt>
      <trkpt lat="45.99306" lon="1.47042">
        <ele>415.8</ele>
        <time>2022-11-20T08:24:25Z</time>
      </trkpt>
      <trkpt lat="45.99315" lon="1.47058">
        <ele>415.8</ele>
        <time>2022-11-20T08:24:28Z</time>
      </trkpt>
      <trkpt lat="45.99321" lon="1.47067">
        <ele>415.4</ele>
        <time>2022-11-20T08:24:30Z</time>
      </trkpt>
      <trkpt lat="45.9934" lon="1.47098">
        <ele>414.2</ele>
        <time>2022-11-20T08:24:35Z</time>
      </trkpt>
      <trkpt lat="45.99344" lon="1.47105">
        <ele>414</ele>
        <time>2022-11-20T08:24:36Z</time>
      </trkpt>
      <trkpt lat="45.99353" lon="1.47119">
        <ele>412.6</ele>
        <time>2022-11-20T08:24:38Z</time>
      </trkpt>
      <trkpt lat="45.99357" lon="1.47125">
        <ele>412.2</ele>
        <time>2022-11-20T08:24:39Z</time>
      </trkpt>
      <trkpt lat="45.99364" lon="1.47132">
        <ele>411.4</ele>
        <time>2022-11-20T08:24:41Z</time>
      </trkpt>
      <trkpt lat="45.99368" lon="1.47133">
        <ele>411</ele>
        <time>2022-11-20T08:24:43Z</time>
      </trkpt>
      <trkpt lat="45.99369" lon="1.47134">
        <ele>411</ele>
        <time>2022-11-20T08:24:44Z</time>
      </trkpt>
      <trkpt lat="45.99372" lon="1.47135">
        <ele>411</ele>
        <time>2022-11-20T08:24:49Z</time>
      </trkpt>
      <trkpt lat="45.99372" lon="1.47136">
        <ele>411</ele>
        <time>2022-11-20T08:24:50Z</time>
      </trkpt>
      <trkpt lat="45.99377" lon="1.4714">
        <ele>411</ele>
        <time>2022-11-20T08:24:57Z</time>
      </trkpt>
      <trkpt lat="45.99385" lon="1.47148">
        <ele>411</ele>
        <time>2022-11-20T08:25:05Z</time>
      </trkpt>
      <trkpt lat="45.99389" lon="1.47154">
        <ele>411</ele>
        <time>2022-11-20T08:25:16Z</time>
      </trkpt>
      <trkpt lat="45.99388" lon="1.47151">
        <ele>411</ele>
        <time>2022-11-20T08:25:32Z</time>
      </trkpt>
      <trkpt lat="45.99388" lon="1.47149">
        <ele>411</ele>
        <time>2022-11-20T08:25:49Z</time>
      </trkpt>
      <trkpt lat="45.99387" lon="1.47151">
        <ele>411.4</ele>
        <time>2022-11-20T08:26:06Z</time>
      </trkpt>
      <trkpt lat="45.99387" lon="1.47152">
        <ele>411.4</ele>
        <time>2022-11-20T08:26:24Z</time>
      </trkpt>
      <trkpt lat="45.99387" lon="1.47152">
        <ele>411.4</ele>
        <time>2022-11-20T08:26:42Z</time>
      </trkpt>
      <trkpt lat="45.99387" lon="1.47151">
        <ele>411.4</ele>
        <time>2022-11-20T08:26:54Z</time>
      </trkpt>
      <trkpt lat="45.99388" lon="1.47153">
        <ele>411.4</ele>
        <time>2022-11-20T08:27:10Z</time>
      </trkpt>
      <trkpt lat="45.99388" lon="1.47155">
        <ele>411.4</ele>
        <time>2022-11-20T08:27:28Z</time>
      </trkpt>
      <trkpt lat="45.99389" lon="1.47154">
        <ele>411.4</ele>
        <time>2022-11-20T08:27:45Z</time>
      </trkpt>
      <trkpt lat="45.99389" lon="1.47151">
        <ele>411.4</ele>
        <time>2022-11-20T08:27:49Z</time>
      </trkpt>
      <trkpt lat="45.99389" lon="1.4715">
        <ele>411.2</ele>
        <time>2022-11-20T08:27:51Z</time>
      </trkpt>
      <trkpt lat="45.99388" lon="1.47149">
        <ele>411</ele>
        <time>2022-11-20T08:27:54Z</time>
      </trkpt>
      <trkpt lat="45.99388" lon="1.47147">
        <ele>410.8</ele>
        <time>2022-11-20T08:27:55Z</time>
      </trkpt>
      <trkpt lat="45.99389" lon="1.47146">
        <ele>410.8</ele>
        <time>2022-11-20T08:27:56Z</time>
      </trkpt>
      <trkpt lat="45.99391" lon="1.47131">
        <ele>411.4</ele>
        <time>2022-11-20T08:28:02Z</time>
      </trkpt>
      <trkpt lat="45.99393" lon="1.47116">
        <ele>411.8</ele>
        <time>2022-11-20T08:28:07Z</time>
      </trkpt>
      <trkpt lat="45.99393" lon="1.47101">
        <ele>412.4</ele>
        <time>2022-11-20T08:28:11Z</time>
      </trkpt>
      <trkpt lat="45.99393" lon="1.47096">
        <ele>413.2</ele>
        <time>2022-11-20T08:28:13Z</time>
      </trkpt>
      <trkpt lat="45.99393" lon="1.47096">
        <ele>413.8</ele>
        <time>2022-11-20T08:28:14Z</time>
      </trkpt>
      <trkpt lat="45.99394" lon="1.47091">
        <ele>413.8</ele>
        <time>2022-11-20T08:28:15Z</time>
      </trkpt>
      <trkpt lat="45.99399" lon="1.47078">
        <ele>414.6</ele>
        <time>2022-11-20T08:28:19Z</time>
      </trkpt>
      <trkpt lat="45.99404" lon="1.47065">
        <ele>415</ele>
        <time>2022-11-20T08:28:23Z</time>
      </trkpt>
      <trkpt lat="45.99407" lon="1.47053">
        <ele>416.2</ele>
        <time>2022-11-20T08:28:26Z</time>
      </trkpt>
      <trkpt lat="45.99417" lon="1.47023">
        <ele>416.8</ele>
        <time>2022-11-20T08:28:32Z</time>
      </trkpt>
      <trkpt lat="45.99422" lon="1.47014">
        <ele>416.8</ele>
        <time>2022-11-20T08:28:34Z</time>
      </trkpt>
      <trkpt lat="45.99435" lon="1.46991">
        <ele>417</ele>
        <time>2022-11-20T08:28:38Z</time>
      </trkpt>
      <trkpt lat="45.99438" lon="1.46986">
        <ele>417.2</ele>
        <time>2022-11-20T08:28:39Z</time>
      </trkpt>
      <trkpt lat="45.99439" lon="1.46981">
        <ele>417.2</ele>
        <time>2022-11-20T08:28:40Z</time>
      </trkpt>
      <trkpt lat="45.99449" lon="1.46953">
        <ele>417.6</ele>
        <time>2022-11-20T08:28:46Z</time>
      </trkpt>
      <trkpt lat="45.9945" lon="1.46949">
        <ele>417.6</ele>
        <time>2022-11-20T08:28:47Z</time>
      </trkpt>
      <trkpt lat="45.99458" lon="1.46928">
        <ele>418.2</ele>
        <time>2022-11-20T08:28:52Z</time>
      </trkpt>
      <trkpt lat="45.99463" lon="1.46915">
        <ele>418.8</ele>
        <time>2022-11-20T08:28:55Z</time>
      </trkpt>
      <trkpt lat="45.99467" lon="1.46903">
        <ele>419.6</ele>
        <time>2022-11-20T08:28:58Z</time>
      </trkpt>
      <trkpt lat="45.99468" lon="1.46887">
        <ele>420.4</ele>
        <time>2022-11-20T08:29:01Z</time>
      </trkpt>
      <trkpt lat="45.99472" lon="1.46875">
        <ele>420.6</ele>
        <time>2022-11-20T08:29:04Z</time>
      </trkpt>
      <trkpt lat="45.9948" lon="1.46853">
        <ele>421.8</ele>
        <time>2022-11-20T08:29:09Z</time>
      </trkpt>
      <trkpt lat="45.99494" lon="1.46824">
        <ele>422.2</ele>
        <time>2022-11-20T08:29:16Z</time>
      </trkpt>
      <trkpt lat="45.995" lon="1.46809">
        <ele>422.8</ele>
        <time>2022-11-20T08:29:20Z</time>
      </trkpt>
      <trkpt lat="45.99507" lon="1.46795">
        <ele>423.2</ele>
        <time>2022-11-20T08:29:23Z</time>
      </trkpt>
      <trkpt lat="45.99518" lon="1.46766">
        <ele>424</ele>
        <time>2022-11-20T08:29:31Z</time>
      </trkpt>
      <trkpt lat="45.99527" lon="1.46747">
        <ele>425.2</ele>
        <time>2022-11-20T08:29:37Z</time>
      </trkpt>
      <trkpt lat="45.99529" lon="1.46742">
        <ele>425.6</ele>
        <time>2022-11-20T08:29:39Z</time>
      </trkpt>
      <trkpt lat="45.99536" lon="1.46731">
        <ele>426.4</ele>
        <time>2022-11-20T08:29:42Z</time>
      </trkpt>
      <trkpt lat="45.9954" lon="1.46722">
        <ele>426.8</ele>
        <time>2022-11-20T08:29:45Z</time>
      </trkpt>
      <trkpt lat="45.99547" lon="1.46707">
        <ele>427.6</ele>
        <time>2022-11-20T08:29:49Z</time>
      </trkpt>
      <trkpt lat="45.99552" lon="1.46696">
        <ele>427.8</ele>
        <time>2022-11-20T08:29:52Z</time>
      </trkpt>
      <trkpt lat="45.99568" lon="1.4667">
        <ele>428.8</ele>
        <time>2022-11-20T08:29:59Z</time>
      </trkpt>
      <trkpt lat="45.9958" lon="1.4664">
        <ele>428.8</ele>
        <time>2022-11-20T08:30:07Z</time>
      </trkpt>
      <trkpt lat="45.99582" lon="1.46633">
        <ele>428.4</ele>
        <time>2022-11-20T08:30:09Z</time>
      </trkpt>
      <trkpt lat="45.99586" lon="1.46617">
        <ele>428.4</ele>
        <time>2022-11-20T08:30:13Z</time>
      </trkpt>
      <trkpt lat="45.99589" lon="1.46613">
        <ele>428.2</ele>
        <time>2022-11-20T08:30:14Z</time>
      </trkpt>
      <trkpt lat="45.99592" lon="1.46609">
        <ele>428.2</ele>
        <time>2022-11-20T08:30:15Z</time>
      </trkpt>
      <trkpt lat="45.99605" lon="1.46586">
        <ele>427.8</ele>
        <time>2022-11-20T08:30:19Z</time>
      </trkpt>
      <trkpt lat="45.99608" lon="1.4658">
        <ele>427.8</ele>
        <time>2022-11-20T08:30:20Z</time>
      </trkpt>
      <trkpt lat="45.9961" lon="1.46575">
        <ele>427.8</ele>
        <time>2022-11-20T08:30:21Z</time>
      </trkpt>
      <trkpt lat="45.9962" lon="1.46548">
        <ele>427.4</ele>
        <time>2022-11-20T08:30:26Z</time>
      </trkpt>
      <trkpt lat="45.99641" lon="1.46511">
        <ele>427.2</ele>
        <time>2022-11-20T08:30:33Z</time>
      </trkpt>
      <trkpt lat="45.9966" lon="1.46486">
        <ele>427.4</ele>
        <time>2022-11-20T08:30:39Z</time>
      </trkpt>
      <trkpt lat="45.9968" lon="1.46453">
        <ele>427.2</ele>
        <time>2022-11-20T08:30:46Z</time>
      </trkpt>
      <trkpt lat="45.99695" lon="1.46428">
        <ele>427.2</ele>
        <time>2022-11-20T08:30:52Z</time>
      </trkpt>
      <trkpt lat="45.9971" lon="1.46395">
        <ele>427.6</ele>
        <time>2022-11-20T08:31:00Z</time>
      </trkpt>
      <trkpt lat="45.99717" lon="1.46378">
        <ele>427.6</ele>
        <time>2022-11-20T08:31:05Z</time>
      </trkpt>
      <trkpt lat="45.99736" lon="1.4636">
        <ele>428</ele>
        <time>2022-11-20T08:31:11Z</time>
      </trkpt>
      <trkpt lat="45.99758" lon="1.46344">
        <ele>428.2</ele>
        <time>2022-11-20T08:31:17Z</time>
      </trkpt>
      <trkpt lat="45.99765" lon="1.4634">
        <ele>428.8</ele>
        <time>2022-11-20T08:31:20Z</time>
      </trkpt>
      <trkpt lat="45.99769" lon="1.46336">
        <ele>429.2</ele>
        <time>2022-11-20T08:31:22Z</time>
      </trkpt>
      <trkpt lat="45.99785" lon="1.46329">
        <ele>430</ele>
        <time>2022-11-20T08:31:27Z</time>
      </trkpt>
      <trkpt lat="45.99788" lon="1.46327">
        <ele>430.2</ele>
        <time>2022-11-20T08:31:28Z</time>
      </trkpt>
      <trkpt lat="45.9981" lon="1.46312">
        <ele>431.2</ele>
        <time>2022-11-20T08:31:35Z</time>
      </trkpt>
      <trkpt lat="45.99833" lon="1.46298">
        <ele>432</ele>
        <time>2022-11-20T08:31:43Z</time>
      </trkpt>
      <trkpt lat="45.99841" lon="1.46294">
        <ele>432.2</ele>
        <time>2022-11-20T08:31:46Z</time>
      </trkpt>
      <trkpt lat="45.99852" lon="1.46287">
        <ele>432.6</ele>
        <time>2022-11-20T08:31:51Z</time>
      </trkpt>
      <trkpt lat="45.99857" lon="1.46286">
        <ele>433.4</ele>
        <time>2022-11-20T08:31:53Z</time>
      </trkpt>
      <trkpt lat="45.99866" lon="1.46279">
        <ele>434.4</ele>
        <time>2022-11-20T08:31:58Z</time>
      </trkpt>
      <trkpt lat="45.99876" lon="1.46271">
        <ele>435.6</ele>
        <time>2022-11-20T08:32:03Z</time>
      </trkpt>
      <trkpt lat="45.99882" lon="1.46269">
        <ele>436.4</ele>
        <time>2022-11-20T08:32:06Z</time>
      </trkpt>
      <trkpt lat="45.99886" lon="1.46266">
        <ele>437</ele>
        <time>2022-11-20T08:32:08Z</time>
      </trkpt>
      <trkpt lat="45.9989" lon="1.46262">
        <ele>437.6</ele>
        <time>2022-11-20T08:32:11Z</time>
      </trkpt>
      <trkpt lat="45.9989" lon="1.46262">
        <ele>438.2</ele>
        <time>2022-11-20T08:32:12Z</time>
      </trkpt>
      <trkpt lat="45.9989" lon="1.46258">
        <ele>438.2</ele>
        <time>2022-11-20T08:32:13Z</time>
      </trkpt>
      <trkpt lat="45.99886" lon="1.46242">
        <ele>439</ele>
        <time>2022-11-20T08:32:19Z</time>
      </trkpt>
      <trkpt lat="45.99885" lon="1.4624">
        <ele>439.2</ele>
        <time>2022-11-20T08:32:20Z</time>
      </trkpt>
      <trkpt lat="45.99879" lon="1.46224">
        <ele>440.4</ele>
        <time>2022-11-20T08:32:27Z</time>
      </trkpt>
      <trkpt lat="45.99878" lon="1.46221">
        <ele>440.4</ele>
        <time>2022-11-20T08:32:28Z</time>
      </trkpt>
      <trkpt lat="45.9987" lon="1.46205">
        <ele>441.2</ele>
        <time>2022-11-20T08:32:35Z</time>
      </trkpt>
      <trkpt lat="45.99868" lon="1.462">
        <ele>441.6</ele>
        <time>2022-11-20T08:32:37Z</time>
      </trkpt>
      <trkpt lat="45.99863" lon="1.4619">
        <ele>442</ele>
        <time>2022-11-20T08:32:41Z</time>
      </trkpt>
      <trkpt lat="45.99856" lon="1.46172">
        <ele>442.2</ele>
        <time>2022-11-20T08:32:47Z</time>
      </trkpt>
      <trkpt lat="45.99847" lon="1.46152">
        <ele>442.4</ele>
        <time>2022-11-20T08:32:53Z</time>
      </trkpt>
      <trkpt lat="45.99843" lon="1.46131">
        <ele>442.4</ele>
        <time>2022-11-20T08:32:59Z</time>
      </trkpt>
      <trkpt lat="45.99842" lon="1.46124">
        <ele>442.8</ele>
        <time>2022-11-20T08:33:01Z</time>
      </trkpt>
      <trkpt lat="45.99837" lon="1.46105">
        <ele>443.4</ele>
        <time>2022-11-20T08:33:06Z</time>
      </trkpt>
      <trkpt lat="45.99835" lon="1.46096">
        <ele>443.8</ele>
        <time>2022-11-20T08:33:09Z</time>
      </trkpt>
      <trkpt lat="45.99831" lon="1.46086">
        <ele>444.8</ele>
        <time>2022-11-20T08:33:14Z</time>
      </trkpt>
      <trkpt lat="45.9983" lon="1.46084">
        <ele>445.2</ele>
        <time>2022-11-20T08:33:15Z</time>
      </trkpt>
      <trkpt lat="45.99822" lon="1.46063">
        <ele>445.8</ele>
        <time>2022-11-20T08:33:22Z</time>
      </trkpt>
      <trkpt lat="45.99821" lon="1.4606">
        <ele>446.2</ele>
        <time>2022-11-20T08:33:23Z</time>
      </trkpt>
      <trkpt lat="45.99816" lon="1.46047">
        <ele>447.2</ele>
        <time>2022-11-20T08:33:28Z</time>
      </trkpt>
      <trkpt lat="45.99814" lon="1.46043">
        <ele>447.6</ele>
        <time>2022-11-20T08:33:29Z</time>
      </trkpt>
      <trkpt lat="45.99814" lon="1.46041">
        <ele>447.8</ele>
        <time>2022-11-20T08:33:30Z</time>
      </trkpt>
      <trkpt lat="45.99813" lon="1.46031">
        <ele>448.4</ele>
        <time>2022-11-20T08:33:33Z</time>
      </trkpt>
      <trkpt lat="45.99813" lon="1.46018">
        <ele>449</ele>
        <time>2022-11-20T08:33:37Z</time>
      </trkpt>
      <trkpt lat="45.99814" lon="1.4601">
        <ele>449.4</ele>
        <time>2022-11-20T08:33:40Z</time>
      </trkpt>
      <trkpt lat="45.99817" lon="1.46002">
        <ele>449.8</ele>
        <time>2022-11-20T08:33:44Z</time>
      </trkpt>
      <trkpt lat="45.99817" lon="1.46002">
        <ele>450</ele>
        <time>2022-11-20T08:33:45Z</time>
      </trkpt>
      <trkpt lat="45.99818" lon="1.46001">
        <ele>450.6</ele>
        <time>2022-11-20T08:33:47Z</time>
      </trkpt>
      <trkpt lat="45.99819" lon="1.46001">
        <ele>451</ele>
        <time>2022-11-20T08:33:48Z</time>
      </trkpt>
      <trkpt lat="45.9982" lon="1.46001">
        <ele>451.6</ele>
        <time>2022-11-20T08:33:51Z</time>
      </trkpt>
      <trkpt lat="45.9982" lon="1.46002">
        <ele>451.8</ele>
        <time>2022-11-20T08:33:52Z</time>
      </trkpt>
      <trkpt lat="45.99821" lon="1.46003">
        <ele>452</ele>
        <time>2022-11-20T08:33:54Z</time>
      </trkpt>
      <trkpt lat="45.99821" lon="1.46007">
        <ele>452.4</ele>
        <time>2022-11-20T08:33:57Z</time>
      </trkpt>
      <trkpt lat="45.9982" lon="1.46008">
        <ele>452.6</ele>
        <time>2022-11-20T08:33:58Z</time>
      </trkpt>
      <trkpt lat="45.99821" lon="1.4601">
        <ele>452.8</ele>
        <time>2022-11-20T08:34:00Z</time>
      </trkpt>
      <trkpt lat="45.99822" lon="1.46012">
        <ele>453</ele>
        <time>2022-11-20T08:34:01Z</time>
      </trkpt>
      <trkpt lat="45.99825" lon="1.46018">
        <ele>453.4</ele>
        <time>2022-11-20T08:34:04Z</time>
      </trkpt>
      <trkpt lat="45.99826" lon="1.46019">
        <ele>453.4</ele>
        <time>2022-11-20T08:34:05Z</time>
      </trkpt>
      <trkpt lat="45.99835" lon="1.46025">
        <ele>453.8</ele>
        <time>2022-11-20T08:34:11Z</time>
      </trkpt>
      <trkpt lat="45.99836" lon="1.46026">
        <ele>454</ele>
        <time>2022-11-20T08:34:12Z</time>
      </trkpt>
      <trkpt lat="45.99846" lon="1.46038">
        <ele>454.8</ele>
        <time>2022-11-20T08:34:19Z</time>
      </trkpt>
      <trkpt lat="45.99848" lon="1.4604">
        <ele>454.8</ele>
        <time>2022-11-20T08:34:20Z</time>
      </trkpt>
      <trkpt lat="45.99853" lon="1.46048">
        <ele>456</ele>
        <time>2022-11-20T08:34:25Z</time>
      </trkpt>
      <trkpt lat="45.99855" lon="1.46051">
        <ele>456.4</ele>
        <time>2022-11-20T08:34:27Z</time>
      </trkpt>
      <trkpt lat="45.99862" lon="1.4606">
        <ele>457</ele>
        <time>2022-11-20T08:34:33Z</time>
      </trkpt>
      <trkpt lat="45.99864" lon="1.46064">
        <ele>457.4</ele>
        <time>2022-11-20T08:34:35Z</time>
      </trkpt>
      <trkpt lat="45.99869" lon="1.46071">
        <ele>458.2</ele>
        <time>2022-11-20T08:34:39Z</time>
      </trkpt>
      <trkpt lat="45.99874" lon="1.46078">
        <ele>459.4</ele>
        <time>2022-11-20T08:34:44Z</time>
      </trkpt>
      <trkpt lat="45.99876" lon="1.46081">
        <ele>459.6</ele>
        <time>2022-11-20T08:34:46Z</time>
      </trkpt>
      <trkpt lat="45.99879" lon="1.46085">
        <ele>459.8</ele>
        <time>2022-11-20T08:34:48Z</time>
      </trkpt>
      <trkpt lat="45.99885" lon="1.4609">
        <ele>460.4</ele>
        <time>2022-11-20T08:34:51Z</time>
      </trkpt>
      <trkpt lat="45.99887" lon="1.46092">
        <ele>460.6</ele>
        <time>2022-11-20T08:34:52Z</time>
      </trkpt>
      <trkpt lat="45.99897" lon="1.46105">
        <ele>461.4</ele>
        <time>2022-11-20T08:34:59Z</time>
      </trkpt>
      <trkpt lat="45.999" lon="1.46108">
        <ele>461.6</ele>
        <time>2022-11-20T08:35:01Z</time>
      </trkpt>
      <trkpt lat="45.99909" lon="1.46124">
        <ele>462.6</ele>
        <time>2022-11-20T08:35:07Z</time>
      </trkpt>
      <trkpt lat="45.99919" lon="1.46135">
        <ele>463.8</ele>
        <time>2022-11-20T08:35:12Z</time>
      </trkpt>
      <trkpt lat="45.99921" lon="1.46137">
        <ele>463.8</ele>
        <time>2022-11-20T08:35:13Z</time>
      </trkpt>
      <trkpt lat="45.99935" lon="1.46151">
        <ele>464.2</ele>
        <time>2022-11-20T08:35:20Z</time>
      </trkpt>
      <trkpt lat="45.99948" lon="1.46167">
        <ele>465</ele>
        <time>2022-11-20T08:35:27Z</time>
      </trkpt>
      <trkpt lat="45.9995" lon="1.46168">
        <ele>465.2</ele>
        <time>2022-11-20T08:35:28Z</time>
      </trkpt>
      <trkpt lat="45.99951" lon="1.46169">
        <ele>465.4</ele>
        <time>2022-11-20T08:35:29Z</time>
      </trkpt>
      <trkpt lat="45.99952" lon="1.46168">
        <ele>466.2</ele>
        <time>2022-11-20T08:35:30Z</time>
      </trkpt>
      <trkpt lat="45.99952" lon="1.46167">
        <ele>466.2</ele>
        <time>2022-11-20T08:35:31Z</time>
      </trkpt>
      <trkpt lat="45.99952" lon="1.46166">
        <ele>466.6</ele>
        <time>2022-11-20T08:35:32Z</time>
      </trkpt>
      <trkpt lat="45.99951" lon="1.46162">
        <ele>467.2</ele>
        <time>2022-11-20T08:35:34Z</time>
      </trkpt>
      <trkpt lat="45.99951" lon="1.46157">
        <ele>467.8</ele>
        <time>2022-11-20T08:35:38Z</time>
      </trkpt>
      <trkpt lat="45.99951" lon="1.46152">
        <ele>468.4</ele>
        <time>2022-11-20T08:35:41Z</time>
      </trkpt>
      <trkpt lat="45.99949" lon="1.46145">
        <ele>469.2</ele>
        <time>2022-11-20T08:35:45Z</time>
      </trkpt>
      <trkpt lat="45.99949" lon="1.46139">
        <ele>469.6</ele>
        <time>2022-11-20T08:35:48Z</time>
      </trkpt>
      <trkpt lat="45.99948" lon="1.46125">
        <ele>470.8</ele>
        <time>2022-11-20T08:35:54Z</time>
      </trkpt>
      <trkpt lat="45.99947" lon="1.46123">
        <ele>471</ele>
        <time>2022-11-20T08:35:55Z</time>
      </trkpt>
      <trkpt lat="45.99946" lon="1.46112">
        <ele>471.8</ele>
        <time>2022-11-20T08:35:59Z</time>
      </trkpt>
      <trkpt lat="45.99945" lon="1.46103">
        <ele>472.6</ele>
        <time>2022-11-20T08:36:03Z</time>
      </trkpt>
      <trkpt lat="45.99945" lon="1.46098">
        <ele>472.8</ele>
        <time>2022-11-20T08:36:05Z</time>
      </trkpt>
      <trkpt lat="45.99944" lon="1.46083">
        <ele>473.8</ele>
        <time>2022-11-20T08:36:10Z</time>
      </trkpt>
      <trkpt lat="45.99943" lon="1.46078">
        <ele>473.8</ele>
        <time>2022-11-20T08:36:12Z</time>
      </trkpt>
      <trkpt lat="45.99943" lon="1.46065">
        <ele>474.6</ele>
        <time>2022-11-20T08:36:16Z</time>
      </trkpt>
      <trkpt lat="45.99942" lon="1.4605">
        <ele>475</ele>
        <time>2022-11-20T08:36:20Z</time>
      </trkpt>
      <trkpt lat="45.99943" lon="1.46037">
        <ele>475.4</ele>
        <time>2022-11-20T08:36:23Z</time>
      </trkpt>
      <trkpt lat="45.99943" lon="1.46002">
        <ele>476</ele>
        <time>2022-11-20T08:36:31Z</time>
      </trkpt>
      <trkpt lat="45.99944" lon="1.45989">
        <ele>476.4</ele>
        <time>2022-11-20T08:36:34Z</time>
      </trkpt>
      <trkpt lat="45.99944" lon="1.45951">
        <ele>477</ele>
        <time>2022-11-20T08:36:43Z</time>
      </trkpt>
      <trkpt lat="45.99944" lon="1.45946">
        <ele>477</ele>
        <time>2022-11-20T08:36:44Z</time>
      </trkpt>
      <trkpt lat="45.99945" lon="1.45924">
        <ele>477.4</ele>
        <time>2022-11-20T08:36:49Z</time>
      </trkpt>
      <trkpt lat="45.99953" lon="1.45904">
        <ele>477.8</ele>
        <time>2022-11-20T08:36:54Z</time>
      </trkpt>
      <trkpt lat="45.99956" lon="1.45897">
        <ele>478</ele>
        <time>2022-11-20T08:36:56Z</time>
      </trkpt>
      <trkpt lat="45.99967" lon="1.45873">
        <ele>478.4</ele>
        <time>2022-11-20T08:37:02Z</time>
      </trkpt>
      <trkpt lat="45.99972" lon="1.45844">
        <ele>478.6</ele>
        <time>2022-11-20T08:37:08Z</time>
      </trkpt>
      <trkpt lat="45.99973" lon="1.458">
        <ele>478.8</ele>
        <time>2022-11-20T08:37:17Z</time>
      </trkpt>
      <trkpt lat="45.9997" lon="1.45788">
        <ele>479.2</ele>
        <time>2022-11-20T08:37:20Z</time>
      </trkpt>
      <trkpt lat="45.99966" lon="1.45773">
        <ele>479.6</ele>
        <time>2022-11-20T08:37:24Z</time>
      </trkpt>
      <trkpt lat="45.9996" lon="1.45749">
        <ele>480.4</ele>
        <time>2022-11-20T08:37:30Z</time>
      </trkpt>
      <trkpt lat="45.99958" lon="1.45741">
        <ele>480.4</ele>
        <time>2022-11-20T08:37:32Z</time>
      </trkpt>
      <trkpt lat="45.99951" lon="1.45709">
        <ele>481.4</ele>
        <time>2022-11-20T08:37:41Z</time>
      </trkpt>
      <trkpt lat="45.9995" lon="1.45705">
        <ele>481.4</ele>
        <time>2022-11-20T08:37:42Z</time>
      </trkpt>
      <trkpt lat="45.99944" lon="1.45686">
        <ele>482.6</ele>
        <time>2022-11-20T08:37:48Z</time>
      </trkpt>
      <trkpt lat="45.99938" lon="1.45674">
        <ele>483</ele>
        <time>2022-11-20T08:37:54Z</time>
      </trkpt>
      <trkpt lat="45.99931" lon="1.45674">
        <ele>483</ele>
        <time>2022-11-20T08:38:00Z</time>
      </trkpt>
      <trkpt lat="45.99931" lon="1.45674">
        <ele>483</ele>
        <time>2022-11-20T08:38:01Z</time>
      </trkpt>
      <trkpt lat="45.99929" lon="1.45672">
        <ele>482.8</ele>
        <time>2022-11-20T08:38:10Z</time>
      </trkpt>
      <trkpt lat="45.9992" lon="1.45669">
        <ele>482.6</ele>
        <time>2022-11-20T08:38:17Z</time>
      </trkpt>
      <trkpt lat="45.99908" lon="1.45661">
        <ele>482.4</ele>
        <time>2022-11-20T08:38:20Z</time>
      </trkpt>
      <trkpt lat="45.99899" lon="1.45656">
        <ele>482</ele>
        <time>2022-11-20T08:38:22Z</time>
      </trkpt>
      <trkpt lat="45.99895" lon="1.45653">
        <ele>481.8</ele>
        <time>2022-11-20T08:38:23Z</time>
      </trkpt>
      <trkpt lat="45.99888" lon="1.45646">
        <ele>481.4</ele>
        <time>2022-11-20T08:38:25Z</time>
      </trkpt>
      <trkpt lat="45.99885" lon="1.45641">
        <ele>481.2</ele>
        <time>2022-11-20T08:38:26Z</time>
      </trkpt>
      <trkpt lat="45.99883" lon="1.45637">
        <ele>480.6</ele>
        <time>2022-11-20T08:38:27Z</time>
      </trkpt>
      <trkpt lat="45.9988" lon="1.45633">
        <ele>480.2</ele>
        <time>2022-11-20T08:38:28Z</time>
      </trkpt>
      <trkpt lat="45.99876" lon="1.4563">
        <ele>479.8</ele>
        <time>2022-11-20T08:38:29Z</time>
      </trkpt>
      <trkpt lat="45.99871" lon="1.45627">
        <ele>479.6</ele>
        <time>2022-11-20T08:38:30Z</time>
      </trkpt>
      <trkpt lat="45.99855" lon="1.45619">
        <ele>479</ele>
        <time>2022-11-20T08:38:33Z</time>
      </trkpt>
      <trkpt lat="45.99849" lon="1.45616">
        <ele>478.2</ele>
        <time>2022-11-20T08:38:34Z</time>
      </trkpt>
      <trkpt lat="45.99844" lon="1.45615">
        <ele>477.8</ele>
        <time>2022-11-20T08:38:35Z</time>
      </trkpt>
      <trkpt lat="45.99838" lon="1.45612">
        <ele>477</ele>
        <time>2022-11-20T08:38:36Z</time>
      </trkpt>
      <trkpt lat="45.99832" lon="1.4561">
        <ele>476.6</ele>
        <time>2022-11-20T08:38:37Z</time>
      </trkpt>
      <trkpt lat="45.99827" lon="1.45607">
        <ele>476</ele>
        <time>2022-11-20T08:38:38Z</time>
      </trkpt>
      <trkpt lat="45.99822" lon="1.45604">
        <ele>475</ele>
        <time>2022-11-20T08:38:39Z</time>
      </trkpt>
      <trkpt lat="45.99819" lon="1.456">
        <ele>474.2</ele>
        <time>2022-11-20T08:38:40Z</time>
      </trkpt>
      <trkpt lat="45.99815" lon="1.45595">
        <ele>473</ele>
        <time>2022-11-20T08:38:41Z</time>
      </trkpt>
      <trkpt lat="45.9981" lon="1.45588">
        <ele>471.6</ele>
        <time>2022-11-20T08:38:43Z</time>
      </trkpt>
      <trkpt lat="45.9981" lon="1.45588">
        <ele>469.8</ele>
        <time>2022-11-20T08:38:44Z</time>
      </trkpt>
      <trkpt lat="45.99797" lon="1.45581">
        <ele>469</ele>
        <time>2022-11-20T08:38:46Z</time>
      </trkpt>
      <trkpt lat="45.99792" lon="1.45578">
        <ele>467.8</ele>
        <time>2022-11-20T08:38:47Z</time>
      </trkpt>
      <trkpt lat="45.99789" lon="1.45576">
        <ele>466.8</ele>
        <time>2022-11-20T08:38:48Z</time>
      </trkpt>
      <trkpt lat="45.99786" lon="1.45574">
        <ele>465.4</ele>
        <time>2022-11-20T08:38:49Z</time>
      </trkpt>
      <trkpt lat="45.99782" lon="1.45571">
        <ele>464.4</ele>
        <time>2022-11-20T08:38:50Z</time>
      </trkpt>
      <trkpt lat="45.9978" lon="1.45568">
        <ele>463.2</ele>
        <time>2022-11-20T08:38:51Z</time>
      </trkpt>
      <trkpt lat="45.99775" lon="1.45564">
        <ele>461.8</ele>
        <time>2022-11-20T08:38:53Z</time>
      </trkpt>
      <trkpt lat="45.99769" lon="1.45558">
        <ele>460.6</ele>
        <time>2022-11-20T08:38:55Z</time>
      </trkpt>
      <trkpt lat="45.99763" lon="1.45552">
        <ele>459.6</ele>
        <time>2022-11-20T08:38:57Z</time>
      </trkpt>
      <trkpt lat="45.99757" lon="1.45545">
        <ele>457</ele>
        <time>2022-11-20T08:38:59Z</time>
      </trkpt>
      <trkpt lat="45.99754" lon="1.45541">
        <ele>455.8</ele>
        <time>2022-11-20T08:39:00Z</time>
      </trkpt>
      <trkpt lat="45.99751" lon="1.45537">
        <ele>454.6</ele>
        <time>2022-11-20T08:39:01Z</time>
      </trkpt>
      <trkpt lat="45.99749" lon="1.45527">
        <ele>453.2</ele>
        <time>2022-11-20T08:39:03Z</time>
      </trkpt>
      <trkpt lat="45.99746" lon="1.45507">
        <ele>452</ele>
        <time>2022-11-20T08:39:07Z</time>
      </trkpt>
      <trkpt lat="45.99744" lon="1.45501">
        <ele>451.6</ele>
        <time>2022-11-20T08:39:08Z</time>
      </trkpt>
      <trkpt lat="45.99741" lon="1.45491">
        <ele>450.8</ele>
        <time>2022-11-20T08:39:10Z</time>
      </trkpt>
      <trkpt lat="45.99737" lon="1.45472">
        <ele>449.8</ele>
        <time>2022-11-20T08:39:13Z</time>
      </trkpt>
      <trkpt lat="45.99738" lon="1.45467">
        <ele>449.4</ele>
        <time>2022-11-20T08:39:14Z</time>
      </trkpt>
      <trkpt lat="45.99739" lon="1.45462">
        <ele>448.8</ele>
        <time>2022-11-20T08:39:15Z</time>
      </trkpt>
      <trkpt lat="45.99741" lon="1.45449">
        <ele>447.4</ele>
        <time>2022-11-20T08:39:17Z</time>
      </trkpt>
      <trkpt lat="45.99743" lon="1.45426">
        <ele>446.2</ele>
        <time>2022-11-20T08:39:20Z</time>
      </trkpt>
      <trkpt lat="45.99742" lon="1.45412">
        <ele>445.8</ele>
        <time>2022-11-20T08:39:22Z</time>
      </trkpt>
      <trkpt lat="45.99739" lon="1.45401">
        <ele>445.6</ele>
        <time>2022-11-20T08:39:24Z</time>
      </trkpt>
      <trkpt lat="45.99731" lon="1.45392">
        <ele>445</ele>
        <time>2022-11-20T08:39:26Z</time>
      </trkpt>
      <trkpt lat="45.99728" lon="1.45387">
        <ele>444.8</ele>
        <time>2022-11-20T08:39:27Z</time>
      </trkpt>
      <trkpt lat="45.99722" lon="1.45374">
        <ele>444.2</ele>
        <time>2022-11-20T08:39:29Z</time>
      </trkpt>
      <trkpt lat="45.99719" lon="1.45366">
        <ele>443.8</ele>
        <time>2022-11-20T08:39:30Z</time>
      </trkpt>
      <trkpt lat="45.99715" lon="1.45356">
        <ele>443.6</ele>
        <time>2022-11-20T08:39:32Z</time>
      </trkpt>
      <trkpt lat="45.99709" lon="1.45344">
        <ele>443.4</ele>
        <time>2022-11-20T08:39:34Z</time>
      </trkpt>
      <trkpt lat="45.99707" lon="1.45334">
        <ele>443</ele>
        <time>2022-11-20T08:39:36Z</time>
      </trkpt>
      <trkpt lat="45.99707" lon="1.45329">
        <ele>442.8</ele>
        <time>2022-11-20T08:39:37Z</time>
      </trkpt>
      <trkpt lat="45.99707" lon="1.45324">
        <ele>442.8</ele>
        <time>2022-11-20T08:39:38Z</time>
      </trkpt>
      <trkpt lat="45.99706" lon="1.45289">
        <ele>441.8</ele>
        <time>2022-11-20T08:39:44Z</time>
      </trkpt>
      <trkpt lat="45.99706" lon="1.45274">
        <ele>440.6</ele>
        <time>2022-11-20T08:39:46Z</time>
      </trkpt>
      <trkpt lat="45.99707" lon="1.45262">
        <ele>439.6</ele>
        <time>2022-11-20T08:39:48Z</time>
      </trkpt>
      <trkpt lat="45.99708" lon="1.45255">
        <ele>439.2</ele>
        <time>2022-11-20T08:39:49Z</time>
      </trkpt>
      <trkpt lat="45.99707" lon="1.45248">
        <ele>439</ele>
        <time>2022-11-20T08:39:50Z</time>
      </trkpt>
      <trkpt lat="45.99708" lon="1.45231">
        <ele>438.2</ele>
        <time>2022-11-20T08:39:52Z</time>
      </trkpt>
      <trkpt lat="45.99708" lon="1.45206">
        <ele>436.8</ele>
        <time>2022-11-20T08:39:55Z</time>
      </trkpt>
      <trkpt lat="45.99707" lon="1.45196">
        <ele>436</ele>
        <time>2022-11-20T08:39:56Z</time>
      </trkpt>
      <trkpt lat="45.99706" lon="1.45187">
        <ele>435.6</ele>
        <time>2022-11-20T08:39:57Z</time>
      </trkpt>
      <trkpt lat="45.99704" lon="1.45167">
        <ele>434</ele>
        <time>2022-11-20T08:39:59Z</time>
      </trkpt>
      <trkpt lat="45.99703" lon="1.45157">
        <ele>433.4</ele>
        <time>2022-11-20T08:40:00Z</time>
      </trkpt>
      <trkpt lat="45.997" lon="1.45136">
        <ele>432.8</ele>
        <time>2022-11-20T08:40:02Z</time>
      </trkpt>
      <trkpt lat="45.9969" lon="1.45105">
        <ele>431.8</ele>
        <time>2022-11-20T08:40:05Z</time>
      </trkpt>
      <trkpt lat="45.99687" lon="1.45093">
        <ele>431.4</ele>
        <time>2022-11-20T08:40:07Z</time>
      </trkpt>
      <trkpt lat="45.99686" lon="1.45085">
        <ele>431</ele>
        <time>2022-11-20T08:40:09Z</time>
      </trkpt>
      <trkpt lat="45.99688" lon="1.4508">
        <ele>430.8</ele>
        <time>2022-11-20T08:40:12Z</time>
      </trkpt>
      <trkpt lat="45.9969" lon="1.45079">
        <ele>430.8</ele>
        <time>2022-11-20T08:40:13Z</time>
      </trkpt>
      <trkpt lat="45.99698" lon="1.4506">
        <ele>431.6</ele>
        <time>2022-11-20T08:40:20Z</time>
      </trkpt>
      <trkpt lat="45.99701" lon="1.45057">
        <ele>432</ele>
        <time>2022-11-20T08:40:22Z</time>
      </trkpt>
      <trkpt lat="45.99713" lon="1.45053">
        <ele>433.2</ele>
        <time>2022-11-20T08:40:27Z</time>
      </trkpt>
      <trkpt lat="45.99727" lon="1.45049">
        <ele>434.4</ele>
        <time>2022-11-20T08:40:33Z</time>
      </trkpt>
      <trkpt lat="45.99729" lon="1.45049">
        <ele>434.8</ele>
        <time>2022-11-20T08:40:34Z</time>
      </trkpt>
      <trkpt lat="45.99736" lon="1.45051">
        <ele>435.6</ele>
        <time>2022-11-20T08:40:37Z</time>
      </trkpt>
      <trkpt lat="45.99743" lon="1.45054">
        <ele>436.4</ele>
        <time>2022-11-20T08:40:40Z</time>
      </trkpt>
      <trkpt lat="45.9975" lon="1.45055">
        <ele>436.6</ele>
        <time>2022-11-20T08:40:43Z</time>
      </trkpt>
      <trkpt lat="45.99764" lon="1.45055">
        <ele>437.6</ele>
        <time>2022-11-20T08:40:48Z</time>
      </trkpt>
      <trkpt lat="45.99779" lon="1.45058">
        <ele>438.8</ele>
        <time>2022-11-20T08:40:53Z</time>
      </trkpt>
      <trkpt lat="45.99792" lon="1.45063">
        <ele>440</ele>
        <time>2022-11-20T08:40:59Z</time>
      </trkpt>
      <trkpt lat="45.99805" lon="1.45061">
        <ele>441.2</ele>
        <time>2022-11-20T08:41:05Z</time>
      </trkpt>
      <trkpt lat="45.99817" lon="1.45057">
        <ele>442.4</ele>
        <time>2022-11-20T08:41:10Z</time>
      </trkpt>
      <trkpt lat="45.9982" lon="1.45055">
        <ele>442.6</ele>
        <time>2022-11-20T08:41:11Z</time>
      </trkpt>
      <trkpt lat="45.99833" lon="1.45039">
        <ele>443</ele>
        <time>2022-11-20T08:41:18Z</time>
      </trkpt>
      <trkpt lat="45.99845" lon="1.45017">
        <ele>443.2</ele>
        <time>2022-11-20T08:41:24Z</time>
      </trkpt>
      <trkpt lat="45.99863" lon="1.44981">
        <ele>443.4</ele>
        <time>2022-11-20T08:41:32Z</time>
      </trkpt>
      <trkpt lat="45.99865" lon="1.44976">
        <ele>443.6</ele>
        <time>2022-11-20T08:41:33Z</time>
      </trkpt>
      <trkpt lat="45.9988" lon="1.44943">
        <ele>443.6</ele>
        <time>2022-11-20T08:41:40Z</time>
      </trkpt>
      <trkpt lat="45.99899" lon="1.44903">
        <ele>443.2</ele>
        <time>2022-11-20T08:41:48Z</time>
      </trkpt>
      <trkpt lat="45.99904" lon="1.44893">
        <ele>443.2</ele>
        <time>2022-11-20T08:41:50Z</time>
      </trkpt>
      <trkpt lat="45.99906" lon="1.4488">
        <ele>443.4</ele>
        <time>2022-11-20T08:41:53Z</time>
      </trkpt>
      <trkpt lat="45.99905" lon="1.44877">
        <ele>443.6</ele>
        <time>2022-11-20T08:41:54Z</time>
      </trkpt>
      <trkpt lat="45.99901" lon="1.44866">
        <ele>443.6</ele>
        <time>2022-11-20T08:41:57Z</time>
      </trkpt>
      <trkpt lat="45.99899" lon="1.44861">
        <ele>443.4</ele>
        <time>2022-11-20T08:41:58Z</time>
      </trkpt>
      <trkpt lat="45.9989" lon="1.44843">
        <ele>442.6</ele>
        <time>2022-11-20T08:42:03Z</time>
      </trkpt>
      <trkpt lat="45.99889" lon="1.44838">
        <ele>442.6</ele>
        <time>2022-11-20T08:42:04Z</time>
      </trkpt>
      <trkpt lat="45.9988" lon="1.44822">
        <ele>442.4</ele>
        <time>2022-11-20T08:42:07Z</time>
      </trkpt>
      <trkpt lat="45.99876" lon="1.44816">
        <ele>442.2</ele>
        <time>2022-11-20T08:42:08Z</time>
      </trkpt>
      <trkpt lat="45.99852" lon="1.44781">
        <ele>442.8</ele>
        <time>2022-11-20T08:42:15Z</time>
      </trkpt>
      <trkpt lat="45.99846" lon="1.44768">
        <ele>443.4</ele>
        <time>2022-11-20T08:42:17Z</time>
      </trkpt>
      <trkpt lat="45.99844" lon="1.44763">
        <ele>443.8</ele>
        <time>2022-11-20T08:42:18Z</time>
      </trkpt>
      <trkpt lat="45.99841" lon="1.44754">
        <ele>444.2</ele>
        <time>2022-11-20T08:42:20Z</time>
      </trkpt>
      <trkpt lat="45.99842" lon="1.44738">
        <ele>444.6</ele>
        <time>2022-11-20T08:42:24Z</time>
      </trkpt>
      <trkpt lat="45.99842" lon="1.44735">
        <ele>444.6</ele>
        <time>2022-11-20T08:42:25Z</time>
      </trkpt>
      <trkpt lat="45.99845" lon="1.44719">
        <ele>445.6</ele>
        <time>2022-11-20T08:42:31Z</time>
      </trkpt>
      <trkpt lat="45.99845" lon="1.44717">
        <ele>446</ele>
        <time>2022-11-20T08:42:32Z</time>
      </trkpt>
      <trkpt lat="45.99847" lon="1.44706">
        <ele>446.8</ele>
        <time>2022-11-20T08:42:36Z</time>
      </trkpt>
      <trkpt lat="45.99848" lon="1.44691">
        <ele>448</ele>
        <time>2022-11-20T08:42:41Z</time>
      </trkpt>
      <trkpt lat="45.99849" lon="1.44678">
        <ele>449</ele>
        <time>2022-11-20T08:42:46Z</time>
      </trkpt>
      <trkpt lat="45.9985" lon="1.44675">
        <ele>449.2</ele>
        <time>2022-11-20T08:42:47Z</time>
      </trkpt>
      <trkpt lat="45.99851" lon="1.44663">
        <ele>450</ele>
        <time>2022-11-20T08:42:51Z</time>
      </trkpt>
      <trkpt lat="45.99852" lon="1.44655">
        <ele>450.8</ele>
        <time>2022-11-20T08:42:54Z</time>
      </trkpt>
      <trkpt lat="45.99852" lon="1.44652">
        <ele>451.2</ele>
        <time>2022-11-20T08:42:55Z</time>
      </trkpt>
      <trkpt lat="45.99856" lon="1.44627">
        <ele>452.2</ele>
        <time>2022-11-20T08:43:02Z</time>
      </trkpt>
      <trkpt lat="45.99859" lon="1.44618">
        <ele>453.2</ele>
        <time>2022-11-20T08:43:05Z</time>
      </trkpt>
      <trkpt lat="45.99864" lon="1.446">
        <ele>454</ele>
        <time>2022-11-20T08:43:11Z</time>
      </trkpt>
      <trkpt lat="45.99866" lon="1.44597">
        <ele>454.4</ele>
        <time>2022-11-20T08:43:12Z</time>
      </trkpt>
      <trkpt lat="45.99867" lon="1.44581">
        <ele>455.4</ele>
        <time>2022-11-20T08:43:17Z</time>
      </trkpt>
      <trkpt lat="45.99867" lon="1.44578">
        <ele>455.8</ele>
        <time>2022-11-20T08:43:18Z</time>
      </trkpt>
      <trkpt lat="45.99861" lon="1.44558">
        <ele>456.2</ele>
        <time>2022-11-20T08:43:24Z</time>
      </trkpt>
      <trkpt lat="45.9985" lon="1.44525">
        <ele>456.2</ele>
        <time>2022-11-20T08:43:31Z</time>
      </trkpt>
      <trkpt lat="45.99838" lon="1.44485">
        <ele>455.8</ele>
        <time>2022-11-20T08:43:38Z</time>
      </trkpt>
      <trkpt lat="45.99821" lon="1.44433">
        <ele>455.8</ele>
        <time>2022-11-20T08:43:47Z</time>
      </trkpt>
      <trkpt lat="45.99819" lon="1.44428">
        <ele>456</ele>
        <time>2022-11-20T08:43:48Z</time>
      </trkpt>
      <trkpt lat="45.99819" lon="1.44417">
        <ele>456</ele>
        <time>2022-11-20T08:43:50Z</time>
      </trkpt>
      <trkpt lat="45.9982" lon="1.44413">
        <ele>456.2</ele>
        <time>2022-11-20T08:43:51Z</time>
      </trkpt>
      <trkpt lat="45.99821" lon="1.44407">
        <ele>457</ele>
        <time>2022-11-20T08:43:53Z</time>
      </trkpt>
      <trkpt lat="45.99825" lon="1.44396">
        <ele>458</ele>
        <time>2022-11-20T08:43:57Z</time>
      </trkpt>
      <trkpt lat="45.99826" lon="1.44394">
        <ele>458</ele>
        <time>2022-11-20T08:43:58Z</time>
      </trkpt>
      <trkpt lat="45.99829" lon="1.44385">
        <ele>459.2</ele>
        <time>2022-11-20T08:44:02Z</time>
      </trkpt>
      <trkpt lat="45.99832" lon="1.4438">
        <ele>460.2</ele>
        <time>2022-11-20T08:44:05Z</time>
      </trkpt>
      <trkpt lat="45.99835" lon="1.44374">
        <ele>461.4</ele>
        <time>2022-11-20T08:44:08Z</time>
      </trkpt>
      <trkpt lat="45.99837" lon="1.44365">
        <ele>462.6</ele>
        <time>2022-11-20T08:44:11Z</time>
      </trkpt>
      <trkpt lat="45.99836" lon="1.44362">
        <ele>462.8</ele>
        <time>2022-11-20T08:44:12Z</time>
      </trkpt>
      <trkpt lat="45.99837" lon="1.44351">
        <ele>463.6</ele>
        <time>2022-11-20T08:44:16Z</time>
      </trkpt>
      <trkpt lat="45.99837" lon="1.44337">
        <ele>464</ele>
        <time>2022-11-20T08:44:21Z</time>
      </trkpt>
      <trkpt lat="45.99835" lon="1.44312">
        <ele>464.6</ele>
        <time>2022-11-20T08:44:27Z</time>
      </trkpt>
      <trkpt lat="45.99835" lon="1.44308">
        <ele>464.6</ele>
        <time>2022-11-20T08:44:28Z</time>
      </trkpt>
      <trkpt lat="45.99829" lon="1.44277">
        <ele>464.8</ele>
        <time>2022-11-20T08:44:34Z</time>
      </trkpt>
      <trkpt lat="45.99822" lon="1.4424">
        <ele>465</ele>
        <time>2022-11-20T08:44:41Z</time>
      </trkpt>
      <trkpt lat="45.99814" lon="1.44206">
        <ele>465.6</ele>
        <time>2022-11-20T08:44:48Z</time>
      </trkpt>
      <trkpt lat="45.99802" lon="1.44175">
        <ele>467</ele>
        <time>2022-11-20T08:44:55Z</time>
      </trkpt>
      <trkpt lat="45.99798" lon="1.44167">
        <ele>467.2</ele>
        <time>2022-11-20T08:44:57Z</time>
      </trkpt>
      <trkpt lat="45.99793" lon="1.44155">
        <ele>468</ele>
        <time>2022-11-20T08:45:00Z</time>
      </trkpt>
      <trkpt lat="45.99787" lon="1.44139">
        <ele>468.6</ele>
        <time>2022-11-20T08:45:04Z</time>
      </trkpt>
      <trkpt lat="45.99782" lon="1.44122">
        <ele>469.2</ele>
        <time>2022-11-20T08:45:08Z</time>
      </trkpt>
      <trkpt lat="45.99777" lon="1.44113">
        <ele>469.4</ele>
        <time>2022-11-20T08:45:11Z</time>
      </trkpt>
      <trkpt lat="45.99761" lon="1.44104">
        <ele>470.2</ele>
        <time>2022-11-20T08:45:16Z</time>
      </trkpt>
      <trkpt lat="45.99742" lon="1.44101">
        <ele>471.2</ele>
        <time>2022-11-20T08:45:22Z</time>
      </trkpt>
      <trkpt lat="45.99739" lon="1.44101">
        <ele>471.2</ele>
        <time>2022-11-20T08:45:23Z</time>
      </trkpt>
      <trkpt lat="45.99737" lon="1.44099">
        <ele>471.4</ele>
        <time>2022-11-20T08:45:24Z</time>
      </trkpt>
      <trkpt lat="45.99736" lon="1.44092">
        <ele>471.8</ele>
        <time>2022-11-20T08:45:26Z</time>
      </trkpt>
      <trkpt lat="45.99736" lon="1.44086">
        <ele>472.4</ele>
        <time>2022-11-20T08:45:28Z</time>
      </trkpt>
      <trkpt lat="45.99738" lon="1.44081">
        <ele>472.6</ele>
        <time>2022-11-20T08:45:30Z</time>
      </trkpt>
      <trkpt lat="45.9974" lon="1.44064">
        <ele>473.2</ele>
        <time>2022-11-20T08:45:35Z</time>
      </trkpt>
      <trkpt lat="45.99741" lon="1.44061">
        <ele>473.6</ele>
        <time>2022-11-20T08:45:36Z</time>
      </trkpt>
      <trkpt lat="45.99744" lon="1.44053">
        <ele>474.8</ele>
        <time>2022-11-20T08:45:39Z</time>
      </trkpt>
      <trkpt lat="45.99745" lon="1.44046">
        <ele>475.4</ele>
        <time>2022-11-20T08:45:41Z</time>
      </trkpt>
      <trkpt lat="45.99744" lon="1.44039">
        <ele>476</ele>
        <time>2022-11-20T08:45:43Z</time>
      </trkpt>
      <trkpt lat="45.99742" lon="1.44026">
        <ele>476.6</ele>
        <time>2022-11-20T08:45:47Z</time>
      </trkpt>
      <trkpt lat="45.99739" lon="1.44015">
        <ele>477</ele>
        <time>2022-11-20T08:45:51Z</time>
      </trkpt>
      <trkpt lat="45.99738" lon="1.44008">
        <ele>477.4</ele>
        <time>2022-11-20T08:45:53Z</time>
      </trkpt>
      <trkpt lat="45.99736" lon="1.43977">
        <ele>478</ele>
        <time>2022-11-20T08:46:00Z</time>
      </trkpt>
      <trkpt lat="45.99738" lon="1.43971">
        <ele>478.2</ele>
        <time>2022-11-20T08:46:02Z</time>
      </trkpt>
      <trkpt lat="45.9974" lon="1.43965">
        <ele>478.4</ele>
        <time>2022-11-20T08:46:04Z</time>
      </trkpt>
      <trkpt lat="45.99743" lon="1.43957">
        <ele>479.2</ele>
        <time>2022-11-20T08:46:07Z</time>
      </trkpt>
      <trkpt lat="45.99749" lon="1.43944">
        <ele>480.2</ele>
        <time>2022-11-20T08:46:12Z</time>
      </trkpt>
      <trkpt lat="45.99757" lon="1.43928">
        <ele>481.6</ele>
        <time>2022-11-20T08:46:18Z</time>
      </trkpt>
      <trkpt lat="45.99758" lon="1.43925">
        <ele>482</ele>
        <time>2022-11-20T08:46:19Z</time>
      </trkpt>
      <trkpt lat="45.99763" lon="1.43915">
        <ele>482.6</ele>
        <time>2022-11-20T08:46:23Z</time>
      </trkpt>
      <trkpt lat="45.99768" lon="1.43903">
        <ele>483.6</ele>
        <time>2022-11-20T08:46:27Z</time>
      </trkpt>
      <trkpt lat="45.99769" lon="1.43901">
        <ele>483.8</ele>
        <time>2022-11-20T08:46:28Z</time>
      </trkpt>
      <trkpt lat="45.99774" lon="1.4389">
        <ele>484.8</ele>
        <time>2022-11-20T08:46:32Z</time>
      </trkpt>
      <trkpt lat="45.9978" lon="1.43881">
        <ele>485.4</ele>
        <time>2022-11-20T08:46:36Z</time>
      </trkpt>
      <trkpt lat="45.99784" lon="1.43878">
        <ele>485.8</ele>
        <time>2022-11-20T08:46:38Z</time>
      </trkpt>
      <trkpt lat="45.99793" lon="1.43874">
        <ele>486.8</ele>
        <time>2022-11-20T08:46:43Z</time>
      </trkpt>
      <trkpt lat="45.99804" lon="1.43874">
        <ele>488</ele>
        <time>2022-11-20T08:46:49Z</time>
      </trkpt>
      <trkpt lat="45.99809" lon="1.43875">
        <ele>488.6</ele>
        <time>2022-11-20T08:46:51Z</time>
      </trkpt>
      <trkpt lat="45.99815" lon="1.43876">
        <ele>489</ele>
        <time>2022-11-20T08:46:54Z</time>
      </trkpt>
      <trkpt lat="45.99825" lon="1.43878">
        <ele>490</ele>
        <time>2022-11-20T08:46:59Z</time>
      </trkpt>
      <trkpt lat="45.99827" lon="1.43878">
        <ele>490</ele>
        <time>2022-11-20T08:47:00Z</time>
      </trkpt>
      <trkpt lat="45.9984" lon="1.43882">
        <ele>491.2</ele>
        <time>2022-11-20T08:47:06Z</time>
      </trkpt>
      <trkpt lat="45.99842" lon="1.43883">
        <ele>491.4</ele>
        <time>2022-11-20T08:47:07Z</time>
      </trkpt>
      <trkpt lat="45.99853" lon="1.43878">
        <ele>492</ele>
        <time>2022-11-20T08:47:13Z</time>
      </trkpt>
      <trkpt lat="45.99865" lon="1.4387">
        <ele>492</ele>
        <time>2022-11-20T08:47:17Z</time>
      </trkpt>
      <trkpt lat="45.99871" lon="1.43862">
        <ele>490.6</ele>
        <time>2022-11-20T08:47:19Z</time>
      </trkpt>
      <trkpt lat="45.99874" lon="1.43856">
        <ele>489.6</ele>
        <time>2022-11-20T08:47:20Z</time>
      </trkpt>
      <trkpt lat="45.99876" lon="1.43848">
        <ele>489</ele>
        <time>2022-11-20T08:47:21Z</time>
      </trkpt>
      <trkpt lat="45.99879" lon="1.43839">
        <ele>488.4</ele>
        <time>2022-11-20T08:47:22Z</time>
      </trkpt>
      <trkpt lat="45.99882" lon="1.4383">
        <ele>487.2</ele>
        <time>2022-11-20T08:47:23Z</time>
      </trkpt>
      <trkpt lat="45.99887" lon="1.4381">
        <ele>486</ele>
        <time>2022-11-20T08:47:25Z</time>
      </trkpt>
      <trkpt lat="45.99891" lon="1.43801">
        <ele>485.6</ele>
        <time>2022-11-20T08:47:26Z</time>
      </trkpt>
      <trkpt lat="45.99902" lon="1.43773">
        <ele>484.6</ele>
        <time>2022-11-20T08:47:30Z</time>
      </trkpt>
      <trkpt lat="45.99909" lon="1.43755">
        <ele>484.4</ele>
        <time>2022-11-20T08:47:33Z</time>
      </trkpt>
      <trkpt lat="45.99914" lon="1.4374">
        <ele>484.6</ele>
        <time>2022-11-20T08:47:36Z</time>
      </trkpt>
      <trkpt lat="45.99915" lon="1.43733">
        <ele>485</ele>
        <time>2022-11-20T08:47:38Z</time>
      </trkpt>
      <trkpt lat="45.99915" lon="1.43725">
        <ele>485.2</ele>
        <time>2022-11-20T08:47:40Z</time>
      </trkpt>
      <trkpt lat="45.99913" lon="1.43719">
        <ele>485.2</ele>
        <time>2022-11-20T08:47:42Z</time>
      </trkpt>
      <trkpt lat="45.9991" lon="1.43714">
        <ele>485.6</ele>
        <time>2022-11-20T08:47:44Z</time>
      </trkpt>
      <trkpt lat="45.99899" lon="1.43703">
        <ele>486.4</ele>
        <time>2022-11-20T08:47:50Z</time>
      </trkpt>
      <trkpt lat="45.99896" lon="1.437">
        <ele>486.8</ele>
        <time>2022-11-20T08:47:52Z</time>
      </trkpt>
      <trkpt lat="45.99891" lon="1.43697">
        <ele>487.8</ele>
        <time>2022-11-20T08:47:56Z</time>
      </trkpt>
      <trkpt lat="45.9989" lon="1.43696">
        <ele>487.8</ele>
        <time>2022-11-20T08:47:57Z</time>
      </trkpt>
      <trkpt lat="45.99886" lon="1.43692">
        <ele>489</ele>
        <time>2022-11-20T08:48:00Z</time>
      </trkpt>
      <trkpt lat="45.99879" lon="1.43689">
        <ele>489.8</ele>
        <time>2022-11-20T08:48:03Z</time>
      </trkpt>
      <trkpt lat="45.99876" lon="1.43685">
        <ele>490.4</ele>
        <time>2022-11-20T08:48:05Z</time>
      </trkpt>
      <trkpt lat="45.99869" lon="1.43682">
        <ele>491.4</ele>
        <time>2022-11-20T08:48:10Z</time>
      </trkpt>
      <trkpt lat="45.9986" lon="1.43677">
        <ele>492.6</ele>
        <time>2022-11-20T08:48:15Z</time>
      </trkpt>
      <trkpt lat="45.99858" lon="1.43675">
        <ele>492.8</ele>
        <time>2022-11-20T08:48:17Z</time>
      </trkpt>
      <trkpt lat="45.99857" lon="1.43672">
        <ele>493</ele>
        <time>2022-11-20T08:48:19Z</time>
      </trkpt>
      <trkpt lat="45.99855" lon="1.4367">
        <ele>493.2</ele>
        <time>2022-11-20T08:48:21Z</time>
      </trkpt>
      <trkpt lat="45.99853" lon="1.43667">
        <ele>493.4</ele>
        <time>2022-11-20T08:48:23Z</time>
      </trkpt>
      <trkpt lat="45.99851" lon="1.43665">
        <ele>493.6</ele>
        <time>2022-11-20T08:48:25Z</time>
      </trkpt>
      <trkpt lat="45.99841" lon="1.43653">
        <ele>494.4</ele>
        <time>2022-11-20T08:48:31Z</time>
      </trkpt>
      <trkpt lat="45.99838" lon="1.43649">
        <ele>494.8</ele>
        <time>2022-11-20T08:48:33Z</time>
      </trkpt>
      <trkpt lat="45.9983" lon="1.43642">
        <ele>496</ele>
        <time>2022-11-20T08:48:39Z</time>
      </trkpt>
      <trkpt lat="45.99823" lon="1.43639">
        <ele>497.2</ele>
        <time>2022-11-20T08:48:45Z</time>
      </trkpt>
      <trkpt lat="45.9982" lon="1.43638">
        <ele>497.6</ele>
        <time>2022-11-20T08:48:47Z</time>
      </trkpt>
      <trkpt lat="45.99814" lon="1.43633">
        <ele>498.4</ele>
        <time>2022-11-20T08:48:51Z</time>
      </trkpt>
      <trkpt lat="45.99809" lon="1.43628">
        <ele>499.4</ele>
        <time>2022-11-20T08:48:55Z</time>
      </trkpt>
      <trkpt lat="45.99807" lon="1.43623">
        <ele>500.2</ele>
        <time>2022-11-20T08:48:57Z</time>
      </trkpt>
      <trkpt lat="45.99808" lon="1.43621">
        <ele>500.8</ele>
        <time>2022-11-20T08:48:58Z</time>
      </trkpt>
      <trkpt lat="45.99808" lon="1.4362">
        <ele>501.4</ele>
        <time>2022-11-20T08:49:00Z</time>
      </trkpt>
      <trkpt lat="45.99809" lon="1.43619">
        <ele>501.6</ele>
        <time>2022-11-20T08:49:01Z</time>
      </trkpt>
      <trkpt lat="45.99809" lon="1.43619">
        <ele>501.8</ele>
        <time>2022-11-20T08:49:02Z</time>
      </trkpt>
      <trkpt lat="45.99811" lon="1.43616">
        <ele>502.6</ele>
        <time>2022-11-20T08:49:05Z</time>
      </trkpt>
      <trkpt lat="45.99811" lon="1.43615">
        <ele>502.8</ele>
        <time>2022-11-20T08:49:06Z</time>
      </trkpt>
      <trkpt lat="45.99813" lon="1.43614">
        <ele>503.2</ele>
        <time>2022-11-20T08:49:08Z</time>
      </trkpt>
      <trkpt lat="45.99813" lon="1.43614">
        <ele>503.2</ele>
        <time>2022-11-20T08:49:09Z</time>
      </trkpt>
      <trkpt lat="45.99814" lon="1.43614">
        <ele>503.4</ele>
        <time>2022-11-20T08:49:10Z</time>
      </trkpt>
      <trkpt lat="45.99816" lon="1.43614">
        <ele>504.2</ele>
        <time>2022-11-20T08:49:12Z</time>
      </trkpt>
      <trkpt lat="45.99817" lon="1.43614">
        <ele>504.6</ele>
        <time>2022-11-20T08:49:14Z</time>
      </trkpt>
      <trkpt lat="45.99818" lon="1.43614">
        <ele>504.8</ele>
        <time>2022-11-20T08:49:16Z</time>
      </trkpt>
      <trkpt lat="45.99819" lon="1.43613">
        <ele>505.4</ele>
        <time>2022-11-20T08:49:18Z</time>
      </trkpt>
      <trkpt lat="45.99823" lon="1.43611">
        <ele>506.4</ele>
        <time>2022-11-20T08:49:23Z</time>
      </trkpt>
      <trkpt lat="45.99824" lon="1.4361">
        <ele>507</ele>
        <time>2022-11-20T08:49:24Z</time>
      </trkpt>
      <trkpt lat="45.99825" lon="1.4361">
        <ele>507.4</ele>
        <time>2022-11-20T08:49:25Z</time>
      </trkpt>
      <trkpt lat="45.99826" lon="1.43609">
        <ele>507.6</ele>
        <time>2022-11-20T08:49:26Z</time>
      </trkpt>
      <trkpt lat="45.99828" lon="1.43607">
        <ele>508.4</ele>
        <time>2022-11-20T08:49:29Z</time>
      </trkpt>
      <trkpt lat="45.99828" lon="1.43606">
        <ele>508.6</ele>
        <time>2022-11-20T08:49:30Z</time>
      </trkpt>
      <trkpt lat="45.99828" lon="1.43604">
        <ele>509.2</ele>
        <time>2022-11-20T08:49:32Z</time>
      </trkpt>
      <trkpt lat="45.9983" lon="1.43597">
        <ele>509.8</ele>
        <time>2022-11-20T08:49:36Z</time>
      </trkpt>
      <trkpt lat="45.99831" lon="1.43592">
        <ele>510</ele>
        <time>2022-11-20T08:49:39Z</time>
      </trkpt>
      <trkpt lat="45.99833" lon="1.43571">
        <ele>510.8</ele>
        <time>2022-11-20T08:49:47Z</time>
      </trkpt>
      <trkpt lat="45.99833" lon="1.43561">
        <ele>511</ele>
        <time>2022-11-20T08:49:50Z</time>
      </trkpt>
      <trkpt lat="45.99834" lon="1.43552">
        <ele>511.6</ele>
        <time>2022-11-20T08:49:54Z</time>
      </trkpt>
      <trkpt lat="45.99837" lon="1.4354">
        <ele>512</ele>
        <time>2022-11-20T08:49:59Z</time>
      </trkpt>
      <trkpt lat="45.9984" lon="1.43528">
        <ele>513.2</ele>
        <time>2022-11-20T08:50:04Z</time>
      </trkpt>
      <trkpt lat="45.99846" lon="1.43515">
        <ele>514</ele>
        <time>2022-11-20T08:50:10Z</time>
      </trkpt>
      <trkpt lat="45.99848" lon="1.43511">
        <ele>514.4</ele>
        <time>2022-11-20T08:50:12Z</time>
      </trkpt>
      <trkpt lat="45.99854" lon="1.43499">
        <ele>515.2</ele>
        <time>2022-11-20T08:50:18Z</time>
      </trkpt>
      <trkpt lat="45.99856" lon="1.43494">
        <ele>515.4</ele>
        <time>2022-11-20T08:50:20Z</time>
      </trkpt>
      <trkpt lat="45.99862" lon="1.43482">
        <ele>516</ele>
        <time>2022-11-20T08:50:25Z</time>
      </trkpt>
      <trkpt lat="45.99864" lon="1.43478">
        <ele>516.4</ele>
        <time>2022-11-20T08:50:27Z</time>
      </trkpt>
      <trkpt lat="45.9987" lon="1.43468">
        <ele>517.6</ele>
        <time>2022-11-20T08:50:32Z</time>
      </trkpt>
      <trkpt lat="45.9987" lon="1.43466">
        <ele>517.8</ele>
        <time>2022-11-20T08:50:33Z</time>
      </trkpt>
      <trkpt lat="45.99876" lon="1.43444">
        <ele>518.6</ele>
        <time>2022-11-20T08:50:41Z</time>
      </trkpt>
      <trkpt lat="45.99876" lon="1.43441">
        <ele>518.8</ele>
        <time>2022-11-20T08:50:42Z</time>
      </trkpt>
      <trkpt lat="45.99879" lon="1.43433">
        <ele>520</ele>
        <time>2022-11-20T08:50:46Z</time>
      </trkpt>
      <trkpt lat="45.99881" lon="1.43426">
        <ele>521</ele>
        <time>2022-11-20T08:50:50Z</time>
      </trkpt>
      <trkpt lat="45.99882" lon="1.43424">
        <ele>521.4</ele>
        <time>2022-11-20T08:50:51Z</time>
      </trkpt>
      <trkpt lat="45.99886" lon="1.43414">
        <ele>522.4</ele>
        <time>2022-11-20T08:50:56Z</time>
      </trkpt>
      <trkpt lat="45.9989" lon="1.43406">
        <ele>523.2</ele>
        <time>2022-11-20T08:51:00Z</time>
      </trkpt>
      <trkpt lat="45.99892" lon="1.43404">
        <ele>523.6</ele>
        <time>2022-11-20T08:51:01Z</time>
      </trkpt>
      <trkpt lat="45.99897" lon="1.43397">
        <ele>524.6</ele>
        <time>2022-11-20T08:51:05Z</time>
      </trkpt>
      <trkpt lat="45.99902" lon="1.4339">
        <ele>525.4</ele>
        <time>2022-11-20T08:51:09Z</time>
      </trkpt>
      <trkpt lat="45.99903" lon="1.43389">
        <ele>525.6</ele>
        <time>2022-11-20T08:51:10Z</time>
      </trkpt>
      <trkpt lat="45.99913" lon="1.43377">
        <ele>526</ele>
        <time>2022-11-20T08:51:17Z</time>
      </trkpt>
      <trkpt lat="45.99923" lon="1.43356">
        <ele>525.2</ele>
        <time>2022-11-20T08:51:23Z</time>
      </trkpt>
      <trkpt lat="45.99933" lon="1.43341">
        <ele>526.2</ele>
        <time>2022-11-20T08:51:29Z</time>
      </trkpt>
      <trkpt lat="45.99937" lon="1.43339">
        <ele>526.8</ele>
        <time>2022-11-20T08:51:31Z</time>
      </trkpt>
      <trkpt lat="45.99943" lon="1.43333">
        <ele>527.8</ele>
        <time>2022-11-20T08:51:36Z</time>
      </trkpt>
      <trkpt lat="45.99946" lon="1.43331">
        <ele>528.4</ele>
        <time>2022-11-20T08:51:39Z</time>
      </trkpt>
      <trkpt lat="45.99949" lon="1.43329">
        <ele>528.6</ele>
        <time>2022-11-20T08:51:42Z</time>
      </trkpt>
      <trkpt lat="45.99951" lon="1.43328">
        <ele>528.6</ele>
        <time>2022-11-20T08:51:43Z</time>
      </trkpt>
      <trkpt lat="45.9996" lon="1.43325">
        <ele>529</ele>
        <time>2022-11-20T08:51:47Z</time>
      </trkpt>
      <trkpt lat="45.99966" lon="1.43318">
        <ele>529.2</ele>
        <time>2022-11-20T08:51:50Z</time>
      </trkpt>
      <trkpt lat="45.99981" lon="1.43311">
        <ele>530</ele>
        <time>2022-11-20T08:51:57Z</time>
      </trkpt>
      <trkpt lat="45.99984" lon="1.4331">
        <ele>530</ele>
        <time>2022-11-20T08:51:58Z</time>
      </trkpt>
      <trkpt lat="46.00001" lon="1.43306">
        <ele>531</ele>
        <time>2022-11-20T08:52:04Z</time>
      </trkpt>
      <trkpt lat="46.00003" lon="1.43305">
        <ele>531.2</ele>
        <time>2022-11-20T08:52:05Z</time>
      </trkpt>
      <trkpt lat="46.00013" lon="1.43301">
        <ele>532.2</ele>
        <time>2022-11-20T08:52:11Z</time>
      </trkpt>
      <trkpt lat="46.00015" lon="1.433">
        <ele>532.4</ele>
        <time>2022-11-20T08:52:12Z</time>
      </trkpt>
      <trkpt lat="46.00018" lon="1.43298">
        <ele>532.8</ele>
        <time>2022-11-20T08:52:13Z</time>
      </trkpt>
      <trkpt lat="46.00021" lon="1.43296">
        <ele>533.2</ele>
        <time>2022-11-20T08:52:15Z</time>
      </trkpt>
      <trkpt lat="46.00024" lon="1.43294">
        <ele>533.6</ele>
        <time>2022-11-20T08:52:17Z</time>
      </trkpt>
      <trkpt lat="46.00028" lon="1.43287">
        <ele>534.2</ele>
        <time>2022-11-20T08:52:20Z</time>
      </trkpt>
      <trkpt lat="46.00028" lon="1.43285">
        <ele>534.4</ele>
        <time>2022-11-20T08:52:21Z</time>
      </trkpt>
      <trkpt lat="46.0003" lon="1.43273">
        <ele>535.6</ele>
        <time>2022-11-20T08:52:26Z</time>
      </trkpt>
      <trkpt lat="46.00031" lon="1.43268">
        <ele>536.6</ele>
        <time>2022-11-20T08:52:29Z</time>
      </trkpt>
      <trkpt lat="46.00031" lon="1.43266">
        <ele>536.8</ele>
        <time>2022-11-20T08:52:30Z</time>
      </trkpt>
      <trkpt lat="46.00032" lon="1.43256">
        <ele>537.8</ele>
        <time>2022-11-20T08:52:35Z</time>
      </trkpt>
      <trkpt lat="46.00031" lon="1.43247">
        <ele>538.6</ele>
        <time>2022-11-20T08:52:38Z</time>
      </trkpt>
      <trkpt lat="46.00031" lon="1.43241">
        <ele>538.8</ele>
        <time>2022-11-20T08:52:40Z</time>
      </trkpt>
      <trkpt lat="46.00033" lon="1.43225">
        <ele>538.6</ele>
        <time>2022-11-20T08:52:44Z</time>
      </trkpt>
      <trkpt lat="46.00037" lon="1.43207">
        <ele>537.8</ele>
        <time>2022-11-20T08:52:49Z</time>
      </trkpt>
      <trkpt lat="46.00039" lon="1.43199">
        <ele>537.8</ele>
        <time>2022-11-20T08:52:51Z</time>
      </trkpt>
      <trkpt lat="46.0005" lon="1.43171">
        <ele>538.2</ele>
        <time>2022-11-20T08:52:58Z</time>
      </trkpt>
      <trkpt lat="46.00058" lon="1.4316">
        <ele>538.8</ele>
        <time>2022-11-20T08:53:02Z</time>
      </trkpt>
      <trkpt lat="46.00059" lon="1.43157">
        <ele>539</ele>
        <time>2022-11-20T08:53:03Z</time>
      </trkpt>
      <trkpt lat="46.00061" lon="1.43152">
        <ele>539</ele>
        <time>2022-11-20T08:53:04Z</time>
      </trkpt>
      <trkpt lat="46.00063" lon="1.43141">
        <ele>538.8</ele>
        <time>2022-11-20T08:53:06Z</time>
      </trkpt>
      <trkpt lat="46.00062" lon="1.43138">
        <ele>538.8</ele>
        <time>2022-11-20T08:53:07Z</time>
      </trkpt>
      <trkpt lat="46.00049" lon="1.43117">
        <ele>538.2</ele>
        <time>2022-11-20T08:53:12Z</time>
      </trkpt>
      <trkpt lat="46.00044" lon="1.43109">
        <ele>538.2</ele>
        <time>2022-11-20T08:53:14Z</time>
      </trkpt>
      <trkpt lat="46.00039" lon="1.431">
        <ele>538.4</ele>
        <time>2022-11-20T08:53:17Z</time>
      </trkpt>
      <trkpt lat="46.00028" lon="1.43083">
        <ele>538.2</ele>
        <time>2022-11-20T08:53:22Z</time>
      </trkpt>
      <trkpt lat="46.00016" lon="1.43071">
        <ele>538</ele>
        <time>2022-11-20T08:53:27Z</time>
      </trkpt>
      <trkpt lat="46.00009" lon="1.43064">
        <ele>538.2</ele>
        <time>2022-11-20T08:53:32Z</time>
      </trkpt>
      <trkpt lat="46.00007" lon="1.43063">
        <ele>539.8</ele>
        <time>2022-11-20T08:53:34Z</time>
      </trkpt>
      <trkpt lat="46.00005" lon="1.43063">
        <ele>540.4</ele>
        <time>2022-11-20T08:53:35Z</time>
      </trkpt>
      <trkpt lat="46.00005" lon="1.43063">
        <ele>541</ele>
        <time>2022-11-20T08:53:36Z</time>
      </trkpt>
      <trkpt lat="45.99998" lon="1.43063">
        <ele>541.8</ele>
        <time>2022-11-20T08:53:39Z</time>
      </trkpt>
      <trkpt lat="45.99996" lon="1.43063">
        <ele>542.2</ele>
        <time>2022-11-20T08:53:40Z</time>
      </trkpt>
      <trkpt lat="45.99986" lon="1.43062">
        <ele>542.6</ele>
        <time>2022-11-20T08:53:44Z</time>
      </trkpt>
      <trkpt lat="45.99974" lon="1.43067">
        <ele>541.8</ele>
        <time>2022-11-20T08:53:51Z</time>
      </trkpt>
      <trkpt lat="45.99969" lon="1.43067">
        <ele>541.2</ele>
        <time>2022-11-20T08:53:55Z</time>
      </trkpt>
      <trkpt lat="45.99965" lon="1.43066">
        <ele>541</ele>
        <time>2022-11-20T08:53:58Z</time>
      </trkpt>
      <trkpt lat="45.99963" lon="1.43064">
        <ele>540.8</ele>
        <time>2022-11-20T08:54:00Z</time>
      </trkpt>
      <trkpt lat="45.9996" lon="1.43066">
        <ele>540.8</ele>
        <time>2022-11-20T08:54:04Z</time>
      </trkpt>
      <trkpt lat="45.99961" lon="1.43069">
        <ele>540</ele>
        <time>2022-11-20T08:54:08Z</time>
      </trkpt>
      <trkpt lat="45.99964" lon="1.43073">
        <ele>538.6</ele>
        <time>2022-11-20T08:54:11Z</time>
      </trkpt>
      <trkpt lat="45.99965" lon="1.43075">
        <ele>537.2</ele>
        <time>2022-11-20T08:54:12Z</time>
      </trkpt>
      <trkpt lat="45.99969" lon="1.43079">
        <ele>534.6</ele>
        <time>2022-11-20T08:54:14Z</time>
      </trkpt>
      <trkpt lat="45.9997" lon="1.4308">
        <ele>533.6</ele>
        <time>2022-11-20T08:54:15Z</time>
      </trkpt>
      <trkpt lat="45.99973" lon="1.43084">
        <ele>532.4</ele>
        <time>2022-11-20T08:54:17Z</time>
      </trkpt>
      <trkpt lat="45.99974" lon="1.43085">
        <ele>531.6</ele>
        <time>2022-11-20T08:54:18Z</time>
      </trkpt>
      <trkpt lat="45.99974" lon="1.43087">
        <ele>531</ele>
        <time>2022-11-20T08:54:19Z</time>
      </trkpt>
      <trkpt lat="45.99974" lon="1.43091">
        <ele>530.2</ele>
        <time>2022-11-20T08:54:22Z</time>
      </trkpt>
      <trkpt lat="45.99974" lon="1.43093">
        <ele>530</ele>
        <time>2022-11-20T08:54:23Z</time>
      </trkpt>
      <trkpt lat="45.99974" lon="1.43097">
        <ele>528.8</ele>
        <time>2022-11-20T08:54:25Z</time>
      </trkpt>
      <trkpt lat="45.99974" lon="1.43099">
        <ele>527.4</ele>
        <time>2022-11-20T08:54:26Z</time>
      </trkpt>
      <trkpt lat="45.99973" lon="1.43103">
        <ele>525.6</ele>
        <time>2022-11-20T08:54:28Z</time>
      </trkpt>
      <trkpt lat="45.99971" lon="1.43107">
        <ele>524.4</ele>
        <time>2022-11-20T08:54:30Z</time>
      </trkpt>
      <trkpt lat="45.99969" lon="1.43109">
        <ele>524</ele>
        <time>2022-11-20T08:54:31Z</time>
      </trkpt>
      <trkpt lat="45.99968" lon="1.43111">
        <ele>523.2</ele>
        <time>2022-11-20T08:54:32Z</time>
      </trkpt>
      <trkpt lat="45.99965" lon="1.43114">
        <ele>521.4</ele>
        <time>2022-11-20T08:54:34Z</time>
      </trkpt>
      <trkpt lat="45.99962" lon="1.43115">
        <ele>520</ele>
        <time>2022-11-20T08:54:36Z</time>
      </trkpt>
      <trkpt lat="45.99961" lon="1.43116">
        <ele>519.4</ele>
        <time>2022-11-20T08:54:37Z</time>
      </trkpt>
      <trkpt lat="45.9996" lon="1.43117">
        <ele>519</ele>
        <time>2022-11-20T08:54:38Z</time>
      </trkpt>
      <trkpt lat="45.99947" lon="1.43124">
        <ele>518</ele>
        <time>2022-11-20T08:54:44Z</time>
      </trkpt>
      <trkpt lat="45.99933" lon="1.43116">
        <ele>519.2</ele>
        <time>2022-11-20T08:54:50Z</time>
      </trkpt>
      <trkpt lat="45.99927" lon="1.43116">
        <ele>520.2</ele>
        <time>2022-11-20T08:54:53Z</time>
      </trkpt>
      <trkpt lat="45.99924" lon="1.43115">
        <ele>521.4</ele>
        <time>2022-11-20T08:54:55Z</time>
      </trkpt>
      <trkpt lat="45.99919" lon="1.43117">
        <ele>522.2</ele>
        <time>2022-11-20T08:54:57Z</time>
      </trkpt>
      <trkpt lat="45.99917" lon="1.43117">
        <ele>522.4</ele>
        <time>2022-11-20T08:54:58Z</time>
      </trkpt>
      <trkpt lat="45.99909" lon="1.43118">
        <ele>523.6</ele>
        <time>2022-11-20T08:55:04Z</time>
      </trkpt>
      <trkpt lat="45.99908" lon="1.43118">
        <ele>524</ele>
        <time>2022-11-20T08:55:06Z</time>
      </trkpt>
      <trkpt lat="45.99903" lon="1.43118">
        <ele>524.2</ele>
        <time>2022-11-20T08:55:09Z</time>
      </trkpt>
      <trkpt lat="45.99896" lon="1.43117">
        <ele>524.6</ele>
        <time>2022-11-20T08:55:11Z</time>
      </trkpt>
      <trkpt lat="45.99894" lon="1.43117">
        <ele>524.8</ele>
        <time>2022-11-20T08:55:12Z</time>
      </trkpt>
      <trkpt lat="45.9988" lon="1.43114">
        <ele>525.8</ele>
        <time>2022-11-20T08:55:18Z</time>
      </trkpt>
      <trkpt lat="45.99878" lon="1.43113">
        <ele>525.8</ele>
        <time>2022-11-20T08:55:19Z</time>
      </trkpt>
      <trkpt lat="45.9987" lon="1.43113">
        <ele>527</ele>
        <time>2022-11-20T08:55:23Z</time>
      </trkpt>
      <trkpt lat="45.99861" lon="1.43111">
        <ele>528</ele>
        <time>2022-11-20T08:55:27Z</time>
      </trkpt>
      <trkpt lat="45.99853" lon="1.43108">
        <ele>529.2</ele>
        <time>2022-11-20T08:55:31Z</time>
      </trkpt>
      <trkpt lat="45.99845" lon="1.43107">
        <ele>529.6</ele>
        <time>2022-11-20T08:55:35Z</time>
      </trkpt>
      <trkpt lat="45.99835" lon="1.4311">
        <ele>529.8</ele>
        <time>2022-11-20T08:55:41Z</time>
      </trkpt>
      <trkpt lat="45.99832" lon="1.43112">
        <ele>530.4</ele>
        <time>2022-11-20T08:55:43Z</time>
      </trkpt>
      <trkpt lat="45.99825" lon="1.43115">
        <ele>531.4</ele>
        <time>2022-11-20T08:55:48Z</time>
      </trkpt>
      <trkpt lat="45.99821" lon="1.43116">
        <ele>531.6</ele>
        <time>2022-11-20T08:55:50Z</time>
      </trkpt>
      <trkpt lat="45.99813" lon="1.4312">
        <ele>532.2</ele>
        <time>2022-11-20T08:55:54Z</time>
      </trkpt>
      <trkpt lat="45.9981" lon="1.43121">
        <ele>532.4</ele>
        <time>2022-11-20T08:55:55Z</time>
      </trkpt>
      <trkpt lat="45.99795" lon="1.43131">
        <ele>533.8</ele>
        <time>2022-11-20T08:56:00Z</time>
      </trkpt>
      <trkpt lat="45.99774" lon="1.43148">
        <ele>534.2</ele>
        <time>2022-11-20T08:56:07Z</time>
      </trkpt>
      <trkpt lat="45.99751" lon="1.4316">
        <ele>532.6</ele>
        <time>2022-11-20T08:56:12Z</time>
      </trkpt>
      <trkpt lat="45.99747" lon="1.43161">
        <ele>532.4</ele>
        <time>2022-11-20T08:56:13Z</time>
      </trkpt>
      <trkpt lat="45.99738" lon="1.43162">
        <ele>531.6</ele>
        <time>2022-11-20T08:56:15Z</time>
      </trkpt>
      <trkpt lat="45.99733" lon="1.43162">
        <ele>531</ele>
        <time>2022-11-20T08:56:16Z</time>
      </trkpt>
      <trkpt lat="45.99727" lon="1.43162">
        <ele>530.6</ele>
        <time>2022-11-20T08:56:17Z</time>
      </trkpt>
      <trkpt lat="45.99702" lon="1.43159">
        <ele>529.8</ele>
        <time>2022-11-20T08:56:22Z</time>
      </trkpt>
      <trkpt lat="45.99699" lon="1.43158">
        <ele>529.8</ele>
        <time>2022-11-20T08:56:23Z</time>
      </trkpt>
      <trkpt lat="45.99683" lon="1.43158">
        <ele>529.6</ele>
        <time>2022-11-20T08:56:26Z</time>
      </trkpt>
      <trkpt lat="45.99678" lon="1.43157">
        <ele>529.4</ele>
        <time>2022-11-20T08:56:27Z</time>
      </trkpt>
      <trkpt lat="45.99659" lon="1.4316">
        <ele>529.2</ele>
        <time>2022-11-20T08:56:29Z</time>
      </trkpt>
      <trkpt lat="45.99641" lon="1.43163">
        <ele>529</ele>
        <time>2022-11-20T08:56:31Z</time>
      </trkpt>
      <trkpt lat="45.99612" lon="1.43166">
        <ele>528.8</ele>
        <time>2022-11-20T08:56:36Z</time>
      </trkpt>
      <trkpt lat="45.99601" lon="1.43167">
        <ele>528</ele>
        <time>2022-11-20T08:56:38Z</time>
      </trkpt>
      <trkpt lat="45.99576" lon="1.43169">
        <ele>526.6</ele>
        <time>2022-11-20T08:56:42Z</time>
      </trkpt>
      <trkpt lat="45.99553" lon="1.43175">
        <ele>525.4</ele>
        <time>2022-11-20T08:56:46Z</time>
      </trkpt>
      <trkpt lat="45.99542" lon="1.4318">
        <ele>525</ele>
        <time>2022-11-20T08:56:48Z</time>
      </trkpt>
      <trkpt lat="45.99529" lon="1.43184">
        <ele>524.6</ele>
        <time>2022-11-20T08:56:50Z</time>
      </trkpt>
      <trkpt lat="45.99509" lon="1.43187">
        <ele>524.4</ele>
        <time>2022-11-20T08:56:53Z</time>
      </trkpt>
      <trkpt lat="45.9947" lon="1.43194">
        <ele>523</ele>
        <time>2022-11-20T08:56:58Z</time>
      </trkpt>
      <trkpt lat="45.99446" lon="1.43192">
        <ele>522</ele>
        <time>2022-11-20T08:57:01Z</time>
      </trkpt>
      <trkpt lat="45.99426" lon="1.43184">
        <ele>521.4</ele>
        <time>2022-11-20T08:57:04Z</time>
      </trkpt>
      <trkpt lat="45.99409" lon="1.4318">
        <ele>520.8</ele>
        <time>2022-11-20T08:57:06Z</time>
      </trkpt>
      <trkpt lat="45.9939" lon="1.43178">
        <ele>519.2</ele>
        <time>2022-11-20T08:57:08Z</time>
      </trkpt>
      <trkpt lat="45.99379" lon="1.43168">
        <ele>517.8</ele>
        <time>2022-11-20T08:57:10Z</time>
      </trkpt>
      <trkpt lat="45.99365" lon="1.43153">
        <ele>516.6</ele>
        <time>2022-11-20T08:57:13Z</time>
      </trkpt>
      <trkpt lat="45.99361" lon="1.43148">
        <ele>516</ele>
        <time>2022-11-20T08:57:14Z</time>
      </trkpt>
      <trkpt lat="45.99358" lon="1.43143">
        <ele>515.6</ele>
        <time>2022-11-20T08:57:15Z</time>
      </trkpt>
      <trkpt lat="45.99355" lon="1.43138">
        <ele>515.4</ele>
        <time>2022-11-20T08:57:16Z</time>
      </trkpt>
      <trkpt lat="45.99353" lon="1.43132">
        <ele>515.2</ele>
        <time>2022-11-20T08:57:17Z</time>
      </trkpt>
      <trkpt lat="45.99349" lon="1.43119">
        <ele>515</ele>
        <time>2022-11-20T08:57:19Z</time>
      </trkpt>
      <trkpt lat="45.9933" lon="1.43065">
        <ele>515.2</ele>
        <time>2022-11-20T08:57:26Z</time>
      </trkpt>
      <trkpt lat="45.99323" lon="1.43053">
        <ele>515.4</ele>
        <time>2022-11-20T08:57:28Z</time>
      </trkpt>
      <trkpt lat="45.99315" lon="1.43038">
        <ele>515</ele>
        <time>2022-11-20T08:57:31Z</time>
      </trkpt>
      <trkpt lat="45.99306" lon="1.43023">
        <ele>515.2</ele>
        <time>2022-11-20T08:57:34Z</time>
      </trkpt>
      <trkpt lat="45.99292" lon="1.43004">
        <ele>515.6</ele>
        <time>2022-11-20T08:57:37Z</time>
      </trkpt>
      <trkpt lat="45.99275" lon="1.42976">
        <ele>515.6</ele>
        <time>2022-11-20T08:57:43Z</time>
      </trkpt>
      <trkpt lat="45.99259" lon="1.42956">
        <ele>516</ele>
        <time>2022-11-20T08:57:48Z</time>
      </trkpt>
      <trkpt lat="45.9925" lon="1.4295">
        <ele>516.4</ele>
        <time>2022-11-20T08:57:50Z</time>
      </trkpt>
      <trkpt lat="45.99239" lon="1.42949">
        <ele>516.2</ele>
        <time>2022-11-20T08:57:52Z</time>
      </trkpt>
      <trkpt lat="45.99228" lon="1.4295">
        <ele>516.4</ele>
        <time>2022-11-20T08:57:54Z</time>
      </trkpt>
      <trkpt lat="45.9921" lon="1.42954">
        <ele>516.2</ele>
        <time>2022-11-20T08:57:58Z</time>
      </trkpt>
      <trkpt lat="45.99199" lon="1.42953">
        <ele>516.2</ele>
        <time>2022-11-20T08:58:01Z</time>
      </trkpt>
      <trkpt lat="45.99193" lon="1.42945">
        <ele>516.6</ele>
        <time>2022-11-20T08:58:03Z</time>
      </trkpt>
      <trkpt lat="45.99187" lon="1.42933">
        <ele>517.2</ele>
        <time>2022-11-20T08:58:05Z</time>
      </trkpt>
      <trkpt lat="45.99174" lon="1.42894">
        <ele>517.4</ele>
        <time>2022-11-20T08:58:11Z</time>
      </trkpt>
      <trkpt lat="45.9917" lon="1.42884">
        <ele>517.2</ele>
        <time>2022-11-20T08:58:14Z</time>
      </trkpt>
      <trkpt lat="45.99165" lon="1.4288">
        <ele>516.6</ele>
        <time>2022-11-20T08:58:16Z</time>
      </trkpt>
      <trkpt lat="45.99164" lon="1.4288">
        <ele>516.2</ele>
        <time>2022-11-20T08:58:17Z</time>
      </trkpt>
      <trkpt lat="45.99163" lon="1.42881">
        <ele>516</ele>
        <time>2022-11-20T08:58:18Z</time>
      </trkpt>
      <trkpt lat="45.9916" lon="1.42883">
        <ele>515.8</ele>
        <time>2022-11-20T08:58:20Z</time>
      </trkpt>
      <trkpt lat="45.99159" lon="1.42887">
        <ele>516</ele>
        <time>2022-11-20T08:58:22Z</time>
      </trkpt>
      <trkpt lat="45.99157" lon="1.42895">
        <ele>516.4</ele>
        <time>2022-11-20T08:58:24Z</time>
      </trkpt>
      <trkpt lat="45.99155" lon="1.42913">
        <ele>517.4</ele>
        <time>2022-11-20T08:58:28Z</time>
      </trkpt>
      <trkpt lat="45.99152" lon="1.42928">
        <ele>517.8</ele>
        <time>2022-11-20T08:58:31Z</time>
      </trkpt>
      <trkpt lat="45.9915" lon="1.42933">
        <ele>518</ele>
        <time>2022-11-20T08:58:32Z</time>
      </trkpt>
      <trkpt lat="45.99144" lon="1.4295">
        <ele>518.4</ele>
        <time>2022-11-20T08:58:36Z</time>
      </trkpt>
      <trkpt lat="45.99143" lon="1.42954">
        <ele>518.4</ele>
        <time>2022-11-20T08:58:38Z</time>
      </trkpt>
      <trkpt lat="45.99143" lon="1.42959">
        <ele>518.6</ele>
        <time>2022-11-20T08:58:40Z</time>
      </trkpt>
      <trkpt lat="45.99144" lon="1.42962">
        <ele>518.6</ele>
        <time>2022-11-20T08:58:41Z</time>
      </trkpt>
      <trkpt lat="45.99146" lon="1.42974">
        <ele>518.4</ele>
        <time>2022-11-20T08:58:45Z</time>
      </trkpt>
      <trkpt lat="45.99143" lon="1.42981">
        <ele>518</ele>
        <time>2022-11-20T08:58:47Z</time>
      </trkpt>
      <trkpt lat="45.99137" lon="1.42998">
        <ele>518</ele>
        <time>2022-11-20T08:58:51Z</time>
      </trkpt>
      <trkpt lat="45.99131" lon="1.43006">
        <ele>518</ele>
        <time>2022-11-20T08:58:53Z</time>
      </trkpt>
      <trkpt lat="45.99118" lon="1.43035">
        <ele>518</ele>
        <time>2022-11-20T08:59:00Z</time>
      </trkpt>
      <trkpt lat="45.99112" lon="1.43043">
        <ele>518.2</ele>
        <time>2022-11-20T08:59:03Z</time>
      </trkpt>
      <trkpt lat="45.99106" lon="1.43055">
        <ele>518.4</ele>
        <time>2022-11-20T08:59:06Z</time>
      </trkpt>
      <trkpt lat="45.99099" lon="1.43066">
        <ele>518.6</ele>
        <time>2022-11-20T08:59:09Z</time>
      </trkpt>
      <trkpt lat="45.99079" lon="1.43104">
        <ele>519.2</ele>
        <time>2022-11-20T08:59:15Z</time>
      </trkpt>
      <trkpt lat="45.99077" lon="1.43126">
        <ele>519.6</ele>
        <time>2022-11-20T08:59:19Z</time>
      </trkpt>
      <trkpt lat="45.99075" lon="1.4313">
        <ele>519.8</ele>
        <time>2022-11-20T08:59:20Z</time>
      </trkpt>
      <trkpt lat="45.99066" lon="1.43156">
        <ele>520.8</ele>
        <time>2022-11-20T08:59:26Z</time>
      </trkpt>
      <trkpt lat="45.99056" lon="1.4317">
        <ele>522</ele>
        <time>2022-11-20T08:59:30Z</time>
      </trkpt>
      <trkpt lat="45.99043" lon="1.43184">
        <ele>523</ele>
        <time>2022-11-20T08:59:33Z</time>
      </trkpt>
      <trkpt lat="45.99041" lon="1.43189">
        <ele>523.4</ele>
        <time>2022-11-20T08:59:34Z</time>
      </trkpt>
      <trkpt lat="45.99031" lon="1.43203">
        <ele>524.2</ele>
        <time>2022-11-20T08:59:39Z</time>
      </trkpt>
      <trkpt lat="45.99026" lon="1.43209">
        <ele>524.6</ele>
        <time>2022-11-20T08:59:42Z</time>
      </trkpt>
      <trkpt lat="45.99019" lon="1.43216">
        <ele>525.2</ele>
        <time>2022-11-20T08:59:46Z</time>
      </trkpt>
      <trkpt lat="45.99007" lon="1.43225">
        <ele>525.2</ele>
        <time>2022-11-20T08:59:51Z</time>
      </trkpt>
      <trkpt lat="45.98995" lon="1.43227">
        <ele>525.2</ele>
        <time>2022-11-20T08:59:55Z</time>
      </trkpt>
      <trkpt lat="45.98991" lon="1.43229">
        <ele>525.6</ele>
        <time>2022-11-20T08:59:56Z</time>
      </trkpt>
      <trkpt lat="45.98987" lon="1.4323">
        <ele>525.4</ele>
        <time>2022-11-20T08:59:57Z</time>
      </trkpt>
      <trkpt lat="45.98964" lon="1.43236">
        <ele>526.2</ele>
        <time>2022-11-20T09:00:05Z</time>
      </trkpt>
      <trkpt lat="45.98951" lon="1.43239">
        <ele>526.8</ele>
        <time>2022-11-20T09:00:08Z</time>
      </trkpt>
      <trkpt lat="45.98936" lon="1.43244">
        <ele>527</ele>
        <time>2022-11-20T09:00:11Z</time>
      </trkpt>
      <trkpt lat="45.98922" lon="1.43248">
        <ele>527.4</ele>
        <time>2022-11-20T09:00:16Z</time>
      </trkpt>
      <trkpt lat="45.98915" lon="1.43247">
        <ele>528</ele>
        <time>2022-11-20T09:00:18Z</time>
      </trkpt>
      <trkpt lat="45.98903" lon="1.43247">
        <ele>528.6</ele>
        <time>2022-11-20T09:00:22Z</time>
      </trkpt>
      <trkpt lat="45.98896" lon="1.43247">
        <ele>529.4</ele>
        <time>2022-11-20T09:00:24Z</time>
      </trkpt>
      <trkpt lat="45.98882" lon="1.43245">
        <ele>530.4</ele>
        <time>2022-11-20T09:00:29Z</time>
      </trkpt>
      <trkpt lat="45.98879" lon="1.43245">
        <ele>530.6</ele>
        <time>2022-11-20T09:00:30Z</time>
      </trkpt>
      <trkpt lat="45.98867" lon="1.43241">
        <ele>531.6</ele>
        <time>2022-11-20T09:00:35Z</time>
      </trkpt>
      <trkpt lat="45.98858" lon="1.43239">
        <ele>532</ele>
        <time>2022-11-20T09:00:38Z</time>
      </trkpt>
      <trkpt lat="45.98839" lon="1.4323">
        <ele>532.2</ele>
        <time>2022-11-20T09:00:44Z</time>
      </trkpt>
      <trkpt lat="45.98817" lon="1.43221">
        <ele>531.6</ele>
        <time>2022-11-20T09:00:51Z</time>
      </trkpt>
      <trkpt lat="45.9881" lon="1.43217">
        <ele>531.2</ele>
        <time>2022-11-20T09:00:53Z</time>
      </trkpt>
      <trkpt lat="45.98797" lon="1.43207">
        <ele>530.4</ele>
        <time>2022-11-20T09:00:56Z</time>
      </trkpt>
      <trkpt lat="45.9878" lon="1.43194">
        <ele>529.2</ele>
        <time>2022-11-20T09:00:59Z</time>
      </trkpt>
      <trkpt lat="45.98768" lon="1.43188">
        <ele>528.6</ele>
        <time>2022-11-20T09:01:01Z</time>
      </trkpt>
      <trkpt lat="45.98768" lon="1.43188">
        <ele>528.2</ele>
        <time>2022-11-20T09:01:02Z</time>
      </trkpt>
      <trkpt lat="45.98735" lon="1.43166">
        <ele>527</ele>
        <time>2022-11-20T09:01:06Z</time>
      </trkpt>
      <trkpt lat="45.98725" lon="1.43157">
        <ele>525.8</ele>
        <time>2022-11-20T09:01:08Z</time>
      </trkpt>
      <trkpt lat="45.98704" lon="1.4314">
        <ele>525.6</ele>
        <time>2022-11-20T09:01:13Z</time>
      </trkpt>
      <trkpt lat="45.98689" lon="1.43133">
        <ele>527</ele>
        <time>2022-11-20T09:01:18Z</time>
      </trkpt>
      <trkpt lat="45.98679" lon="1.43128">
        <ele>528.2</ele>
        <time>2022-11-20T09:01:21Z</time>
      </trkpt>
      <trkpt lat="45.98666" lon="1.43122">
        <ele>529</ele>
        <time>2022-11-20T09:01:25Z</time>
      </trkpt>
      <trkpt lat="45.98662" lon="1.43118">
        <ele>529.4</ele>
        <time>2022-11-20T09:01:26Z</time>
      </trkpt>
      <trkpt lat="45.98648" lon="1.43108">
        <ele>530</ele>
        <time>2022-11-20T09:01:30Z</time>
      </trkpt>
      <trkpt lat="45.98645" lon="1.43103">
        <ele>530.2</ele>
        <time>2022-11-20T09:01:31Z</time>
      </trkpt>
      <trkpt lat="45.98642" lon="1.431">
        <ele>530.2</ele>
        <time>2022-11-20T09:01:32Z</time>
      </trkpt>
      <trkpt lat="45.98636" lon="1.43092">
        <ele>530.2</ele>
        <time>2022-11-20T09:01:34Z</time>
      </trkpt>
      <trkpt lat="45.98629" lon="1.43085">
        <ele>529</ele>
        <time>2022-11-20T09:01:36Z</time>
      </trkpt>
      <trkpt lat="45.98619" lon="1.43077">
        <ele>527.8</ele>
        <time>2022-11-20T09:01:38Z</time>
      </trkpt>
      <trkpt lat="45.98607" lon="1.43066">
        <ele>525.6</ele>
        <time>2022-11-20T09:01:40Z</time>
      </trkpt>
      <trkpt lat="45.98601" lon="1.43059">
        <ele>525</ele>
        <time>2022-11-20T09:01:41Z</time>
      </trkpt>
      <trkpt lat="45.98596" lon="1.43053">
        <ele>524.2</ele>
        <time>2022-11-20T09:01:42Z</time>
      </trkpt>
      <trkpt lat="45.98592" lon="1.43045">
        <ele>523.6</ele>
        <time>2022-11-20T09:01:43Z</time>
      </trkpt>
      <trkpt lat="45.98588" lon="1.43037">
        <ele>522.8</ele>
        <time>2022-11-20T09:01:44Z</time>
      </trkpt>
      <trkpt lat="45.98583" lon="1.43026">
        <ele>522.2</ele>
        <time>2022-11-20T09:01:45Z</time>
      </trkpt>
      <trkpt lat="45.98578" lon="1.43016">
        <ele>521.4</ele>
        <time>2022-11-20T09:01:46Z</time>
      </trkpt>
      <trkpt lat="45.98569" lon="1.42993">
        <ele>520</ele>
        <time>2022-11-20T09:01:48Z</time>
      </trkpt>
      <trkpt lat="45.98564" lon="1.42982">
        <ele>518.8</ele>
        <time>2022-11-20T09:01:49Z</time>
      </trkpt>
      <trkpt lat="45.98556" lon="1.42965">
        <ele>517</ele>
        <time>2022-11-20T09:01:51Z</time>
      </trkpt>
      <trkpt lat="45.98556" lon="1.42965">
        <ele>514.8</ele>
        <time>2022-11-20T09:01:52Z</time>
      </trkpt>
      <trkpt lat="45.98539" lon="1.42936">
        <ele>512.8</ele>
        <time>2022-11-20T09:01:55Z</time>
      </trkpt>
      <trkpt lat="45.98532" lon="1.42926">
        <ele>511.8</ele>
        <time>2022-11-20T09:01:56Z</time>
      </trkpt>
      <trkpt lat="45.9852" lon="1.42912">
        <ele>510.6</ele>
        <time>2022-11-20T09:01:58Z</time>
      </trkpt>
      <trkpt lat="45.98515" lon="1.42906">
        <ele>509</ele>
        <time>2022-11-20T09:01:59Z</time>
      </trkpt>
      <trkpt lat="45.98509" lon="1.429">
        <ele>507.8</ele>
        <time>2022-11-20T09:02:00Z</time>
      </trkpt>
      <trkpt lat="45.98509" lon="1.429">
        <ele>506.8</ele>
        <time>2022-11-20T09:02:01Z</time>
      </trkpt>
      <trkpt lat="45.98492" lon="1.42886">
        <ele>505.4</ele>
        <time>2022-11-20T09:02:04Z</time>
      </trkpt>
      <trkpt lat="45.98482" lon="1.42879">
        <ele>504.6</ele>
        <time>2022-11-20T09:02:06Z</time>
      </trkpt>
      <trkpt lat="45.98475" lon="1.42874">
        <ele>503.8</ele>
        <time>2022-11-20T09:02:07Z</time>
      </trkpt>
      <trkpt lat="45.98464" lon="1.42869">
        <ele>502.6</ele>
        <time>2022-11-20T09:02:09Z</time>
      </trkpt>
      <trkpt lat="45.98458" lon="1.42867">
        <ele>501.4</ele>
        <time>2022-11-20T09:02:10Z</time>
      </trkpt>
      <trkpt lat="45.98452" lon="1.42863">
        <ele>501</ele>
        <time>2022-11-20T09:02:11Z</time>
      </trkpt>
      <trkpt lat="45.98447" lon="1.42862">
        <ele>500.4</ele>
        <time>2022-11-20T09:02:12Z</time>
      </trkpt>
      <trkpt lat="45.98443" lon="1.4286">
        <ele>499.4</ele>
        <time>2022-11-20T09:02:13Z</time>
      </trkpt>
      <trkpt lat="45.98435" lon="1.42856">
        <ele>498</ele>
        <time>2022-11-20T09:02:15Z</time>
      </trkpt>
      <trkpt lat="45.9843" lon="1.42852">
        <ele>496.8</ele>
        <time>2022-11-20T09:02:16Z</time>
      </trkpt>
      <trkpt lat="45.98422" lon="1.42845">
        <ele>495.2</ele>
        <time>2022-11-20T09:02:18Z</time>
      </trkpt>
      <trkpt lat="45.98413" lon="1.42834">
        <ele>494.2</ele>
        <time>2022-11-20T09:02:20Z</time>
      </trkpt>
      <trkpt lat="45.98407" lon="1.42826">
        <ele>492.8</ele>
        <time>2022-11-20T09:02:21Z</time>
      </trkpt>
      <trkpt lat="45.98397" lon="1.42807">
        <ele>491.6</ele>
        <time>2022-11-20T09:02:23Z</time>
      </trkpt>
      <trkpt lat="45.98387" lon="1.42788">
        <ele>490.4</ele>
        <time>2022-11-20T09:02:25Z</time>
      </trkpt>
      <trkpt lat="45.98382" lon="1.42779">
        <ele>489.8</ele>
        <time>2022-11-20T09:02:26Z</time>
      </trkpt>
      <trkpt lat="45.98376" lon="1.42763">
        <ele>488.6</ele>
        <time>2022-11-20T09:02:28Z</time>
      </trkpt>
      <trkpt lat="45.98373" lon="1.42748">
        <ele>487</ele>
        <time>2022-11-20T09:02:30Z</time>
      </trkpt>
      <trkpt lat="45.98373" lon="1.42735">
        <ele>486</ele>
        <time>2022-11-20T09:02:32Z</time>
      </trkpt>
      <trkpt lat="45.98371" lon="1.42713">
        <ele>485.2</ele>
        <time>2022-11-20T09:02:35Z</time>
      </trkpt>
      <trkpt lat="45.98368" lon="1.42703">
        <ele>485.2</ele>
        <time>2022-11-20T09:02:36Z</time>
      </trkpt>
      <trkpt lat="45.98366" lon="1.42696">
        <ele>484.8</ele>
        <time>2022-11-20T09:02:37Z</time>
      </trkpt>
      <trkpt lat="45.98362" lon="1.42682">
        <ele>484.6</ele>
        <time>2022-11-20T09:02:39Z</time>
      </trkpt>
      <trkpt lat="45.98356" lon="1.42667">
        <ele>484.4</ele>
        <time>2022-11-20T09:02:41Z</time>
      </trkpt>
      <trkpt lat="45.98352" lon="1.42648">
        <ele>484.6</ele>
        <time>2022-11-20T09:02:44Z</time>
      </trkpt>
      <trkpt lat="45.98347" lon="1.42626">
        <ele>484.8</ele>
        <time>2022-11-20T09:02:47Z</time>
      </trkpt>
      <trkpt lat="45.98347" lon="1.42621">
        <ele>484.6</ele>
        <time>2022-11-20T09:02:48Z</time>
      </trkpt>
      <trkpt lat="45.98345" lon="1.42593">
        <ele>484</ele>
        <time>2022-11-20T09:02:52Z</time>
      </trkpt>
      <trkpt lat="45.98345" lon="1.42585">
        <ele>483.8</ele>
        <time>2022-11-20T09:02:53Z</time>
      </trkpt>
      <trkpt lat="45.98342" lon="1.42566">
        <ele>482.2</ele>
        <time>2022-11-20T09:02:55Z</time>
      </trkpt>
      <trkpt lat="45.98341" lon="1.42542">
        <ele>481.4</ele>
        <time>2022-11-20T09:02:57Z</time>
      </trkpt>
      <trkpt lat="45.98341" lon="1.42529">
        <ele>480.8</ele>
        <time>2022-11-20T09:02:58Z</time>
      </trkpt>
      <trkpt lat="45.98342" lon="1.42505">
        <ele>479.6</ele>
        <time>2022-11-20T09:03:00Z</time>
      </trkpt>
      <trkpt lat="45.98343" lon="1.42496">
        <ele>479.2</ele>
        <time>2022-11-20T09:03:01Z</time>
      </trkpt>
      <trkpt lat="45.98344" lon="1.42488">
        <ele>478.4</ele>
        <time>2022-11-20T09:03:02Z</time>
      </trkpt>
      <trkpt lat="45.98345" lon="1.42473">
        <ele>476.8</ele>
        <time>2022-11-20T09:03:04Z</time>
      </trkpt>
      <trkpt lat="45.98344" lon="1.42456">
        <ele>476</ele>
        <time>2022-11-20T09:03:06Z</time>
      </trkpt>
      <trkpt lat="45.98345" lon="1.42449">
        <ele>475.4</ele>
        <time>2022-11-20T09:03:07Z</time>
      </trkpt>
      <trkpt lat="45.98345" lon="1.42418">
        <ele>474.6</ele>
        <time>2022-11-20T09:03:11Z</time>
      </trkpt>
      <trkpt lat="45.98341" lon="1.42401">
        <ele>474</ele>
        <time>2022-11-20T09:03:13Z</time>
      </trkpt>
      <trkpt lat="45.98329" lon="1.42362">
        <ele>472.8</ele>
        <time>2022-11-20T09:03:17Z</time>
      </trkpt>
      <trkpt lat="45.98314" lon="1.42309">
        <ele>471.6</ele>
        <time>2022-11-20T09:03:23Z</time>
      </trkpt>
      <trkpt lat="45.98313" lon="1.42293">
        <ele>470.6</ele>
        <time>2022-11-20T09:03:25Z</time>
      </trkpt>
      <trkpt lat="45.98308" lon="1.42279">
        <ele>469.2</ele>
        <time>2022-11-20T09:03:27Z</time>
      </trkpt>
      <trkpt lat="45.98301" lon="1.42261">
        <ele>468.2</ele>
        <time>2022-11-20T09:03:29Z</time>
      </trkpt>
      <trkpt lat="45.98293" lon="1.42238">
        <ele>467</ele>
        <time>2022-11-20T09:03:31Z</time>
      </trkpt>
      <trkpt lat="45.98281" lon="1.42195">
        <ele>465.4</ele>
        <time>2022-11-20T09:03:35Z</time>
      </trkpt>
      <trkpt lat="45.98278" lon="1.42184">
        <ele>464.8</ele>
        <time>2022-11-20T09:03:36Z</time>
      </trkpt>
      <trkpt lat="45.98276" lon="1.42172">
        <ele>464.2</ele>
        <time>2022-11-20T09:03:37Z</time>
      </trkpt>
      <trkpt lat="45.98273" lon="1.4215">
        <ele>462.4</ele>
        <time>2022-11-20T09:03:39Z</time>
      </trkpt>
      <trkpt lat="45.98271" lon="1.4214">
        <ele>461.8</ele>
        <time>2022-11-20T09:03:40Z</time>
      </trkpt>
      <trkpt lat="45.98269" lon="1.42129">
        <ele>461.4</ele>
        <time>2022-11-20T09:03:41Z</time>
      </trkpt>
      <trkpt lat="45.98267" lon="1.42107">
        <ele>459.4</ele>
        <time>2022-11-20T09:03:44Z</time>
      </trkpt>
      <trkpt lat="45.98262" lon="1.42102">
        <ele>458.2</ele>
        <time>2022-11-20T09:03:46Z</time>
      </trkpt>
      <trkpt lat="45.9826" lon="1.42101">
        <ele>457.6</ele>
        <time>2022-11-20T09:03:47Z</time>
      </trkpt>
      <trkpt lat="45.98259" lon="1.42101">
        <ele>457.4</ele>
        <time>2022-11-20T09:03:48Z</time>
      </trkpt>
      <trkpt lat="45.98256" lon="1.42104">
        <ele>457.2</ele>
        <time>2022-11-20T09:03:50Z</time>
      </trkpt>
      <trkpt lat="45.98254" lon="1.42105">
        <ele>457.2</ele>
        <time>2022-11-20T09:03:51Z</time>
      </trkpt>
      <trkpt lat="45.98238" lon="1.42109">
        <ele>457.8</ele>
        <time>2022-11-20T09:03:56Z</time>
      </trkpt>
      <trkpt lat="45.98225" lon="1.4211">
        <ele>458</ele>
        <time>2022-11-20T09:03:59Z</time>
      </trkpt>
      <trkpt lat="45.98217" lon="1.42111">
        <ele>458</ele>
        <time>2022-11-20T09:04:01Z</time>
      </trkpt>
      <trkpt lat="45.98211" lon="1.42113">
        <ele>457.6</ele>
        <time>2022-11-20T09:04:03Z</time>
      </trkpt>
      <trkpt lat="45.98194" lon="1.4212">
        <ele>457</ele>
        <time>2022-11-20T09:04:07Z</time>
      </trkpt>
      <trkpt lat="45.98188" lon="1.42121">
        <ele>456.8</ele>
        <time>2022-11-20T09:04:08Z</time>
      </trkpt>
      <trkpt lat="45.98167" lon="1.42121">
        <ele>456.6</ele>
        <time>2022-11-20T09:04:11Z</time>
      </trkpt>
      <trkpt lat="45.9816" lon="1.42121">
        <ele>456.4</ele>
        <time>2022-11-20T09:04:12Z</time>
      </trkpt>
      <trkpt lat="45.98145" lon="1.42118">
        <ele>455.8</ele>
        <time>2022-11-20T09:04:14Z</time>
      </trkpt>
      <trkpt lat="45.9813" lon="1.42115">
        <ele>455</ele>
        <time>2022-11-20T09:04:16Z</time>
      </trkpt>
      <trkpt lat="45.98123" lon="1.42114">
        <ele>453.2</ele>
        <time>2022-11-20T09:04:17Z</time>
      </trkpt>
      <trkpt lat="45.98117" lon="1.42113">
        <ele>451.8</ele>
        <time>2022-11-20T09:04:18Z</time>
      </trkpt>
      <trkpt lat="45.98111" lon="1.4211">
        <ele>450.8</ele>
        <time>2022-11-20T09:04:19Z</time>
      </trkpt>
      <trkpt lat="45.98106" lon="1.42106">
        <ele>449.4</ele>
        <time>2022-11-20T09:04:20Z</time>
      </trkpt>
      <trkpt lat="45.98094" lon="1.42096">
        <ele>448</ele>
        <time>2022-11-20T09:04:22Z</time>
      </trkpt>
      <trkpt lat="45.98081" lon="1.42085">
        <ele>446.4</ele>
        <time>2022-11-20T09:04:24Z</time>
      </trkpt>
      <trkpt lat="45.98074" lon="1.4208">
        <ele>445.8</ele>
        <time>2022-11-20T09:04:25Z</time>
      </trkpt>
      <trkpt lat="45.9807" lon="1.42075">
        <ele>445</ele>
        <time>2022-11-20T09:04:26Z</time>
      </trkpt>
      <trkpt lat="45.98066" lon="1.4207">
        <ele>443.8</ele>
        <time>2022-11-20T09:04:27Z</time>
      </trkpt>
      <trkpt lat="45.98065" lon="1.42063">
        <ele>442.8</ele>
        <time>2022-11-20T09:04:28Z</time>
      </trkpt>
      <trkpt lat="45.98064" lon="1.42057">
        <ele>442.2</ele>
        <time>2022-11-20T09:04:29Z</time>
      </trkpt>
      <trkpt lat="45.98061" lon="1.42041">
        <ele>440.6</ele>
        <time>2022-11-20T09:04:32Z</time>
      </trkpt>
      <trkpt lat="45.9806" lon="1.42037">
        <ele>440</ele>
        <time>2022-11-20T09:04:33Z</time>
      </trkpt>
      <trkpt lat="45.98058" lon="1.42034">
        <ele>439.4</ele>
        <time>2022-11-20T09:04:34Z</time>
      </trkpt>
      <trkpt lat="45.98056" lon="1.42032">
        <ele>438.4</ele>
        <time>2022-11-20T09:04:35Z</time>
      </trkpt>
      <trkpt lat="45.98052" lon="1.4203">
        <ele>438</ele>
        <time>2022-11-20T09:04:36Z</time>
      </trkpt>
      <trkpt lat="45.98047" lon="1.42027">
        <ele>437.6</ele>
        <time>2022-11-20T09:04:37Z</time>
      </trkpt>
      <trkpt lat="45.98035" lon="1.42025">
        <ele>436.4</ele>
        <time>2022-11-20T09:04:39Z</time>
      </trkpt>
      <trkpt lat="45.9803" lon="1.42027">
        <ele>435.8</ele>
        <time>2022-11-20T09:04:40Z</time>
      </trkpt>
      <trkpt lat="45.98026" lon="1.4203">
        <ele>435.2</ele>
        <time>2022-11-20T09:04:41Z</time>
      </trkpt>
      <trkpt lat="45.98018" lon="1.42044">
        <ele>434</ele>
        <time>2022-11-20T09:04:44Z</time>
      </trkpt>
      <trkpt lat="45.98015" lon="1.42049">
        <ele>433.6</ele>
        <time>2022-11-20T09:04:45Z</time>
      </trkpt>
      <trkpt lat="45.98014" lon="1.4206">
        <ele>432.6</ele>
        <time>2022-11-20T09:04:47Z</time>
      </trkpt>
      <trkpt lat="45.98013" lon="1.42064">
        <ele>432.2</ele>
        <time>2022-11-20T09:04:48Z</time>
      </trkpt>
      <trkpt lat="45.98012" lon="1.42067">
        <ele>431.8</ele>
        <time>2022-11-20T09:04:49Z</time>
      </trkpt>
      <trkpt lat="45.98009" lon="1.42067">
        <ele>431.4</ele>
        <time>2022-11-20T09:04:50Z</time>
      </trkpt>
      <trkpt lat="45.98007" lon="1.42065">
        <ele>431.2</ele>
        <time>2022-11-20T09:04:51Z</time>
      </trkpt>
      <trkpt lat="45.98" lon="1.42055">
        <ele>430.2</ele>
        <time>2022-11-20T09:04:54Z</time>
      </trkpt>
      <trkpt lat="45.97997" lon="1.4205">
        <ele>430</ele>
        <time>2022-11-20T09:04:55Z</time>
      </trkpt>
      <trkpt lat="45.9799" lon="1.42039">
        <ele>429</ele>
        <time>2022-11-20T09:04:58Z</time>
      </trkpt>
      <trkpt lat="45.97989" lon="1.42037">
        <ele>428.2</ele>
        <time>2022-11-20T09:04:59Z</time>
      </trkpt>
      <trkpt lat="45.97988" lon="1.42036">
        <ele>427.8</ele>
        <time>2022-11-20T09:05:00Z</time>
      </trkpt>
      <trkpt lat="45.97983" lon="1.42037">
        <ele>426.8</ele>
        <time>2022-11-20T09:05:03Z</time>
      </trkpt>
      <trkpt lat="45.97982" lon="1.42039">
        <ele>426.6</ele>
        <time>2022-11-20T09:05:04Z</time>
      </trkpt>
      <trkpt lat="45.97976" lon="1.42052">
        <ele>426</ele>
        <time>2022-11-20T09:05:07Z</time>
      </trkpt>
      <trkpt lat="45.97976" lon="1.42057">
        <ele>425.4</ele>
        <time>2022-11-20T09:05:08Z</time>
      </trkpt>
      <trkpt lat="45.97975" lon="1.42063">
        <ele>425</ele>
        <time>2022-11-20T09:05:09Z</time>
      </trkpt>
      <trkpt lat="45.97977" lon="1.42075">
        <ele>424.2</ele>
        <time>2022-11-20T09:05:11Z</time>
      </trkpt>
      <trkpt lat="45.97978" lon="1.42081">
        <ele>423.8</ele>
        <time>2022-11-20T09:05:12Z</time>
      </trkpt>
      <trkpt lat="45.97982" lon="1.42092">
        <ele>423.2</ele>
        <time>2022-11-20T09:05:14Z</time>
      </trkpt>
      <trkpt lat="45.97983" lon="1.42099">
        <ele>423</ele>
        <time>2022-11-20T09:05:15Z</time>
      </trkpt>
      <trkpt lat="45.97983" lon="1.42105">
        <ele>422.6</ele>
        <time>2022-11-20T09:05:16Z</time>
      </trkpt>
      <trkpt lat="45.97978" lon="1.42122">
        <ele>422.2</ele>
        <time>2022-11-20T09:05:20Z</time>
      </trkpt>
      <trkpt lat="45.97968" lon="1.42136">
        <ele>423</ele>
        <time>2022-11-20T09:05:26Z</time>
      </trkpt>
      <trkpt lat="45.97965" lon="1.42141">
        <ele>424</ele>
        <time>2022-11-20T09:05:29Z</time>
      </trkpt>
      <trkpt lat="45.97962" lon="1.42146">
        <ele>424.6</ele>
        <time>2022-11-20T09:05:31Z</time>
      </trkpt>
      <trkpt lat="45.97958" lon="1.42155">
        <ele>425.2</ele>
        <time>2022-11-20T09:05:35Z</time>
      </trkpt>
      <trkpt lat="45.97955" lon="1.4216">
        <ele>425.6</ele>
        <time>2022-11-20T09:05:38Z</time>
      </trkpt>
      <trkpt lat="45.97948" lon="1.42169">
        <ele>425.2</ele>
        <time>2022-11-20T09:05:41Z</time>
      </trkpt>
      <trkpt lat="45.97942" lon="1.42175">
        <ele>425.2</ele>
        <time>2022-11-20T09:05:43Z</time>
      </trkpt>
      <trkpt lat="45.97923" lon="1.42185">
        <ele>424.8</ele>
        <time>2022-11-20T09:05:47Z</time>
      </trkpt>
      <trkpt lat="45.97919" lon="1.42185">
        <ele>424.6</ele>
        <time>2022-11-20T09:05:48Z</time>
      </trkpt>
      <trkpt lat="45.97907" lon="1.4219">
        <ele>424.2</ele>
        <time>2022-11-20T09:05:51Z</time>
      </trkpt>
      <trkpt lat="45.979" lon="1.4219">
        <ele>423.6</ele>
        <time>2022-11-20T09:05:53Z</time>
      </trkpt>
      <trkpt lat="45.97889" lon="1.42178">
        <ele>422.8</ele>
        <time>2022-11-20T09:05:56Z</time>
      </trkpt>
      <trkpt lat="45.97882" lon="1.4216">
        <ele>421.8</ele>
        <time>2022-11-20T09:05:59Z</time>
      </trkpt>
      <trkpt lat="45.97877" lon="1.42146">
        <ele>421.4</ele>
        <time>2022-11-20T09:06:01Z</time>
      </trkpt>
      <trkpt lat="45.97874" lon="1.42139">
        <ele>420.6</ele>
        <time>2022-11-20T09:06:02Z</time>
      </trkpt>
      <trkpt lat="45.97862" lon="1.42116">
        <ele>419.2</ele>
        <time>2022-11-20T09:06:05Z</time>
      </trkpt>
      <trkpt lat="45.97853" lon="1.421">
        <ele>418.2</ele>
        <time>2022-11-20T09:06:07Z</time>
      </trkpt>
      <trkpt lat="45.97849" lon="1.42092">
        <ele>416.8</ele>
        <time>2022-11-20T09:06:08Z</time>
      </trkpt>
      <trkpt lat="45.97845" lon="1.42084">
        <ele>415.6</ele>
        <time>2022-11-20T09:06:09Z</time>
      </trkpt>
      <trkpt lat="45.97841" lon="1.42072">
        <ele>414.6</ele>
        <time>2022-11-20T09:06:11Z</time>
      </trkpt>
      <trkpt lat="45.97842" lon="1.42063">
        <ele>414</ele>
        <time>2022-11-20T09:06:13Z</time>
      </trkpt>
      <trkpt lat="45.97844" lon="1.42061">
        <ele>413.6</ele>
        <time>2022-11-20T09:06:14Z</time>
      </trkpt>
      <trkpt lat="45.97846" lon="1.4206">
        <ele>413.4</ele>
        <time>2022-11-20T09:06:15Z</time>
      </trkpt>
      <trkpt lat="45.97855" lon="1.42054">
        <ele>413</ele>
        <time>2022-11-20T09:06:19Z</time>
      </trkpt>
      <trkpt lat="45.97856" lon="1.42051">
        <ele>412.8</ele>
        <time>2022-11-20T09:06:20Z</time>
      </trkpt>
      <trkpt lat="45.97852" lon="1.42043">
        <ele>412.4</ele>
        <time>2022-11-20T09:06:23Z</time>
      </trkpt>
      <trkpt lat="45.97842" lon="1.42028">
        <ele>412.4</ele>
        <time>2022-11-20T09:06:27Z</time>
      </trkpt>
      <trkpt lat="45.97838" lon="1.42021">
        <ele>412</ele>
        <time>2022-11-20T09:06:29Z</time>
      </trkpt>
      <trkpt lat="45.97836" lon="1.42018">
        <ele>411.8</ele>
        <time>2022-11-20T09:06:30Z</time>
      </trkpt>
      <trkpt lat="45.97833" lon="1.42016">
        <ele>411.2</ele>
        <time>2022-11-20T09:06:32Z</time>
      </trkpt>
      <trkpt lat="45.97831" lon="1.42017">
        <ele>411</ele>
        <time>2022-11-20T09:06:34Z</time>
      </trkpt>
      <trkpt lat="45.97819" lon="1.42025">
        <ele>411</ele>
        <time>2022-11-20T09:06:40Z</time>
      </trkpt>
      <trkpt lat="45.9781" lon="1.42029">
        <ele>411.2</ele>
        <time>2022-11-20T09:06:44Z</time>
      </trkpt>
      <trkpt lat="45.97806" lon="1.42026">
        <ele>411.2</ele>
        <time>2022-11-20T09:06:46Z</time>
      </trkpt>
      <trkpt lat="45.97801" lon="1.4201">
        <ele>411.2</ele>
        <time>2022-11-20T09:06:50Z</time>
      </trkpt>
      <trkpt lat="45.97795" lon="1.41972">
        <ele>410.2</ele>
        <time>2022-11-20T09:06:56Z</time>
      </trkpt>
      <trkpt lat="45.97792" lon="1.41955">
        <ele>409.2</ele>
        <time>2022-11-20T09:06:59Z</time>
      </trkpt>
      <trkpt lat="45.9779" lon="1.41944">
        <ele>408.8</ele>
        <time>2022-11-20T09:07:01Z</time>
      </trkpt>
      <trkpt lat="45.97789" lon="1.41939">
        <ele>408.6</ele>
        <time>2022-11-20T09:07:02Z</time>
      </trkpt>
      <trkpt lat="45.97786" lon="1.41921">
        <ele>408.6</ele>
        <time>2022-11-20T09:07:07Z</time>
      </trkpt>
      <trkpt lat="45.97787" lon="1.41904">
        <ele>408.6</ele>
        <time>2022-11-20T09:07:11Z</time>
      </trkpt>
      <trkpt lat="45.97785" lon="1.41901">
        <ele>408.6</ele>
        <time>2022-11-20T09:07:12Z</time>
      </trkpt>
      <trkpt lat="45.97779" lon="1.41896">
        <ele>408.8</ele>
        <time>2022-11-20T09:07:15Z</time>
      </trkpt>
      <trkpt lat="45.97771" lon="1.41898">
        <ele>409.4</ele>
        <time>2022-11-20T09:07:20Z</time>
      </trkpt>
      <trkpt lat="45.97765" lon="1.41898">
        <ele>410.2</ele>
        <time>2022-11-20T09:07:23Z</time>
      </trkpt>
      <trkpt lat="45.97761" lon="1.41899">
        <ele>411.2</ele>
        <time>2022-11-20T09:07:25Z</time>
      </trkpt>
      <trkpt lat="45.97754" lon="1.41898">
        <ele>412</ele>
        <time>2022-11-20T09:07:28Z</time>
      </trkpt>
      <trkpt lat="45.97752" lon="1.41898">
        <ele>412.4</ele>
        <time>2022-11-20T09:07:29Z</time>
      </trkpt>
      <trkpt lat="45.97745" lon="1.41898">
        <ele>413.8</ele>
        <time>2022-11-20T09:07:32Z</time>
      </trkpt>
      <trkpt lat="45.97739" lon="1.41897">
        <ele>414.8</ele>
        <time>2022-11-20T09:07:36Z</time>
      </trkpt>
      <trkpt lat="45.97733" lon="1.41897">
        <ele>416</ele>
        <time>2022-11-20T09:07:40Z</time>
      </trkpt>
      <trkpt lat="45.97724" lon="1.41895">
        <ele>416.8</ele>
        <time>2022-11-20T09:07:44Z</time>
      </trkpt>
      <trkpt lat="45.9772" lon="1.41894">
        <ele>417</ele>
        <time>2022-11-20T09:07:46Z</time>
      </trkpt>
      <trkpt lat="45.97712" lon="1.4189">
        <ele>418</ele>
        <time>2022-11-20T09:07:50Z</time>
      </trkpt>
      <trkpt lat="45.97697" lon="1.4188">
        <ele>419.2</ele>
        <time>2022-11-20T09:07:57Z</time>
      </trkpt>
      <trkpt lat="45.97694" lon="1.41879">
        <ele>419.2</ele>
        <time>2022-11-20T09:07:58Z</time>
      </trkpt>
      <trkpt lat="45.97678" lon="1.41868">
        <ele>420</ele>
        <time>2022-11-20T09:08:04Z</time>
      </trkpt>
      <trkpt lat="45.97671" lon="1.41864">
        <ele>420.2</ele>
        <time>2022-11-20T09:08:06Z</time>
      </trkpt>
      <trkpt lat="45.97655" lon="1.41851">
        <ele>420.8</ele>
        <time>2022-11-20T09:08:12Z</time>
      </trkpt>
      <trkpt lat="45.97647" lon="1.41847">
        <ele>421.4</ele>
        <time>2022-11-20T09:08:15Z</time>
      </trkpt>
      <trkpt lat="45.97635" lon="1.41839">
        <ele>422</ele>
        <time>2022-11-20T09:08:19Z</time>
      </trkpt>
      <trkpt lat="45.97632" lon="1.41838">
        <ele>422</ele>
        <time>2022-11-20T09:08:20Z</time>
      </trkpt>
      <trkpt lat="45.97613" lon="1.41825">
        <ele>421</ele>
        <time>2022-11-20T09:08:25Z</time>
      </trkpt>
      <trkpt lat="45.97604" lon="1.41817">
        <ele>420.8</ele>
        <time>2022-11-20T09:08:27Z</time>
      </trkpt>
      <trkpt lat="45.97589" lon="1.41803">
        <ele>420.2</ele>
        <time>2022-11-20T09:08:30Z</time>
      </trkpt>
      <trkpt lat="45.97569" lon="1.41786">
        <ele>418.8</ele>
        <time>2022-11-20T09:08:34Z</time>
      </trkpt>
      <trkpt lat="45.97555" lon="1.41772">
        <ele>418.4</ele>
        <time>2022-11-20T09:08:37Z</time>
      </trkpt>
      <trkpt lat="45.97546" lon="1.41762">
        <ele>417.8</ele>
        <time>2022-11-20T09:08:39Z</time>
      </trkpt>
      <trkpt lat="45.97526" lon="1.41741">
        <ele>417.4</ele>
        <time>2022-11-20T09:08:43Z</time>
      </trkpt>
      <trkpt lat="45.9752" lon="1.41736">
        <ele>417.2</ele>
        <time>2022-11-20T09:08:44Z</time>
      </trkpt>
      <trkpt lat="45.97514" lon="1.41733">
        <ele>417.2</ele>
        <time>2022-11-20T09:08:45Z</time>
      </trkpt>
      <trkpt lat="45.97493" lon="1.41726">
        <ele>416.8</ele>
        <time>2022-11-20T09:08:49Z</time>
      </trkpt>
      <trkpt lat="45.97487" lon="1.41724">
        <ele>416.4</ele>
        <time>2022-11-20T09:08:50Z</time>
      </trkpt>
      <trkpt lat="45.97459" lon="1.41719">
        <ele>415.2</ele>
        <time>2022-11-20T09:08:55Z</time>
      </trkpt>
      <trkpt lat="45.97454" lon="1.41719">
        <ele>415</ele>
        <time>2022-11-20T09:08:56Z</time>
      </trkpt>
      <trkpt lat="45.97436" lon="1.41717">
        <ele>414.2</ele>
        <time>2022-11-20T09:09:00Z</time>
      </trkpt>
      <trkpt lat="45.9742" lon="1.41713">
        <ele>413.8</ele>
        <time>2022-11-20T09:09:03Z</time>
      </trkpt>
      <trkpt lat="45.97392" lon="1.41711">
        <ele>413.6</ele>
        <time>2022-11-20T09:09:08Z</time>
      </trkpt>
      <trkpt lat="45.97377" lon="1.4171">
        <ele>413</ele>
        <time>2022-11-20T09:09:11Z</time>
      </trkpt>
      <trkpt lat="45.97362" lon="1.41705">
        <ele>411.8</ele>
        <time>2022-11-20T09:09:14Z</time>
      </trkpt>
      <trkpt lat="45.97356" lon="1.41703">
        <ele>411.4</ele>
        <time>2022-11-20T09:09:15Z</time>
      </trkpt>
      <trkpt lat="45.97344" lon="1.41703">
        <ele>410.4</ele>
        <time>2022-11-20T09:09:17Z</time>
      </trkpt>
      <trkpt lat="45.97333" lon="1.41693">
        <ele>409.6</ele>
        <time>2022-11-20T09:09:19Z</time>
      </trkpt>
      <trkpt lat="45.97324" lon="1.41679">
        <ele>409</ele>
        <time>2022-11-20T09:09:21Z</time>
      </trkpt>
      <trkpt lat="45.97316" lon="1.41662">
        <ele>408.6</ele>
        <time>2022-11-20T09:09:23Z</time>
      </trkpt>
      <trkpt lat="45.97306" lon="1.41646">
        <ele>407.6</ele>
        <time>2022-11-20T09:09:25Z</time>
      </trkpt>
      <trkpt lat="45.97286" lon="1.4161">
        <ele>406.4</ele>
        <time>2022-11-20T09:09:29Z</time>
      </trkpt>
      <trkpt lat="45.97277" lon="1.41591">
        <ele>405.4</ele>
        <time>2022-11-20T09:09:31Z</time>
      </trkpt>
      <trkpt lat="45.97253" lon="1.41556">
        <ele>403.8</ele>
        <time>2022-11-20T09:09:35Z</time>
      </trkpt>
      <trkpt lat="45.97242" lon="1.41541">
        <ele>402.2</ele>
        <time>2022-11-20T09:09:37Z</time>
      </trkpt>
      <trkpt lat="45.97229" lon="1.41524">
        <ele>401</ele>
        <time>2022-11-20T09:09:39Z</time>
      </trkpt>
      <trkpt lat="45.97215" lon="1.41508">
        <ele>399.8</ele>
        <time>2022-11-20T09:09:41Z</time>
      </trkpt>
      <trkpt lat="45.97202" lon="1.41494">
        <ele>398.8</ele>
        <time>2022-11-20T09:09:43Z</time>
      </trkpt>
      <trkpt lat="45.97189" lon="1.4148">
        <ele>397.8</ele>
        <time>2022-11-20T09:09:45Z</time>
      </trkpt>
      <trkpt lat="45.97173" lon="1.41459">
        <ele>396.6</ele>
        <time>2022-11-20T09:09:48Z</time>
      </trkpt>
      <trkpt lat="45.97167" lon="1.41447">
        <ele>395.6</ele>
        <time>2022-11-20T09:09:50Z</time>
      </trkpt>
      <trkpt lat="45.97165" lon="1.41443">
        <ele>395.2</ele>
        <time>2022-11-20T09:09:51Z</time>
      </trkpt>
      <trkpt lat="45.97164" lon="1.41437">
        <ele>394</ele>
        <time>2022-11-20T09:09:53Z</time>
      </trkpt>
      <trkpt lat="45.97167" lon="1.4142">
        <ele>393</ele>
        <time>2022-11-20T09:09:58Z</time>
      </trkpt>
      <trkpt lat="45.97173" lon="1.41404">
        <ele>395</ele>
        <time>2022-11-20T09:10:05Z</time>
      </trkpt>
      <trkpt lat="45.97174" lon="1.41401">
        <ele>395.2</ele>
        <time>2022-11-20T09:10:06Z</time>
      </trkpt>
      <trkpt lat="45.97177" lon="1.41394">
        <ele>396.2</ele>
        <time>2022-11-20T09:10:10Z</time>
      </trkpt>
      <trkpt lat="45.9718" lon="1.41391">
        <ele>396.6</ele>
        <time>2022-11-20T09:10:12Z</time>
      </trkpt>
      <trkpt lat="45.97183" lon="1.41389">
        <ele>397.6</ele>
        <time>2022-11-20T09:10:14Z</time>
      </trkpt>
      <trkpt lat="45.9719" lon="1.41386">
        <ele>398.4</ele>
        <time>2022-11-20T09:10:18Z</time>
      </trkpt>
      <trkpt lat="45.97193" lon="1.41385">
        <ele>398.6</ele>
        <time>2022-11-20T09:10:20Z</time>
      </trkpt>
      <trkpt lat="45.97201" lon="1.41383">
        <ele>399.8</ele>
        <time>2022-11-20T09:10:25Z</time>
      </trkpt>
      <trkpt lat="45.97202" lon="1.41383">
        <ele>400</ele>
        <time>2022-11-20T09:10:26Z</time>
      </trkpt>
      <trkpt lat="45.97209" lon="1.4138">
        <ele>400.8</ele>
        <time>2022-11-20T09:10:30Z</time>
      </trkpt>
      <trkpt lat="45.97216" lon="1.41374">
        <ele>401.8</ele>
        <time>2022-11-20T09:10:35Z</time>
      </trkpt>
      <trkpt lat="45.97229" lon="1.4137">
        <ele>403</ele>
        <time>2022-11-20T09:10:43Z</time>
      </trkpt>
      <trkpt lat="45.97245" lon="1.41373">
        <ele>404</ele>
        <time>2022-11-20T09:10:51Z</time>
      </trkpt>
      <trkpt lat="45.97262" lon="1.41377">
        <ele>405</ele>
        <time>2022-11-20T09:10:58Z</time>
      </trkpt>
      <trkpt lat="45.9728" lon="1.41378">
        <ele>405</ele>
        <time>2022-11-20T09:11:03Z</time>
      </trkpt>
      <trkpt lat="45.97297" lon="1.41375">
        <ele>405.2</ele>
        <time>2022-11-20T09:11:09Z</time>
      </trkpt>
      <trkpt lat="45.9731" lon="1.41375">
        <ele>406.2</ele>
        <time>2022-11-20T09:11:14Z</time>
      </trkpt>
      <trkpt lat="45.97316" lon="1.41374">
        <ele>406.2</ele>
        <time>2022-11-20T09:11:16Z</time>
      </trkpt>
      <trkpt lat="45.97341" lon="1.41368">
        <ele>407</ele>
        <time>2022-11-20T09:11:24Z</time>
      </trkpt>
      <trkpt lat="45.97352" lon="1.41364">
        <ele>407.4</ele>
        <time>2022-11-20T09:11:28Z</time>
      </trkpt>
      <trkpt lat="45.97358" lon="1.41361">
        <ele>407.6</ele>
        <time>2022-11-20T09:11:30Z</time>
      </trkpt>
      <trkpt lat="45.97377" lon="1.41345">
        <ele>408.4</ele>
        <time>2022-11-20T09:11:38Z</time>
      </trkpt>
      <trkpt lat="45.97379" lon="1.41344">
        <ele>408.4</ele>
        <time>2022-11-20T09:11:39Z</time>
      </trkpt>
      <trkpt lat="45.97387" lon="1.41339">
        <ele>408.8</ele>
        <time>2022-11-20T09:11:43Z</time>
      </trkpt>
      <trkpt lat="45.97393" lon="1.41335">
        <ele>409.2</ele>
        <time>2022-11-20T09:11:46Z</time>
      </trkpt>
      <trkpt lat="45.97396" lon="1.41329">
        <ele>409.4</ele>
        <time>2022-11-20T09:11:48Z</time>
      </trkpt>
      <trkpt lat="45.97399" lon="1.41325">
        <ele>409.2</ele>
        <time>2022-11-20T09:11:49Z</time>
      </trkpt>
      <trkpt lat="45.974" lon="1.41317">
        <ele>408.2</ele>
        <time>2022-11-20T09:11:52Z</time>
      </trkpt>
      <trkpt lat="45.97402" lon="1.4131">
        <ele>407.2</ele>
        <time>2022-11-20T09:11:54Z</time>
      </trkpt>
      <trkpt lat="45.97403" lon="1.41299">
        <ele>406</ele>
        <time>2022-11-20T09:11:57Z</time>
      </trkpt>
      <trkpt lat="45.97405" lon="1.41289">
        <ele>404.8</ele>
        <time>2022-11-20T09:11:59Z</time>
      </trkpt>
      <trkpt lat="45.97405" lon="1.41286">
        <ele>403.6</ele>
        <time>2022-11-20T09:12:00Z</time>
      </trkpt>
      <trkpt lat="45.97407" lon="1.41282">
        <ele>402.2</ele>
        <time>2022-11-20T09:12:01Z</time>
      </trkpt>
      <trkpt lat="45.97411" lon="1.41275">
        <ele>400.8</ele>
        <time>2022-11-20T09:12:03Z</time>
      </trkpt>
      <trkpt lat="45.97412" lon="1.4127">
        <ele>399.8</ele>
        <time>2022-11-20T09:12:05Z</time>
      </trkpt>
      <trkpt lat="45.97412" lon="1.41267">
        <ele>399.2</ele>
        <time>2022-11-20T09:12:06Z</time>
      </trkpt>
      <trkpt lat="45.97412" lon="1.41261">
        <ele>398.2</ele>
        <time>2022-11-20T09:12:08Z</time>
      </trkpt>
      <trkpt lat="45.97412" lon="1.41258">
        <ele>397.8</ele>
        <time>2022-11-20T09:12:09Z</time>
      </trkpt>
      <trkpt lat="45.9741" lon="1.4125">
        <ele>396</ele>
        <time>2022-11-20T09:12:11Z</time>
      </trkpt>
      <trkpt lat="45.9741" lon="1.41241">
        <ele>394.6</ele>
        <time>2022-11-20T09:12:13Z</time>
      </trkpt>
      <trkpt lat="45.97411" lon="1.4123">
        <ele>393.4</ele>
        <time>2022-11-20T09:12:15Z</time>
      </trkpt>
      <trkpt lat="45.97411" lon="1.41215">
        <ele>391.8</ele>
        <time>2022-11-20T09:12:17Z</time>
      </trkpt>
      <trkpt lat="45.97412" lon="1.41209">
        <ele>391.6</ele>
        <time>2022-11-20T09:12:18Z</time>
      </trkpt>
      <trkpt lat="45.97413" lon="1.41205">
        <ele>390</ele>
        <time>2022-11-20T09:12:19Z</time>
      </trkpt>
      <trkpt lat="45.97413" lon="1.41201">
        <ele>388.8</ele>
        <time>2022-11-20T09:12:20Z</time>
      </trkpt>
      <trkpt lat="45.97415" lon="1.41195">
        <ele>387.8</ele>
        <time>2022-11-20T09:12:22Z</time>
      </trkpt>
      <trkpt lat="45.97415" lon="1.41192">
        <ele>387.2</ele>
        <time>2022-11-20T09:12:23Z</time>
      </trkpt>
      <trkpt lat="45.97415" lon="1.41188">
        <ele>386.8</ele>
        <time>2022-11-20T09:12:24Z</time>
      </trkpt>
      <trkpt lat="45.97413" lon="1.41183">
        <ele>385.2</ele>
        <time>2022-11-20T09:12:26Z</time>
      </trkpt>
      <trkpt lat="45.97412" lon="1.41182">
        <ele>384.4</ele>
        <time>2022-11-20T09:12:27Z</time>
      </trkpt>
      <trkpt lat="45.9741" lon="1.41182">
        <ele>383.8</ele>
        <time>2022-11-20T09:12:28Z</time>
      </trkpt>
      <trkpt lat="45.97401" lon="1.41179">
        <ele>382.8</ele>
        <time>2022-11-20T09:12:32Z</time>
      </trkpt>
      <trkpt lat="45.97389" lon="1.41177">
        <ele>382.6</ele>
        <time>2022-11-20T09:12:37Z</time>
      </trkpt>
      <trkpt lat="45.97369" lon="1.41178">
        <ele>382.6</ele>
        <time>2022-11-20T09:12:44Z</time>
      </trkpt>
      <trkpt lat="45.97353" lon="1.41177">
        <ele>383</ele>
        <time>2022-11-20T09:12:49Z</time>
      </trkpt>
      <trkpt lat="45.9734" lon="1.41165">
        <ele>383</ele>
        <time>2022-11-20T09:12:53Z</time>
      </trkpt>
      <trkpt lat="45.97328" lon="1.41153">
        <ele>383.2</ele>
        <time>2022-11-20T09:12:58Z</time>
      </trkpt>
      <trkpt lat="45.97318" lon="1.41141">
        <ele>383.6</ele>
        <time>2022-11-20T09:13:03Z</time>
      </trkpt>
      <trkpt lat="45.97302" lon="1.41126">
        <ele>383.8</ele>
        <time>2022-11-20T09:13:09Z</time>
      </trkpt>
      <trkpt lat="45.97293" lon="1.41125">
        <ele>383.8</ele>
        <time>2022-11-20T09:13:12Z</time>
      </trkpt>
      <trkpt lat="45.97287" lon="1.41126">
        <ele>384</ele>
        <time>2022-11-20T09:13:14Z</time>
      </trkpt>
      <trkpt lat="45.97277" lon="1.41129">
        <ele>385</ele>
        <time>2022-11-20T09:13:18Z</time>
      </trkpt>
      <trkpt lat="45.97267" lon="1.41129">
        <ele>385.2</ele>
        <time>2022-11-20T09:13:21Z</time>
      </trkpt>
      <trkpt lat="45.97246" lon="1.41127">
        <ele>385</ele>
        <time>2022-11-20T09:13:27Z</time>
      </trkpt>
      <trkpt lat="45.97219" lon="1.41126">
        <ele>385.4</ele>
        <time>2022-11-20T09:13:34Z</time>
      </trkpt>
      <trkpt lat="45.97196" lon="1.41133">
        <ele>385.6</ele>
        <time>2022-11-20T09:13:40Z</time>
      </trkpt>
      <trkpt lat="45.97176" lon="1.41159">
        <ele>385.8</ele>
        <time>2022-11-20T09:13:47Z</time>
      </trkpt>
      <trkpt lat="45.97174" lon="1.41163">
        <ele>386</ele>
        <time>2022-11-20T09:13:48Z</time>
      </trkpt>
      <trkpt lat="45.97164" lon="1.41193">
        <ele>386.6</ele>
        <time>2022-11-20T09:13:54Z</time>
      </trkpt>
      <trkpt lat="45.97157" lon="1.41217">
        <ele>387</ele>
        <time>2022-11-20T09:14:00Z</time>
      </trkpt>
      <trkpt lat="45.97156" lon="1.41221">
        <ele>387.2</ele>
        <time>2022-11-20T09:14:01Z</time>
      </trkpt>
      <trkpt lat="45.97145" lon="1.41238">
        <ele>387</ele>
        <time>2022-11-20T09:14:06Z</time>
      </trkpt>
      <trkpt lat="45.97133" lon="1.41244">
        <ele>386.2</ele>
        <time>2022-11-20T09:14:10Z</time>
      </trkpt>
      <trkpt lat="45.97127" lon="1.41249">
        <ele>386</ele>
        <time>2022-11-20T09:14:12Z</time>
      </trkpt>
      <trkpt lat="45.97117" lon="1.41258">
        <ele>385.8</ele>
        <time>2022-11-20T09:14:15Z</time>
      </trkpt>
      <trkpt lat="45.97111" lon="1.4126">
        <ele>385.8</ele>
        <time>2022-11-20T09:14:17Z</time>
      </trkpt>
      <trkpt lat="45.97104" lon="1.4126">
        <ele>385.4</ele>
        <time>2022-11-20T09:14:19Z</time>
      </trkpt>
      <trkpt lat="45.97091" lon="1.41256">
        <ele>385.4</ele>
        <time>2022-11-20T09:14:23Z</time>
      </trkpt>
      <trkpt lat="45.97086" lon="1.41248">
        <ele>385.4</ele>
        <time>2022-11-20T09:14:25Z</time>
      </trkpt>
      <trkpt lat="45.97083" lon="1.41239">
        <ele>385.2</ele>
        <time>2022-11-20T09:14:27Z</time>
      </trkpt>
      <trkpt lat="45.9708" lon="1.41235">
        <ele>384.8</ele>
        <time>2022-11-20T09:14:28Z</time>
      </trkpt>
      <trkpt lat="45.97075" lon="1.41228">
        <ele>384.6</ele>
        <time>2022-11-20T09:14:30Z</time>
      </trkpt>
      <trkpt lat="45.97073" lon="1.41224">
        <ele>384.4</ele>
        <time>2022-11-20T09:14:31Z</time>
      </trkpt>
      <trkpt lat="45.9707" lon="1.41218">
        <ele>384</ele>
        <time>2022-11-20T09:14:32Z</time>
      </trkpt>
      <trkpt lat="45.97068" lon="1.41204">
        <ele>383.8</ele>
        <time>2022-11-20T09:14:34Z</time>
      </trkpt>
      <trkpt lat="45.97067" lon="1.41196">
        <ele>383.2</ele>
        <time>2022-11-20T09:14:35Z</time>
      </trkpt>
      <trkpt lat="45.97066" lon="1.41189">
        <ele>382.8</ele>
        <time>2022-11-20T09:14:36Z</time>
      </trkpt>
      <trkpt lat="45.9706" lon="1.41159">
        <ele>382.4</ele>
        <time>2022-11-20T09:14:41Z</time>
      </trkpt>
      <trkpt lat="45.97054" lon="1.41127">
        <ele>382</ele>
        <time>2022-11-20T09:14:47Z</time>
      </trkpt>
      <trkpt lat="45.9705" lon="1.41088">
        <ele>382.2</ele>
        <time>2022-11-20T09:14:55Z</time>
      </trkpt>
      <trkpt lat="45.97052" lon="1.41051">
        <ele>382</ele>
        <time>2022-11-20T09:15:02Z</time>
      </trkpt>
      <trkpt lat="45.97058" lon="1.41006">
        <ele>381.8</ele>
        <time>2022-11-20T09:15:10Z</time>
      </trkpt>
      <trkpt lat="45.97059" lon="1.41002">
        <ele>381.6</ele>
        <time>2022-11-20T09:15:11Z</time>
      </trkpt>
      <trkpt lat="45.97063" lon="1.40981">
        <ele>381</ele>
        <time>2022-11-20T09:15:16Z</time>
      </trkpt>
      <trkpt lat="45.97064" lon="1.40957">
        <ele>381.6</ele>
        <time>2022-11-20T09:15:22Z</time>
      </trkpt>
      <trkpt lat="45.97063" lon="1.40926">
        <ele>381.6</ele>
        <time>2022-11-20T09:15:29Z</time>
      </trkpt>
      <trkpt lat="45.97054" lon="1.40905">
        <ele>381.6</ele>
        <time>2022-11-20T09:15:35Z</time>
      </trkpt>
      <trkpt lat="45.9704" lon="1.40876">
        <ele>381.8</ele>
        <time>2022-11-20T09:15:42Z</time>
      </trkpt>
      <trkpt lat="45.97017" lon="1.40837">
        <ele>382.6</ele>
        <time>2022-11-20T09:15:51Z</time>
      </trkpt>
      <trkpt lat="45.97013" lon="1.40828">
        <ele>382.8</ele>
        <time>2022-11-20T09:15:53Z</time>
      </trkpt>
      <trkpt lat="45.97007" lon="1.40818">
        <ele>382.6</ele>
        <time>2022-11-20T09:15:55Z</time>
      </trkpt>
      <trkpt lat="45.97001" lon="1.40812">
        <ele>382.8</ele>
        <time>2022-11-20T09:15:57Z</time>
      </trkpt>
      <trkpt lat="45.96993" lon="1.40799">
        <ele>383.8</ele>
        <time>2022-11-20T09:16:01Z</time>
      </trkpt>
      <trkpt lat="45.96992" lon="1.40794">
        <ele>384</ele>
        <time>2022-11-20T09:16:02Z</time>
      </trkpt>
      <trkpt lat="45.9698" lon="1.40764">
        <ele>384.4</ele>
        <time>2022-11-20T09:16:09Z</time>
      </trkpt>
      <trkpt lat="45.96965" lon="1.40721">
        <ele>384.4</ele>
        <time>2022-11-20T09:16:18Z</time>
      </trkpt>
      <trkpt lat="45.96959" lon="1.40692">
        <ele>384.4</ele>
        <time>2022-11-20T09:16:24Z</time>
      </trkpt>
      <trkpt lat="45.96962" lon="1.40677">
        <ele>384.2</ele>
        <time>2022-11-20T09:16:27Z</time>
      </trkpt>
      <trkpt lat="45.96966" lon="1.40667">
        <ele>383.8</ele>
        <time>2022-11-20T09:16:29Z</time>
      </trkpt>
      <trkpt lat="45.96968" lon="1.40659">
        <ele>383.8</ele>
        <time>2022-11-20T09:16:31Z</time>
      </trkpt>
      <trkpt lat="45.96969" lon="1.40652">
        <ele>383.8</ele>
        <time>2022-11-20T09:16:33Z</time>
      </trkpt>
      <trkpt lat="45.96972" lon="1.40642">
        <ele>385</ele>
        <time>2022-11-20T09:16:37Z</time>
      </trkpt>
      <trkpt lat="45.96972" lon="1.4064">
        <ele>385</ele>
        <time>2022-11-20T09:16:38Z</time>
      </trkpt>
      <trkpt lat="45.96978" lon="1.4063">
        <ele>386.2</ele>
        <time>2022-11-20T09:16:42Z</time>
      </trkpt>
      <trkpt lat="45.96981" lon="1.40625">
        <ele>387.4</ele>
        <time>2022-11-20T09:16:45Z</time>
      </trkpt>
      <trkpt lat="45.96984" lon="1.40614">
        <ele>388.8</ele>
        <time>2022-11-20T09:16:49Z</time>
      </trkpt>
      <trkpt lat="45.96987" lon="1.40604">
        <ele>389.6</ele>
        <time>2022-11-20T09:16:52Z</time>
      </trkpt>
      <trkpt lat="45.9699" lon="1.40598">
        <ele>390</ele>
        <time>2022-11-20T09:16:54Z</time>
      </trkpt>
      <trkpt lat="45.96996" lon="1.40586">
        <ele>390.6</ele>
        <time>2022-11-20T09:16:58Z</time>
      </trkpt>
      <trkpt lat="45.96998" lon="1.4058">
        <ele>391</ele>
        <time>2022-11-20T09:17:01Z</time>
      </trkpt>
      <trkpt lat="45.97002" lon="1.4057">
        <ele>391.8</ele>
        <time>2022-11-20T09:17:05Z</time>
      </trkpt>
      <trkpt lat="45.97004" lon="1.40569">
        <ele>392</ele>
        <time>2022-11-20T09:17:06Z</time>
      </trkpt>
      <trkpt lat="45.97005" lon="1.40566">
        <ele>392.6</ele>
        <time>2022-11-20T09:17:07Z</time>
      </trkpt>
      <trkpt lat="45.97013" lon="1.40557">
        <ele>393.4</ele>
        <time>2022-11-20T09:17:10Z</time>
      </trkpt>
      <trkpt lat="45.97014" lon="1.40554">
        <ele>393.8</ele>
        <time>2022-11-20T09:17:11Z</time>
      </trkpt>
      <trkpt lat="45.97025" lon="1.40535">
        <ele>394.4</ele>
        <time>2022-11-20T09:17:17Z</time>
      </trkpt>
      <trkpt lat="45.97029" lon="1.40509">
        <ele>394.2</ele>
        <time>2022-11-20T09:17:22Z</time>
      </trkpt>
      <trkpt lat="45.97032" lon="1.40502">
        <ele>393.8</ele>
        <time>2022-11-20T09:17:23Z</time>
      </trkpt>
      <trkpt lat="45.97041" lon="1.40474">
        <ele>393.4</ele>
        <time>2022-11-20T09:17:27Z</time>
      </trkpt>
      <trkpt lat="45.97055" lon="1.40435">
        <ele>393.2</ele>
        <time>2022-11-20T09:17:33Z</time>
      </trkpt>
      <trkpt lat="45.97067" lon="1.40401">
        <ele>392.8</ele>
        <time>2022-11-20T09:17:39Z</time>
      </trkpt>
      <trkpt lat="45.97069" lon="1.40396">
        <ele>392.6</ele>
        <time>2022-11-20T09:17:40Z</time>
      </trkpt>
      <trkpt lat="45.97074" lon="1.40386">
        <ele>392.8</ele>
        <time>2022-11-20T09:17:42Z</time>
      </trkpt>
      <trkpt lat="45.97082" lon="1.4037">
        <ele>392.6</ele>
        <time>2022-11-20T09:17:45Z</time>
      </trkpt>
      <trkpt lat="45.9709" lon="1.40355">
        <ele>392.4</ele>
        <time>2022-11-20T09:17:48Z</time>
      </trkpt>
      <trkpt lat="45.97096" lon="1.40342">
        <ele>392.2</ele>
        <time>2022-11-20T09:17:51Z</time>
      </trkpt>
      <trkpt lat="45.97105" lon="1.40317">
        <ele>392.8</ele>
        <time>2022-11-20T09:17:57Z</time>
      </trkpt>
      <trkpt lat="45.97118" lon="1.40287">
        <ele>393.2</ele>
        <time>2022-11-20T09:18:04Z</time>
      </trkpt>
      <trkpt lat="45.97135" lon="1.4026">
        <ele>393.6</ele>
        <time>2022-11-20T09:18:08Z</time>
      </trkpt>
      <trkpt lat="45.9714" lon="1.40243">
        <ele>393.8</ele>
        <time>2022-11-20T09:18:10Z</time>
      </trkpt>
      <trkpt lat="45.97148" lon="1.40219">
        <ele>393.8</ele>
        <time>2022-11-20T09:18:13Z</time>
      </trkpt>
      <trkpt lat="45.9716" lon="1.40194">
        <ele>393</ele>
        <time>2022-11-20T09:18:17Z</time>
      </trkpt>
      <trkpt lat="45.97162" lon="1.40187">
        <ele>393</ele>
        <time>2022-11-20T09:18:18Z</time>
      </trkpt>
      <trkpt lat="45.97171" lon="1.40158">
        <ele>393.4</ele>
        <time>2022-11-20T09:18:23Z</time>
      </trkpt>
      <trkpt lat="45.97182" lon="1.40131">
        <ele>394.8</ele>
        <time>2022-11-20T09:18:28Z</time>
      </trkpt>
      <trkpt lat="45.97187" lon="1.40122">
        <ele>395.2</ele>
        <time>2022-11-20T09:18:30Z</time>
      </trkpt>
      <trkpt lat="45.97198" lon="1.40096">
        <ele>395.6</ele>
        <time>2022-11-20T09:18:36Z</time>
      </trkpt>
      <trkpt lat="45.9721" lon="1.40075">
        <ele>395.8</ele>
        <time>2022-11-20T09:18:41Z</time>
      </trkpt>
      <trkpt lat="45.97212" lon="1.40072">
        <ele>396</ele>
        <time>2022-11-20T09:18:42Z</time>
      </trkpt>
      <trkpt lat="45.9722" lon="1.40059">
        <ele>397</ele>
        <time>2022-11-20T09:18:46Z</time>
      </trkpt>
      <trkpt lat="45.97223" lon="1.4005">
        <ele>397.8</ele>
        <time>2022-11-20T09:18:49Z</time>
      </trkpt>
      <trkpt lat="45.97225" lon="1.40047">
        <ele>398.2</ele>
        <time>2022-11-20T09:18:50Z</time>
      </trkpt>
      <trkpt lat="45.97241" lon="1.40022">
        <ele>398.8</ele>
        <time>2022-11-20T09:18:58Z</time>
      </trkpt>
      <trkpt lat="45.97248" lon="1.40011">
        <ele>399.2</ele>
        <time>2022-11-20T09:19:01Z</time>
      </trkpt>
      <trkpt lat="45.97259" lon="1.39993">
        <ele>399.4</ele>
        <time>2022-11-20T09:19:05Z</time>
      </trkpt>
      <trkpt lat="45.97265" lon="1.39978">
        <ele>399</ele>
        <time>2022-11-20T09:19:08Z</time>
      </trkpt>
      <trkpt lat="45.97272" lon="1.39962">
        <ele>398.6</ele>
        <time>2022-11-20T09:19:11Z</time>
      </trkpt>
      <trkpt lat="45.97278" lon="1.39952">
        <ele>398.2</ele>
        <time>2022-11-20T09:19:13Z</time>
      </trkpt>
      <trkpt lat="45.97289" lon="1.3994">
        <ele>397.4</ele>
        <time>2022-11-20T09:19:16Z</time>
      </trkpt>
      <trkpt lat="45.97298" lon="1.39929">
        <ele>397</ele>
        <time>2022-11-20T09:19:18Z</time>
      </trkpt>
      <trkpt lat="45.97304" lon="1.39925">
        <ele>397</ele>
        <time>2022-11-20T09:19:19Z</time>
      </trkpt>
      <trkpt lat="45.97309" lon="1.39922">
        <ele>396</ele>
        <time>2022-11-20T09:19:20Z</time>
      </trkpt>
      <trkpt lat="45.97316" lon="1.39917">
        <ele>394.6</ele>
        <time>2022-11-20T09:19:21Z</time>
      </trkpt>
      <trkpt lat="45.97329" lon="1.39914">
        <ele>393</ele>
        <time>2022-11-20T09:19:23Z</time>
      </trkpt>
      <trkpt lat="45.97341" lon="1.3991">
        <ele>392.4</ele>
        <time>2022-11-20T09:19:25Z</time>
      </trkpt>
      <trkpt lat="45.97351" lon="1.39905">
        <ele>391.6</ele>
        <time>2022-11-20T09:19:27Z</time>
      </trkpt>
      <trkpt lat="45.97363" lon="1.399">
        <ele>390.4</ele>
        <time>2022-11-20T09:19:30Z</time>
      </trkpt>
      <trkpt lat="45.97373" lon="1.39898">
        <ele>389.6</ele>
        <time>2022-11-20T09:19:32Z</time>
      </trkpt>
      <trkpt lat="45.9738" lon="1.39898">
        <ele>389</ele>
        <time>2022-11-20T09:19:33Z</time>
      </trkpt>
      <trkpt lat="45.97383" lon="1.39899">
        <ele>388.6</ele>
        <time>2022-11-20T09:19:34Z</time>
      </trkpt>
      <trkpt lat="45.97388" lon="1.39901">
        <ele>388</ele>
        <time>2022-11-20T09:19:35Z</time>
      </trkpt>
      <trkpt lat="45.97396" lon="1.39904">
        <ele>387.6</ele>
        <time>2022-11-20T09:19:36Z</time>
      </trkpt>
      <trkpt lat="45.97402" lon="1.39906">
        <ele>387</ele>
        <time>2022-11-20T09:19:37Z</time>
      </trkpt>
      <trkpt lat="45.97411" lon="1.39915">
        <ele>386.2</ele>
        <time>2022-11-20T09:19:39Z</time>
      </trkpt>
      <trkpt lat="45.97416" lon="1.39919">
        <ele>386</ele>
        <time>2022-11-20T09:19:40Z</time>
      </trkpt>
      <trkpt lat="45.9744" lon="1.3995">
        <ele>387</ele>
        <time>2022-11-20T09:19:47Z</time>
      </trkpt>
      <trkpt lat="45.97444" lon="1.39958">
        <ele>388</ele>
        <time>2022-11-20T09:19:50Z</time>
      </trkpt>
      <trkpt lat="45.97447" lon="1.39963">
        <ele>388.8</ele>
        <time>2022-11-20T09:19:52Z</time>
      </trkpt>
      <trkpt lat="45.97448" lon="1.39964">
        <ele>389</ele>
        <time>2022-11-20T09:19:53Z</time>
      </trkpt>
      <trkpt lat="45.97453" lon="1.39971">
        <ele>390.4</ele>
        <time>2022-11-20T09:19:57Z</time>
      </trkpt>
      <trkpt lat="45.97455" lon="1.39975">
        <ele>391.2</ele>
        <time>2022-11-20T09:19:59Z</time>
      </trkpt>
      <trkpt lat="45.97456" lon="1.39977">
        <ele>392</ele>
        <time>2022-11-20T09:20:00Z</time>
      </trkpt>
      <trkpt lat="45.97459" lon="1.39981">
        <ele>393</ele>
        <time>2022-11-20T09:20:02Z</time>
      </trkpt>
      <trkpt lat="45.97465" lon="1.39991">
        <ele>394</ele>
        <time>2022-11-20T09:20:07Z</time>
      </trkpt>
      <trkpt lat="45.97468" lon="1.39999">
        <ele>394</ele>
        <time>2022-11-20T09:20:09Z</time>
      </trkpt>
      <trkpt lat="45.97478" lon="1.40014">
        <ele>394.2</ele>
        <time>2022-11-20T09:20:13Z</time>
      </trkpt>
      <trkpt lat="45.97498" lon="1.40044">
        <ele>394.4</ele>
        <time>2022-11-20T09:20:21Z</time>
      </trkpt>
      <trkpt lat="45.9751" lon="1.40073">
        <ele>394.6</ele>
        <time>2022-11-20T09:20:26Z</time>
      </trkpt>
      <trkpt lat="45.97514" lon="1.40088">
        <ele>395.2</ele>
        <time>2022-11-20T09:20:31Z</time>
      </trkpt>
      <trkpt lat="45.9751" lon="1.40103">
        <ele>396.2</ele>
        <time>2022-11-20T09:20:36Z</time>
      </trkpt>
      <trkpt lat="45.97509" lon="1.40106">
        <ele>396.4</ele>
        <time>2022-11-20T09:20:37Z</time>
      </trkpt>
      <trkpt lat="45.97507" lon="1.40117">
        <ele>396.6</ele>
        <time>2022-11-20T09:20:41Z</time>
      </trkpt>
      <trkpt lat="45.97508" lon="1.40121">
        <ele>396.6</ele>
        <time>2022-11-20T09:20:42Z</time>
      </trkpt>
      <trkpt lat="45.97513" lon="1.40137">
        <ele>397.2</ele>
        <time>2022-11-20T09:20:47Z</time>
      </trkpt>
      <trkpt lat="45.97514" lon="1.4014">
        <ele>397.4</ele>
        <time>2022-11-20T09:20:48Z</time>
      </trkpt>
      <trkpt lat="45.97521" lon="1.40154">
        <ele>398.4</ele>
        <time>2022-11-20T09:20:54Z</time>
      </trkpt>
      <trkpt lat="45.97531" lon="1.4016">
        <ele>399.4</ele>
        <time>2022-11-20T09:20:59Z</time>
      </trkpt>
      <trkpt lat="45.97537" lon="1.40165">
        <ele>399.6</ele>
        <time>2022-11-20T09:21:01Z</time>
      </trkpt>
      <trkpt lat="45.97554" lon="1.40174">
        <ele>400.4</ele>
        <time>2022-11-20T09:21:06Z</time>
      </trkpt>
      <trkpt lat="45.97574" lon="1.40182">
        <ele>401.4</ele>
        <time>2022-11-20T09:21:11Z</time>
      </trkpt>
      <trkpt lat="45.97591" lon="1.40186">
        <ele>401.8</ele>
        <time>2022-11-20T09:21:15Z</time>
      </trkpt>
      <trkpt lat="45.97604" lon="1.40188">
        <ele>402.6</ele>
        <time>2022-11-20T09:21:18Z</time>
      </trkpt>
      <trkpt lat="45.97614" lon="1.4019">
        <ele>403</ele>
        <time>2022-11-20T09:21:21Z</time>
      </trkpt>
      <trkpt lat="45.97636" lon="1.40194">
        <ele>403.6</ele>
        <time>2022-11-20T09:21:27Z</time>
      </trkpt>
      <trkpt lat="45.97639" lon="1.40195">
        <ele>403.8</ele>
        <time>2022-11-20T09:21:28Z</time>
      </trkpt>
      <trkpt lat="45.97665" lon="1.402">
        <ele>403.8</ele>
        <time>2022-11-20T09:21:35Z</time>
      </trkpt>
      <trkpt lat="45.97691" lon="1.40205">
        <ele>404</ele>
        <time>2022-11-20T09:21:41Z</time>
      </trkpt>
      <trkpt lat="45.97724" lon="1.40208">
        <ele>403.8</ele>
        <time>2022-11-20T09:21:48Z</time>
      </trkpt>
      <trkpt lat="45.97758" lon="1.4021">
        <ele>404.2</ele>
        <time>2022-11-20T09:21:55Z</time>
      </trkpt>
      <trkpt lat="45.97794" lon="1.40208">
        <ele>404.2</ele>
        <time>2022-11-20T09:22:02Z</time>
      </trkpt>
      <trkpt lat="45.97831" lon="1.40199">
        <ele>404</ele>
        <time>2022-11-20T09:22:10Z</time>
      </trkpt>
      <trkpt lat="45.97866" lon="1.40189">
        <ele>404.8</ele>
        <time>2022-11-20T09:22:17Z</time>
      </trkpt>
      <trkpt lat="45.97894" lon="1.40177">
        <ele>406</ele>
        <time>2022-11-20T09:22:25Z</time>
      </trkpt>
      <trkpt lat="45.97908" lon="1.40171">
        <ele>407.2</ele>
        <time>2022-11-20T09:22:30Z</time>
      </trkpt>
      <trkpt lat="45.97911" lon="1.4017">
        <ele>407.4</ele>
        <time>2022-11-20T09:22:31Z</time>
      </trkpt>
      <trkpt lat="45.97928" lon="1.40162">
        <ele>408.2</ele>
        <time>2022-11-20T09:22:37Z</time>
      </trkpt>
      <trkpt lat="45.97947" lon="1.4015">
        <ele>408.2</ele>
        <time>2022-11-20T09:22:42Z</time>
      </trkpt>
      <trkpt lat="45.9795" lon="1.40147">
        <ele>408.4</ele>
        <time>2022-11-20T09:22:43Z</time>
      </trkpt>
      <trkpt lat="45.97972" lon="1.4013">
        <ele>408.6</ele>
        <time>2022-11-20T09:22:49Z</time>
      </trkpt>
      <trkpt lat="45.9799" lon="1.40111">
        <ele>409</ele>
        <time>2022-11-20T09:22:55Z</time>
      </trkpt>
      <trkpt lat="45.97993" lon="1.40105">
        <ele>409.4</ele>
        <time>2022-11-20T09:22:57Z</time>
      </trkpt>
      <trkpt lat="45.97998" lon="1.40095">
        <ele>410.2</ele>
        <time>2022-11-20T09:23:01Z</time>
      </trkpt>
      <trkpt lat="45.97999" lon="1.40093">
        <ele>410.6</ele>
        <time>2022-11-20T09:23:02Z</time>
      </trkpt>
      <trkpt lat="45.98006" lon="1.4008">
        <ele>412</ele>
        <time>2022-11-20T09:23:06Z</time>
      </trkpt>
      <trkpt lat="45.98011" lon="1.40067">
        <ele>412.8</ele>
        <time>2022-11-20T09:23:09Z</time>
      </trkpt>
      <trkpt lat="45.98012" lon="1.40063">
        <ele>413</ele>
        <time>2022-11-20T09:23:10Z</time>
      </trkpt>
      <trkpt lat="45.98022" lon="1.40034">
        <ele>413</ele>
        <time>2022-11-20T09:23:16Z</time>
      </trkpt>
      <trkpt lat="45.98042" lon="1.39986">
        <ele>413</ele>
        <time>2022-11-20T09:23:25Z</time>
      </trkpt>
      <trkpt lat="45.98062" lon="1.39938">
        <ele>413.6</ele>
        <time>2022-11-20T09:23:33Z</time>
      </trkpt>
      <trkpt lat="45.98089" lon="1.3989">
        <ele>413</ele>
        <time>2022-11-20T09:23:40Z</time>
      </trkpt>
      <trkpt lat="45.98098" lon="1.39868">
        <ele>412.8</ele>
        <time>2022-11-20T09:23:43Z</time>
      </trkpt>
      <trkpt lat="45.98101" lon="1.39851">
        <ele>412.4</ele>
        <time>2022-11-20T09:23:45Z</time>
      </trkpt>
      <trkpt lat="45.98105" lon="1.39802">
        <ele>411.8</ele>
        <time>2022-11-20T09:23:50Z</time>
      </trkpt>
      <trkpt lat="45.98106" lon="1.3979">
        <ele>411.4</ele>
        <time>2022-11-20T09:23:51Z</time>
      </trkpt>
      <trkpt lat="45.98107" lon="1.39766">
        <ele>410.4</ele>
        <time>2022-11-20T09:23:53Z</time>
      </trkpt>
      <trkpt lat="45.98107" lon="1.3973">
        <ele>409.4</ele>
        <time>2022-11-20T09:23:56Z</time>
      </trkpt>
      <trkpt lat="45.98107" lon="1.39707">
        <ele>408.8</ele>
        <time>2022-11-20T09:23:58Z</time>
      </trkpt>
      <trkpt lat="45.98108" lon="1.39673">
        <ele>408.2</ele>
        <time>2022-11-20T09:24:01Z</time>
      </trkpt>
      <trkpt lat="45.98109" lon="1.39652">
        <ele>407</ele>
        <time>2022-11-20T09:24:03Z</time>
      </trkpt>
      <trkpt lat="45.98109" lon="1.39641">
        <ele>406.4</ele>
        <time>2022-11-20T09:24:04Z</time>
      </trkpt>
      <trkpt lat="45.9811" lon="1.3962">
        <ele>406</ele>
        <time>2022-11-20T09:24:06Z</time>
      </trkpt>
      <trkpt lat="45.9811" lon="1.3958">
        <ele>405.2</ele>
        <time>2022-11-20T09:24:10Z</time>
      </trkpt>
      <trkpt lat="45.98107" lon="1.39571">
        <ele>404.4</ele>
        <time>2022-11-20T09:24:11Z</time>
      </trkpt>
      <trkpt lat="45.98102" lon="1.39563">
        <ele>404</ele>
        <time>2022-11-20T09:24:12Z</time>
      </trkpt>
      <trkpt lat="45.98096" lon="1.39557">
        <ele>403.2</ele>
        <time>2022-11-20T09:24:13Z</time>
      </trkpt>
      <trkpt lat="45.98089" lon="1.39554">
        <ele>402.8</ele>
        <time>2022-11-20T09:24:14Z</time>
      </trkpt>
      <trkpt lat="45.98074" lon="1.3955">
        <ele>402</ele>
        <time>2022-11-20T09:24:16Z</time>
      </trkpt>
      <trkpt lat="45.9805" lon="1.3955">
        <ele>400.6</ele>
        <time>2022-11-20T09:24:20Z</time>
      </trkpt>
      <trkpt lat="45.98047" lon="1.39547">
        <ele>400.4</ele>
        <time>2022-11-20T09:24:21Z</time>
      </trkpt>
      <trkpt lat="45.98045" lon="1.39542">
        <ele>400</ele>
        <time>2022-11-20T09:24:23Z</time>
      </trkpt>
      <trkpt lat="45.9805" lon="1.39532">
        <ele>400.2</ele>
        <time>2022-11-20T09:24:28Z</time>
      </trkpt>
      <trkpt lat="45.98057" lon="1.39518">
        <ele>402</ele>
        <time>2022-11-20T09:24:34Z</time>
      </trkpt>
      <trkpt lat="45.98059" lon="1.39512">
        <ele>402.4</ele>
        <time>2022-11-20T09:24:36Z</time>
      </trkpt>
      <trkpt lat="45.98062" lon="1.39505">
        <ele>403.2</ele>
        <time>2022-11-20T09:24:38Z</time>
      </trkpt>
      <trkpt lat="45.98065" lon="1.39497">
        <ele>404.4</ele>
        <time>2022-11-20T09:24:41Z</time>
      </trkpt>
      <trkpt lat="45.98071" lon="1.39487">
        <ele>405.6</ele>
        <time>2022-11-20T09:24:45Z</time>
      </trkpt>
      <trkpt lat="45.98074" lon="1.39483">
        <ele>406.2</ele>
        <time>2022-11-20T09:24:47Z</time>
      </trkpt>
      <trkpt lat="45.98079" lon="1.39475">
        <ele>406.8</ele>
        <time>2022-11-20T09:24:51Z</time>
      </trkpt>
      <trkpt lat="45.98084" lon="1.39464">
        <ele>407.4</ele>
        <time>2022-11-20T09:24:54Z</time>
      </trkpt>
      <trkpt lat="45.98089" lon="1.39457">
        <ele>408</ele>
        <time>2022-11-20T09:24:57Z</time>
      </trkpt>
      <trkpt lat="45.98093" lon="1.39453">
        <ele>408.6</ele>
        <time>2022-11-20T09:24:59Z</time>
      </trkpt>
      <trkpt lat="45.98096" lon="1.39453">
        <ele>409.2</ele>
        <time>2022-11-20T09:25:00Z</time>
      </trkpt>
      <trkpt lat="45.98104" lon="1.3945">
        <ele>410.2</ele>
        <time>2022-11-20T09:25:04Z</time>
      </trkpt>
      <trkpt lat="45.98105" lon="1.39449">
        <ele>410.4</ele>
        <time>2022-11-20T09:25:05Z</time>
      </trkpt>
      <trkpt lat="45.98111" lon="1.39445">
        <ele>411.4</ele>
        <time>2022-11-20T09:25:09Z</time>
      </trkpt>
      <trkpt lat="45.98116" lon="1.39443">
        <ele>412.4</ele>
        <time>2022-11-20T09:25:12Z</time>
      </trkpt>
      <trkpt lat="45.98123" lon="1.39437">
        <ele>413.8</ele>
        <time>2022-11-20T09:25:18Z</time>
      </trkpt>
      <trkpt lat="45.98127" lon="1.39428">
        <ele>415.2</ele>
        <time>2022-11-20T09:25:24Z</time>
      </trkpt>
      <trkpt lat="45.98129" lon="1.3942">
        <ele>416.2</ele>
        <time>2022-11-20T09:25:28Z</time>
      </trkpt>
      <trkpt lat="45.98132" lon="1.39416">
        <ele>417.2</ele>
        <time>2022-11-20T09:25:31Z</time>
      </trkpt>
      <trkpt lat="45.98133" lon="1.39413">
        <ele>417.4</ele>
        <time>2022-11-20T09:25:32Z</time>
      </trkpt>
      <trkpt lat="45.98141" lon="1.39398">
        <ele>418.6</ele>
        <time>2022-11-20T09:25:38Z</time>
      </trkpt>
      <trkpt lat="45.98144" lon="1.39384">
        <ele>419.4</ele>
        <time>2022-11-20T09:25:45Z</time>
      </trkpt>
      <trkpt lat="45.98145" lon="1.39382">
        <ele>419.6</ele>
        <time>2022-11-20T09:25:46Z</time>
      </trkpt>
      <trkpt lat="45.98149" lon="1.39364">
        <ele>420</ele>
        <time>2022-11-20T09:25:52Z</time>
      </trkpt>
      <trkpt lat="45.98149" lon="1.39344">
        <ele>420.6</ele>
        <time>2022-11-20T09:25:58Z</time>
      </trkpt>
      <trkpt lat="45.98149" lon="1.3934">
        <ele>420.8</ele>
        <time>2022-11-20T09:25:59Z</time>
      </trkpt>
      <trkpt lat="45.98148" lon="1.39312">
        <ele>421.4</ele>
        <time>2022-11-20T09:26:08Z</time>
      </trkpt>
      <trkpt lat="45.98147" lon="1.3931">
        <ele>421.8</ele>
        <time>2022-11-20T09:26:09Z</time>
      </trkpt>
      <trkpt lat="45.98146" lon="1.39299">
        <ele>423.2</ele>
        <time>2022-11-20T09:26:14Z</time>
      </trkpt>
      <trkpt lat="45.98146" lon="1.39289">
        <ele>424</ele>
        <time>2022-11-20T09:26:18Z</time>
      </trkpt>
      <trkpt lat="45.98146" lon="1.39287">
        <ele>424.2</ele>
        <time>2022-11-20T09:26:19Z</time>
      </trkpt>
      <trkpt lat="45.98142" lon="1.39276">
        <ele>425.4</ele>
        <time>2022-11-20T09:26:25Z</time>
      </trkpt>
      <trkpt lat="45.98141" lon="1.39271">
        <ele>425.6</ele>
        <time>2022-11-20T09:26:27Z</time>
      </trkpt>
      <trkpt lat="45.98139" lon="1.39264">
        <ele>426.4</ele>
        <time>2022-11-20T09:26:30Z</time>
      </trkpt>
      <trkpt lat="45.98135" lon="1.39253">
        <ele>427.4</ele>
        <time>2022-11-20T09:26:34Z</time>
      </trkpt>
      <trkpt lat="45.98135" lon="1.3925">
        <ele>427.6</ele>
        <time>2022-11-20T09:26:35Z</time>
      </trkpt>
      <trkpt lat="45.98132" lon="1.39234">
        <ele>428.8</ele>
        <time>2022-11-20T09:26:40Z</time>
      </trkpt>
      <trkpt lat="45.9813" lon="1.39225">
        <ele>429.8</ele>
        <time>2022-11-20T09:26:44Z</time>
      </trkpt>
      <trkpt lat="45.98127" lon="1.39217">
        <ele>430.6</ele>
        <time>2022-11-20T09:26:48Z</time>
      </trkpt>
      <trkpt lat="45.98125" lon="1.39213">
        <ele>431</ele>
        <time>2022-11-20T09:26:50Z</time>
      </trkpt>
      <trkpt lat="45.98118" lon="1.39203">
        <ele>432</ele>
        <time>2022-11-20T09:26:56Z</time>
      </trkpt>
      <trkpt lat="45.98118" lon="1.39201">
        <ele>432.2</ele>
        <time>2022-11-20T09:26:57Z</time>
      </trkpt>
      <trkpt lat="45.98116" lon="1.39198">
        <ele>433.2</ele>
        <time>2022-11-20T09:27:00Z</time>
      </trkpt>
      <trkpt lat="45.98115" lon="1.39197">
        <ele>433.2</ele>
        <time>2022-11-20T09:27:01Z</time>
      </trkpt>
      <trkpt lat="45.98113" lon="1.39195">
        <ele>434</ele>
        <time>2022-11-20T09:27:04Z</time>
      </trkpt>
      <trkpt lat="45.98112" lon="1.39195">
        <ele>434.2</ele>
        <time>2022-11-20T09:27:05Z</time>
      </trkpt>
      <trkpt lat="45.98111" lon="1.39194">
        <ele>434.2</ele>
        <time>2022-11-20T09:27:06Z</time>
      </trkpt>
      <trkpt lat="45.98105" lon="1.39187">
        <ele>435.2</ele>
        <time>2022-11-20T09:27:10Z</time>
      </trkpt>
      <trkpt lat="45.98104" lon="1.39186">
        <ele>435.4</ele>
        <time>2022-11-20T09:27:11Z</time>
      </trkpt>
      <trkpt lat="45.98103" lon="1.39185">
        <ele>435.6</ele>
        <time>2022-11-20T09:27:12Z</time>
      </trkpt>
      <trkpt lat="45.98099" lon="1.39181">
        <ele>436.4</ele>
        <time>2022-11-20T09:27:15Z</time>
      </trkpt>
      <trkpt lat="45.98093" lon="1.39175">
        <ele>437.2</ele>
        <time>2022-11-20T09:27:20Z</time>
      </trkpt>
      <trkpt lat="45.9809" lon="1.39173">
        <ele>437.8</ele>
        <time>2022-11-20T09:27:22Z</time>
      </trkpt>
      <trkpt lat="45.98088" lon="1.39173">
        <ele>438</ele>
        <time>2022-11-20T09:27:23Z</time>
      </trkpt>
      <trkpt lat="45.98081" lon="1.39171">
        <ele>438.6</ele>
        <time>2022-11-20T09:27:27Z</time>
      </trkpt>
      <trkpt lat="45.98079" lon="1.39171">
        <ele>438.8</ele>
        <time>2022-11-20T09:27:28Z</time>
      </trkpt>
      <trkpt lat="45.98067" lon="1.39168">
        <ele>439.8</ele>
        <time>2022-11-20T09:27:35Z</time>
      </trkpt>
      <trkpt lat="45.98065" lon="1.39167">
        <ele>440.2</ele>
        <time>2022-11-20T09:27:36Z</time>
      </trkpt>
      <trkpt lat="45.98058" lon="1.39164">
        <ele>441</ele>
        <time>2022-11-20T09:27:40Z</time>
      </trkpt>
      <trkpt lat="45.98052" lon="1.39162">
        <ele>441.4</ele>
        <time>2022-11-20T09:27:43Z</time>
      </trkpt>
      <trkpt lat="45.98046" lon="1.3916">
        <ele>442</ele>
        <time>2022-11-20T09:27:47Z</time>
      </trkpt>
      <trkpt lat="45.98042" lon="1.39157">
        <ele>442</ele>
        <time>2022-11-20T09:27:50Z</time>
      </trkpt>
      <trkpt lat="45.98028" lon="1.39148">
        <ele>441.8</ele>
        <time>2022-11-20T09:27:55Z</time>
      </trkpt>
      <trkpt lat="45.98009" lon="1.39139">
        <ele>441.4</ele>
        <time>2022-11-20T09:28:00Z</time>
      </trkpt>
      <trkpt lat="45.98001" lon="1.39136">
        <ele>440.8</ele>
        <time>2022-11-20T09:28:02Z</time>
      </trkpt>
      <trkpt lat="45.97996" lon="1.39133">
        <ele>440.4</ele>
        <time>2022-11-20T09:28:04Z</time>
      </trkpt>
      <trkpt lat="45.97987" lon="1.39129">
        <ele>440</ele>
        <time>2022-11-20T09:28:07Z</time>
      </trkpt>
      <trkpt lat="45.97981" lon="1.39126">
        <ele>440</ele>
        <time>2022-11-20T09:28:09Z</time>
      </trkpt>
      <trkpt lat="45.97974" lon="1.39123">
        <ele>439.6</ele>
        <time>2022-11-20T09:28:11Z</time>
      </trkpt>
      <trkpt lat="45.97965" lon="1.39119">
        <ele>439.6</ele>
        <time>2022-11-20T09:28:13Z</time>
      </trkpt>
      <trkpt lat="45.97961" lon="1.39117">
        <ele>439.6</ele>
        <time>2022-11-20T09:28:14Z</time>
      </trkpt>
      <trkpt lat="45.97951" lon="1.39114">
        <ele>439.8</ele>
        <time>2022-11-20T09:28:16Z</time>
      </trkpt>
      <trkpt lat="45.97941" lon="1.39112">
        <ele>439.8</ele>
        <time>2022-11-20T09:28:18Z</time>
      </trkpt>
      <trkpt lat="45.97932" lon="1.39111">
        <ele>440</ele>
        <time>2022-11-20T09:28:20Z</time>
      </trkpt>
      <trkpt lat="45.97911" lon="1.39112">
        <ele>440.2</ele>
        <time>2022-11-20T09:28:24Z</time>
      </trkpt>
      <trkpt lat="45.97895" lon="1.39114">
        <ele>441</ele>
        <time>2022-11-20T09:28:27Z</time>
      </trkpt>
      <trkpt lat="45.97878" lon="1.3912">
        <ele>441.8</ele>
        <time>2022-11-20T09:28:31Z</time>
      </trkpt>
      <trkpt lat="45.97866" lon="1.39125">
        <ele>442</ele>
        <time>2022-11-20T09:28:34Z</time>
      </trkpt>
      <trkpt lat="45.97857" lon="1.3913">
        <ele>442.4</ele>
        <time>2022-11-20T09:28:37Z</time>
      </trkpt>
      <trkpt lat="45.97844" lon="1.39135">
        <ele>442.4</ele>
        <time>2022-11-20T09:28:43Z</time>
      </trkpt>
      <trkpt lat="45.97842" lon="1.39135">
        <ele>442.4</ele>
        <time>2022-11-20T09:28:47Z</time>
      </trkpt>
      <trkpt lat="45.97838" lon="1.39127">
        <ele>441.4</ele>
        <time>2022-11-20T09:31:41Z</time>
      </trkpt>
      <trkpt lat="45.97837" lon="1.39127">
        <ele>441.4</ele>
        <time>2022-11-20T09:31:43Z</time>
      </trkpt>
      <trkpt lat="45.97831" lon="1.39128">
        <ele>441.4</ele>
        <time>2022-11-20T09:31:51Z</time>
      </trkpt>
      <trkpt lat="45.97829" lon="1.39128">
        <ele>441.4</ele>
        <time>2022-11-20T09:31:52Z</time>
      </trkpt>
      <trkpt lat="45.97823" lon="1.3913">
        <ele>441.4</ele>
        <time>2022-11-20T09:31:55Z</time>
      </trkpt>
      <trkpt lat="45.97821" lon="1.39126">
        <ele>441.8</ele>
        <time>2022-11-20T09:31:57Z</time>
      </trkpt>
      <trkpt lat="45.97821" lon="1.39121">
        <ele>442.2</ele>
        <time>2022-11-20T09:31:59Z</time>
      </trkpt>
      <trkpt lat="45.97823" lon="1.39115">
        <ele>442.6</ele>
        <time>2022-11-20T09:32:01Z</time>
      </trkpt>
      <trkpt lat="45.97825" lon="1.39113">
        <ele>443.2</ele>
        <time>2022-11-20T09:32:02Z</time>
      </trkpt>
      <trkpt lat="45.9783" lon="1.39106">
        <ele>444.2</ele>
        <time>2022-11-20T09:32:05Z</time>
      </trkpt>
      <trkpt lat="45.97833" lon="1.39102">
        <ele>445</ele>
        <time>2022-11-20T09:32:07Z</time>
      </trkpt>
      <trkpt lat="45.97834" lon="1.39099">
        <ele>445.4</ele>
        <time>2022-11-20T09:32:08Z</time>
      </trkpt>
      <trkpt lat="45.97838" lon="1.39089">
        <ele>446.4</ele>
        <time>2022-11-20T09:32:12Z</time>
      </trkpt>
      <trkpt lat="45.9784" lon="1.39084">
        <ele>447</ele>
        <time>2022-11-20T09:32:14Z</time>
      </trkpt>
      <trkpt lat="45.97841" lon="1.39082">
        <ele>447.4</ele>
        <time>2022-11-20T09:32:15Z</time>
      </trkpt>
      <trkpt lat="45.97844" lon="1.39072">
        <ele>448.6</ele>
        <time>2022-11-20T09:32:19Z</time>
      </trkpt>
      <trkpt lat="45.97847" lon="1.39063">
        <ele>449.6</ele>
        <time>2022-11-20T09:32:23Z</time>
      </trkpt>
      <trkpt lat="45.97849" lon="1.39061">
        <ele>449.8</ele>
        <time>2022-11-20T09:32:24Z</time>
      </trkpt>
      <trkpt lat="45.97856" lon="1.39047">
        <ele>451</ele>
        <time>2022-11-20T09:32:30Z</time>
      </trkpt>
      <trkpt lat="45.97859" lon="1.39043">
        <ele>451.4</ele>
        <time>2022-11-20T09:32:32Z</time>
      </trkpt>
      <trkpt lat="45.97865" lon="1.39032">
        <ele>452.2</ele>
        <time>2022-11-20T09:32:37Z</time>
      </trkpt>
      <trkpt lat="45.97865" lon="1.39027">
        <ele>453</ele>
        <time>2022-11-20T09:32:39Z</time>
      </trkpt>
      <trkpt lat="45.97864" lon="1.39025">
        <ele>453</ele>
        <time>2022-11-20T09:32:40Z</time>
      </trkpt>
      <trkpt lat="45.97859" lon="1.39019">
        <ele>453.4</ele>
        <time>2022-11-20T09:32:43Z</time>
      </trkpt>
      <trkpt lat="45.97857" lon="1.39016">
        <ele>453.4</ele>
        <time>2022-11-20T09:32:44Z</time>
      </trkpt>
      <trkpt lat="45.97848" lon="1.38999">
        <ele>452.2</ele>
        <time>2022-11-20T09:32:48Z</time>
      </trkpt>
      <trkpt lat="45.97845" lon="1.38995">
        <ele>451.6</ele>
        <time>2022-11-20T09:32:49Z</time>
      </trkpt>
      <trkpt lat="45.97844" lon="1.3899">
        <ele>450.8</ele>
        <time>2022-11-20T09:32:50Z</time>
      </trkpt>
      <trkpt lat="45.97844" lon="1.38982">
        <ele>449.6</ele>
        <time>2022-11-20T09:32:52Z</time>
      </trkpt>
      <trkpt lat="45.97845" lon="1.38978">
        <ele>449.2</ele>
        <time>2022-11-20T09:32:53Z</time>
      </trkpt>
      <trkpt lat="45.9785" lon="1.38961">
        <ele>448.4</ele>
        <time>2022-11-20T09:32:57Z</time>
      </trkpt>
      <trkpt lat="45.97852" lon="1.3895">
        <ele>448.2</ele>
        <time>2022-11-20T09:33:00Z</time>
      </trkpt>
      <trkpt lat="45.97857" lon="1.38924">
        <ele>448.6</ele>
        <time>2022-11-20T09:33:06Z</time>
      </trkpt>
      <trkpt lat="45.97861" lon="1.38905">
        <ele>448.8</ele>
        <time>2022-11-20T09:33:10Z</time>
      </trkpt>
      <trkpt lat="45.97864" lon="1.38892">
        <ele>449</ele>
        <time>2022-11-20T09:33:13Z</time>
      </trkpt>
      <trkpt lat="45.97865" lon="1.38879">
        <ele>448.8</ele>
        <time>2022-11-20T09:33:15Z</time>
      </trkpt>
      <trkpt lat="45.97868" lon="1.38851">
        <ele>447.8</ele>
        <time>2022-11-20T09:33:19Z</time>
      </trkpt>
      <trkpt lat="45.97872" lon="1.3884">
        <ele>447.6</ele>
        <time>2022-11-20T09:33:21Z</time>
      </trkpt>
      <trkpt lat="45.97877" lon="1.3883">
        <ele>447.6</ele>
        <time>2022-11-20T09:33:23Z</time>
      </trkpt>
      <trkpt lat="45.9788" lon="1.38827">
        <ele>447.6</ele>
        <time>2022-11-20T09:33:24Z</time>
      </trkpt>
      <trkpt lat="45.979" lon="1.38802">
        <ele>447.8</ele>
        <time>2022-11-20T09:33:30Z</time>
      </trkpt>
      <trkpt lat="45.97921" lon="1.38773">
        <ele>447.6</ele>
        <time>2022-11-20T09:33:35Z</time>
      </trkpt>
      <trkpt lat="45.97928" lon="1.38762">
        <ele>447.8</ele>
        <time>2022-11-20T09:33:37Z</time>
      </trkpt>
      <trkpt lat="45.97931" lon="1.38751">
        <ele>447.8</ele>
        <time>2022-11-20T09:33:39Z</time>
      </trkpt>
      <trkpt lat="45.97937" lon="1.38733">
        <ele>447.2</ele>
        <time>2022-11-20T09:33:42Z</time>
      </trkpt>
      <trkpt lat="45.97945" lon="1.38712">
        <ele>446.4</ele>
        <time>2022-11-20T09:33:45Z</time>
      </trkpt>
      <trkpt lat="45.97947" lon="1.38705">
        <ele>445.8</ele>
        <time>2022-11-20T09:33:46Z</time>
      </trkpt>
      <trkpt lat="45.97952" lon="1.38691">
        <ele>445</ele>
        <time>2022-11-20T09:33:48Z</time>
      </trkpt>
      <trkpt lat="45.97953" lon="1.38683">
        <ele>444.6</ele>
        <time>2022-11-20T09:33:49Z</time>
      </trkpt>
      <trkpt lat="45.97952" lon="1.38676">
        <ele>444</ele>
        <time>2022-11-20T09:33:50Z</time>
      </trkpt>
      <trkpt lat="45.97951" lon="1.3867">
        <ele>443.6</ele>
        <time>2022-11-20T09:33:51Z</time>
      </trkpt>
      <trkpt lat="45.97945" lon="1.38661">
        <ele>443.4</ele>
        <time>2022-11-20T09:33:53Z</time>
      </trkpt>
      <trkpt lat="45.97936" lon="1.38651">
        <ele>443.8</ele>
        <time>2022-11-20T09:33:57Z</time>
      </trkpt>
      <trkpt lat="45.97934" lon="1.38644">
        <ele>444.8</ele>
        <time>2022-11-20T09:34:00Z</time>
      </trkpt>
      <trkpt lat="45.97931" lon="1.3864">
        <ele>445.8</ele>
        <time>2022-11-20T09:34:03Z</time>
      </trkpt>
      <trkpt lat="45.9793" lon="1.38638">
        <ele>446.8</ele>
        <time>2022-11-20T09:34:06Z</time>
      </trkpt>
      <trkpt lat="45.97928" lon="1.38636">
        <ele>447.4</ele>
        <time>2022-11-20T09:34:08Z</time>
      </trkpt>
      <trkpt lat="45.97926" lon="1.38636">
        <ele>447.8</ele>
        <time>2022-11-20T09:34:10Z</time>
      </trkpt>
      <trkpt lat="45.97924" lon="1.38635">
        <ele>448.2</ele>
        <time>2022-11-20T09:34:11Z</time>
      </trkpt>
      <trkpt lat="45.97922" lon="1.38635">
        <ele>449.2</ele>
        <time>2022-11-20T09:34:14Z</time>
      </trkpt>
      <trkpt lat="45.97919" lon="1.38635">
        <ele>450.4</ele>
        <time>2022-11-20T09:34:17Z</time>
      </trkpt>
      <trkpt lat="45.97918" lon="1.38634">
        <ele>450.6</ele>
        <time>2022-11-20T09:34:18Z</time>
      </trkpt>
      <trkpt lat="45.97914" lon="1.38635">
        <ele>451.4</ele>
        <time>2022-11-20T09:34:22Z</time>
      </trkpt>
      <trkpt lat="45.97913" lon="1.38636">
        <ele>451.4</ele>
        <time>2022-11-20T09:34:23Z</time>
      </trkpt>
      <trkpt lat="45.9791" lon="1.38637">
        <ele>451.6</ele>
        <time>2022-11-20T09:34:25Z</time>
      </trkpt>
      <trkpt lat="45.97902" lon="1.38645">
        <ele>452.2</ele>
        <time>2022-11-20T09:34:31Z</time>
      </trkpt>
      <trkpt lat="45.97892" lon="1.38659">
        <ele>452</ele>
        <time>2022-11-20T09:34:37Z</time>
      </trkpt>
      <trkpt lat="45.97889" lon="1.38663">
        <ele>452</ele>
        <time>2022-11-20T09:34:38Z</time>
      </trkpt>
      <trkpt lat="45.97881" lon="1.38671">
        <ele>451.8</ele>
        <time>2022-11-20T09:34:40Z</time>
      </trkpt>
      <trkpt lat="45.97875" lon="1.38675">
        <ele>451.6</ele>
        <time>2022-11-20T09:34:42Z</time>
      </trkpt>
      <trkpt lat="45.97862" lon="1.38687">
        <ele>451.6</ele>
        <time>2022-11-20T09:34:47Z</time>
      </trkpt>
      <trkpt lat="45.9785" lon="1.38702">
        <ele>452.6</ele>
        <time>2022-11-20T09:34:53Z</time>
      </trkpt>
      <trkpt lat="45.97848" lon="1.38705">
        <ele>452.8</ele>
        <time>2022-11-20T09:34:54Z</time>
      </trkpt>
      <trkpt lat="45.97836" lon="1.38717">
        <ele>454</ele>
        <time>2022-11-20T09:35:01Z</time>
      </trkpt>
      <trkpt lat="45.9783" lon="1.38723">
        <ele>455.2</ele>
        <time>2022-11-20T09:35:04Z</time>
      </trkpt>
      <trkpt lat="45.97821" lon="1.38733">
        <ele>455.6</ele>
        <time>2022-11-20T09:35:08Z</time>
      </trkpt>
      <trkpt lat="45.97815" lon="1.3874">
        <ele>456.2</ele>
        <time>2022-11-20T09:35:11Z</time>
      </trkpt>
      <trkpt lat="45.97801" lon="1.38752">
        <ele>457.2</ele>
        <time>2022-11-20T09:35:17Z</time>
      </trkpt>
      <trkpt lat="45.97789" lon="1.38759">
        <ele>458.2</ele>
        <time>2022-11-20T09:35:24Z</time>
      </trkpt>
      <trkpt lat="45.97787" lon="1.38759">
        <ele>458.4</ele>
        <time>2022-11-20T09:35:25Z</time>
      </trkpt>
      <trkpt lat="45.97771" lon="1.3877">
        <ele>458.2</ele>
        <time>2022-11-20T09:35:32Z</time>
      </trkpt>
      <trkpt lat="45.97757" lon="1.38781">
        <ele>458.6</ele>
        <time>2022-11-20T09:35:38Z</time>
      </trkpt>
      <trkpt lat="45.97751" lon="1.38797">
        <ele>458.8</ele>
        <time>2022-11-20T09:35:43Z</time>
      </trkpt>
      <trkpt lat="45.97742" lon="1.38815">
        <ele>459.4</ele>
        <time>2022-11-20T09:35:49Z</time>
      </trkpt>
      <trkpt lat="45.97732" lon="1.38827">
        <ele>460.6</ele>
        <time>2022-11-20T09:35:54Z</time>
      </trkpt>
      <trkpt lat="45.97726" lon="1.38837">
        <ele>461.4</ele>
        <time>2022-11-20T09:35:58Z</time>
      </trkpt>
      <trkpt lat="45.97725" lon="1.38839">
        <ele>461.6</ele>
        <time>2022-11-20T09:35:59Z</time>
      </trkpt>
      <trkpt lat="45.97719" lon="1.38848">
        <ele>463</ele>
        <time>2022-11-20T09:36:04Z</time>
      </trkpt>
      <trkpt lat="45.97718" lon="1.38849">
        <ele>463.2</ele>
        <time>2022-11-20T09:36:05Z</time>
      </trkpt>
      <trkpt lat="45.97714" lon="1.38853">
        <ele>464.2</ele>
        <time>2022-11-20T09:36:08Z</time>
      </trkpt>
      <trkpt lat="45.9771" lon="1.38858">
        <ele>465.4</ele>
        <time>2022-11-20T09:36:11Z</time>
      </trkpt>
      <trkpt lat="45.97708" lon="1.3886">
        <ele>465.8</ele>
        <time>2022-11-20T09:36:12Z</time>
      </trkpt>
      <trkpt lat="45.97706" lon="1.38863">
        <ele>466.6</ele>
        <time>2022-11-20T09:36:14Z</time>
      </trkpt>
      <trkpt lat="45.97699" lon="1.38869">
        <ele>467.8</ele>
        <time>2022-11-20T09:36:19Z</time>
      </trkpt>
      <trkpt lat="45.97695" lon="1.38873">
        <ele>468.6</ele>
        <time>2022-11-20T09:36:22Z</time>
      </trkpt>
      <trkpt lat="45.97693" lon="1.38874">
        <ele>468.8</ele>
        <time>2022-11-20T09:36:23Z</time>
      </trkpt>
      <trkpt lat="45.97685" lon="1.3888">
        <ele>469.8</ele>
        <time>2022-11-20T09:36:29Z</time>
      </trkpt>
      <trkpt lat="45.97683" lon="1.38882">
        <ele>470</ele>
        <time>2022-11-20T09:36:30Z</time>
      </trkpt>
      <trkpt lat="45.97681" lon="1.38882">
        <ele>470.4</ele>
        <time>2022-11-20T09:36:31Z</time>
      </trkpt>
      <trkpt lat="45.97678" lon="1.38883">
        <ele>471</ele>
        <time>2022-11-20T09:36:33Z</time>
      </trkpt>
      <trkpt lat="45.97672" lon="1.38886">
        <ele>472</ele>
        <time>2022-11-20T09:36:37Z</time>
      </trkpt>
      <trkpt lat="45.97669" lon="1.38887">
        <ele>472.6</ele>
        <time>2022-11-20T09:36:39Z</time>
      </trkpt>
      <trkpt lat="45.97666" lon="1.38889">
        <ele>473</ele>
        <time>2022-11-20T09:36:42Z</time>
      </trkpt>
      <trkpt lat="45.9766" lon="1.38893">
        <ele>473.8</ele>
        <time>2022-11-20T09:36:47Z</time>
      </trkpt>
      <trkpt lat="45.97659" lon="1.38895">
        <ele>474.2</ele>
        <time>2022-11-20T09:36:49Z</time>
      </trkpt>
      <trkpt lat="45.97659" lon="1.38897">
        <ele>474.4</ele>
        <time>2022-11-20T09:36:51Z</time>
      </trkpt>
      <trkpt lat="45.97658" lon="1.38899">
        <ele>475</ele>
        <time>2022-11-20T09:36:54Z</time>
      </trkpt>
      <trkpt lat="45.97658" lon="1.389">
        <ele>475.2</ele>
        <time>2022-11-20T09:36:55Z</time>
      </trkpt>
      <trkpt lat="45.97657" lon="1.38901">
        <ele>475.4</ele>
        <time>2022-11-20T09:36:56Z</time>
      </trkpt>
      <trkpt lat="45.97654" lon="1.38903">
        <ele>475.8</ele>
        <time>2022-11-20T09:36:58Z</time>
      </trkpt>
      <trkpt lat="45.97649" lon="1.38908">
        <ele>476.2</ele>
        <time>2022-11-20T09:37:02Z</time>
      </trkpt>
      <trkpt lat="45.97646" lon="1.3891">
        <ele>476.6</ele>
        <time>2022-11-20T09:37:04Z</time>
      </trkpt>
      <trkpt lat="45.97646" lon="1.38911">
        <ele>476.8</ele>
        <time>2022-11-20T09:37:05Z</time>
      </trkpt>
      <trkpt lat="45.97644" lon="1.38914">
        <ele>477</ele>
        <time>2022-11-20T09:37:07Z</time>
      </trkpt>
      <trkpt lat="45.97642" lon="1.38918">
        <ele>477.4</ele>
        <time>2022-11-20T09:37:09Z</time>
      </trkpt>
      <trkpt lat="45.9764" lon="1.3892">
        <ele>477.6</ele>
        <time>2022-11-20T09:37:10Z</time>
      </trkpt>
      <trkpt lat="45.97639" lon="1.38922">
        <ele>477.8</ele>
        <time>2022-11-20T09:37:11Z</time>
      </trkpt>
      <trkpt lat="45.97637" lon="1.38925">
        <ele>478.2</ele>
        <time>2022-11-20T09:37:13Z</time>
      </trkpt>
      <trkpt lat="45.97635" lon="1.38929">
        <ele>478.4</ele>
        <time>2022-11-20T09:37:15Z</time>
      </trkpt>
      <trkpt lat="45.97634" lon="1.38932">
        <ele>478.8</ele>
        <time>2022-11-20T09:37:16Z</time>
      </trkpt>
      <trkpt lat="45.97628" lon="1.38941">
        <ele>480</ele>
        <time>2022-11-20T09:37:21Z</time>
      </trkpt>
      <trkpt lat="45.97619" lon="1.38958">
        <ele>481</ele>
        <time>2022-11-20T09:37:31Z</time>
      </trkpt>
      <trkpt lat="45.97612" lon="1.38967">
        <ele>481.6</ele>
        <time>2022-11-20T09:37:37Z</time>
      </trkpt>
      <trkpt lat="45.97601" lon="1.38986">
        <ele>482</ele>
        <time>2022-11-20T09:37:45Z</time>
      </trkpt>
      <trkpt lat="45.97597" lon="1.38991">
        <ele>482.2</ele>
        <time>2022-11-20T09:37:47Z</time>
      </trkpt>
      <trkpt lat="45.97585" lon="1.39005">
        <ele>483.2</ele>
        <time>2022-11-20T09:37:53Z</time>
      </trkpt>
      <trkpt lat="45.9757" lon="1.39024">
        <ele>483.8</ele>
        <time>2022-11-20T09:38:01Z</time>
      </trkpt>
      <trkpt lat="45.97558" lon="1.39034">
        <ele>484.4</ele>
        <time>2022-11-20T09:38:05Z</time>
      </trkpt>
      <trkpt lat="45.97553" lon="1.3904">
        <ele>484.8</ele>
        <time>2022-11-20T09:38:08Z</time>
      </trkpt>
      <trkpt lat="45.97533" lon="1.3905">
        <ele>485.4</ele>
        <time>2022-11-20T09:38:16Z</time>
      </trkpt>
      <trkpt lat="45.97509" lon="1.39067">
        <ele>486</ele>
        <time>2022-11-20T09:38:24Z</time>
      </trkpt>
      <trkpt lat="45.97499" lon="1.39074">
        <ele>486.6</ele>
        <time>2022-11-20T09:38:27Z</time>
      </trkpt>
      <trkpt lat="45.97489" lon="1.39083">
        <ele>487.2</ele>
        <time>2022-11-20T09:38:31Z</time>
      </trkpt>
      <trkpt lat="45.9748" lon="1.39089">
        <ele>487.6</ele>
        <time>2022-11-20T09:38:34Z</time>
      </trkpt>
      <trkpt lat="45.97468" lon="1.39099">
        <ele>488.8</ele>
        <time>2022-11-20T09:38:40Z</time>
      </trkpt>
      <trkpt lat="45.97454" lon="1.39113">
        <ele>489.4</ele>
        <time>2022-11-20T09:38:45Z</time>
      </trkpt>
      <trkpt lat="45.97446" lon="1.39114">
        <ele>489.4</ele>
        <time>2022-11-20T09:38:47Z</time>
      </trkpt>
      <trkpt lat="45.97444" lon="1.39112">
        <ele>489.4</ele>
        <time>2022-11-20T09:38:48Z</time>
      </trkpt>
      <trkpt lat="45.9744" lon="1.391">
        <ele>489.2</ele>
        <time>2022-11-20T09:38:52Z</time>
      </trkpt>
      <trkpt lat="45.9744" lon="1.39092">
        <ele>489.8</ele>
        <time>2022-11-20T09:38:55Z</time>
      </trkpt>
      <trkpt lat="45.97438" lon="1.39085">
        <ele>490.4</ele>
        <time>2022-11-20T09:38:58Z</time>
      </trkpt>
      <trkpt lat="45.97435" lon="1.39077">
        <ele>491</ele>
        <time>2022-11-20T09:39:01Z</time>
      </trkpt>
      <trkpt lat="45.97433" lon="1.39068">
        <ele>492</ele>
        <time>2022-11-20T09:39:05Z</time>
      </trkpt>
      <trkpt lat="45.97432" lon="1.39066">
        <ele>492.4</ele>
        <time>2022-11-20T09:39:06Z</time>
      </trkpt>
      <trkpt lat="45.97428" lon="1.39056">
        <ele>493.2</ele>
        <time>2022-11-20T09:39:10Z</time>
      </trkpt>
      <trkpt lat="45.97428" lon="1.39053">
        <ele>493.4</ele>
        <time>2022-11-20T09:39:11Z</time>
      </trkpt>
      <trkpt lat="45.97431" lon="1.39043">
        <ele>494.2</ele>
        <time>2022-11-20T09:39:16Z</time>
      </trkpt>
      <trkpt lat="45.97432" lon="1.39042">
        <ele>494.4</ele>
        <time>2022-11-20T09:39:17Z</time>
      </trkpt>
      <trkpt lat="45.97435" lon="1.39041">
        <ele>495.2</ele>
        <time>2022-11-20T09:39:20Z</time>
      </trkpt>
      <trkpt lat="45.97438" lon="1.39041">
        <ele>495.8</ele>
        <time>2022-11-20T09:39:22Z</time>
      </trkpt>
      <trkpt lat="45.97441" lon="1.39042">
        <ele>496.6</ele>
        <time>2022-11-20T09:39:25Z</time>
      </trkpt>
      <trkpt lat="45.97447" lon="1.39044">
        <ele>497.6</ele>
        <time>2022-11-20T09:39:30Z</time>
      </trkpt>
      <trkpt lat="45.97449" lon="1.39044">
        <ele>497.8</ele>
        <time>2022-11-20T09:39:31Z</time>
      </trkpt>
      <trkpt lat="45.97457" lon="1.39045">
        <ele>498.8</ele>
        <time>2022-11-20T09:39:36Z</time>
      </trkpt>
      <trkpt lat="45.97468" lon="1.39048">
        <ele>499.6</ele>
        <time>2022-11-20T09:39:44Z</time>
      </trkpt>
      <trkpt lat="45.97479" lon="1.39037">
        <ele>499.8</ele>
        <time>2022-11-20T09:39:51Z</time>
      </trkpt>
      <trkpt lat="45.97481" lon="1.39035">
        <ele>499.8</ele>
        <time>2022-11-20T09:39:52Z</time>
      </trkpt>
      <trkpt lat="45.97486" lon="1.39021">
        <ele>500.2</ele>
        <time>2022-11-20T09:39:57Z</time>
      </trkpt>
      <trkpt lat="45.9749" lon="1.39009">
        <ele>500.8</ele>
        <time>2022-11-20T09:40:01Z</time>
      </trkpt>
      <trkpt lat="45.97492" lon="1.39002">
        <ele>501.8</ele>
        <time>2022-11-20T09:40:04Z</time>
      </trkpt>
      <trkpt lat="45.97492" lon="1.39002">
        <ele>502</ele>
        <time>2022-11-20T09:40:05Z</time>
      </trkpt>
      <trkpt lat="45.97499" lon="1.38987">
        <ele>503</ele>
        <time>2022-11-20T09:40:10Z</time>
      </trkpt>
      <trkpt lat="45.97504" lon="1.38978">
        <ele>503.2</ele>
        <time>2022-11-20T09:40:13Z</time>
      </trkpt>
      <trkpt lat="45.97508" lon="1.38973">
        <ele>504</ele>
        <time>2022-11-20T09:40:16Z</time>
      </trkpt>
      <trkpt lat="45.97513" lon="1.38962">
        <ele>504.6</ele>
        <time>2022-11-20T09:40:21Z</time>
      </trkpt>
      <trkpt lat="45.97516" lon="1.38954">
        <ele>505.2</ele>
        <time>2022-11-20T09:40:25Z</time>
      </trkpt>
      <trkpt lat="45.97519" lon="1.38947">
        <ele>505.4</ele>
        <time>2022-11-20T09:40:28Z</time>
      </trkpt>
      <trkpt lat="45.97528" lon="1.38934">
        <ele>506</ele>
        <time>2022-11-20T09:40:35Z</time>
      </trkpt>
      <trkpt lat="45.97529" lon="1.38932">
        <ele>506.2</ele>
        <time>2022-11-20T09:40:36Z</time>
      </trkpt>
      <trkpt lat="45.97538" lon="1.38918">
        <ele>507.2</ele>
        <time>2022-11-20T09:40:43Z</time>
      </trkpt>
      <trkpt lat="45.97538" lon="1.38917">
        <ele>507.2</ele>
        <time>2022-11-20T09:40:44Z</time>
      </trkpt>
      <trkpt lat="45.9754" lon="1.38915">
        <ele>507.4</ele>
        <time>2022-11-20T09:40:45Z</time>
      </trkpt>
      <trkpt lat="45.97546" lon="1.38908">
        <ele>507.8</ele>
        <time>2022-11-20T09:40:48Z</time>
      </trkpt>
      <trkpt lat="45.97551" lon="1.38898">
        <ele>508.2</ele>
        <time>2022-11-20T09:40:52Z</time>
      </trkpt>
      <trkpt lat="45.97557" lon="1.38889">
        <ele>508.8</ele>
        <time>2022-11-20T09:40:56Z</time>
      </trkpt>
      <trkpt lat="45.97564" lon="1.3888">
        <ele>509.2</ele>
        <time>2022-11-20T09:41:00Z</time>
      </trkpt>
      <trkpt lat="45.97569" lon="1.38868">
        <ele>509.6</ele>
        <time>2022-11-20T09:41:04Z</time>
      </trkpt>
      <trkpt lat="45.97578" lon="1.38845">
        <ele>510.2</ele>
        <time>2022-11-20T09:41:12Z</time>
      </trkpt>
      <trkpt lat="45.9758" lon="1.3884">
        <ele>510.2</ele>
        <time>2022-11-20T09:41:14Z</time>
      </trkpt>
      <trkpt lat="45.97588" lon="1.38824">
        <ele>511.2</ele>
        <time>2022-11-20T09:41:19Z</time>
      </trkpt>
      <trkpt lat="45.97589" lon="1.38817">
        <ele>511.4</ele>
        <time>2022-11-20T09:41:21Z</time>
      </trkpt>
      <trkpt lat="45.97595" lon="1.38797">
        <ele>511.8</ele>
        <time>2022-11-20T09:41:27Z</time>
      </trkpt>
      <trkpt lat="45.97601" lon="1.38776">
        <ele>512.2</ele>
        <time>2022-11-20T09:41:32Z</time>
      </trkpt>
      <trkpt lat="45.97602" lon="1.38772">
        <ele>512.4</ele>
        <time>2022-11-20T09:41:33Z</time>
      </trkpt>
      <trkpt lat="45.97606" lon="1.3875">
        <ele>513.4</ele>
        <time>2022-11-20T09:41:39Z</time>
      </trkpt>
      <trkpt lat="45.97606" lon="1.38746">
        <ele>513.4</ele>
        <time>2022-11-20T09:41:40Z</time>
      </trkpt>
      <trkpt lat="45.97608" lon="1.38729">
        <ele>514</ele>
        <time>2022-11-20T09:41:45Z</time>
      </trkpt>
      <trkpt lat="45.97608" lon="1.38721">
        <ele>514.6</ele>
        <time>2022-11-20T09:41:47Z</time>
      </trkpt>
      <trkpt lat="45.97606" lon="1.38705">
        <ele>515.2</ele>
        <time>2022-11-20T09:41:51Z</time>
      </trkpt>
      <trkpt lat="45.97603" lon="1.38696">
        <ele>515.8</ele>
        <time>2022-11-20T09:41:54Z</time>
      </trkpt>
      <trkpt lat="45.976" lon="1.38684">
        <ele>516.2</ele>
        <time>2022-11-20T09:41:58Z</time>
      </trkpt>
      <trkpt lat="45.97598" lon="1.38677">
        <ele>516.8</ele>
        <time>2022-11-20T09:42:00Z</time>
      </trkpt>
      <trkpt lat="45.97593" lon="1.38666">
        <ele>517.6</ele>
        <time>2022-11-20T09:42:04Z</time>
      </trkpt>
      <trkpt lat="45.97593" lon="1.38662">
        <ele>517.8</ele>
        <time>2022-11-20T09:42:05Z</time>
      </trkpt>
      <trkpt lat="45.97592" lon="1.38653">
        <ele>518.8</ele>
        <time>2022-11-20T09:42:09Z</time>
      </trkpt>
      <trkpt lat="45.97592" lon="1.3865">
        <ele>519</ele>
        <time>2022-11-20T09:42:10Z</time>
      </trkpt>
      <trkpt lat="45.97589" lon="1.38636">
        <ele>520</ele>
        <time>2022-11-20T09:42:15Z</time>
      </trkpt>
      <trkpt lat="45.97587" lon="1.38631">
        <ele>520.4</ele>
        <time>2022-11-20T09:42:17Z</time>
      </trkpt>
      <trkpt lat="45.97586" lon="1.38622">
        <ele>521.2</ele>
        <time>2022-11-20T09:42:21Z</time>
      </trkpt>
      <trkpt lat="45.97587" lon="1.38615">
        <ele>522.2</ele>
        <time>2022-11-20T09:42:24Z</time>
      </trkpt>
      <trkpt lat="45.97587" lon="1.38613">
        <ele>522.4</ele>
        <time>2022-11-20T09:42:25Z</time>
      </trkpt>
      <trkpt lat="45.97583" lon="1.38588">
        <ele>523</ele>
        <time>2022-11-20T09:42:32Z</time>
      </trkpt>
      <trkpt lat="45.97583" lon="1.38582">
        <ele>523.4</ele>
        <time>2022-11-20T09:42:34Z</time>
      </trkpt>
      <trkpt lat="45.97582" lon="1.38567">
        <ele>524.6</ele>
        <time>2022-11-20T09:42:39Z</time>
      </trkpt>
      <trkpt lat="45.97582" lon="1.38563">
        <ele>525</ele>
        <time>2022-11-20T09:42:40Z</time>
      </trkpt>
      <trkpt lat="45.97581" lon="1.38547">
        <ele>525.6</ele>
        <time>2022-11-20T09:42:45Z</time>
      </trkpt>
      <trkpt lat="45.97581" lon="1.3854">
        <ele>526</ele>
        <time>2022-11-20T09:42:48Z</time>
      </trkpt>
      <trkpt lat="45.97581" lon="1.38532">
        <ele>526.8</ele>
        <time>2022-11-20T09:42:51Z</time>
      </trkpt>
      <trkpt lat="45.97582" lon="1.38524">
        <ele>527</ele>
        <time>2022-11-20T09:42:55Z</time>
      </trkpt>
      <trkpt lat="45.97583" lon="1.38518">
        <ele>527.8</ele>
        <time>2022-11-20T09:42:58Z</time>
      </trkpt>
      <trkpt lat="45.97585" lon="1.38513">
        <ele>528.4</ele>
        <time>2022-11-20T09:43:01Z</time>
      </trkpt>
      <trkpt lat="45.97585" lon="1.38511">
        <ele>529</ele>
        <time>2022-11-20T09:43:04Z</time>
      </trkpt>
      <trkpt lat="45.97588" lon="1.38509">
        <ele>529.2</ele>
        <time>2022-11-20T09:43:07Z</time>
      </trkpt>
      <trkpt lat="45.9759" lon="1.38508">
        <ele>529.8</ele>
        <time>2022-11-20T09:43:09Z</time>
      </trkpt>
      <trkpt lat="45.97591" lon="1.38508">
        <ele>530</ele>
        <time>2022-11-20T09:43:10Z</time>
      </trkpt>
      <trkpt lat="45.97594" lon="1.38508">
        <ele>531</ele>
        <time>2022-11-20T09:43:13Z</time>
      </trkpt>
      <trkpt lat="45.97597" lon="1.38509">
        <ele>531.6</ele>
        <time>2022-11-20T09:43:15Z</time>
      </trkpt>
      <trkpt lat="45.97599" lon="1.38509">
        <ele>531.8</ele>
        <time>2022-11-20T09:43:17Z</time>
      </trkpt>
      <trkpt lat="45.97601" lon="1.38507">
        <ele>532.4</ele>
        <time>2022-11-20T09:43:19Z</time>
      </trkpt>
      <trkpt lat="45.97603" lon="1.38504">
        <ele>533</ele>
        <time>2022-11-20T09:43:21Z</time>
      </trkpt>
      <trkpt lat="45.97604" lon="1.385">
        <ele>533.8</ele>
        <time>2022-11-20T09:43:24Z</time>
      </trkpt>
      <trkpt lat="45.97604" lon="1.38498">
        <ele>533.8</ele>
        <time>2022-11-20T09:43:25Z</time>
      </trkpt>
      <trkpt lat="45.97603" lon="1.38495">
        <ele>534.2</ele>
        <time>2022-11-20T09:43:27Z</time>
      </trkpt>
      <trkpt lat="45.97604" lon="1.38491">
        <ele>534.8</ele>
        <time>2022-11-20T09:43:30Z</time>
      </trkpt>
      <trkpt lat="45.97607" lon="1.38481">
        <ele>535.2</ele>
        <time>2022-11-20T09:43:35Z</time>
      </trkpt>
      <trkpt lat="45.97608" lon="1.38477">
        <ele>536</ele>
        <time>2022-11-20T09:43:37Z</time>
      </trkpt>
      <trkpt lat="45.97611" lon="1.38465">
        <ele>537</ele>
        <time>2022-11-20T09:43:42Z</time>
      </trkpt>
      <trkpt lat="45.97614" lon="1.38453">
        <ele>538</ele>
        <time>2022-11-20T09:43:49Z</time>
      </trkpt>
      <trkpt lat="45.97615" lon="1.38452">
        <ele>538.4</ele>
        <time>2022-11-20T09:43:50Z</time>
      </trkpt>
      <trkpt lat="45.97618" lon="1.38438">
        <ele>539.4</ele>
        <time>2022-11-20T09:43:57Z</time>
      </trkpt>
      <trkpt lat="45.97622" lon="1.38427">
        <ele>540.4</ele>
        <time>2022-11-20T09:44:03Z</time>
      </trkpt>
      <trkpt lat="45.97622" lon="1.38427">
        <ele>540.6</ele>
        <time>2022-11-20T09:44:04Z</time>
      </trkpt>
      <trkpt lat="45.97625" lon="1.38427">
        <ele>541.2</ele>
        <time>2022-11-20T09:44:07Z</time>
      </trkpt>
      <trkpt lat="45.97626" lon="1.3843">
        <ele>541.6</ele>
        <time>2022-11-20T09:44:09Z</time>
      </trkpt>
      <trkpt lat="45.97625" lon="1.38431">
        <ele>541.6</ele>
        <time>2022-11-20T09:44:11Z</time>
      </trkpt>
      <trkpt lat="45.97626" lon="1.38434">
        <ele>542.6</ele>
        <time>2022-11-20T09:44:15Z</time>
      </trkpt>
      <trkpt lat="45.97626" lon="1.38435">
        <ele>542.8</ele>
        <time>2022-11-20T09:44:16Z</time>
      </trkpt>
      <trkpt lat="45.97627" lon="1.38435">
        <ele>543</ele>
        <time>2022-11-20T09:44:17Z</time>
      </trkpt>
      <trkpt lat="45.97628" lon="1.38438">
        <ele>543.2</ele>
        <time>2022-11-20T09:44:20Z</time>
      </trkpt>
      <trkpt lat="45.97629" lon="1.3844">
        <ele>543.6</ele>
        <time>2022-11-20T09:44:22Z</time>
      </trkpt>
      <trkpt lat="45.9763" lon="1.38442">
        <ele>543.8</ele>
        <time>2022-11-20T09:44:23Z</time>
      </trkpt>
      <trkpt lat="45.9763" lon="1.38443">
        <ele>543.8</ele>
        <time>2022-11-20T09:44:24Z</time>
      </trkpt>
      <trkpt lat="45.97632" lon="1.38447">
        <ele>544.2</ele>
        <time>2022-11-20T09:44:28Z</time>
      </trkpt>
      <trkpt lat="45.97632" lon="1.38447">
        <ele>544.6</ele>
        <time>2022-11-20T09:44:30Z</time>
      </trkpt>
      <trkpt lat="45.97633" lon="1.38449">
        <ele>544.8</ele>
        <time>2022-11-20T09:44:31Z</time>
      </trkpt>
      <trkpt lat="45.97635" lon="1.38449">
        <ele>545</ele>
        <time>2022-11-20T09:44:33Z</time>
      </trkpt>
      <trkpt lat="45.97639" lon="1.38451">
        <ele>545.6</ele>
        <time>2022-11-20T09:44:37Z</time>
      </trkpt>
      <trkpt lat="45.97644" lon="1.38454">
        <ele>545.8</ele>
        <time>2022-11-20T09:44:41Z</time>
      </trkpt>
      <trkpt lat="45.97645" lon="1.38454">
        <ele>545.8</ele>
        <time>2022-11-20T09:44:42Z</time>
      </trkpt>
      <trkpt lat="45.9765" lon="1.38453">
        <ele>546.2</ele>
        <time>2022-11-20T09:44:45Z</time>
      </trkpt>
      <trkpt lat="45.97653" lon="1.38451">
        <ele>546.2</ele>
        <time>2022-11-20T09:44:47Z</time>
      </trkpt>
      <trkpt lat="45.97655" lon="1.38448">
        <ele>547</ele>
        <time>2022-11-20T09:44:49Z</time>
      </trkpt>
      <trkpt lat="45.97657" lon="1.38445">
        <ele>547.4</ele>
        <time>2022-11-20T09:44:51Z</time>
      </trkpt>
      <trkpt lat="45.97661" lon="1.38434">
        <ele>548.2</ele>
        <time>2022-11-20T09:44:58Z</time>
      </trkpt>
      <trkpt lat="45.97663" lon="1.38431">
        <ele>548.8</ele>
        <time>2022-11-20T09:45:00Z</time>
      </trkpt>
      <trkpt lat="45.97665" lon="1.38427">
        <ele>549.4</ele>
        <time>2022-11-20T09:45:02Z</time>
      </trkpt>
      <trkpt lat="45.97668" lon="1.38418">
        <ele>550</ele>
        <time>2022-11-20T09:45:07Z</time>
      </trkpt>
      <trkpt lat="45.9767" lon="1.38412">
        <ele>550.6</ele>
        <time>2022-11-20T09:45:10Z</time>
      </trkpt>
      <trkpt lat="45.97673" lon="1.38405">
        <ele>551.6</ele>
        <time>2022-11-20T09:45:14Z</time>
      </trkpt>
      <trkpt lat="45.97675" lon="1.38401">
        <ele>552</ele>
        <time>2022-11-20T09:45:16Z</time>
      </trkpt>
      <trkpt lat="45.97681" lon="1.38392">
        <ele>552.6</ele>
        <time>2022-11-20T09:45:20Z</time>
      </trkpt>
      <trkpt lat="45.97684" lon="1.38388">
        <ele>553.4</ele>
        <time>2022-11-20T09:45:23Z</time>
      </trkpt>
      <trkpt lat="45.97686" lon="1.38385">
        <ele>553.6</ele>
        <time>2022-11-20T09:45:25Z</time>
      </trkpt>
      <trkpt lat="45.97689" lon="1.38379">
        <ele>554.6</ele>
        <time>2022-11-20T09:45:30Z</time>
      </trkpt>
      <trkpt lat="45.9769" lon="1.38377">
        <ele>554.8</ele>
        <time>2022-11-20T09:45:31Z</time>
      </trkpt>
      <trkpt lat="45.97693" lon="1.3837">
        <ele>555.8</ele>
        <time>2022-11-20T09:45:36Z</time>
      </trkpt>
      <trkpt lat="45.97694" lon="1.38366">
        <ele>556.6</ele>
        <time>2022-11-20T09:45:39Z</time>
      </trkpt>
      <trkpt lat="45.97695" lon="1.38364">
        <ele>556.8</ele>
        <time>2022-11-20T09:45:40Z</time>
      </trkpt>
      <trkpt lat="45.97699" lon="1.38356">
        <ele>558</ele>
        <time>2022-11-20T09:45:46Z</time>
      </trkpt>
      <trkpt lat="45.977" lon="1.38353">
        <ele>558.4</ele>
        <time>2022-11-20T09:45:48Z</time>
      </trkpt>
      <trkpt lat="45.97702" lon="1.38349">
        <ele>559</ele>
        <time>2022-11-20T09:45:51Z</time>
      </trkpt>
      <trkpt lat="45.97702" lon="1.38345">
        <ele>559.2</ele>
        <time>2022-11-20T09:45:53Z</time>
      </trkpt>
      <trkpt lat="45.97704" lon="1.38337">
        <ele>560</ele>
        <time>2022-11-20T09:45:58Z</time>
      </trkpt>
      <trkpt lat="45.97707" lon="1.38325">
        <ele>561</ele>
        <time>2022-11-20T09:46:05Z</time>
      </trkpt>
      <trkpt lat="45.97708" lon="1.3832">
        <ele>561.2</ele>
        <time>2022-11-20T09:46:07Z</time>
      </trkpt>
      <trkpt lat="45.9771" lon="1.38306">
        <ele>562.2</ele>
        <time>2022-11-20T09:46:14Z</time>
      </trkpt>
      <trkpt lat="45.97712" lon="1.383">
        <ele>562.8</ele>
        <time>2022-11-20T09:46:17Z</time>
      </trkpt>
      <trkpt lat="45.97712" lon="1.38294">
        <ele>563.2</ele>
        <time>2022-11-20T09:46:20Z</time>
      </trkpt>
      <trkpt lat="45.97717" lon="1.38279">
        <ele>564.4</ele>
        <time>2022-11-20T09:46:28Z</time>
      </trkpt>
      <trkpt lat="45.97719" lon="1.38275">
        <ele>564.8</ele>
        <time>2022-11-20T09:46:30Z</time>
      </trkpt>
      <trkpt lat="45.97721" lon="1.38267">
        <ele>565.4</ele>
        <time>2022-11-20T09:46:34Z</time>
      </trkpt>
      <trkpt lat="45.97725" lon="1.38252">
        <ele>566.6</ele>
        <time>2022-11-20T09:46:42Z</time>
      </trkpt>
      <trkpt lat="45.97726" lon="1.38249">
        <ele>566.6</ele>
        <time>2022-11-20T09:46:43Z</time>
      </trkpt>
      <trkpt lat="45.9773" lon="1.38227">
        <ele>567.6</ele>
        <time>2022-11-20T09:46:53Z</time>
      </trkpt>
      <trkpt lat="45.9773" lon="1.38222">
        <ele>567.8</ele>
        <time>2022-11-20T09:46:55Z</time>
      </trkpt>
      <trkpt lat="45.97734" lon="1.38189">
        <ele>568.8</ele>
        <time>2022-11-20T09:47:08Z</time>
      </trkpt>
      <trkpt lat="45.97737" lon="1.38171">
        <ele>569.8</ele>
        <time>2022-11-20T09:47:14Z</time>
      </trkpt>
      <trkpt lat="45.97738" lon="1.38163">
        <ele>570.4</ele>
        <time>2022-11-20T09:47:17Z</time>
      </trkpt>
      <trkpt lat="45.97738" lon="1.38152">
        <ele>571</ele>
        <time>2022-11-20T09:47:21Z</time>
      </trkpt>
      <trkpt lat="45.97738" lon="1.38145">
        <ele>571.4</ele>
        <time>2022-11-20T09:47:24Z</time>
      </trkpt>
      <trkpt lat="45.97739" lon="1.38123">
        <ele>572</ele>
        <time>2022-11-20T09:47:32Z</time>
      </trkpt>
      <trkpt lat="45.9774" lon="1.381">
        <ele>572.8</ele>
        <time>2022-11-20T09:47:40Z</time>
      </trkpt>
      <trkpt lat="45.9774" lon="1.38095">
        <ele>573.2</ele>
        <time>2022-11-20T09:47:42Z</time>
      </trkpt>
      <trkpt lat="45.97741" lon="1.38084">
        <ele>574.2</ele>
        <time>2022-11-20T09:47:47Z</time>
      </trkpt>
      <trkpt lat="45.97735" lon="1.3806">
        <ele>574.8</ele>
        <time>2022-11-20T09:47:52Z</time>
      </trkpt>
      <trkpt lat="45.97735" lon="1.38055">
        <ele>575.2</ele>
        <time>2022-11-20T09:47:54Z</time>
      </trkpt>
      <trkpt lat="45.97735" lon="1.3804">
        <ele>576</ele>
        <time>2022-11-20T09:47:58Z</time>
      </trkpt>
      <trkpt lat="45.97734" lon="1.38033">
        <ele>576.4</ele>
        <time>2022-11-20T09:48:00Z</time>
      </trkpt>
      <trkpt lat="45.97734" lon="1.38021">
        <ele>576.8</ele>
        <time>2022-11-20T09:48:04Z</time>
      </trkpt>
      <trkpt lat="45.97733" lon="1.38008">
        <ele>577.4</ele>
        <time>2022-11-20T09:48:08Z</time>
      </trkpt>
      <trkpt lat="45.97732" lon="1.37998">
        <ele>577.8</ele>
        <time>2022-11-20T09:48:11Z</time>
      </trkpt>
      <trkpt lat="45.97732" lon="1.37984">
        <ele>578.4</ele>
        <time>2022-11-20T09:48:16Z</time>
      </trkpt>
      <trkpt lat="45.97732" lon="1.37979">
        <ele>578.6</ele>
        <time>2022-11-20T09:48:18Z</time>
      </trkpt>
      <trkpt lat="45.97733" lon="1.3796">
        <ele>579</ele>
        <time>2022-11-20T09:48:24Z</time>
      </trkpt>
      <trkpt lat="45.97731" lon="1.37936">
        <ele>579.4</ele>
        <time>2022-11-20T09:48:31Z</time>
      </trkpt>
      <trkpt lat="45.9773" lon="1.37927">
        <ele>579.6</ele>
        <time>2022-11-20T09:48:34Z</time>
      </trkpt>
      <trkpt lat="45.97729" lon="1.37917">
        <ele>579.6</ele>
        <time>2022-11-20T09:48:37Z</time>
      </trkpt>
      <trkpt lat="45.97729" lon="1.37894">
        <ele>579.4</ele>
        <time>2022-11-20T09:48:43Z</time>
      </trkpt>
      <trkpt lat="45.97728" lon="1.37876">
        <ele>578.8</ele>
        <time>2022-11-20T09:48:48Z</time>
      </trkpt>
      <trkpt lat="45.97727" lon="1.37873">
        <ele>578.8</ele>
        <time>2022-11-20T09:48:49Z</time>
      </trkpt>
      <trkpt lat="45.97722" lon="1.37849">
        <ele>579.4</ele>
        <time>2022-11-20T09:48:53Z</time>
      </trkpt>
      <trkpt lat="45.97715" lon="1.3781">
        <ele>579.8</ele>
        <time>2022-11-20T09:48:58Z</time>
      </trkpt>
      <trkpt lat="45.97714" lon="1.37775">
        <ele>580.6</ele>
        <time>2022-11-20T09:49:03Z</time>
      </trkpt>
      <trkpt lat="45.97715" lon="1.37757">
        <ele>581</ele>
        <time>2022-11-20T09:49:06Z</time>
      </trkpt>
      <trkpt lat="45.97716" lon="1.37749">
        <ele>581.4</ele>
        <time>2022-11-20T09:49:08Z</time>
      </trkpt>
      <trkpt lat="45.9772" lon="1.3774">
        <ele>581.2</ele>
        <time>2022-11-20T09:49:11Z</time>
      </trkpt>
      <trkpt lat="45.97721" lon="1.37737">
        <ele>580.8</ele>
        <time>2022-11-20T09:49:12Z</time>
      </trkpt>
      <trkpt lat="45.97729" lon="1.37722">
        <ele>580.4</ele>
        <time>2022-11-20T09:49:17Z</time>
      </trkpt>
      <trkpt lat="45.9773" lon="1.37718">
        <ele>580.4</ele>
        <time>2022-11-20T09:49:18Z</time>
      </trkpt>
      <trkpt lat="45.97736" lon="1.37704">
        <ele>580.4</ele>
        <time>2022-11-20T09:49:21Z</time>
      </trkpt>
      <trkpt lat="45.97745" lon="1.37686">
        <ele>579.4</ele>
        <time>2022-11-20T09:49:24Z</time>
      </trkpt>
      <trkpt lat="45.97754" lon="1.37678">
        <ele>578.8</ele>
        <time>2022-11-20T09:49:26Z</time>
      </trkpt>
      <trkpt lat="45.97762" lon="1.37669">
        <ele>578.2</ele>
        <time>2022-11-20T09:49:28Z</time>
      </trkpt>
      <trkpt lat="45.97765" lon="1.37664">
        <ele>577.8</ele>
        <time>2022-11-20T09:49:29Z</time>
      </trkpt>
      <trkpt lat="45.9777" lon="1.37645">
        <ele>577</ele>
        <time>2022-11-20T09:49:31Z</time>
      </trkpt>
      <trkpt lat="45.97779" lon="1.37627">
        <ele>576.4</ele>
        <time>2022-11-20T09:49:33Z</time>
      </trkpt>
      <trkpt lat="45.97782" lon="1.37614">
        <ele>576.2</ele>
        <time>2022-11-20T09:49:34Z</time>
      </trkpt>
      <trkpt lat="45.97785" lon="1.37603">
        <ele>575.8</ele>
        <time>2022-11-20T09:49:35Z</time>
      </trkpt>
      <trkpt lat="45.97788" lon="1.37592">
        <ele>575.4</ele>
        <time>2022-11-20T09:49:36Z</time>
      </trkpt>
      <trkpt lat="45.97792" lon="1.37582">
        <ele>574.8</ele>
        <time>2022-11-20T09:49:37Z</time>
      </trkpt>
      <trkpt lat="45.97795" lon="1.37563">
        <ele>573.6</ele>
        <time>2022-11-20T09:49:39Z</time>
      </trkpt>
      <trkpt lat="45.97801" lon="1.37548">
        <ele>573</ele>
        <time>2022-11-20T09:49:41Z</time>
      </trkpt>
      <trkpt lat="45.97809" lon="1.37534">
        <ele>572.8</ele>
        <time>2022-11-20T09:49:43Z</time>
      </trkpt>
      <trkpt lat="45.97812" lon="1.37528">
        <ele>572.6</ele>
        <time>2022-11-20T09:49:44Z</time>
      </trkpt>
      <trkpt lat="45.97816" lon="1.37516">
        <ele>572.2</ele>
        <time>2022-11-20T09:49:46Z</time>
      </trkpt>
      <trkpt lat="45.97833" lon="1.37472">
        <ele>571.8</ele>
        <time>2022-11-20T09:49:51Z</time>
      </trkpt>
      <trkpt lat="45.97842" lon="1.37447">
        <ele>571.8</ele>
        <time>2022-11-20T09:49:54Z</time>
      </trkpt>
      <trkpt lat="45.97848" lon="1.37433">
        <ele>571.4</ele>
        <time>2022-11-20T09:49:56Z</time>
      </trkpt>
      <trkpt lat="45.97852" lon="1.37429">
        <ele>571.2</ele>
        <time>2022-11-20T09:49:57Z</time>
      </trkpt>
      <trkpt lat="45.97862" lon="1.37426">
        <ele>570.8</ele>
        <time>2022-11-20T09:50:00Z</time>
      </trkpt>
      <trkpt lat="45.97865" lon="1.37426">
        <ele>570.6</ele>
        <time>2022-11-20T09:50:01Z</time>
      </trkpt>
      <trkpt lat="45.97875" lon="1.37431">
        <ele>570.6</ele>
        <time>2022-11-20T09:50:05Z</time>
      </trkpt>
      <trkpt lat="45.97877" lon="1.37431">
        <ele>570.2</ele>
        <time>2022-11-20T09:50:06Z</time>
      </trkpt>
      <trkpt lat="45.97882" lon="1.37429">
        <ele>568.8</ele>
        <time>2022-11-20T09:50:08Z</time>
      </trkpt>
      <trkpt lat="45.97885" lon="1.37429">
        <ele>568</ele>
        <time>2022-11-20T09:50:09Z</time>
      </trkpt>
      <trkpt lat="45.97889" lon="1.37428">
        <ele>567.4</ele>
        <time>2022-11-20T09:50:10Z</time>
      </trkpt>
      <trkpt lat="45.97894" lon="1.37429">
        <ele>566.4</ele>
        <time>2022-11-20T09:50:11Z</time>
      </trkpt>
      <trkpt lat="45.97899" lon="1.37431">
        <ele>565.4</ele>
        <time>2022-11-20T09:50:12Z</time>
      </trkpt>
      <trkpt lat="45.9791" lon="1.37436">
        <ele>564.4</ele>
        <time>2022-11-20T09:50:14Z</time>
      </trkpt>
      <trkpt lat="45.97917" lon="1.37439">
        <ele>563.8</ele>
        <time>2022-11-20T09:50:15Z</time>
      </trkpt>
      <trkpt lat="45.97928" lon="1.37442">
        <ele>563.2</ele>
        <time>2022-11-20T09:50:16Z</time>
      </trkpt>
      <trkpt lat="45.97943" lon="1.3745">
        <ele>562.6</ele>
        <time>2022-11-20T09:50:18Z</time>
      </trkpt>
      <trkpt lat="45.97949" lon="1.37453">
        <ele>562</ele>
        <time>2022-11-20T09:50:19Z</time>
      </trkpt>
      <trkpt lat="45.97961" lon="1.37457">
        <ele>560.4</ele>
        <time>2022-11-20T09:50:21Z</time>
      </trkpt>
      <trkpt lat="45.97967" lon="1.37458">
        <ele>559.4</ele>
        <time>2022-11-20T09:50:22Z</time>
      </trkpt>
      <trkpt lat="45.97973" lon="1.37457">
        <ele>558.8</ele>
        <time>2022-11-20T09:50:23Z</time>
      </trkpt>
      <trkpt lat="45.97979" lon="1.37458">
        <ele>558.4</ele>
        <time>2022-11-20T09:50:24Z</time>
      </trkpt>
      <trkpt lat="45.98001" lon="1.37461">
        <ele>557.8</ele>
        <time>2022-11-20T09:50:27Z</time>
      </trkpt>
      <trkpt lat="45.98014" lon="1.37462">
        <ele>557.4</ele>
        <time>2022-11-20T09:50:29Z</time>
      </trkpt>
      <trkpt lat="45.98037" lon="1.37463">
        <ele>556.6</ele>
        <time>2022-11-20T09:50:32Z</time>
      </trkpt>
      <trkpt lat="45.9805" lon="1.37466">
        <ele>556.4</ele>
        <time>2022-11-20T09:50:34Z</time>
      </trkpt>
      <trkpt lat="45.98076" lon="1.37475">
        <ele>556.6</ele>
        <time>2022-11-20T09:50:39Z</time>
      </trkpt>
      <trkpt lat="45.98086" lon="1.37476">
        <ele>557</ele>
        <time>2022-11-20T09:50:42Z</time>
      </trkpt>
      <trkpt lat="45.98092" lon="1.37477">
        <ele>557</ele>
        <time>2022-11-20T09:50:44Z</time>
      </trkpt>
      <trkpt lat="45.98108" lon="1.37478">
        <ele>558</ele>
        <time>2022-11-20T09:50:49Z</time>
      </trkpt>
      <trkpt lat="45.98112" lon="1.37479">
        <ele>558.2</ele>
        <time>2022-11-20T09:50:50Z</time>
      </trkpt>
      <trkpt lat="45.98132" lon="1.37477">
        <ele>559</ele>
        <time>2022-11-20T09:50:54Z</time>
      </trkpt>
      <trkpt lat="45.9815" lon="1.37475">
        <ele>559.8</ele>
        <time>2022-11-20T09:50:58Z</time>
      </trkpt>
      <trkpt lat="45.98152" lon="1.37474">
        <ele>560.2</ele>
        <time>2022-11-20T09:50:59Z</time>
      </trkpt>
      <trkpt lat="45.98167" lon="1.37472">
        <ele>561.2</ele>
        <time>2022-11-20T09:51:04Z</time>
      </trkpt>
      <trkpt lat="45.98178" lon="1.3747">
        <ele>562.4</ele>
        <time>2022-11-20T09:51:10Z</time>
      </trkpt>
      <trkpt lat="45.98188" lon="1.3747">
        <ele>563.4</ele>
        <time>2022-11-20T09:51:16Z</time>
      </trkpt>
      <trkpt lat="45.98194" lon="1.3747">
        <ele>564.2</ele>
        <time>2022-11-20T09:51:19Z</time>
      </trkpt>
      <trkpt lat="45.98201" lon="1.37473">
        <ele>564.6</ele>
        <time>2022-11-20T09:51:22Z</time>
      </trkpt>
      <trkpt lat="45.98213" lon="1.37475">
        <ele>564.8</ele>
        <time>2022-11-20T09:51:27Z</time>
      </trkpt>
      <trkpt lat="45.98235" lon="1.3748">
        <ele>565.2</ele>
        <time>2022-11-20T09:51:34Z</time>
      </trkpt>
      <trkpt lat="45.98244" lon="1.37482">
        <ele>563.8</ele>
        <time>2022-11-20T09:51:36Z</time>
      </trkpt>
      <trkpt lat="45.98248" lon="1.37482">
        <ele>563.4</ele>
        <time>2022-11-20T09:51:37Z</time>
      </trkpt>
      <trkpt lat="45.98254" lon="1.3748">
        <ele>562.8</ele>
        <time>2022-11-20T09:51:38Z</time>
      </trkpt>
      <trkpt lat="45.98259" lon="1.37478">
        <ele>562.4</ele>
        <time>2022-11-20T09:51:39Z</time>
      </trkpt>
      <trkpt lat="45.98263" lon="1.37477">
        <ele>562.2</ele>
        <time>2022-11-20T09:51:40Z</time>
      </trkpt>
      <trkpt lat="45.9827" lon="1.37477">
        <ele>560.6</ele>
        <time>2022-11-20T09:51:42Z</time>
      </trkpt>
      <trkpt lat="45.98274" lon="1.37479">
        <ele>559.8</ele>
        <time>2022-11-20T09:51:43Z</time>
      </trkpt>
      <trkpt lat="45.98277" lon="1.37482">
        <ele>559.2</ele>
        <time>2022-11-20T09:51:44Z</time>
      </trkpt>
      <trkpt lat="45.9828" lon="1.37486">
        <ele>558.6</ele>
        <time>2022-11-20T09:51:45Z</time>
      </trkpt>
      <trkpt lat="45.98283" lon="1.3749">
        <ele>557.8</ele>
        <time>2022-11-20T09:51:46Z</time>
      </trkpt>
      <trkpt lat="45.98285" lon="1.37494">
        <ele>556.8</ele>
        <time>2022-11-20T09:51:47Z</time>
      </trkpt>
      <trkpt lat="45.98287" lon="1.37499">
        <ele>556.2</ele>
        <time>2022-11-20T09:51:48Z</time>
      </trkpt>
      <trkpt lat="45.98289" lon="1.37503">
        <ele>555.6</ele>
        <time>2022-11-20T09:51:49Z</time>
      </trkpt>
      <trkpt lat="45.98292" lon="1.37509">
        <ele>555.2</ele>
        <time>2022-11-20T09:51:50Z</time>
      </trkpt>
      <trkpt lat="45.98294" lon="1.37518">
        <ele>553.4</ele>
        <time>2022-11-20T09:51:52Z</time>
      </trkpt>
      <trkpt lat="45.98295" lon="1.37522">
        <ele>552</ele>
        <time>2022-11-20T09:51:53Z</time>
      </trkpt>
      <trkpt lat="45.98295" lon="1.37526">
        <ele>551</ele>
        <time>2022-11-20T09:51:54Z</time>
      </trkpt>
      <trkpt lat="45.98295" lon="1.37531">
        <ele>549.4</ele>
        <time>2022-11-20T09:51:56Z</time>
      </trkpt>
      <trkpt lat="45.98296" lon="1.37531">
        <ele>549.2</ele>
        <time>2022-11-20T09:51:57Z</time>
      </trkpt>
      <trkpt lat="45.98302" lon="1.37528">
        <ele>548.4</ele>
        <time>2022-11-20T09:52:01Z</time>
      </trkpt>
      <trkpt lat="45.98306" lon="1.37522">
        <ele>548</ele>
        <time>2022-11-20T09:52:03Z</time>
      </trkpt>
      <trkpt lat="45.98308" lon="1.37519">
        <ele>547.6</ele>
        <time>2022-11-20T09:52:04Z</time>
      </trkpt>
      <trkpt lat="45.9831" lon="1.37514">
        <ele>546.8</ele>
        <time>2022-11-20T09:52:05Z</time>
      </trkpt>
      <trkpt lat="45.98313" lon="1.37511">
        <ele>545.6</ele>
        <time>2022-11-20T09:52:06Z</time>
      </trkpt>
      <trkpt lat="45.98315" lon="1.37507">
        <ele>544.6</ele>
        <time>2022-11-20T09:52:07Z</time>
      </trkpt>
      <trkpt lat="45.98317" lon="1.37505">
        <ele>543.8</ele>
        <time>2022-11-20T09:52:08Z</time>
      </trkpt>
      <trkpt lat="45.98319" lon="1.37504">
        <ele>543</ele>
        <time>2022-11-20T09:52:09Z</time>
      </trkpt>
      <trkpt lat="45.98321" lon="1.37505">
        <ele>542</ele>
        <time>2022-11-20T09:52:10Z</time>
      </trkpt>
      <trkpt lat="45.98323" lon="1.37506">
        <ele>541.6</ele>
        <time>2022-11-20T09:52:11Z</time>
      </trkpt>
      <trkpt lat="45.98326" lon="1.37512">
        <ele>540.6</ele>
        <time>2022-11-20T09:52:14Z</time>
      </trkpt>
      <trkpt lat="45.98327" lon="1.37516">
        <ele>540</ele>
        <time>2022-11-20T09:52:15Z</time>
      </trkpt>
      <trkpt lat="45.98329" lon="1.3752">
        <ele>539.4</ele>
        <time>2022-11-20T09:52:16Z</time>
      </trkpt>
      <trkpt lat="45.98332" lon="1.37528">
        <ele>538.2</ele>
        <time>2022-11-20T09:52:18Z</time>
      </trkpt>
      <trkpt lat="45.98333" lon="1.37537">
        <ele>537</ele>
        <time>2022-11-20T09:52:20Z</time>
      </trkpt>
      <trkpt lat="45.98332" lon="1.37545">
        <ele>535.4</ele>
        <time>2022-11-20T09:52:22Z</time>
      </trkpt>
      <trkpt lat="45.9833" lon="1.37554">
        <ele>533.6</ele>
        <time>2022-11-20T09:52:24Z</time>
      </trkpt>
      <trkpt lat="45.98328" lon="1.37557">
        <ele>532.8</ele>
        <time>2022-11-20T09:52:25Z</time>
      </trkpt>
      <trkpt lat="45.98327" lon="1.37561">
        <ele>532.2</ele>
        <time>2022-11-20T09:52:26Z</time>
      </trkpt>
      <trkpt lat="45.98326" lon="1.37565">
        <ele>531.6</ele>
        <time>2022-11-20T09:52:27Z</time>
      </trkpt>
      <trkpt lat="45.98325" lon="1.37569">
        <ele>530.2</ele>
        <time>2022-11-20T09:52:28Z</time>
      </trkpt>
      <trkpt lat="45.98324" lon="1.37579">
        <ele>529</ele>
        <time>2022-11-20T09:52:30Z</time>
      </trkpt>
      <trkpt lat="45.98323" lon="1.37585">
        <ele>528</ele>
        <time>2022-11-20T09:52:31Z</time>
      </trkpt>
      <trkpt lat="45.98324" lon="1.37592">
        <ele>526.6</ele>
        <time>2022-11-20T09:52:32Z</time>
      </trkpt>
      <trkpt lat="45.98324" lon="1.37606">
        <ele>524</ele>
        <time>2022-11-20T09:52:34Z</time>
      </trkpt>
      <trkpt lat="45.98323" lon="1.37612">
        <ele>523.4</ele>
        <time>2022-11-20T09:52:35Z</time>
      </trkpt>
      <trkpt lat="45.98321" lon="1.37617">
        <ele>522.4</ele>
        <time>2022-11-20T09:52:36Z</time>
      </trkpt>
      <trkpt lat="45.98317" lon="1.37622">
        <ele>522</ele>
        <time>2022-11-20T09:52:37Z</time>
      </trkpt>
      <trkpt lat="45.98314" lon="1.37628">
        <ele>521.2</ele>
        <time>2022-11-20T09:52:38Z</time>
      </trkpt>
      <trkpt lat="45.9831" lon="1.37636">
        <ele>519.6</ele>
        <time>2022-11-20T09:52:40Z</time>
      </trkpt>
      <trkpt lat="45.98306" lon="1.37644">
        <ele>518.2</ele>
        <time>2022-11-20T09:52:42Z</time>
      </trkpt>
      <trkpt lat="45.98298" lon="1.37657">
        <ele>516.8</ele>
        <time>2022-11-20T09:52:45Z</time>
      </trkpt>
      <trkpt lat="45.98292" lon="1.37666">
        <ele>515.2</ele>
        <time>2022-11-20T09:52:47Z</time>
      </trkpt>
      <trkpt lat="45.98291" lon="1.37672">
        <ele>514.6</ele>
        <time>2022-11-20T09:52:48Z</time>
      </trkpt>
      <trkpt lat="45.98288" lon="1.37679">
        <ele>513.6</ele>
        <time>2022-11-20T09:52:49Z</time>
      </trkpt>
      <trkpt lat="45.98286" lon="1.37685">
        <ele>512.6</ele>
        <time>2022-11-20T09:52:50Z</time>
      </trkpt>
      <trkpt lat="45.98284" lon="1.37691">
        <ele>511.8</ele>
        <time>2022-11-20T09:52:51Z</time>
      </trkpt>
      <trkpt lat="45.98281" lon="1.37698">
        <ele>511.4</ele>
        <time>2022-11-20T09:52:52Z</time>
      </trkpt>
      <trkpt lat="45.98276" lon="1.37705">
        <ele>510</ele>
        <time>2022-11-20T09:52:54Z</time>
      </trkpt>
      <trkpt lat="45.9827" lon="1.37715">
        <ele>508.2</ele>
        <time>2022-11-20T09:52:56Z</time>
      </trkpt>
      <trkpt lat="45.98265" lon="1.3772">
        <ele>507.4</ele>
        <time>2022-11-20T09:52:57Z</time>
      </trkpt>
      <trkpt lat="45.98263" lon="1.37724">
        <ele>506.6</ele>
        <time>2022-11-20T09:52:58Z</time>
      </trkpt>
      <trkpt lat="45.98259" lon="1.37729">
        <ele>505.8</ele>
        <time>2022-11-20T09:52:59Z</time>
      </trkpt>
      <trkpt lat="45.98256" lon="1.37733">
        <ele>504.4</ele>
        <time>2022-11-20T09:53:00Z</time>
      </trkpt>
      <trkpt lat="45.9825" lon="1.37742">
        <ele>503</ele>
        <time>2022-11-20T09:53:02Z</time>
      </trkpt>
      <trkpt lat="45.98245" lon="1.37749">
        <ele>501.2</ele>
        <time>2022-11-20T09:53:04Z</time>
      </trkpt>
      <trkpt lat="45.98237" lon="1.37759">
        <ele>499.2</ele>
        <time>2022-11-20T09:53:06Z</time>
      </trkpt>
      <trkpt lat="45.98231" lon="1.37763">
        <ele>497</ele>
        <time>2022-11-20T09:53:08Z</time>
      </trkpt>
      <trkpt lat="45.98228" lon="1.37764">
        <ele>495.6</ele>
        <time>2022-11-20T09:53:09Z</time>
      </trkpt>
      <trkpt lat="45.9822" lon="1.3777">
        <ele>494.4</ele>
        <time>2022-11-20T09:53:11Z</time>
      </trkpt>
      <trkpt lat="45.98212" lon="1.37781">
        <ele>493</ele>
        <time>2022-11-20T09:53:13Z</time>
      </trkpt>
      <trkpt lat="45.98211" lon="1.37783">
        <ele>492.4</ele>
        <time>2022-11-20T09:53:14Z</time>
      </trkpt>
      <trkpt lat="45.98207" lon="1.37788">
        <ele>491.6</ele>
        <time>2022-11-20T09:53:16Z</time>
      </trkpt>
      <trkpt lat="45.98205" lon="1.37789">
        <ele>491.2</ele>
        <time>2022-11-20T09:53:17Z</time>
      </trkpt>
      <trkpt lat="45.98204" lon="1.37791">
        <ele>490.8</ele>
        <time>2022-11-20T09:53:18Z</time>
      </trkpt>
      <trkpt lat="45.98205" lon="1.37791">
        <ele>490.4</ele>
        <time>2022-11-20T09:53:19Z</time>
      </trkpt>
      <trkpt lat="45.98207" lon="1.37793">
        <ele>489.4</ele>
        <time>2022-11-20T09:53:21Z</time>
      </trkpt>
      <trkpt lat="45.9821" lon="1.37799">
        <ele>488.4</ele>
        <time>2022-11-20T09:53:23Z</time>
      </trkpt>
      <trkpt lat="45.98212" lon="1.37803">
        <ele>487.6</ele>
        <time>2022-11-20T09:53:24Z</time>
      </trkpt>
      <trkpt lat="45.98218" lon="1.37809">
        <ele>485.4</ele>
        <time>2022-11-20T09:53:26Z</time>
      </trkpt>
      <trkpt lat="45.98221" lon="1.37813">
        <ele>484.2</ele>
        <time>2022-11-20T09:53:27Z</time>
      </trkpt>
      <trkpt lat="45.98227" lon="1.3782">
        <ele>482.4</ele>
        <time>2022-11-20T09:53:29Z</time>
      </trkpt>
      <trkpt lat="45.9823" lon="1.37824">
        <ele>481.2</ele>
        <time>2022-11-20T09:53:30Z</time>
      </trkpt>
      <trkpt lat="45.98232" lon="1.37827">
        <ele>479.6</ele>
        <time>2022-11-20T09:53:31Z</time>
      </trkpt>
      <trkpt lat="45.98234" lon="1.37828">
        <ele>478.2</ele>
        <time>2022-11-20T09:53:32Z</time>
      </trkpt>
      <trkpt lat="45.98236" lon="1.37828">
        <ele>477</ele>
        <time>2022-11-20T09:53:33Z</time>
      </trkpt>
      <trkpt lat="45.98239" lon="1.37829">
        <ele>476.2</ele>
        <time>2022-11-20T09:53:34Z</time>
      </trkpt>
      <trkpt lat="45.98241" lon="1.3783">
        <ele>475.6</ele>
        <time>2022-11-20T09:53:35Z</time>
      </trkpt>
      <trkpt lat="45.98244" lon="1.3783">
        <ele>475.4</ele>
        <time>2022-11-20T09:53:36Z</time>
      </trkpt>
      <trkpt lat="45.98257" lon="1.37831">
        <ele>474.6</ele>
        <time>2022-11-20T09:53:38Z</time>
      </trkpt>
      <trkpt lat="45.98266" lon="1.37832">
        <ele>474.2</ele>
        <time>2022-11-20T09:53:40Z</time>
      </trkpt>
      <trkpt lat="45.9827" lon="1.37832">
        <ele>474.2</ele>
        <time>2022-11-20T09:53:41Z</time>
      </trkpt>
      <trkpt lat="45.98274" lon="1.37833">
        <ele>474.2</ele>
        <time>2022-11-20T09:53:42Z</time>
      </trkpt>
      <trkpt lat="45.98286" lon="1.37829">
        <ele>475.2</ele>
        <time>2022-11-20T09:53:46Z</time>
      </trkpt>
      <trkpt lat="45.98301" lon="1.37814">
        <ele>475.2</ele>
        <time>2022-11-20T09:53:52Z</time>
      </trkpt>
      <trkpt lat="45.98311" lon="1.37801">
        <ele>475.6</ele>
        <time>2022-11-20T09:53:56Z</time>
      </trkpt>
      <trkpt lat="45.98317" lon="1.37793">
        <ele>476</ele>
        <time>2022-11-20T09:53:59Z</time>
      </trkpt>
      <trkpt lat="45.98326" lon="1.37779">
        <ele>476.6</ele>
        <time>2022-11-20T09:54:03Z</time>
      </trkpt>
      <trkpt lat="45.9833" lon="1.37771">
        <ele>476.8</ele>
        <time>2022-11-20T09:54:05Z</time>
      </trkpt>
      <trkpt lat="45.98335" lon="1.37764">
        <ele>477</ele>
        <time>2022-11-20T09:54:07Z</time>
      </trkpt>
      <trkpt lat="45.98342" lon="1.37752">
        <ele>477.6</ele>
        <time>2022-11-20T09:54:10Z</time>
      </trkpt>
      <trkpt lat="45.98348" lon="1.37746">
        <ele>478.4</ele>
        <time>2022-11-20T09:54:12Z</time>
      </trkpt>
      <trkpt lat="45.98363" lon="1.37731">
        <ele>477.8</ele>
        <time>2022-11-20T09:54:17Z</time>
      </trkpt>
      <trkpt lat="45.9837" lon="1.37723">
        <ele>477.4</ele>
        <time>2022-11-20T09:54:19Z</time>
      </trkpt>
      <trkpt lat="45.98376" lon="1.37713">
        <ele>476.6</ele>
        <time>2022-11-20T09:54:21Z</time>
      </trkpt>
      <trkpt lat="45.98378" lon="1.37709">
        <ele>476.4</ele>
        <time>2022-11-20T09:54:22Z</time>
      </trkpt>
      <trkpt lat="45.9838" lon="1.37705">
        <ele>476.4</ele>
        <time>2022-11-20T09:54:23Z</time>
      </trkpt>
      <trkpt lat="45.98382" lon="1.37695">
        <ele>476.8</ele>
        <time>2022-11-20T09:54:26Z</time>
      </trkpt>
      <trkpt lat="45.98384" lon="1.37691">
        <ele>477.6</ele>
        <time>2022-11-20T09:54:28Z</time>
      </trkpt>
      <trkpt lat="45.98386" lon="1.37683">
        <ele>478</ele>
        <time>2022-11-20T09:54:32Z</time>
      </trkpt>
      <trkpt lat="45.98389" lon="1.3768">
        <ele>478.8</ele>
        <time>2022-11-20T09:54:34Z</time>
      </trkpt>
      <trkpt lat="45.98394" lon="1.37674">
        <ele>480</ele>
        <time>2022-11-20T09:54:38Z</time>
      </trkpt>
      <trkpt lat="45.98398" lon="1.37662">
        <ele>481.2</ele>
        <time>2022-11-20T09:54:44Z</time>
      </trkpt>
      <trkpt lat="45.98399" lon="1.37661">
        <ele>481.4</ele>
        <time>2022-11-20T09:54:45Z</time>
      </trkpt>
      <trkpt lat="45.98402" lon="1.37654">
        <ele>482.4</ele>
        <time>2022-11-20T09:54:49Z</time>
      </trkpt>
      <trkpt lat="45.98403" lon="1.37649">
        <ele>482.8</ele>
        <time>2022-11-20T09:54:52Z</time>
      </trkpt>
      <trkpt lat="45.98404" lon="1.37645">
        <ele>483.4</ele>
        <time>2022-11-20T09:54:54Z</time>
      </trkpt>
      <trkpt lat="45.98406" lon="1.37641">
        <ele>484.4</ele>
        <time>2022-11-20T09:54:56Z</time>
      </trkpt>
      <trkpt lat="45.98406" lon="1.37635">
        <ele>485.4</ele>
        <time>2022-11-20T09:55:00Z</time>
      </trkpt>
      <trkpt lat="45.98406" lon="1.37633">
        <ele>485.6</ele>
        <time>2022-11-20T09:55:01Z</time>
      </trkpt>
      <trkpt lat="45.98408" lon="1.37627">
        <ele>486.8</ele>
        <time>2022-11-20T09:55:05Z</time>
      </trkpt>
      <trkpt lat="45.98408" lon="1.37623">
        <ele>487.4</ele>
        <time>2022-11-20T09:55:07Z</time>
      </trkpt>
      <trkpt lat="45.98409" lon="1.37621">
        <ele>487.4</ele>
        <time>2022-11-20T09:55:08Z</time>
      </trkpt>
      <trkpt lat="45.9841" lon="1.37618">
        <ele>488.2</ele>
        <time>2022-11-20T09:55:10Z</time>
      </trkpt>
      <trkpt lat="45.98412" lon="1.37612">
        <ele>489.2</ele>
        <time>2022-11-20T09:55:14Z</time>
      </trkpt>
      <trkpt lat="45.98413" lon="1.37609">
        <ele>490</ele>
        <time>2022-11-20T09:55:16Z</time>
      </trkpt>
      <trkpt lat="45.98414" lon="1.37608">
        <ele>490.2</ele>
        <time>2022-11-20T09:55:17Z</time>
      </trkpt>
      <trkpt lat="45.98416" lon="1.37604">
        <ele>490.6</ele>
        <time>2022-11-20T09:55:20Z</time>
      </trkpt>
      <trkpt lat="45.98419" lon="1.37599">
        <ele>491.2</ele>
        <time>2022-11-20T09:55:23Z</time>
      </trkpt>
      <trkpt lat="45.9842" lon="1.37598">
        <ele>491.4</ele>
        <time>2022-11-20T09:55:24Z</time>
      </trkpt>
      <trkpt lat="45.98422" lon="1.37591">
        <ele>492.2</ele>
        <time>2022-11-20T09:55:29Z</time>
      </trkpt>
      <trkpt lat="45.98422" lon="1.37586">
        <ele>492.8</ele>
        <time>2022-11-20T09:55:32Z</time>
      </trkpt>
      <trkpt lat="45.98423" lon="1.37581">
        <ele>493.4</ele>
        <time>2022-11-20T09:55:35Z</time>
      </trkpt>
      <trkpt lat="45.98423" lon="1.37575">
        <ele>494</ele>
        <time>2022-11-20T09:55:38Z</time>
      </trkpt>
      <trkpt lat="45.98423" lon="1.37575">
        <ele>494.6</ele>
        <time>2022-11-20T09:55:39Z</time>
      </trkpt>
      <trkpt lat="45.98424" lon="1.37569">
        <ele>495</ele>
        <time>2022-11-20T09:55:41Z</time>
      </trkpt>
      <trkpt lat="45.98423" lon="1.37564">
        <ele>495.4</ele>
        <time>2022-11-20T09:55:43Z</time>
      </trkpt>
      <trkpt lat="45.98423" lon="1.37562">
        <ele>495.6</ele>
        <time>2022-11-20T09:55:44Z</time>
      </trkpt>
      <trkpt lat="45.98426" lon="1.37555">
        <ele>496.4</ele>
        <time>2022-11-20T09:55:49Z</time>
      </trkpt>
      <trkpt lat="45.98425" lon="1.37554">
        <ele>496.6</ele>
        <time>2022-11-20T09:55:50Z</time>
      </trkpt>
      <trkpt lat="45.98426" lon="1.37552">
        <ele>496.8</ele>
        <time>2022-11-20T09:55:51Z</time>
      </trkpt>
      <trkpt lat="45.98427" lon="1.37545">
        <ele>497.6</ele>
        <time>2022-11-20T09:55:54Z</time>
      </trkpt>
      <trkpt lat="45.98429" lon="1.3754">
        <ele>498</ele>
        <time>2022-11-20T09:55:56Z</time>
      </trkpt>
      <trkpt lat="45.98431" lon="1.37534">
        <ele>498.6</ele>
        <time>2022-11-20T09:55:59Z</time>
      </trkpt>
      <trkpt lat="45.98433" lon="1.37529">
        <ele>499</ele>
        <time>2022-11-20T09:56:02Z</time>
      </trkpt>
      <trkpt lat="45.98434" lon="1.37519">
        <ele>500.2</ele>
        <time>2022-11-20T09:56:08Z</time>
      </trkpt>
      <trkpt lat="45.98434" lon="1.37518">
        <ele>500.6</ele>
        <time>2022-11-20T09:56:09Z</time>
      </trkpt>
      <trkpt lat="45.98435" lon="1.37515">
        <ele>501</ele>
        <time>2022-11-20T09:56:11Z</time>
      </trkpt>
      <trkpt lat="45.98435" lon="1.37513">
        <ele>501.4</ele>
        <time>2022-11-20T09:56:13Z</time>
      </trkpt>
      <trkpt lat="45.98435" lon="1.37512">
        <ele>501.6</ele>
        <time>2022-11-20T09:56:14Z</time>
      </trkpt>
      <trkpt lat="45.98435" lon="1.37509">
        <ele>502</ele>
        <time>2022-11-20T09:56:16Z</time>
      </trkpt>
      <trkpt lat="45.98435" lon="1.37508">
        <ele>502.2</ele>
        <time>2022-11-20T09:56:17Z</time>
      </trkpt>
      <trkpt lat="45.98435" lon="1.37507">
        <ele>502.6</ele>
        <time>2022-11-20T09:56:18Z</time>
      </trkpt>
      <trkpt lat="45.98435" lon="1.37504">
        <ele>503</ele>
        <time>2022-11-20T09:56:20Z</time>
      </trkpt>
      <trkpt lat="45.98435" lon="1.375">
        <ele>503.6</ele>
        <time>2022-11-20T09:56:23Z</time>
      </trkpt>
      <trkpt lat="45.98435" lon="1.37499">
        <ele>503.8</ele>
        <time>2022-11-20T09:56:24Z</time>
      </trkpt>
      <trkpt lat="45.98436" lon="1.37494">
        <ele>504.2</ele>
        <time>2022-11-20T09:56:26Z</time>
      </trkpt>
      <trkpt lat="45.98437" lon="1.37488">
        <ele>504.6</ele>
        <time>2022-11-20T09:56:29Z</time>
      </trkpt>
      <trkpt lat="45.98435" lon="1.37483">
        <ele>505.4</ele>
        <time>2022-11-20T09:56:32Z</time>
      </trkpt>
      <trkpt lat="45.98435" lon="1.37481">
        <ele>505.6</ele>
        <time>2022-11-20T09:56:33Z</time>
      </trkpt>
      <trkpt lat="45.98435" lon="1.37479">
        <ele>506</ele>
        <time>2022-11-20T09:56:34Z</time>
      </trkpt>
      <trkpt lat="45.98436" lon="1.37476">
        <ele>507.2</ele>
        <time>2022-11-20T09:56:37Z</time>
      </trkpt>
      <trkpt lat="45.98436" lon="1.37473">
        <ele>507.4</ele>
        <time>2022-11-20T09:56:39Z</time>
      </trkpt>
      <trkpt lat="45.98436" lon="1.37471">
        <ele>507.6</ele>
        <time>2022-11-20T09:56:41Z</time>
      </trkpt>
      <trkpt lat="45.98435" lon="1.37467">
        <ele>508.4</ele>
        <time>2022-11-20T09:56:45Z</time>
      </trkpt>
      <trkpt lat="45.98434" lon="1.37464">
        <ele>508.8</ele>
        <time>2022-11-20T09:56:47Z</time>
      </trkpt>
      <trkpt lat="45.98432" lon="1.3746">
        <ele>509</ele>
        <time>2022-11-20T09:56:49Z</time>
      </trkpt>
      <trkpt lat="45.98431" lon="1.37457">
        <ele>509.4</ele>
        <time>2022-11-20T09:56:51Z</time>
      </trkpt>
      <trkpt lat="45.98429" lon="1.3745">
        <ele>510</ele>
        <time>2022-11-20T09:56:54Z</time>
      </trkpt>
      <trkpt lat="45.98428" lon="1.37446">
        <ele>510.4</ele>
        <time>2022-11-20T09:56:56Z</time>
      </trkpt>
      <trkpt lat="45.98427" lon="1.37444">
        <ele>510.6</ele>
        <time>2022-11-20T09:56:57Z</time>
      </trkpt>
      <trkpt lat="45.98423" lon="1.37433">
        <ele>511.6</ele>
        <time>2022-11-20T09:57:04Z</time>
      </trkpt>
      <trkpt lat="45.98422" lon="1.3743">
        <ele>511.8</ele>
        <time>2022-11-20T09:57:06Z</time>
      </trkpt>
      <trkpt lat="45.98421" lon="1.37427">
        <ele>512.4</ele>
        <time>2022-11-20T09:57:08Z</time>
      </trkpt>
      <trkpt lat="45.98421" lon="1.37423">
        <ele>512.8</ele>
        <time>2022-11-20T09:57:10Z</time>
      </trkpt>
      <trkpt lat="45.98422" lon="1.37421">
        <ele>512.8</ele>
        <time>2022-11-20T09:57:11Z</time>
      </trkpt>
      <trkpt lat="45.98423" lon="1.3742">
        <ele>512.8</ele>
        <time>2022-11-20T09:57:12Z</time>
      </trkpt>
      <trkpt lat="45.98428" lon="1.37404">
        <ele>512.4</ele>
        <time>2022-11-20T09:57:19Z</time>
      </trkpt>
      <trkpt lat="45.98438" lon="1.37392">
        <ele>512.8</ele>
        <time>2022-11-20T09:57:26Z</time>
      </trkpt>
      <trkpt lat="45.9845" lon="1.3738">
        <ele>513.6</ele>
        <time>2022-11-20T09:57:32Z</time>
      </trkpt>
      <trkpt lat="45.98452" lon="1.37377">
        <ele>513.8</ele>
        <time>2022-11-20T09:57:33Z</time>
      </trkpt>
      <trkpt lat="45.98463" lon="1.37367">
        <ele>514.6</ele>
        <time>2022-11-20T09:57:39Z</time>
      </trkpt>
      <trkpt lat="45.98464" lon="1.37365">
        <ele>515.2</ele>
        <time>2022-11-20T09:57:40Z</time>
      </trkpt>
      <trkpt lat="45.98467" lon="1.37362">
        <ele>516.4</ele>
        <time>2022-11-20T09:57:43Z</time>
      </trkpt>
      <trkpt lat="45.9847" lon="1.37359">
        <ele>516.8</ele>
        <time>2022-11-20T09:57:45Z</time>
      </trkpt>
      <trkpt lat="45.98473" lon="1.37357">
        <ele>517.2</ele>
        <time>2022-11-20T09:57:47Z</time>
      </trkpt>
      <trkpt lat="45.98474" lon="1.37356">
        <ele>517.6</ele>
        <time>2022-11-20T09:57:48Z</time>
      </trkpt>
      <trkpt lat="45.9848" lon="1.37351">
        <ele>518.6</ele>
        <time>2022-11-20T09:57:51Z</time>
      </trkpt>
      <trkpt lat="45.98485" lon="1.37346">
        <ele>519.8</ele>
        <time>2022-11-20T09:57:54Z</time>
      </trkpt>
      <trkpt lat="45.98486" lon="1.37344">
        <ele>520.2</ele>
        <time>2022-11-20T09:57:55Z</time>
      </trkpt>
      <trkpt lat="45.9849" lon="1.37341">
        <ele>520.8</ele>
        <time>2022-11-20T09:57:57Z</time>
      </trkpt>
      <trkpt lat="45.98498" lon="1.3733">
        <ele>521.8</ele>
        <time>2022-11-20T09:58:04Z</time>
      </trkpt>
      <trkpt lat="45.98499" lon="1.37328">
        <ele>522</ele>
        <time>2022-11-20T09:58:05Z</time>
      </trkpt>
      <trkpt lat="45.98502" lon="1.37323">
        <ele>523</ele>
        <time>2022-11-20T09:58:08Z</time>
      </trkpt>
      <trkpt lat="45.98506" lon="1.37314">
        <ele>524</ele>
        <time>2022-11-20T09:58:13Z</time>
      </trkpt>
      <trkpt lat="45.98507" lon="1.37311">
        <ele>524.8</ele>
        <time>2022-11-20T09:58:15Z</time>
      </trkpt>
      <trkpt lat="45.98509" lon="1.3731">
        <ele>525.2</ele>
        <time>2022-11-20T09:58:16Z</time>
      </trkpt>
      <trkpt lat="45.98513" lon="1.37304">
        <ele>526</ele>
        <time>2022-11-20T09:58:21Z</time>
      </trkpt>
      <trkpt lat="45.98514" lon="1.37299">
        <ele>526.4</ele>
        <time>2022-11-20T09:58:24Z</time>
      </trkpt>
      <trkpt lat="45.98515" lon="1.3729">
        <ele>527.6</ele>
        <time>2022-11-20T09:58:30Z</time>
      </trkpt>
      <trkpt lat="45.98515" lon="1.37287">
        <ele>527.8</ele>
        <time>2022-11-20T09:58:32Z</time>
      </trkpt>
      <trkpt lat="45.98516" lon="1.3728">
        <ele>528.6</ele>
        <time>2022-11-20T09:58:37Z</time>
      </trkpt>
      <trkpt lat="45.98517" lon="1.37273">
        <ele>529.2</ele>
        <time>2022-11-20T09:58:41Z</time>
      </trkpt>
      <trkpt lat="45.98519" lon="1.37267">
        <ele>529.8</ele>
        <time>2022-11-20T09:58:44Z</time>
      </trkpt>
      <trkpt lat="45.98519" lon="1.37257">
        <ele>530.2</ele>
        <time>2022-11-20T09:58:49Z</time>
      </trkpt>
      <trkpt lat="45.98519" lon="1.3725">
        <ele>530.8</ele>
        <time>2022-11-20T09:58:53Z</time>
      </trkpt>
      <trkpt lat="45.98517" lon="1.37241">
        <ele>531.6</ele>
        <time>2022-11-20T09:58:58Z</time>
      </trkpt>
      <trkpt lat="45.98517" lon="1.3724">
        <ele>532</ele>
        <time>2022-11-20T09:58:59Z</time>
      </trkpt>
      <trkpt lat="45.98516" lon="1.37239">
        <ele>532.2</ele>
        <time>2022-11-20T09:59:00Z</time>
      </trkpt>
      <trkpt lat="45.98514" lon="1.37234">
        <ele>532.8</ele>
        <time>2022-11-20T09:59:03Z</time>
      </trkpt>
      <trkpt lat="45.98514" lon="1.37232">
        <ele>533</ele>
        <time>2022-11-20T09:59:05Z</time>
      </trkpt>
      <trkpt lat="45.98513" lon="1.37229">
        <ele>533.8</ele>
        <time>2022-11-20T09:59:07Z</time>
      </trkpt>
      <trkpt lat="45.98513" lon="1.37228">
        <ele>534</ele>
        <time>2022-11-20T09:59:08Z</time>
      </trkpt>
      <trkpt lat="45.98511" lon="1.37223">
        <ele>534.8</ele>
        <time>2022-11-20T09:59:11Z</time>
      </trkpt>
      <trkpt lat="45.98511" lon="1.37221">
        <ele>535.2</ele>
        <time>2022-11-20T09:59:13Z</time>
      </trkpt>
      <trkpt lat="45.98509" lon="1.37214">
        <ele>536.2</ele>
        <time>2022-11-20T09:59:18Z</time>
      </trkpt>
      <trkpt lat="45.98508" lon="1.37209">
        <ele>536.8</ele>
        <time>2022-11-20T09:59:21Z</time>
      </trkpt>
      <trkpt lat="45.98506" lon="1.37204">
        <ele>537.4</ele>
        <time>2022-11-20T09:59:24Z</time>
      </trkpt>
      <trkpt lat="45.98506" lon="1.37202">
        <ele>537.8</ele>
        <time>2022-11-20T09:59:25Z</time>
      </trkpt>
      <trkpt lat="45.98505" lon="1.37201">
        <ele>538.2</ele>
        <time>2022-11-20T09:59:26Z</time>
      </trkpt>
      <trkpt lat="45.98505" lon="1.37199">
        <ele>538.4</ele>
        <time>2022-11-20T09:59:27Z</time>
      </trkpt>
      <trkpt lat="45.98504" lon="1.37198">
        <ele>538.6</ele>
        <time>2022-11-20T09:59:28Z</time>
      </trkpt>
      <trkpt lat="45.98498" lon="1.37186">
        <ele>539.8</ele>
        <time>2022-11-20T09:59:36Z</time>
      </trkpt>
      <trkpt lat="45.98495" lon="1.3718">
        <ele>540.2</ele>
        <time>2022-11-20T09:59:39Z</time>
      </trkpt>
      <trkpt lat="45.98492" lon="1.37178">
        <ele>540.8</ele>
        <time>2022-11-20T09:59:42Z</time>
      </trkpt>
      <trkpt lat="45.98483" lon="1.37171">
        <ele>542</ele>
        <time>2022-11-20T09:59:49Z</time>
      </trkpt>
      <trkpt lat="45.98481" lon="1.37169">
        <ele>542.6</ele>
        <time>2022-11-20T09:59:51Z</time>
      </trkpt>
      <trkpt lat="45.98476" lon="1.37166">
        <ele>543.2</ele>
        <time>2022-11-20T09:59:55Z</time>
      </trkpt>
      <trkpt lat="45.98469" lon="1.37163">
        <ele>544.2</ele>
        <time>2022-11-20T10:00:02Z</time>
      </trkpt>
      <trkpt lat="45.98463" lon="1.37162">
        <ele>544.6</ele>
        <time>2022-11-20T10:00:05Z</time>
      </trkpt>
      <trkpt lat="45.9846" lon="1.37161">
        <ele>545.2</ele>
        <time>2022-11-20T10:00:08Z</time>
      </trkpt>
      <trkpt lat="45.98454" lon="1.3716">
        <ele>546.4</ele>
        <time>2022-11-20T10:00:13Z</time>
      </trkpt>
      <trkpt lat="45.98449" lon="1.37162">
        <ele>547.2</ele>
        <time>2022-11-20T10:00:18Z</time>
      </trkpt>
      <trkpt lat="45.98447" lon="1.37162">
        <ele>547.6</ele>
        <time>2022-11-20T10:00:21Z</time>
      </trkpt>
      <trkpt lat="45.98439" lon="1.37165">
        <ele>548.6</ele>
        <time>2022-11-20T10:00:27Z</time>
      </trkpt>
      <trkpt lat="45.98434" lon="1.37166">
        <ele>549.4</ele>
        <time>2022-11-20T10:00:31Z</time>
      </trkpt>
      <trkpt lat="45.98432" lon="1.37167">
        <ele>549.8</ele>
        <time>2022-11-20T10:00:32Z</time>
      </trkpt>
      <trkpt lat="45.98423" lon="1.37174">
        <ele>550.8</ele>
        <time>2022-11-20T10:00:41Z</time>
      </trkpt>
      <trkpt lat="45.9842" lon="1.37178">
        <ele>551.4</ele>
        <time>2022-11-20T10:00:44Z</time>
      </trkpt>
      <trkpt lat="45.98418" lon="1.37182">
        <ele>551.6</ele>
        <time>2022-11-20T10:00:46Z</time>
      </trkpt>
      <trkpt lat="45.98415" lon="1.37186">
        <ele>552</ele>
        <time>2022-11-20T10:00:48Z</time>
      </trkpt>
      <trkpt lat="45.98409" lon="1.37195">
        <ele>553</ele>
        <time>2022-11-20T10:00:53Z</time>
      </trkpt>
      <trkpt lat="45.98406" lon="1.37202">
        <ele>553.8</ele>
        <time>2022-11-20T10:00:57Z</time>
      </trkpt>
      <trkpt lat="45.98403" lon="1.37207">
        <ele>554</ele>
        <time>2022-11-20T10:01:00Z</time>
      </trkpt>
      <trkpt lat="45.98389" lon="1.37222">
        <ele>554.8</ele>
        <time>2022-11-20T10:01:08Z</time>
      </trkpt>
      <trkpt lat="45.98383" lon="1.37228">
        <ele>555</ele>
        <time>2022-11-20T10:01:11Z</time>
      </trkpt>
      <trkpt lat="45.98378" lon="1.37231">
        <ele>555.6</ele>
        <time>2022-11-20T10:01:15Z</time>
      </trkpt>
      <trkpt lat="45.98374" lon="1.37233">
        <ele>556</ele>
        <time>2022-11-20T10:01:19Z</time>
      </trkpt>
      <trkpt lat="45.98372" lon="1.37235">
        <ele>556.4</ele>
        <time>2022-11-20T10:01:21Z</time>
      </trkpt>
      <trkpt lat="45.98361" lon="1.3724">
        <ele>557</ele>
        <time>2022-11-20T10:01:27Z</time>
      </trkpt>
      <trkpt lat="45.98349" lon="1.37249">
        <ele>557.2</ele>
        <time>2022-11-20T10:01:32Z</time>
      </trkpt>
      <trkpt lat="45.98339" lon="1.37269">
        <ele>556.6</ele>
        <time>2022-11-20T10:01:38Z</time>
      </trkpt>
      <trkpt lat="45.98321" lon="1.37289">
        <ele>557.4</ele>
        <time>2022-11-20T10:01:45Z</time>
      </trkpt>
      <trkpt lat="45.98315" lon="1.3729">
        <ele>557.4</ele>
        <time>2022-11-20T10:01:47Z</time>
      </trkpt>
      <trkpt lat="45.9831" lon="1.37284">
        <ele>557</ele>
        <time>2022-11-20T10:01:49Z</time>
      </trkpt>
      <trkpt lat="45.98307" lon="1.37263">
        <ele>556</ele>
        <time>2022-11-20T10:01:53Z</time>
      </trkpt>
      <trkpt lat="45.98308" lon="1.37256">
        <ele>555.8</ele>
        <time>2022-11-20T10:01:54Z</time>
      </trkpt>
      <trkpt lat="45.98311" lon="1.37242">
        <ele>555.2</ele>
        <time>2022-11-20T10:01:56Z</time>
      </trkpt>
      <trkpt lat="45.98315" lon="1.37233">
        <ele>554.6</ele>
        <time>2022-11-20T10:01:57Z</time>
      </trkpt>
      <trkpt lat="45.98319" lon="1.37225">
        <ele>554.2</ele>
        <time>2022-11-20T10:01:58Z</time>
      </trkpt>
      <trkpt lat="45.98328" lon="1.37209">
        <ele>553.6</ele>
        <time>2022-11-20T10:02:00Z</time>
      </trkpt>
      <trkpt lat="45.98337" lon="1.3719">
        <ele>552.6</ele>
        <time>2022-11-20T10:02:02Z</time>
      </trkpt>
      <trkpt lat="45.9834" lon="1.37178">
        <ele>552</ele>
        <time>2022-11-20T10:02:03Z</time>
      </trkpt>
      <trkpt lat="45.98342" lon="1.37166">
        <ele>551.6</ele>
        <time>2022-11-20T10:02:04Z</time>
      </trkpt>
      <trkpt lat="45.98342" lon="1.37154">
        <ele>551.2</ele>
        <time>2022-11-20T10:02:05Z</time>
      </trkpt>
      <trkpt lat="45.98341" lon="1.37143">
        <ele>550.8</ele>
        <time>2022-11-20T10:02:06Z</time>
      </trkpt>
      <trkpt lat="45.98337" lon="1.37114">
        <ele>550.4</ele>
        <time>2022-11-20T10:02:09Z</time>
      </trkpt>
      <trkpt lat="45.98333" lon="1.37091">
        <ele>551.4</ele>
        <time>2022-11-20T10:02:13Z</time>
      </trkpt>
      <trkpt lat="45.98332" lon="1.37087">
        <ele>551.6</ele>
        <time>2022-11-20T10:02:14Z</time>
      </trkpt>
      <trkpt lat="45.9833" lon="1.37082">
        <ele>551.8</ele>
        <time>2022-11-20T10:02:15Z</time>
      </trkpt>
      <trkpt lat="45.98326" lon="1.37076">
        <ele>552.6</ele>
        <time>2022-11-20T10:02:17Z</time>
      </trkpt>
      <trkpt lat="45.98324" lon="1.37073">
        <ele>553</ele>
        <time>2022-11-20T10:02:18Z</time>
      </trkpt>
      <trkpt lat="45.98321" lon="1.3707">
        <ele>553.2</ele>
        <time>2022-11-20T10:02:19Z</time>
      </trkpt>
      <trkpt lat="45.98311" lon="1.37062">
        <ele>554.4</ele>
        <time>2022-11-20T10:02:22Z</time>
      </trkpt>
      <trkpt lat="45.98302" lon="1.37056">
        <ele>554.8</ele>
        <time>2022-11-20T10:02:24Z</time>
      </trkpt>
      <trkpt lat="45.98289" lon="1.37046">
        <ele>555.4</ele>
        <time>2022-11-20T10:02:27Z</time>
      </trkpt>
      <trkpt lat="45.98273" lon="1.37033">
        <ele>555.6</ele>
        <time>2022-11-20T10:02:31Z</time>
      </trkpt>
      <trkpt lat="45.98261" lon="1.37025">
        <ele>555.4</ele>
        <time>2022-11-20T10:02:34Z</time>
      </trkpt>
      <trkpt lat="45.98246" lon="1.37025">
        <ele>555.2</ele>
        <time>2022-11-20T10:02:37Z</time>
      </trkpt>
      <trkpt lat="45.98221" lon="1.3703">
        <ele>554.8</ele>
        <time>2022-11-20T10:02:43Z</time>
      </trkpt>
      <trkpt lat="45.98218" lon="1.3703">
        <ele>554.8</ele>
        <time>2022-11-20T10:02:44Z</time>
      </trkpt>
      <trkpt lat="45.98211" lon="1.37027">
        <ele>555.2</ele>
        <time>2022-11-20T10:02:46Z</time>
      </trkpt>
      <trkpt lat="45.98209" lon="1.37024">
        <ele>555.4</ele>
        <time>2022-11-20T10:02:47Z</time>
      </trkpt>
      <trkpt lat="45.98207" lon="1.37022">
        <ele>555.6</ele>
        <time>2022-11-20T10:02:48Z</time>
      </trkpt>
      <trkpt lat="45.98203" lon="1.37015">
        <ele>555.8</ele>
        <time>2022-11-20T10:02:50Z</time>
      </trkpt>
      <trkpt lat="45.98198" lon="1.37009">
        <ele>556</ele>
        <time>2022-11-20T10:02:52Z</time>
      </trkpt>
      <trkpt lat="45.98191" lon="1.37003">
        <ele>556.2</ele>
        <time>2022-11-20T10:02:54Z</time>
      </trkpt>
      <trkpt lat="45.98183" lon="1.36997">
        <ele>556.4</ele>
        <time>2022-11-20T10:02:56Z</time>
      </trkpt>
      <trkpt lat="45.98179" lon="1.36992">
        <ele>556.6</ele>
        <time>2022-11-20T10:02:57Z</time>
      </trkpt>
      <trkpt lat="45.98175" lon="1.36988">
        <ele>556.6</ele>
        <time>2022-11-20T10:02:58Z</time>
      </trkpt>
      <trkpt lat="45.98151" lon="1.36969">
        <ele>557.6</ele>
        <time>2022-11-20T10:03:05Z</time>
      </trkpt>
      <trkpt lat="45.98148" lon="1.36967">
        <ele>557.6</ele>
        <time>2022-11-20T10:03:06Z</time>
      </trkpt>
      <trkpt lat="45.98139" lon="1.36961">
        <ele>557.4</ele>
        <time>2022-11-20T10:03:08Z</time>
      </trkpt>
      <trkpt lat="45.98126" lon="1.36949">
        <ele>557.4</ele>
        <time>2022-11-20T10:03:11Z</time>
      </trkpt>
      <trkpt lat="45.98113" lon="1.36942">
        <ele>557.2</ele>
        <time>2022-11-20T10:03:14Z</time>
      </trkpt>
      <trkpt lat="45.98097" lon="1.36941">
        <ele>557.2</ele>
        <time>2022-11-20T10:03:17Z</time>
      </trkpt>
      <trkpt lat="45.98086" lon="1.36942">
        <ele>557</ele>
        <time>2022-11-20T10:03:19Z</time>
      </trkpt>
      <trkpt lat="45.9808" lon="1.36943">
        <ele>556.6</ele>
        <time>2022-11-20T10:03:20Z</time>
      </trkpt>
      <trkpt lat="45.98075" lon="1.36945">
        <ele>556.2</ele>
        <time>2022-11-20T10:03:21Z</time>
      </trkpt>
      <trkpt lat="45.98071" lon="1.36948">
        <ele>556</ele>
        <time>2022-11-20T10:03:22Z</time>
      </trkpt>
      <trkpt lat="45.98048" lon="1.36962">
        <ele>556</ele>
        <time>2022-11-20T10:03:28Z</time>
      </trkpt>
      <trkpt lat="45.98044" lon="1.36964">
        <ele>556</ele>
        <time>2022-11-20T10:03:29Z</time>
      </trkpt>
      <trkpt lat="45.98032" lon="1.36967">
        <ele>556.4</ele>
        <time>2022-11-20T10:03:32Z</time>
      </trkpt>
      <trkpt lat="45.98028" lon="1.36968">
        <ele>556.4</ele>
        <time>2022-11-20T10:03:33Z</time>
      </trkpt>
      <trkpt lat="45.98001" lon="1.36974">
        <ele>557</ele>
        <time>2022-11-20T10:03:39Z</time>
      </trkpt>
      <trkpt lat="45.97991" lon="1.36976">
        <ele>557</ele>
        <time>2022-11-20T10:03:41Z</time>
      </trkpt>
      <trkpt lat="45.97974" lon="1.36978">
        <ele>556.6</ele>
        <time>2022-11-20T10:03:45Z</time>
      </trkpt>
      <trkpt lat="45.97965" lon="1.36977">
        <ele>556.8</ele>
        <time>2022-11-20T10:03:47Z</time>
      </trkpt>
      <trkpt lat="45.97947" lon="1.36974">
        <ele>557</ele>
        <time>2022-11-20T10:03:51Z</time>
      </trkpt>
      <trkpt lat="45.97927" lon="1.36973">
        <ele>557.6</ele>
        <time>2022-11-20T10:03:56Z</time>
      </trkpt>
      <trkpt lat="45.97924" lon="1.36973">
        <ele>557.6</ele>
        <time>2022-11-20T10:03:57Z</time>
      </trkpt>
      <trkpt lat="45.97908" lon="1.36983">
        <ele>558</ele>
        <time>2022-11-20T10:04:02Z</time>
      </trkpt>
      <trkpt lat="45.97877" lon="1.37">
        <ele>557.8</ele>
        <time>2022-11-20T10:04:09Z</time>
      </trkpt>
      <trkpt lat="45.97869" lon="1.37006">
        <ele>557.6</ele>
        <time>2022-11-20T10:04:11Z</time>
      </trkpt>
      <trkpt lat="45.97859" lon="1.37016">
        <ele>557.4</ele>
        <time>2022-11-20T10:04:14Z</time>
      </trkpt>
      <trkpt lat="45.97852" lon="1.37015">
        <ele>557.4</ele>
        <time>2022-11-20T10:04:16Z</time>
      </trkpt>
      <trkpt lat="45.9785" lon="1.37012">
        <ele>557.4</ele>
        <time>2022-11-20T10:04:17Z</time>
      </trkpt>
      <trkpt lat="45.97835" lon="1.36992">
        <ele>557.6</ele>
        <time>2022-11-20T10:04:22Z</time>
      </trkpt>
      <trkpt lat="45.97826" lon="1.36977">
        <ele>557.6</ele>
        <time>2022-11-20T10:04:25Z</time>
      </trkpt>
      <trkpt lat="45.97823" lon="1.36964">
        <ele>557.6</ele>
        <time>2022-11-20T10:04:27Z</time>
      </trkpt>
      <trkpt lat="45.97824" lon="1.36952">
        <ele>557.8</ele>
        <time>2022-11-20T10:04:29Z</time>
      </trkpt>
      <trkpt lat="45.97825" lon="1.36943">
        <ele>557.8</ele>
        <time>2022-11-20T10:04:31Z</time>
      </trkpt>
      <trkpt lat="45.97823" lon="1.36934">
        <ele>558.2</ele>
        <time>2022-11-20T10:04:34Z</time>
      </trkpt>
      <trkpt lat="45.97819" lon="1.36928">
        <ele>558.4</ele>
        <time>2022-11-20T10:04:36Z</time>
      </trkpt>
      <trkpt lat="45.97816" lon="1.36926">
        <ele>558.8</ele>
        <time>2022-11-20T10:04:37Z</time>
      </trkpt>
      <trkpt lat="45.97795" lon="1.3691">
        <ele>559</ele>
        <time>2022-11-20T10:04:43Z</time>
      </trkpt>
      <trkpt lat="45.9778" lon="1.36891">
        <ele>558.2</ele>
        <time>2022-11-20T10:04:48Z</time>
      </trkpt>
      <trkpt lat="45.97777" lon="1.36886">
        <ele>558</ele>
        <time>2022-11-20T10:04:49Z</time>
      </trkpt>
      <trkpt lat="45.9777" lon="1.36872">
        <ele>557.8</ele>
        <time>2022-11-20T10:04:52Z</time>
      </trkpt>
      <trkpt lat="45.97764" lon="1.36858">
        <ele>558</ele>
        <time>2022-11-20T10:04:55Z</time>
      </trkpt>
      <trkpt lat="45.97759" lon="1.3685">
        <ele>558</ele>
        <time>2022-11-20T10:04:57Z</time>
      </trkpt>
      <trkpt lat="45.97752" lon="1.36837">
        <ele>558</ele>
        <time>2022-11-20T10:05:00Z</time>
      </trkpt>
      <trkpt lat="45.97742" lon="1.36819">
        <ele>558.2</ele>
        <time>2022-11-20T10:05:05Z</time>
      </trkpt>
      <trkpt lat="45.9774" lon="1.36816">
        <ele>558.4</ele>
        <time>2022-11-20T10:05:06Z</time>
      </trkpt>
      <trkpt lat="45.97731" lon="1.36801">
        <ele>559</ele>
        <time>2022-11-20T10:05:11Z</time>
      </trkpt>
      <trkpt lat="45.9773" lon="1.36799">
        <ele>559.2</ele>
        <time>2022-11-20T10:05:12Z</time>
      </trkpt>
      <trkpt lat="45.97725" lon="1.36788">
        <ele>560</ele>
        <time>2022-11-20T10:05:15Z</time>
      </trkpt>
      <trkpt lat="45.97724" lon="1.36784">
        <ele>560.2</ele>
        <time>2022-11-20T10:05:16Z</time>
      </trkpt>
      <trkpt lat="45.97724" lon="1.36778">
        <ele>560.4</ele>
        <time>2022-11-20T10:05:17Z</time>
      </trkpt>
      <trkpt lat="45.97724" lon="1.36771">
        <ele>560.6</ele>
        <time>2022-11-20T10:05:18Z</time>
      </trkpt>
      <trkpt lat="45.97726" lon="1.36757">
        <ele>561.2</ele>
        <time>2022-11-20T10:05:21Z</time>
      </trkpt>
      <trkpt lat="45.97729" lon="1.36745">
        <ele>561.2</ele>
        <time>2022-11-20T10:05:23Z</time>
      </trkpt>
      <trkpt lat="45.97743" lon="1.36695">
        <ele>561.6</ele>
        <time>2022-11-20T10:05:32Z</time>
      </trkpt>
      <trkpt lat="45.97752" lon="1.36657">
        <ele>562.2</ele>
        <time>2022-11-20T10:05:40Z</time>
      </trkpt>
      <trkpt lat="45.97752" lon="1.36653">
        <ele>562.2</ele>
        <time>2022-11-20T10:05:41Z</time>
      </trkpt>
      <trkpt lat="45.97747" lon="1.3664">
        <ele>563</ele>
        <time>2022-11-20T10:05:45Z</time>
      </trkpt>
      <trkpt lat="45.97743" lon="1.36634">
        <ele>563.4</ele>
        <time>2022-11-20T10:05:47Z</time>
      </trkpt>
      <trkpt lat="45.97732" lon="1.36618">
        <ele>564</ele>
        <time>2022-11-20T10:05:52Z</time>
      </trkpt>
      <trkpt lat="45.97727" lon="1.36611">
        <ele>563.8</ele>
        <time>2022-11-20T10:05:54Z</time>
      </trkpt>
      <trkpt lat="45.9772" lon="1.36613">
        <ele>563.4</ele>
        <time>2022-11-20T10:05:56Z</time>
      </trkpt>
      <trkpt lat="45.97716" lon="1.36617">
        <ele>563.2</ele>
        <time>2022-11-20T10:05:57Z</time>
      </trkpt>
      <trkpt lat="45.97702" lon="1.3663">
        <ele>562.2</ele>
        <time>2022-11-20T10:06:00Z</time>
      </trkpt>
      <trkpt lat="45.97684" lon="1.36644">
        <ele>561.6</ele>
        <time>2022-11-20T10:06:05Z</time>
      </trkpt>
      <trkpt lat="45.9767" lon="1.36649">
        <ele>562.4</ele>
        <time>2022-11-20T10:06:10Z</time>
      </trkpt>
      <trkpt lat="45.97662" lon="1.36652">
        <ele>563.4</ele>
        <time>2022-11-20T10:06:13Z</time>
      </trkpt>
      <trkpt lat="45.97656" lon="1.36656">
        <ele>563.8</ele>
        <time>2022-11-20T10:06:16Z</time>
      </trkpt>
      <trkpt lat="45.97652" lon="1.36656">
        <ele>564.8</ele>
        <time>2022-11-20T10:06:19Z</time>
      </trkpt>
      <trkpt lat="45.97645" lon="1.36655">
        <ele>565.6</ele>
        <time>2022-11-20T10:06:22Z</time>
      </trkpt>
      <trkpt lat="45.97643" lon="1.36655">
        <ele>565.8</ele>
        <time>2022-11-20T10:06:23Z</time>
      </trkpt>
      <trkpt lat="45.97633" lon="1.3665">
        <ele>566.8</ele>
        <time>2022-11-20T10:06:29Z</time>
      </trkpt>
      <trkpt lat="45.9763" lon="1.36649">
        <ele>567</ele>
        <time>2022-11-20T10:06:30Z</time>
      </trkpt>
      <trkpt lat="45.9762" lon="1.36645">
        <ele>568.2</ele>
        <time>2022-11-20T10:06:36Z</time>
      </trkpt>
      <trkpt lat="45.97617" lon="1.36643">
        <ele>569</ele>
        <time>2022-11-20T10:06:38Z</time>
      </trkpt>
      <trkpt lat="45.97615" lon="1.36642">
        <ele>569.4</ele>
        <time>2022-11-20T10:06:40Z</time>
      </trkpt>
      <trkpt lat="45.97614" lon="1.36643">
        <ele>569.6</ele>
        <time>2022-11-20T10:06:41Z</time>
      </trkpt>
      <trkpt lat="45.9761" lon="1.36645">
        <ele>570</ele>
        <time>2022-11-20T10:06:44Z</time>
      </trkpt>
      <trkpt lat="45.97607" lon="1.36647">
        <ele>570.6</ele>
        <time>2022-11-20T10:06:47Z</time>
      </trkpt>
      <trkpt lat="45.97604" lon="1.3665">
        <ele>571.8</ele>
        <time>2022-11-20T10:06:51Z</time>
      </trkpt>
      <trkpt lat="45.97599" lon="1.36657">
        <ele>572.8</ele>
        <time>2022-11-20T10:06:56Z</time>
      </trkpt>
      <trkpt lat="45.97596" lon="1.36665">
        <ele>573.4</ele>
        <time>2022-11-20T10:07:00Z</time>
      </trkpt>
      <trkpt lat="45.97593" lon="1.36668">
        <ele>574</ele>
        <time>2022-11-20T10:07:02Z</time>
      </trkpt>
      <trkpt lat="45.97589" lon="1.36675">
        <ele>575.2</ele>
        <time>2022-11-20T10:07:07Z</time>
      </trkpt>
      <trkpt lat="45.97588" lon="1.36677">
        <ele>575.4</ele>
        <time>2022-11-20T10:07:08Z</time>
      </trkpt>
      <trkpt lat="45.97586" lon="1.36683">
        <ele>576.2</ele>
        <time>2022-11-20T10:07:12Z</time>
      </trkpt>
      <trkpt lat="45.97585" lon="1.36685">
        <ele>576.4</ele>
        <time>2022-11-20T10:07:14Z</time>
      </trkpt>
      <trkpt lat="45.97585" lon="1.36688">
        <ele>576.6</ele>
        <time>2022-11-20T10:07:16Z</time>
      </trkpt>
      <trkpt lat="45.97585" lon="1.3669">
        <ele>576.8</ele>
        <time>2022-11-20T10:07:17Z</time>
      </trkpt>
      <trkpt lat="45.97582" lon="1.36698">
        <ele>577.2</ele>
        <time>2022-11-20T10:07:21Z</time>
      </trkpt>
      <trkpt lat="45.97578" lon="1.36705">
        <ele>577.6</ele>
        <time>2022-11-20T10:07:25Z</time>
      </trkpt>
      <trkpt lat="45.97575" lon="1.3671">
        <ele>578.2</ele>
        <time>2022-11-20T10:07:28Z</time>
      </trkpt>
      <trkpt lat="45.9757" lon="1.36718">
        <ele>578.6</ele>
        <time>2022-11-20T10:07:32Z</time>
      </trkpt>
      <trkpt lat="45.97555" lon="1.36738">
        <ele>579</ele>
        <time>2022-11-20T10:07:40Z</time>
      </trkpt>
      <trkpt lat="45.97549" lon="1.36746">
        <ele>579.4</ele>
        <time>2022-11-20T10:07:44Z</time>
      </trkpt>
      <trkpt lat="45.97541" lon="1.36755">
        <ele>580</ele>
        <time>2022-11-20T10:07:48Z</time>
      </trkpt>
      <trkpt lat="45.97536" lon="1.36762">
        <ele>580.4</ele>
        <time>2022-11-20T10:07:51Z</time>
      </trkpt>
      <trkpt lat="45.9753" lon="1.36771">
        <ele>580.8</ele>
        <time>2022-11-20T10:07:55Z</time>
      </trkpt>
      <trkpt lat="45.97523" lon="1.36784">
        <ele>581.6</ele>
        <time>2022-11-20T10:08:00Z</time>
      </trkpt>
      <trkpt lat="45.97521" lon="1.36787">
        <ele>581.8</ele>
        <time>2022-11-20T10:08:01Z</time>
      </trkpt>
      <trkpt lat="45.9751" lon="1.36804">
        <ele>582.6</ele>
        <time>2022-11-20T10:08:06Z</time>
      </trkpt>
      <trkpt lat="45.97507" lon="1.3681">
        <ele>582.8</ele>
        <time>2022-11-20T10:08:08Z</time>
      </trkpt>
      <trkpt lat="45.9749" lon="1.36828">
        <ele>583</ele>
        <time>2022-11-20T10:08:13Z</time>
      </trkpt>
      <trkpt lat="45.97476" lon="1.36843">
        <ele>582.6</ele>
        <time>2022-11-20T10:08:19Z</time>
      </trkpt>
      <trkpt lat="45.97457" lon="1.36861">
        <ele>581.8</ele>
        <time>2022-11-20T10:08:25Z</time>
      </trkpt>
      <trkpt lat="45.97442" lon="1.36872">
        <ele>581.6</ele>
        <time>2022-11-20T10:08:29Z</time>
      </trkpt>
      <trkpt lat="45.97437" lon="1.36877">
        <ele>581.4</ele>
        <time>2022-11-20T10:08:30Z</time>
      </trkpt>
      <trkpt lat="45.97412" lon="1.36894">
        <ele>580.8</ele>
        <time>2022-11-20T10:08:37Z</time>
      </trkpt>
      <trkpt lat="45.97401" lon="1.36905">
        <ele>580.6</ele>
        <time>2022-11-20T10:08:40Z</time>
      </trkpt>
      <trkpt lat="45.97394" lon="1.36913">
        <ele>580.2</ele>
        <time>2022-11-20T10:08:42Z</time>
      </trkpt>
      <trkpt lat="45.97391" lon="1.36916">
        <ele>580</ele>
        <time>2022-11-20T10:08:43Z</time>
      </trkpt>
      <trkpt lat="45.97382" lon="1.36926">
        <ele>579.6</ele>
        <time>2022-11-20T10:08:45Z</time>
      </trkpt>
      <trkpt lat="45.97374" lon="1.36933">
        <ele>579.2</ele>
        <time>2022-11-20T10:08:47Z</time>
      </trkpt>
      <trkpt lat="45.97354" lon="1.36956">
        <ele>578.2</ele>
        <time>2022-11-20T10:08:52Z</time>
      </trkpt>
      <trkpt lat="45.97351" lon="1.3696">
        <ele>577.6</ele>
        <time>2022-11-20T10:08:53Z</time>
      </trkpt>
      <trkpt lat="45.97348" lon="1.36964">
        <ele>577</ele>
        <time>2022-11-20T10:08:54Z</time>
      </trkpt>
      <trkpt lat="45.97341" lon="1.36972">
        <ele>575.8</ele>
        <time>2022-11-20T10:08:56Z</time>
      </trkpt>
      <trkpt lat="45.97328" lon="1.36989">
        <ele>575</ele>
        <time>2022-11-20T10:08:58Z</time>
      </trkpt>
      <trkpt lat="45.97325" lon="1.36994">
        <ele>574.2</ele>
        <time>2022-11-20T10:08:59Z</time>
      </trkpt>
      <trkpt lat="45.97322" lon="1.37003">
        <ele>572.4</ele>
        <time>2022-11-20T10:09:01Z</time>
      </trkpt>
      <trkpt lat="45.97322" lon="1.37007">
        <ele>572</ele>
        <time>2022-11-20T10:09:02Z</time>
      </trkpt>
      <trkpt lat="45.97322" lon="1.37011">
        <ele>571.6</ele>
        <time>2022-11-20T10:09:03Z</time>
      </trkpt>
      <trkpt lat="45.97323" lon="1.37015">
        <ele>571</ele>
        <time>2022-11-20T10:09:04Z</time>
      </trkpt>
      <trkpt lat="45.97324" lon="1.37028">
        <ele>570.8</ele>
        <time>2022-11-20T10:09:07Z</time>
      </trkpt>
      <trkpt lat="45.97324" lon="1.37041">
        <ele>571.2</ele>
        <time>2022-11-20T10:09:10Z</time>
      </trkpt>
      <trkpt lat="45.97322" lon="1.3705">
        <ele>571</ele>
        <time>2022-11-20T10:09:12Z</time>
      </trkpt>
      <trkpt lat="45.9731" lon="1.37067">
        <ele>570</ele>
        <time>2022-11-20T10:09:16Z</time>
      </trkpt>
      <trkpt lat="45.97307" lon="1.37069">
        <ele>569.8</ele>
        <time>2022-11-20T10:09:17Z</time>
      </trkpt>
      <trkpt lat="45.97293" lon="1.37083">
        <ele>569.6</ele>
        <time>2022-11-20T10:09:22Z</time>
      </trkpt>
      <trkpt lat="45.97277" lon="1.37101">
        <ele>569.8</ele>
        <time>2022-11-20T10:09:27Z</time>
      </trkpt>
      <trkpt lat="45.9726" lon="1.37123">
        <ele>570.6</ele>
        <time>2022-11-20T10:09:33Z</time>
      </trkpt>
      <trkpt lat="45.9724" lon="1.37147">
        <ele>570.4</ele>
        <time>2022-11-20T10:09:41Z</time>
      </trkpt>
      <trkpt lat="45.97232" lon="1.37159">
        <ele>571</ele>
        <time>2022-11-20T10:09:45Z</time>
      </trkpt>
      <trkpt lat="45.97227" lon="1.37168">
        <ele>571.4</ele>
        <time>2022-11-20T10:09:47Z</time>
      </trkpt>
      <trkpt lat="45.97222" lon="1.37177">
        <ele>572.2</ele>
        <time>2022-11-20T10:09:49Z</time>
      </trkpt>
      <trkpt lat="45.97207" lon="1.37194">
        <ele>573</ele>
        <time>2022-11-20T10:09:54Z</time>
      </trkpt>
      <trkpt lat="45.97204" lon="1.37196">
        <ele>573.6</ele>
        <time>2022-11-20T10:09:55Z</time>
      </trkpt>
      <trkpt lat="45.9719" lon="1.37214">
        <ele>574.6</ele>
        <time>2022-11-20T10:10:01Z</time>
      </trkpt>
      <trkpt lat="45.97186" lon="1.37221">
        <ele>574.8</ele>
        <time>2022-11-20T10:10:03Z</time>
      </trkpt>
      <trkpt lat="45.97176" lon="1.37236">
        <ele>576</ele>
        <time>2022-11-20T10:10:08Z</time>
      </trkpt>
      <trkpt lat="45.97172" lon="1.37242">
        <ele>576.4</ele>
        <time>2022-11-20T10:10:10Z</time>
      </trkpt>
      <trkpt lat="45.97166" lon="1.3725">
        <ele>577</ele>
        <time>2022-11-20T10:10:13Z</time>
      </trkpt>
      <trkpt lat="45.97159" lon="1.37262">
        <ele>577.6</ele>
        <time>2022-11-20T10:10:18Z</time>
      </trkpt>
      <trkpt lat="45.97157" lon="1.37265">
        <ele>578</ele>
        <time>2022-11-20T10:10:20Z</time>
      </trkpt>
      <trkpt lat="45.97151" lon="1.37277">
        <ele>578.8</ele>
        <time>2022-11-20T10:10:25Z</time>
      </trkpt>
      <trkpt lat="45.97146" lon="1.37287">
        <ele>579.2</ele>
        <time>2022-11-20T10:10:29Z</time>
      </trkpt>
      <trkpt lat="45.97146" lon="1.3729">
        <ele>579.4</ele>
        <time>2022-11-20T10:10:30Z</time>
      </trkpt>
      <trkpt lat="45.97145" lon="1.37299">
        <ele>579.6</ele>
        <time>2022-11-20T10:10:32Z</time>
      </trkpt>
      <trkpt lat="45.97142" lon="1.37324">
        <ele>579.2</ele>
        <time>2022-11-20T10:10:37Z</time>
      </trkpt>
      <trkpt lat="45.9713" lon="1.37363">
        <ele>578</ele>
        <time>2022-11-20T10:10:43Z</time>
      </trkpt>
      <trkpt lat="45.97113" lon="1.37398">
        <ele>576.8</ele>
        <time>2022-11-20T10:10:48Z</time>
      </trkpt>
      <trkpt lat="45.9711" lon="1.37403">
        <ele>576.2</ele>
        <time>2022-11-20T10:10:49Z</time>
      </trkpt>
      <trkpt lat="45.97107" lon="1.37409">
        <ele>575.6</ele>
        <time>2022-11-20T10:10:50Z</time>
      </trkpt>
      <trkpt lat="45.971" lon="1.37419">
        <ele>575.2</ele>
        <time>2022-11-20T10:10:52Z</time>
      </trkpt>
      <trkpt lat="45.97096" lon="1.3743">
        <ele>575</ele>
        <time>2022-11-20T10:10:54Z</time>
      </trkpt>
      <trkpt lat="45.97095" lon="1.37435">
        <ele>574.8</ele>
        <time>2022-11-20T10:10:55Z</time>
      </trkpt>
      <trkpt lat="45.97094" lon="1.37441">
        <ele>574.8</ele>
        <time>2022-11-20T10:10:56Z</time>
      </trkpt>
      <trkpt lat="45.97094" lon="1.37451">
        <ele>574.8</ele>
        <time>2022-11-20T10:10:58Z</time>
      </trkpt>
      <trkpt lat="45.97093" lon="1.37465">
        <ele>574.8</ele>
        <time>2022-11-20T10:11:00Z</time>
      </trkpt>
      <trkpt lat="45.97093" lon="1.37485">
        <ele>574.6</ele>
        <time>2022-11-20T10:11:03Z</time>
      </trkpt>
      <trkpt lat="45.97094" lon="1.37507">
        <ele>574.8</ele>
        <time>2022-11-20T10:11:07Z</time>
      </trkpt>
      <trkpt lat="45.97096" lon="1.3752">
        <ele>575.8</ele>
        <time>2022-11-20T10:11:11Z</time>
      </trkpt>
      <trkpt lat="45.97097" lon="1.37527">
        <ele>576.4</ele>
        <time>2022-11-20T10:11:13Z</time>
      </trkpt>
      <trkpt lat="45.97097" lon="1.37532">
        <ele>577</ele>
        <time>2022-11-20T10:11:15Z</time>
      </trkpt>
      <trkpt lat="45.97096" lon="1.37543">
        <ele>578.2</ele>
        <time>2022-11-20T10:11:19Z</time>
      </trkpt>
      <trkpt lat="45.97095" lon="1.37545">
        <ele>578.4</ele>
        <time>2022-11-20T10:11:20Z</time>
      </trkpt>
      <trkpt lat="45.971" lon="1.37555">
        <ele>579.4</ele>
        <time>2022-11-20T10:11:25Z</time>
      </trkpt>
      <trkpt lat="45.971" lon="1.37561">
        <ele>579.8</ele>
        <time>2022-11-20T10:11:27Z</time>
      </trkpt>
      <trkpt lat="45.97097" lon="1.3758">
        <ele>580.4</ele>
        <time>2022-11-20T10:11:34Z</time>
      </trkpt>
      <trkpt lat="45.97097" lon="1.37582">
        <ele>580.4</ele>
        <time>2022-11-20T10:11:35Z</time>
      </trkpt>
      <trkpt lat="45.97094" lon="1.37607">
        <ele>580.6</ele>
        <time>2022-11-20T10:11:43Z</time>
      </trkpt>
      <trkpt lat="45.97091" lon="1.37624">
        <ele>580.2</ele>
        <time>2022-11-20T10:11:46Z</time>
      </trkpt>
      <trkpt lat="45.9709" lon="1.37634">
        <ele>579.6</ele>
        <time>2022-11-20T10:11:48Z</time>
      </trkpt>
      <trkpt lat="45.97089" lon="1.37639">
        <ele>579.4</ele>
        <time>2022-11-20T10:11:49Z</time>
      </trkpt>
      <trkpt lat="45.97085" lon="1.37651">
        <ele>578</ele>
        <time>2022-11-20T10:11:51Z</time>
      </trkpt>
      <trkpt lat="45.97081" lon="1.37661">
        <ele>577.2</ele>
        <time>2022-11-20T10:11:53Z</time>
      </trkpt>
      <trkpt lat="45.97079" lon="1.37666">
        <ele>576.4</ele>
        <time>2022-11-20T10:11:54Z</time>
      </trkpt>
      <trkpt lat="45.97079" lon="1.37673">
        <ele>575.4</ele>
        <time>2022-11-20T10:11:56Z</time>
      </trkpt>
      <trkpt lat="45.97079" lon="1.37677">
        <ele>574.6</ele>
        <time>2022-11-20T10:11:57Z</time>
      </trkpt>
      <trkpt lat="45.97078" lon="1.3768">
        <ele>574</ele>
        <time>2022-11-20T10:11:58Z</time>
      </trkpt>
      <trkpt lat="45.97078" lon="1.37683">
        <ele>572.8</ele>
        <time>2022-11-20T10:11:59Z</time>
      </trkpt>
      <trkpt lat="45.97077" lon="1.37686">
        <ele>571.6</ele>
        <time>2022-11-20T10:12:00Z</time>
      </trkpt>
      <trkpt lat="45.97074" lon="1.37694">
        <ele>570.2</ele>
        <time>2022-11-20T10:12:02Z</time>
      </trkpt>
      <trkpt lat="45.97074" lon="1.37697">
        <ele>569.2</ele>
        <time>2022-11-20T10:12:03Z</time>
      </trkpt>
      <trkpt lat="45.97073" lon="1.37702">
        <ele>568.2</ele>
        <time>2022-11-20T10:12:04Z</time>
      </trkpt>
      <trkpt lat="45.97072" lon="1.37707">
        <ele>566.2</ele>
        <time>2022-11-20T10:12:05Z</time>
      </trkpt>
      <trkpt lat="45.97071" lon="1.37714">
        <ele>564.8</ele>
        <time>2022-11-20T10:12:06Z</time>
      </trkpt>
      <trkpt lat="45.9707" lon="1.3772">
        <ele>562.2</ele>
        <time>2022-11-20T10:12:07Z</time>
      </trkpt>
      <trkpt lat="45.97068" lon="1.37727">
        <ele>560.8</ele>
        <time>2022-11-20T10:12:08Z</time>
      </trkpt>
      <trkpt lat="45.97066" lon="1.37734">
        <ele>559.6</ele>
        <time>2022-11-20T10:12:09Z</time>
      </trkpt>
      <trkpt lat="45.97062" lon="1.37749">
        <ele>558.2</ele>
        <time>2022-11-20T10:12:11Z</time>
      </trkpt>
      <trkpt lat="45.97058" lon="1.37766">
        <ele>557.4</ele>
        <time>2022-11-20T10:12:13Z</time>
      </trkpt>
      <trkpt lat="45.97056" lon="1.37775">
        <ele>557</ele>
        <time>2022-11-20T10:12:14Z</time>
      </trkpt>
      <trkpt lat="45.97052" lon="1.37786">
        <ele>556.8</ele>
        <time>2022-11-20T10:12:15Z</time>
      </trkpt>
      <trkpt lat="45.97045" lon="1.37804">
        <ele>556.6</ele>
        <time>2022-11-20T10:12:17Z</time>
      </trkpt>
      <trkpt lat="45.97043" lon="1.37809">
        <ele>556.6</ele>
        <time>2022-11-20T10:12:18Z</time>
      </trkpt>
      <trkpt lat="45.9704" lon="1.37817">
        <ele>556.6</ele>
        <time>2022-11-20T10:12:20Z</time>
      </trkpt>
      <trkpt lat="45.97038" lon="1.37828">
        <ele>556.4</ele>
        <time>2022-11-20T10:12:22Z</time>
      </trkpt>
      <trkpt lat="45.97037" lon="1.3784">
        <ele>555.6</ele>
        <time>2022-11-20T10:12:25Z</time>
      </trkpt>
      <trkpt lat="45.97034" lon="1.37847">
        <ele>554.2</ele>
        <time>2022-11-20T10:12:27Z</time>
      </trkpt>
      <trkpt lat="45.97031" lon="1.37854">
        <ele>553</ele>
        <time>2022-11-20T10:12:29Z</time>
      </trkpt>
      <trkpt lat="45.97029" lon="1.37859">
        <ele>551.4</ele>
        <time>2022-11-20T10:12:30Z</time>
      </trkpt>
      <trkpt lat="45.97025" lon="1.37868">
        <ele>549.2</ele>
        <time>2022-11-20T10:12:32Z</time>
      </trkpt>
      <trkpt lat="45.97022" lon="1.37874">
        <ele>548.2</ele>
        <time>2022-11-20T10:12:33Z</time>
      </trkpt>
      <trkpt lat="45.97022" lon="1.37874">
        <ele>545.8</ele>
        <time>2022-11-20T10:12:34Z</time>
      </trkpt>
      <trkpt lat="45.97017" lon="1.37887">
        <ele>545.8</ele>
        <time>2022-11-20T10:12:35Z</time>
      </trkpt>
      <trkpt lat="45.97015" lon="1.37894">
        <ele>544.4</ele>
        <time>2022-11-20T10:12:36Z</time>
      </trkpt>
      <trkpt lat="45.97009" lon="1.37909">
        <ele>542.6</ele>
        <time>2022-11-20T10:12:38Z</time>
      </trkpt>
      <trkpt lat="45.97006" lon="1.37916">
        <ele>541.6</ele>
        <time>2022-11-20T10:12:39Z</time>
      </trkpt>
      <trkpt lat="45.97001" lon="1.37929">
        <ele>539.8</ele>
        <time>2022-11-20T10:12:41Z</time>
      </trkpt>
      <trkpt lat="45.96999" lon="1.37943">
        <ele>538.6</ele>
        <time>2022-11-20T10:12:43Z</time>
      </trkpt>
      <trkpt lat="45.97" lon="1.37954">
        <ele>536</ele>
        <time>2022-11-20T10:12:45Z</time>
      </trkpt>
      <trkpt lat="45.97" lon="1.37959">
        <ele>534.4</ele>
        <time>2022-11-20T10:12:46Z</time>
      </trkpt>
      <trkpt lat="45.97001" lon="1.37962">
        <ele>533</ele>
        <time>2022-11-20T10:12:47Z</time>
      </trkpt>
      <trkpt lat="45.97002" lon="1.37965">
        <ele>531.8</ele>
        <time>2022-11-20T10:12:48Z</time>
      </trkpt>
      <trkpt lat="45.97003" lon="1.37968">
        <ele>530.4</ele>
        <time>2022-11-20T10:12:49Z</time>
      </trkpt>
      <trkpt lat="45.97001" lon="1.37978">
        <ele>528.6</ele>
        <time>2022-11-20T10:12:50Z</time>
      </trkpt>
      <trkpt lat="45.96999" lon="1.37987">
        <ele>526.4</ele>
        <time>2022-11-20T10:12:51Z</time>
      </trkpt>
      <trkpt lat="45.96996" lon="1.37997">
        <ele>524.8</ele>
        <time>2022-11-20T10:12:52Z</time>
      </trkpt>
      <trkpt lat="45.96994" lon="1.38006">
        <ele>523.8</ele>
        <time>2022-11-20T10:12:53Z</time>
      </trkpt>
      <trkpt lat="45.96989" lon="1.38021">
        <ele>521.8</ele>
        <time>2022-11-20T10:12:55Z</time>
      </trkpt>
      <trkpt lat="45.96986" lon="1.38028">
        <ele>521</ele>
        <time>2022-11-20T10:12:56Z</time>
      </trkpt>
      <trkpt lat="45.96981" lon="1.3804">
        <ele>519.6</ele>
        <time>2022-11-20T10:12:57Z</time>
      </trkpt>
      <trkpt lat="45.96977" lon="1.38049">
        <ele>518.8</ele>
        <time>2022-11-20T10:12:58Z</time>
      </trkpt>
      <trkpt lat="45.9697" lon="1.38062">
        <ele>517.8</ele>
        <time>2022-11-20T10:12:59Z</time>
      </trkpt>
      <trkpt lat="45.96953" lon="1.38087">
        <ele>517.2</ele>
        <time>2022-11-20T10:13:00Z</time>
      </trkpt>
      <trkpt lat="45.96944" lon="1.38097">
        <ele>516.8</ele>
        <time>2022-11-20T10:13:01Z</time>
      </trkpt>
      <trkpt lat="45.9693" lon="1.38105">
        <ele>515.8</ele>
        <time>2022-11-20T10:13:05Z</time>
      </trkpt>
      <trkpt lat="45.96926" lon="1.38107">
        <ele>515.4</ele>
        <time>2022-11-20T10:13:06Z</time>
      </trkpt>
      <trkpt lat="45.96907" lon="1.38115">
        <ele>515.2</ele>
        <time>2022-11-20T10:13:12Z</time>
      </trkpt>
      <trkpt lat="45.96898" lon="1.38113">
        <ele>514.4</ele>
        <time>2022-11-20T10:13:14Z</time>
      </trkpt>
      <trkpt lat="45.96884" lon="1.38109">
        <ele>513.8</ele>
        <time>2022-11-20T10:13:17Z</time>
      </trkpt>
      <trkpt lat="45.96879" lon="1.38108">
        <ele>513.6</ele>
        <time>2022-11-20T10:13:18Z</time>
      </trkpt>
      <trkpt lat="45.96867" lon="1.38107">
        <ele>513.6</ele>
        <time>2022-11-20T10:13:20Z</time>
      </trkpt>
      <trkpt lat="45.96855" lon="1.38109">
        <ele>513.4</ele>
        <time>2022-11-20T10:13:22Z</time>
      </trkpt>
      <trkpt lat="45.96848" lon="1.38112">
        <ele>513.2</ele>
        <time>2022-11-20T10:13:23Z</time>
      </trkpt>
      <trkpt lat="45.96837" lon="1.38113">
        <ele>512.8</ele>
        <time>2022-11-20T10:13:25Z</time>
      </trkpt>
      <trkpt lat="45.96824" lon="1.38114">
        <ele>512.6</ele>
        <time>2022-11-20T10:13:27Z</time>
      </trkpt>
      <trkpt lat="45.96817" lon="1.38114">
        <ele>512</ele>
        <time>2022-11-20T10:13:28Z</time>
      </trkpt>
      <trkpt lat="45.96792" lon="1.38107">
        <ele>510.8</ele>
        <time>2022-11-20T10:13:32Z</time>
      </trkpt>
      <trkpt lat="45.96782" lon="1.38106">
        <ele>509.8</ele>
        <time>2022-11-20T10:13:34Z</time>
      </trkpt>
      <trkpt lat="45.96776" lon="1.38104">
        <ele>509.2</ele>
        <time>2022-11-20T10:13:35Z</time>
      </trkpt>
      <trkpt lat="45.96764" lon="1.38101">
        <ele>508.6</ele>
        <time>2022-11-20T10:13:37Z</time>
      </trkpt>
      <trkpt lat="45.96757" lon="1.38101">
        <ele>508.4</ele>
        <time>2022-11-20T10:13:38Z</time>
      </trkpt>
      <trkpt lat="45.96743" lon="1.38093">
        <ele>508</ele>
        <time>2022-11-20T10:13:41Z</time>
      </trkpt>
      <trkpt lat="45.96739" lon="1.3809">
        <ele>508.4</ele>
        <time>2022-11-20T10:13:42Z</time>
      </trkpt>
      <trkpt lat="45.96735" lon="1.38088">
        <ele>508.6</ele>
        <time>2022-11-20T10:13:43Z</time>
      </trkpt>
      <trkpt lat="45.96728" lon="1.38085">
        <ele>509.4</ele>
        <time>2022-11-20T10:13:46Z</time>
      </trkpt>
      <trkpt lat="45.96724" lon="1.38084">
        <ele>509.6</ele>
        <time>2022-11-20T10:13:48Z</time>
      </trkpt>
      <trkpt lat="45.96713" lon="1.38078">
        <ele>510</ele>
        <time>2022-11-20T10:13:52Z</time>
      </trkpt>
      <trkpt lat="45.96707" lon="1.38077">
        <ele>510.6</ele>
        <time>2022-11-20T10:13:54Z</time>
      </trkpt>
      <trkpt lat="45.96693" lon="1.38073">
        <ele>511.6</ele>
        <time>2022-11-20T10:13:59Z</time>
      </trkpt>
      <trkpt lat="45.96685" lon="1.38071">
        <ele>511.8</ele>
        <time>2022-11-20T10:14:02Z</time>
      </trkpt>
      <trkpt lat="45.96681" lon="1.38072">
        <ele>511.8</ele>
        <time>2022-11-20T10:14:04Z</time>
      </trkpt>
      <trkpt lat="45.96683" lon="1.38081">
        <ele>511.4</ele>
        <time>2022-11-20T10:14:09Z</time>
      </trkpt>
      <trkpt lat="45.96684" lon="1.38083">
        <ele>510.8</ele>
        <time>2022-11-20T10:14:10Z</time>
      </trkpt>
      <trkpt lat="45.96683" lon="1.38086">
        <ele>510</ele>
        <time>2022-11-20T10:14:11Z</time>
      </trkpt>
      <trkpt lat="45.96683" lon="1.38089">
        <ele>508.6</ele>
        <time>2022-11-20T10:14:12Z</time>
      </trkpt>
      <trkpt lat="45.96681" lon="1.38091">
        <ele>506.8</ele>
        <time>2022-11-20T10:14:13Z</time>
      </trkpt>
      <trkpt lat="45.9668" lon="1.38094">
        <ele>505.6</ele>
        <time>2022-11-20T10:14:14Z</time>
      </trkpt>
      <trkpt lat="45.96679" lon="1.38098">
        <ele>503.4</ele>
        <time>2022-11-20T10:14:16Z</time>
      </trkpt>
      <trkpt lat="45.96678" lon="1.38101">
        <ele>501.8</ele>
        <time>2022-11-20T10:14:17Z</time>
      </trkpt>
      <trkpt lat="45.96678" lon="1.38103">
        <ele>500.4</ele>
        <time>2022-11-20T10:14:18Z</time>
      </trkpt>
      <trkpt lat="45.96677" lon="1.38105">
        <ele>498.8</ele>
        <time>2022-11-20T10:14:19Z</time>
      </trkpt>
      <trkpt lat="45.96673" lon="1.38113">
        <ele>496.6</ele>
        <time>2022-11-20T10:14:21Z</time>
      </trkpt>
      <trkpt lat="45.96671" lon="1.38116">
        <ele>495.4</ele>
        <time>2022-11-20T10:14:22Z</time>
      </trkpt>
      <trkpt lat="45.96671" lon="1.38116">
        <ele>493.2</ele>
        <time>2022-11-20T10:14:23Z</time>
      </trkpt>
      <trkpt lat="45.96669" lon="1.38123">
        <ele>493.2</ele>
        <time>2022-11-20T10:14:24Z</time>
      </trkpt>
      <trkpt lat="45.96669" lon="1.38126">
        <ele>492.2</ele>
        <time>2022-11-20T10:14:25Z</time>
      </trkpt>
      <trkpt lat="45.96668" lon="1.38129">
        <ele>491.6</ele>
        <time>2022-11-20T10:14:26Z</time>
      </trkpt>
      <trkpt lat="45.96656" lon="1.38154">
        <ele>490.8</ele>
        <time>2022-11-20T10:14:28Z</time>
      </trkpt>
      <trkpt lat="45.96654" lon="1.38162">
        <ele>490.4</ele>
        <time>2022-11-20T10:14:29Z</time>
      </trkpt>
      <trkpt lat="45.96653" lon="1.38168">
        <ele>490</ele>
        <time>2022-11-20T10:14:30Z</time>
      </trkpt>
      <trkpt lat="45.9665" lon="1.38175">
        <ele>489.8</ele>
        <time>2022-11-20T10:14:31Z</time>
      </trkpt>
      <trkpt lat="45.96647" lon="1.38182">
        <ele>489.4</ele>
        <time>2022-11-20T10:14:32Z</time>
      </trkpt>
      <trkpt lat="45.96643" lon="1.38189">
        <ele>489.2</ele>
        <time>2022-11-20T10:14:33Z</time>
      </trkpt>
      <trkpt lat="45.96639" lon="1.38196">
        <ele>489</ele>
        <time>2022-11-20T10:14:34Z</time>
      </trkpt>
      <trkpt lat="45.96635" lon="1.38202">
        <ele>488.4</ele>
        <time>2022-11-20T10:14:35Z</time>
      </trkpt>
      <trkpt lat="45.96625" lon="1.38213">
        <ele>488</ele>
        <time>2022-11-20T10:14:37Z</time>
      </trkpt>
      <trkpt lat="45.96608" lon="1.38224">
        <ele>487.2</ele>
        <time>2022-11-20T10:14:40Z</time>
      </trkpt>
      <trkpt lat="45.96601" lon="1.38229">
        <ele>486.8</ele>
        <time>2022-11-20T10:14:41Z</time>
      </trkpt>
      <trkpt lat="45.96584" lon="1.38243">
        <ele>485.8</ele>
        <time>2022-11-20T10:14:44Z</time>
      </trkpt>
      <trkpt lat="45.96572" lon="1.38247">
        <ele>484.8</ele>
        <time>2022-11-20T10:14:46Z</time>
      </trkpt>
      <trkpt lat="45.96566" lon="1.3825">
        <ele>484</ele>
        <time>2022-11-20T10:14:47Z</time>
      </trkpt>
      <trkpt lat="45.9656" lon="1.38255">
        <ele>482.8</ele>
        <time>2022-11-20T10:14:48Z</time>
      </trkpt>
      <trkpt lat="45.96552" lon="1.38264">
        <ele>482</ele>
        <time>2022-11-20T10:14:49Z</time>
      </trkpt>
      <trkpt lat="45.96545" lon="1.38272">
        <ele>481.2</ele>
        <time>2022-11-20T10:14:50Z</time>
      </trkpt>
      <trkpt lat="45.96528" lon="1.38286">
        <ele>479.4</ele>
        <time>2022-11-20T10:14:52Z</time>
      </trkpt>
      <trkpt lat="45.9651" lon="1.38301">
        <ele>477.2</ele>
        <time>2022-11-20T10:14:54Z</time>
      </trkpt>
      <trkpt lat="45.96503" lon="1.38308">
        <ele>476</ele>
        <time>2022-11-20T10:14:55Z</time>
      </trkpt>
      <trkpt lat="45.9649" lon="1.38324">
        <ele>474</ele>
        <time>2022-11-20T10:14:57Z</time>
      </trkpt>
      <trkpt lat="45.96482" lon="1.38332">
        <ele>472.8</ele>
        <time>2022-11-20T10:14:58Z</time>
      </trkpt>
      <trkpt lat="45.96476" lon="1.3834">
        <ele>471.8</ele>
        <time>2022-11-20T10:14:59Z</time>
      </trkpt>
      <trkpt lat="45.96455" lon="1.38364">
        <ele>470.6</ele>
        <time>2022-11-20T10:15:02Z</time>
      </trkpt>
      <trkpt lat="45.9644" lon="1.38379">
        <ele>469.2</ele>
        <time>2022-11-20T10:15:04Z</time>
      </trkpt>
      <trkpt lat="45.96425" lon="1.38396">
        <ele>467.8</ele>
        <time>2022-11-20T10:15:06Z</time>
      </trkpt>
      <trkpt lat="45.96404" lon="1.38416">
        <ele>466.4</ele>
        <time>2022-11-20T10:15:09Z</time>
      </trkpt>
      <trkpt lat="45.9639" lon="1.3843">
        <ele>464.8</ele>
        <time>2022-11-20T10:15:11Z</time>
      </trkpt>
      <trkpt lat="45.96383" lon="1.38437">
        <ele>463.6</ele>
        <time>2022-11-20T10:15:12Z</time>
      </trkpt>
      <trkpt lat="45.9637" lon="1.38451">
        <ele>462.4</ele>
        <time>2022-11-20T10:15:14Z</time>
      </trkpt>
      <trkpt lat="45.96358" lon="1.38467">
        <ele>461.2</ele>
        <time>2022-11-20T10:15:16Z</time>
      </trkpt>
      <trkpt lat="45.96352" lon="1.38476">
        <ele>460.4</ele>
        <time>2022-11-20T10:15:17Z</time>
      </trkpt>
      <trkpt lat="45.96345" lon="1.38487">
        <ele>459.8</ele>
        <time>2022-11-20T10:15:18Z</time>
      </trkpt>
      <trkpt lat="45.96329" lon="1.38508">
        <ele>458.6</ele>
        <time>2022-11-20T10:15:20Z</time>
      </trkpt>
      <trkpt lat="45.9632" lon="1.38519">
        <ele>457.2</ele>
        <time>2022-11-20T10:15:21Z</time>
      </trkpt>
      <trkpt lat="45.96312" lon="1.38531">
        <ele>454.8</ele>
        <time>2022-11-20T10:15:22Z</time>
      </trkpt>
      <trkpt lat="45.96305" lon="1.38541">
        <ele>453.2</ele>
        <time>2022-11-20T10:15:23Z</time>
      </trkpt>
      <trkpt lat="45.96299" lon="1.38551">
        <ele>451.6</ele>
        <time>2022-11-20T10:15:24Z</time>
      </trkpt>
      <trkpt lat="45.96287" lon="1.38566">
        <ele>449.8</ele>
        <time>2022-11-20T10:15:26Z</time>
      </trkpt>
      <trkpt lat="45.96281" lon="1.38573">
        <ele>448.8</ele>
        <time>2022-11-20T10:15:27Z</time>
      </trkpt>
      <trkpt lat="45.96276" lon="1.38581">
        <ele>447.6</ele>
        <time>2022-11-20T10:15:28Z</time>
      </trkpt>
      <trkpt lat="45.96269" lon="1.38596">
        <ele>446.6</ele>
        <time>2022-11-20T10:15:30Z</time>
      </trkpt>
      <trkpt lat="45.96268" lon="1.38606">
        <ele>445.8</ele>
        <time>2022-11-20T10:15:31Z</time>
      </trkpt>
      <trkpt lat="45.96268" lon="1.38615">
        <ele>445</ele>
        <time>2022-11-20T10:15:32Z</time>
      </trkpt>
      <trkpt lat="45.96268" lon="1.38623">
        <ele>444.4</ele>
        <time>2022-11-20T10:15:33Z</time>
      </trkpt>
      <trkpt lat="45.96267" lon="1.38646">
        <ele>443.4</ele>
        <time>2022-11-20T10:15:36Z</time>
      </trkpt>
      <trkpt lat="45.96266" lon="1.38652">
        <ele>442.6</ele>
        <time>2022-11-20T10:15:37Z</time>
      </trkpt>
      <trkpt lat="45.96265" lon="1.38657">
        <ele>442.4</ele>
        <time>2022-11-20T10:15:38Z</time>
      </trkpt>
      <trkpt lat="45.96262" lon="1.38681">
        <ele>441.4</ele>
        <time>2022-11-20T10:15:41Z</time>
      </trkpt>
      <trkpt lat="45.9626" lon="1.38687">
        <ele>441</ele>
        <time>2022-11-20T10:15:42Z</time>
      </trkpt>
      <trkpt lat="45.96259" lon="1.38693">
        <ele>440.8</ele>
        <time>2022-11-20T10:15:43Z</time>
      </trkpt>
      <trkpt lat="45.96258" lon="1.38698">
        <ele>440.6</ele>
        <time>2022-11-20T10:15:44Z</time>
      </trkpt>
      <trkpt lat="45.96255" lon="1.38707">
        <ele>440.4</ele>
        <time>2022-11-20T10:15:46Z</time>
      </trkpt>
      <trkpt lat="45.96252" lon="1.38718">
        <ele>440</ele>
        <time>2022-11-20T10:15:48Z</time>
      </trkpt>
      <trkpt lat="45.96251" lon="1.38724">
        <ele>439.6</ele>
        <time>2022-11-20T10:15:49Z</time>
      </trkpt>
      <trkpt lat="45.9625" lon="1.3873">
        <ele>439.4</ele>
        <time>2022-11-20T10:15:50Z</time>
      </trkpt>
      <trkpt lat="45.96248" lon="1.38756">
        <ele>438.8</ele>
        <time>2022-11-20T10:15:54Z</time>
      </trkpt>
      <trkpt lat="45.96248" lon="1.38756">
        <ele>438.4</ele>
        <time>2022-11-20T10:15:55Z</time>
      </trkpt>
      <trkpt lat="45.96247" lon="1.38793">
        <ele>438</ele>
        <time>2022-11-20T10:15:59Z</time>
      </trkpt>
      <trkpt lat="45.96245" lon="1.38813">
        <ele>437.8</ele>
        <time>2022-11-20T10:16:01Z</time>
      </trkpt>
      <trkpt lat="45.96239" lon="1.38856">
        <ele>437.2</ele>
        <time>2022-11-20T10:16:05Z</time>
      </trkpt>
      <trkpt lat="45.96239" lon="1.38866">
        <ele>437</ele>
        <time>2022-11-20T10:16:06Z</time>
      </trkpt>
      <trkpt lat="45.96236" lon="1.38888">
        <ele>436.4</ele>
        <time>2022-11-20T10:16:08Z</time>
      </trkpt>
      <trkpt lat="45.96237" lon="1.38906">
        <ele>436.2</ele>
        <time>2022-11-20T10:16:10Z</time>
      </trkpt>
      <trkpt lat="45.96241" lon="1.38915">
        <ele>436</ele>
        <time>2022-11-20T10:16:12Z</time>
      </trkpt>
      <trkpt lat="45.96247" lon="1.38937">
        <ele>436.2</ele>
        <time>2022-11-20T10:16:18Z</time>
      </trkpt>
      <trkpt lat="45.96253" lon="1.38958">
        <ele>436.2</ele>
        <time>2022-11-20T10:16:26Z</time>
      </trkpt>
      <trkpt lat="45.96254" lon="1.38961">
        <ele>436.2</ele>
        <time>2022-11-20T10:16:27Z</time>
      </trkpt>
      <trkpt lat="45.9626" lon="1.38962">
        <ele>436.6</ele>
        <time>2022-11-20T10:16:31Z</time>
      </trkpt>
      <trkpt lat="45.96265" lon="1.38959">
        <ele>437.4</ele>
        <time>2022-11-20T10:16:34Z</time>
      </trkpt>
      <trkpt lat="45.96268" lon="1.38958">
        <ele>438.2</ele>
        <time>2022-11-20T10:16:36Z</time>
      </trkpt>
      <trkpt lat="45.9627" lon="1.38959">
        <ele>438.8</ele>
        <time>2022-11-20T10:16:37Z</time>
      </trkpt>
      <trkpt lat="45.96274" lon="1.38972">
        <ele>439.6</ele>
        <time>2022-11-20T10:16:41Z</time>
      </trkpt>
      <trkpt lat="45.96277" lon="1.38984">
        <ele>439.8</ele>
        <time>2022-11-20T10:16:44Z</time>
      </trkpt>
      <trkpt lat="45.96282" lon="1.38997">
        <ele>440.8</ele>
        <time>2022-11-20T10:16:48Z</time>
      </trkpt>
      <trkpt lat="45.96283" lon="1.39001">
        <ele>441</ele>
        <time>2022-11-20T10:16:49Z</time>
      </trkpt>
      <trkpt lat="45.96289" lon="1.39018">
        <ele>442</ele>
        <time>2022-11-20T10:16:54Z</time>
      </trkpt>
      <trkpt lat="45.9629" lon="1.39022">
        <ele>442.2</ele>
        <time>2022-11-20T10:16:55Z</time>
      </trkpt>
      <trkpt lat="45.96295" lon="1.39033">
        <ele>443.2</ele>
        <time>2022-11-20T10:16:59Z</time>
      </trkpt>
      <trkpt lat="45.96298" lon="1.39041">
        <ele>444</ele>
        <time>2022-11-20T10:17:02Z</time>
      </trkpt>
      <trkpt lat="45.96301" lon="1.39045">
        <ele>444.4</ele>
        <time>2022-11-20T10:17:04Z</time>
      </trkpt>
      <trkpt lat="45.96306" lon="1.39054">
        <ele>445.2</ele>
        <time>2022-11-20T10:17:08Z</time>
      </trkpt>
      <trkpt lat="45.96307" lon="1.39056">
        <ele>445.6</ele>
        <time>2022-11-20T10:17:09Z</time>
      </trkpt>
      <trkpt lat="45.96312" lon="1.39072">
        <ele>446.8</ele>
        <time>2022-11-20T10:17:14Z</time>
      </trkpt>
      <trkpt lat="45.96313" lon="1.39073">
        <ele>447.2</ele>
        <time>2022-11-20T10:17:15Z</time>
      </trkpt>
      <trkpt lat="45.96316" lon="1.3908">
        <ele>448</ele>
        <time>2022-11-20T10:17:18Z</time>
      </trkpt>
      <trkpt lat="45.96323" lon="1.39087">
        <ele>449</ele>
        <time>2022-11-20T10:17:23Z</time>
      </trkpt>
      <trkpt lat="45.96331" lon="1.39086">
        <ele>449.8</ele>
        <time>2022-11-20T10:17:28Z</time>
      </trkpt>
      <trkpt lat="45.96332" lon="1.39085">
        <ele>450.2</ele>
        <time>2022-11-20T10:17:29Z</time>
      </trkpt>
      <trkpt lat="45.96335" lon="1.39077">
        <ele>451.2</ele>
        <time>2022-11-20T10:17:34Z</time>
      </trkpt>
      <trkpt lat="45.96336" lon="1.39075">
        <ele>451.6</ele>
        <time>2022-11-20T10:17:35Z</time>
      </trkpt>
      <trkpt lat="45.96339" lon="1.39072">
        <ele>452.2</ele>
        <time>2022-11-20T10:17:38Z</time>
      </trkpt>
      <trkpt lat="45.96341" lon="1.39068">
        <ele>453.4</ele>
        <time>2022-11-20T10:17:42Z</time>
      </trkpt>
      <trkpt lat="45.96341" lon="1.39067">
        <ele>453.8</ele>
        <time>2022-11-20T10:17:44Z</time>
      </trkpt>
      <trkpt lat="45.96342" lon="1.39065">
        <ele>454.4</ele>
        <time>2022-11-20T10:17:46Z</time>
      </trkpt>
      <trkpt lat="45.96345" lon="1.3906">
        <ele>455.4</ele>
        <time>2022-11-20T10:17:50Z</time>
      </trkpt>
      <trkpt lat="45.96345" lon="1.39058">
        <ele>455.6</ele>
        <time>2022-11-20T10:17:51Z</time>
      </trkpt>
      <trkpt lat="45.96348" lon="1.39048">
        <ele>456.8</ele>
        <time>2022-11-20T10:17:57Z</time>
      </trkpt>
      <trkpt lat="45.96349" lon="1.39044">
        <ele>457.2</ele>
        <time>2022-11-20T10:17:59Z</time>
      </trkpt>
      <trkpt lat="45.9635" lon="1.39041">
        <ele>458</ele>
        <time>2022-11-20T10:18:01Z</time>
      </trkpt>
      <trkpt lat="45.96349" lon="1.39033">
        <ele>458.6</ele>
        <time>2022-11-20T10:18:06Z</time>
      </trkpt>
      <trkpt lat="45.96349" lon="1.39029">
        <ele>459.2</ele>
        <time>2022-11-20T10:18:08Z</time>
      </trkpt>
      <trkpt lat="45.96347" lon="1.39018">
        <ele>459.2</ele>
        <time>2022-11-20T10:18:12Z</time>
      </trkpt>
      <trkpt lat="45.96341" lon="1.38992">
        <ele>458.2</ele>
        <time>2022-11-20T10:18:18Z</time>
      </trkpt>
      <trkpt lat="45.9634" lon="1.38986">
        <ele>458.2</ele>
        <time>2022-11-20T10:18:19Z</time>
      </trkpt>
      <trkpt lat="45.96334" lon="1.3896">
        <ele>456.6</ele>
        <time>2022-11-20T10:18:23Z</time>
      </trkpt>
      <trkpt lat="45.96333" lon="1.38952">
        <ele>456.2</ele>
        <time>2022-11-20T10:18:24Z</time>
      </trkpt>
      <trkpt lat="45.96332" lon="1.38941">
        <ele>455.8</ele>
        <time>2022-11-20T10:18:26Z</time>
      </trkpt>
      <trkpt lat="45.96331" lon="1.38934">
        <ele>455.6</ele>
        <time>2022-11-20T10:18:28Z</time>
      </trkpt>
      <trkpt lat="45.96327" lon="1.38918">
        <ele>456.8</ele>
        <time>2022-11-20T10:18:34Z</time>
      </trkpt>
      <trkpt lat="45.96325" lon="1.389">
        <ele>457.6</ele>
        <time>2022-11-20T10:18:39Z</time>
      </trkpt>
      <trkpt lat="45.96325" lon="1.38895">
        <ele>458.2</ele>
        <time>2022-11-20T10:18:41Z</time>
      </trkpt>
      <trkpt lat="45.96325" lon="1.38889">
        <ele>459</ele>
        <time>2022-11-20T10:18:43Z</time>
      </trkpt>
      <trkpt lat="45.96324" lon="1.38879">
        <ele>460.4</ele>
        <time>2022-11-20T10:18:47Z</time>
      </trkpt>
      <trkpt lat="45.96324" lon="1.38877">
        <ele>460.6</ele>
        <time>2022-11-20T10:18:48Z</time>
      </trkpt>
      <trkpt lat="45.96323" lon="1.38869">
        <ele>461.4</ele>
        <time>2022-11-20T10:18:52Z</time>
      </trkpt>
      <trkpt lat="45.96323" lon="1.38863">
        <ele>462.4</ele>
        <time>2022-11-20T10:18:56Z</time>
      </trkpt>
      <trkpt lat="45.96321" lon="1.38858">
        <ele>463.2</ele>
        <time>2022-11-20T10:18:59Z</time>
      </trkpt>
      <trkpt lat="45.96321" lon="1.38858">
        <ele>463.4</ele>
        <time>2022-11-20T10:19:00Z</time>
      </trkpt>
      <trkpt lat="45.9632" lon="1.38852">
        <ele>464.2</ele>
        <time>2022-11-20T10:19:02Z</time>
      </trkpt>
      <trkpt lat="45.9632" lon="1.3885">
        <ele>464.4</ele>
        <time>2022-11-20T10:19:03Z</time>
      </trkpt>
      <trkpt lat="45.9632" lon="1.38848">
        <ele>464.6</ele>
        <time>2022-11-20T10:19:04Z</time>
      </trkpt>
      <trkpt lat="45.96319" lon="1.38832">
        <ele>465.6</ele>
        <time>2022-11-20T10:19:10Z</time>
      </trkpt>
      <trkpt lat="45.9632" lon="1.38831">
        <ele>465.8</ele>
        <time>2022-11-20T10:19:11Z</time>
      </trkpt>
      <trkpt lat="45.96322" lon="1.38825">
        <ele>467</ele>
        <time>2022-11-20T10:19:15Z</time>
      </trkpt>
      <trkpt lat="45.96322" lon="1.38824">
        <ele>467</ele>
        <time>2022-11-20T10:19:16Z</time>
      </trkpt>
      <trkpt lat="45.96324" lon="1.38825">
        <ele>467.4</ele>
        <time>2022-11-20T10:19:18Z</time>
      </trkpt>
      <trkpt lat="45.96325" lon="1.38826">
        <ele>467.8</ele>
        <time>2022-11-20T10:19:20Z</time>
      </trkpt>
      <trkpt lat="45.96324" lon="1.38826">
        <ele>468</ele>
        <time>2022-11-20T10:19:21Z</time>
      </trkpt>
      <trkpt lat="45.96321" lon="1.3883">
        <ele>468.2</ele>
        <time>2022-11-20T10:19:23Z</time>
      </trkpt>
      <trkpt lat="45.96319" lon="1.38835">
        <ele>467</ele>
        <time>2022-11-20T10:19:26Z</time>
      </trkpt>
      <trkpt lat="45.96319" lon="1.38838">
        <ele>466.6</ele>
        <time>2022-11-20T10:19:27Z</time>
      </trkpt>
      <trkpt lat="45.96322" lon="1.38851">
        <ele>465.4</ele>
        <time>2022-11-20T10:19:30Z</time>
      </trkpt>
      <trkpt lat="45.96322" lon="1.38855">
        <ele>464.8</ele>
        <time>2022-11-20T10:19:31Z</time>
      </trkpt>
      <trkpt lat="45.96324" lon="1.38862">
        <ele>463.2</ele>
        <time>2022-11-20T10:19:33Z</time>
      </trkpt>
      <trkpt lat="45.96328" lon="1.38872">
        <ele>462.2</ele>
        <time>2022-11-20T10:19:35Z</time>
      </trkpt>
      <trkpt lat="45.96333" lon="1.38884">
        <ele>461</ele>
        <time>2022-11-20T10:19:37Z</time>
      </trkpt>
      <trkpt lat="45.96336" lon="1.3889">
        <ele>459.8</ele>
        <time>2022-11-20T10:19:38Z</time>
      </trkpt>
      <trkpt lat="45.96337" lon="1.38898">
        <ele>459</ele>
        <time>2022-11-20T10:19:39Z</time>
      </trkpt>
      <trkpt lat="45.9634" lon="1.38905">
        <ele>458.2</ele>
        <time>2022-11-20T10:19:40Z</time>
      </trkpt>
      <trkpt lat="45.96345" lon="1.3892">
        <ele>457</ele>
        <time>2022-11-20T10:19:42Z</time>
      </trkpt>
      <trkpt lat="45.96348" lon="1.38938">
        <ele>455.8</ele>
        <time>2022-11-20T10:19:45Z</time>
      </trkpt>
      <trkpt lat="45.96348" lon="1.38942">
        <ele>455.8</ele>
        <time>2022-11-20T10:19:46Z</time>
      </trkpt>
      <trkpt lat="45.96346" lon="1.38959">
        <ele>456.2</ele>
        <time>2022-11-20T10:19:50Z</time>
      </trkpt>
      <trkpt lat="45.96348" lon="1.38976">
        <ele>457</ele>
        <time>2022-11-20T10:19:54Z</time>
      </trkpt>
      <trkpt lat="45.96347" lon="1.38983">
        <ele>457.2</ele>
        <time>2022-11-20T10:19:56Z</time>
      </trkpt>
      <trkpt lat="45.96348" lon="1.38994">
        <ele>458</ele>
        <time>2022-11-20T10:20:00Z</time>
      </trkpt>
      <trkpt lat="45.9635" lon="1.39013">
        <ele>459</ele>
        <time>2022-11-20T10:20:06Z</time>
      </trkpt>
      <trkpt lat="45.9635" lon="1.39016">
        <ele>459.2</ele>
        <time>2022-11-20T10:20:07Z</time>
      </trkpt>
      <trkpt lat="45.96348" lon="1.39035">
        <ele>458.4</ele>
        <time>2022-11-20T10:20:11Z</time>
      </trkpt>
      <trkpt lat="45.96346" lon="1.39042">
        <ele>458</ele>
        <time>2022-11-20T10:20:12Z</time>
      </trkpt>
      <trkpt lat="45.96341" lon="1.39061">
        <ele>456</ele>
        <time>2022-11-20T10:20:15Z</time>
      </trkpt>
      <trkpt lat="45.96339" lon="1.39066">
        <ele>454.8</ele>
        <time>2022-11-20T10:20:16Z</time>
      </trkpt>
      <trkpt lat="45.96336" lon="1.39073">
        <ele>453.6</ele>
        <time>2022-11-20T10:20:17Z</time>
      </trkpt>
      <trkpt lat="45.96335" lon="1.39078">
        <ele>452.6</ele>
        <time>2022-11-20T10:20:18Z</time>
      </trkpt>
      <trkpt lat="45.96335" lon="1.39084">
        <ele>452</ele>
        <time>2022-11-20T10:20:19Z</time>
      </trkpt>
      <trkpt lat="45.96335" lon="1.39088">
        <ele>451.4</ele>
        <time>2022-11-20T10:20:20Z</time>
      </trkpt>
      <trkpt lat="45.96338" lon="1.39094">
        <ele>450.8</ele>
        <time>2022-11-20T10:20:22Z</time>
      </trkpt>
      <trkpt lat="45.96343" lon="1.39101">
        <ele>450.6</ele>
        <time>2022-11-20T10:20:25Z</time>
      </trkpt>
      <trkpt lat="45.96354" lon="1.39115">
        <ele>451.8</ele>
        <time>2022-11-20T10:20:32Z</time>
      </trkpt>
      <trkpt lat="45.96357" lon="1.3912">
        <ele>452.4</ele>
        <time>2022-11-20T10:20:34Z</time>
      </trkpt>
      <trkpt lat="45.9636" lon="1.39126">
        <ele>453</ele>
        <time>2022-11-20T10:20:37Z</time>
      </trkpt>
      <trkpt lat="45.96365" lon="1.39133">
        <ele>454</ele>
        <time>2022-11-20T10:20:41Z</time>
      </trkpt>
      <trkpt lat="45.96367" lon="1.39133">
        <ele>454.2</ele>
        <time>2022-11-20T10:20:42Z</time>
      </trkpt>
      <trkpt lat="45.96367" lon="1.3913">
        <ele>454.6</ele>
        <time>2022-11-20T10:20:44Z</time>
      </trkpt>
      <trkpt lat="45.96358" lon="1.39123">
        <ele>454.8</ele>
        <time>2022-11-20T10:20:47Z</time>
      </trkpt>
      <trkpt lat="45.96333" lon="1.39098">
        <ele>453.8</ele>
        <time>2022-11-20T10:20:52Z</time>
      </trkpt>
      <trkpt lat="45.96317" lon="1.39077">
        <ele>452.8</ele>
        <time>2022-11-20T10:20:55Z</time>
      </trkpt>
      <trkpt lat="45.96306" lon="1.3906">
        <ele>452</ele>
        <time>2022-11-20T10:20:57Z</time>
      </trkpt>
      <trkpt lat="45.96301" lon="1.39049">
        <ele>451</ele>
        <time>2022-11-20T10:20:58Z</time>
      </trkpt>
      <trkpt lat="45.96291" lon="1.39027">
        <ele>449.4</ele>
        <time>2022-11-20T10:21:00Z</time>
      </trkpt>
      <trkpt lat="45.96286" lon="1.39015">
        <ele>448.4</ele>
        <time>2022-11-20T10:21:01Z</time>
      </trkpt>
      <trkpt lat="45.96279" lon="1.38992">
        <ele>446.6</ele>
        <time>2022-11-20T10:21:03Z</time>
      </trkpt>
      <trkpt lat="45.96273" lon="1.38973">
        <ele>444</ele>
        <time>2022-11-20T10:21:05Z</time>
      </trkpt>
      <trkpt lat="45.96268" lon="1.3896">
        <ele>442</ele>
        <time>2022-11-20T10:21:07Z</time>
      </trkpt>
      <trkpt lat="45.96266" lon="1.38955">
        <ele>441.2</ele>
        <time>2022-11-20T10:21:08Z</time>
      </trkpt>
      <trkpt lat="45.96265" lon="1.38952">
        <ele>440.4</ele>
        <time>2022-11-20T10:21:09Z</time>
      </trkpt>
      <trkpt lat="45.96263" lon="1.38943">
        <ele>440</ele>
        <time>2022-11-20T10:21:12Z</time>
      </trkpt>
      <trkpt lat="45.9626" lon="1.38917">
        <ele>441.6</ele>
        <time>2022-11-20T10:21:18Z</time>
      </trkpt>
      <trkpt lat="45.96259" lon="1.38904">
        <ele>442.6</ele>
        <time>2022-11-20T10:21:21Z</time>
      </trkpt>
      <trkpt lat="45.96255" lon="1.38883">
        <ele>443.6</ele>
        <time>2022-11-20T10:21:25Z</time>
      </trkpt>
      <trkpt lat="45.96254" lon="1.38878">
        <ele>443.8</ele>
        <time>2022-11-20T10:21:26Z</time>
      </trkpt>
      <trkpt lat="45.96251" lon="1.38843">
        <ele>444.4</ele>
        <time>2022-11-20T10:21:33Z</time>
      </trkpt>
      <trkpt lat="45.96255" lon="1.38824">
        <ele>445</ele>
        <time>2022-11-20T10:21:37Z</time>
      </trkpt>
      <trkpt lat="45.96259" lon="1.38816">
        <ele>445.2</ele>
        <time>2022-11-20T10:21:39Z</time>
      </trkpt>
      <trkpt lat="45.96262" lon="1.38806">
        <ele>446.4</ele>
        <time>2022-11-20T10:21:42Z</time>
      </trkpt>
      <trkpt lat="45.96265" lon="1.38799">
        <ele>447.4</ele>
        <time>2022-11-20T10:21:45Z</time>
      </trkpt>
      <trkpt lat="45.96266" lon="1.38796">
        <ele>447.8</ele>
        <time>2022-11-20T10:21:46Z</time>
      </trkpt>
      <trkpt lat="45.9627" lon="1.38786">
        <ele>449.2</ele>
        <time>2022-11-20T10:21:50Z</time>
      </trkpt>
      <trkpt lat="45.96272" lon="1.38778">
        <ele>450.4</ele>
        <time>2022-11-20T10:21:53Z</time>
      </trkpt>
      <trkpt lat="45.96273" lon="1.38777">
        <ele>451</ele>
        <time>2022-11-20T10:21:54Z</time>
      </trkpt>
      <trkpt lat="45.96276" lon="1.38772">
        <ele>451.6</ele>
        <time>2022-11-20T10:21:56Z</time>
      </trkpt>
      <trkpt lat="45.96279" lon="1.38766">
        <ele>452.8</ele>
        <time>2022-11-20T10:21:59Z</time>
      </trkpt>
      <trkpt lat="45.9628" lon="1.38762">
        <ele>453.2</ele>
        <time>2022-11-20T10:22:01Z</time>
      </trkpt>
      <trkpt lat="45.96281" lon="1.38757">
        <ele>454</ele>
        <time>2022-11-20T10:22:03Z</time>
      </trkpt>
      <trkpt lat="45.96283" lon="1.38747">
        <ele>455</ele>
        <time>2022-11-20T10:22:07Z</time>
      </trkpt>
      <trkpt lat="45.96284" lon="1.38741">
        <ele>455.6</ele>
        <time>2022-11-20T10:22:09Z</time>
      </trkpt>
      <trkpt lat="45.96286" lon="1.38736">
        <ele>456.2</ele>
        <time>2022-11-20T10:22:11Z</time>
      </trkpt>
      <trkpt lat="45.96291" lon="1.3872">
        <ele>456.8</ele>
        <time>2022-11-20T10:22:16Z</time>
      </trkpt>
      <trkpt lat="45.96291" lon="1.38712">
        <ele>457.4</ele>
        <time>2022-11-20T10:22:18Z</time>
      </trkpt>
      <trkpt lat="45.96293" lon="1.38698">
        <ele>458</ele>
        <time>2022-11-20T10:22:22Z</time>
      </trkpt>
      <trkpt lat="45.9629" lon="1.38697">
        <ele>458.4</ele>
        <time>2022-11-20T10:22:24Z</time>
      </trkpt>
      <trkpt lat="45.9629" lon="1.38698">
        <ele>458.4</ele>
        <time>2022-11-20T10:22:25Z</time>
      </trkpt>
      <trkpt lat="45.96289" lon="1.38701">
        <ele>458.4</ele>
        <time>2022-11-20T10:22:26Z</time>
      </trkpt>
      <trkpt lat="45.96287" lon="1.38716">
        <ele>458</ele>
        <time>2022-11-20T10:22:30Z</time>
      </trkpt>
      <trkpt lat="45.96287" lon="1.38721">
        <ele>457.8</ele>
        <time>2022-11-20T10:22:31Z</time>
      </trkpt>
      <trkpt lat="45.96286" lon="1.38732">
        <ele>457.4</ele>
        <time>2022-11-20T10:22:33Z</time>
      </trkpt>
      <trkpt lat="45.96285" lon="1.38739">
        <ele>457.2</ele>
        <time>2022-11-20T10:22:34Z</time>
      </trkpt>
      <trkpt lat="45.96283" lon="1.38745">
        <ele>456.8</ele>
        <time>2022-11-20T10:22:35Z</time>
      </trkpt>
      <trkpt lat="45.96281" lon="1.38753">
        <ele>456</ele>
        <time>2022-11-20T10:22:36Z</time>
      </trkpt>
      <trkpt lat="45.96276" lon="1.3877">
        <ele>454.4</ele>
        <time>2022-11-20T10:22:38Z</time>
      </trkpt>
      <trkpt lat="45.96273" lon="1.38777">
        <ele>453.2</ele>
        <time>2022-11-20T10:22:39Z</time>
      </trkpt>
      <trkpt lat="45.96269" lon="1.38787">
        <ele>451.8</ele>
        <time>2022-11-20T10:22:40Z</time>
      </trkpt>
      <trkpt lat="45.96265" lon="1.38797">
        <ele>450.8</ele>
        <time>2022-11-20T10:22:41Z</time>
      </trkpt>
      <trkpt lat="45.96261" lon="1.38808">
        <ele>449.8</ele>
        <time>2022-11-20T10:22:42Z</time>
      </trkpt>
      <trkpt lat="45.96259" lon="1.3882">
        <ele>449</ele>
        <time>2022-11-20T10:22:43Z</time>
      </trkpt>
      <trkpt lat="45.96257" lon="1.38831">
        <ele>447.8</ele>
        <time>2022-11-20T10:22:44Z</time>
      </trkpt>
      <trkpt lat="45.96257" lon="1.38843">
        <ele>446.6</ele>
        <time>2022-11-20T10:22:45Z</time>
      </trkpt>
      <trkpt lat="45.96257" lon="1.38854">
        <ele>445.8</ele>
        <time>2022-11-20T10:22:46Z</time>
      </trkpt>
      <trkpt lat="45.96258" lon="1.38865">
        <ele>445.2</ele>
        <time>2022-11-20T10:22:47Z</time>
      </trkpt>
      <trkpt lat="45.96265" lon="1.38906">
        <ele>444.2</ele>
        <time>2022-11-20T10:22:51Z</time>
      </trkpt>
      <trkpt lat="45.96267" lon="1.38915">
        <ele>444</ele>
        <time>2022-11-20T10:22:52Z</time>
      </trkpt>
      <trkpt lat="45.96271" lon="1.38939">
        <ele>443.2</ele>
        <time>2022-11-20T10:22:55Z</time>
      </trkpt>
      <trkpt lat="45.9627" lon="1.38946">
        <ele>442.4</ele>
        <time>2022-11-20T10:22:56Z</time>
      </trkpt>
      <trkpt lat="45.96269" lon="1.38953">
        <ele>441.8</ele>
        <time>2022-11-20T10:22:57Z</time>
      </trkpt>
      <trkpt lat="45.96265" lon="1.3896">
        <ele>441</ele>
        <time>2022-11-20T10:22:58Z</time>
      </trkpt>
      <trkpt lat="45.96261" lon="1.38968">
        <ele>440.2</ele>
        <time>2022-11-20T10:22:59Z</time>
      </trkpt>
      <trkpt lat="45.96258" lon="1.38976">
        <ele>439.6</ele>
        <time>2022-11-20T10:23:00Z</time>
      </trkpt>
      <trkpt lat="45.96252" lon="1.38993">
        <ele>437.8</ele>
        <time>2022-11-20T10:23:02Z</time>
      </trkpt>
      <trkpt lat="45.9625" lon="1.39003">
        <ele>436.6</ele>
        <time>2022-11-20T10:23:03Z</time>
      </trkpt>
      <trkpt lat="45.96248" lon="1.39013">
        <ele>435.6</ele>
        <time>2022-11-20T10:23:04Z</time>
      </trkpt>
      <trkpt lat="45.96248" lon="1.39024">
        <ele>435</ele>
        <time>2022-11-20T10:23:05Z</time>
      </trkpt>
      <trkpt lat="45.96248" lon="1.39045">
        <ele>433.4</ele>
        <time>2022-11-20T10:23:07Z</time>
      </trkpt>
      <trkpt lat="45.96248" lon="1.39066">
        <ele>432.4</ele>
        <time>2022-11-20T10:23:09Z</time>
      </trkpt>
      <trkpt lat="45.96248" lon="1.39123">
        <ele>430.4</ele>
        <time>2022-11-20T10:23:14Z</time>
      </trkpt>
      <trkpt lat="45.96247" lon="1.39155">
        <ele>429.2</ele>
        <time>2022-11-20T10:23:17Z</time>
      </trkpt>
      <trkpt lat="45.96247" lon="1.39172">
        <ele>429.2</ele>
        <time>2022-11-20T10:23:19Z</time>
      </trkpt>
      <trkpt lat="45.96245" lon="1.39189">
        <ele>429.2</ele>
        <time>2022-11-20T10:23:21Z</time>
      </trkpt>
      <trkpt lat="45.96238" lon="1.39207">
        <ele>429.4</ele>
        <time>2022-11-20T10:23:24Z</time>
      </trkpt>
      <trkpt lat="45.96227" lon="1.39214">
        <ele>429.4</ele>
        <time>2022-11-20T10:23:26Z</time>
      </trkpt>
      <trkpt lat="45.96215" lon="1.39216">
        <ele>429.6</ele>
        <time>2022-11-20T10:23:28Z</time>
      </trkpt>
      <trkpt lat="45.96173" lon="1.39229">
        <ele>428.2</ele>
        <time>2022-11-20T10:23:34Z</time>
      </trkpt>
      <trkpt lat="45.96131" lon="1.39255">
        <ele>426.4</ele>
        <time>2022-11-20T10:23:40Z</time>
      </trkpt>
      <trkpt lat="45.96124" lon="1.39261">
        <ele>425.8</ele>
        <time>2022-11-20T10:23:41Z</time>
      </trkpt>
      <trkpt lat="45.96109" lon="1.3927">
        <ele>425.2</ele>
        <time>2022-11-20T10:23:43Z</time>
      </trkpt>
      <trkpt lat="45.96086" lon="1.39285">
        <ele>424</ele>
        <time>2022-11-20T10:23:46Z</time>
      </trkpt>
      <trkpt lat="45.96062" lon="1.39297">
        <ele>423</ele>
        <time>2022-11-20T10:23:49Z</time>
      </trkpt>
      <trkpt lat="45.96039" lon="1.39309">
        <ele>421.8</ele>
        <time>2022-11-20T10:23:52Z</time>
      </trkpt>
      <trkpt lat="45.96007" lon="1.39325">
        <ele>420.4</ele>
        <time>2022-11-20T10:23:56Z</time>
      </trkpt>
      <trkpt lat="45.95991" lon="1.39332">
        <ele>419.2</ele>
        <time>2022-11-20T10:23:58Z</time>
      </trkpt>
      <trkpt lat="45.95977" lon="1.39341">
        <ele>418</ele>
        <time>2022-11-20T10:24:00Z</time>
      </trkpt>
      <trkpt lat="45.95964" lon="1.39354">
        <ele>417.2</ele>
        <time>2022-11-20T10:24:02Z</time>
      </trkpt>
      <trkpt lat="45.95957" lon="1.39361">
        <ele>417</ele>
        <time>2022-11-20T10:24:03Z</time>
      </trkpt>
      <trkpt lat="45.95937" lon="1.39385">
        <ele>415.6</ele>
        <time>2022-11-20T10:24:06Z</time>
      </trkpt>
      <trkpt lat="45.95929" lon="1.39394">
        <ele>414.6</ele>
        <time>2022-11-20T10:24:07Z</time>
      </trkpt>
      <trkpt lat="45.95922" lon="1.39403">
        <ele>413.6</ele>
        <time>2022-11-20T10:24:08Z</time>
      </trkpt>
      <trkpt lat="45.95914" lon="1.39412">
        <ele>413</ele>
        <time>2022-11-20T10:24:09Z</time>
      </trkpt>
      <trkpt lat="45.95903" lon="1.39425">
        <ele>411.8</ele>
        <time>2022-11-20T10:24:11Z</time>
      </trkpt>
      <trkpt lat="45.95898" lon="1.39429">
        <ele>409.6</ele>
        <time>2022-11-20T10:24:13Z</time>
      </trkpt>
      <trkpt lat="45.95898" lon="1.3943">
        <ele>408.6</ele>
        <time>2022-11-20T10:24:14Z</time>
      </trkpt>
      <trkpt lat="45.95897" lon="1.39431">
        <ele>407.8</ele>
        <time>2022-11-20T10:24:15Z</time>
      </trkpt>
      <trkpt lat="45.95897" lon="1.39432">
        <ele>407.2</ele>
        <time>2022-11-20T10:24:17Z</time>
      </trkpt>
      <trkpt lat="45.95898" lon="1.39431">
        <ele>407.2</ele>
        <time>2022-11-20T10:24:18Z</time>
      </trkpt>
      <trkpt lat="45.95901" lon="1.39436">
        <ele>407.4</ele>
        <time>2022-11-20T10:24:25Z</time>
      </trkpt>
      <trkpt lat="45.95898" lon="1.39442">
        <ele>406.8</ele>
        <time>2022-11-20T10:24:28Z</time>
      </trkpt>
      <trkpt lat="45.95895" lon="1.39446">
        <ele>406.2</ele>
        <time>2022-11-20T10:24:30Z</time>
      </trkpt>
      <trkpt lat="45.95892" lon="1.3945">
        <ele>406.2</ele>
        <time>2022-11-20T10:24:31Z</time>
      </trkpt>
      <trkpt lat="45.95888" lon="1.39456">
        <ele>405.4</ele>
        <time>2022-11-20T10:24:33Z</time>
      </trkpt>
      <trkpt lat="45.95884" lon="1.39463">
        <ele>404</ele>
        <time>2022-11-20T10:24:35Z</time>
      </trkpt>
      <trkpt lat="45.95882" lon="1.39466">
        <ele>403.2</ele>
        <time>2022-11-20T10:24:36Z</time>
      </trkpt>
      <trkpt lat="45.95881" lon="1.39468">
        <ele>402.6</ele>
        <time>2022-11-20T10:24:37Z</time>
      </trkpt>
      <trkpt lat="45.95879" lon="1.39472">
        <ele>401.4</ele>
        <time>2022-11-20T10:24:39Z</time>
      </trkpt>
      <trkpt lat="45.95879" lon="1.39475">
        <ele>401</ele>
        <time>2022-11-20T10:24:40Z</time>
      </trkpt>
      <trkpt lat="45.95878" lon="1.39485">
        <ele>400.4</ele>
        <time>2022-11-20T10:24:44Z</time>
      </trkpt>
      <trkpt lat="45.95877" lon="1.39496">
        <ele>400.2</ele>
        <time>2022-11-20T10:24:47Z</time>
      </trkpt>
      <trkpt lat="45.95875" lon="1.39514">
        <ele>399.2</ele>
        <time>2022-11-20T10:24:50Z</time>
      </trkpt>
      <trkpt lat="45.95874" lon="1.3953">
        <ele>397.6</ele>
        <time>2022-11-20T10:24:52Z</time>
      </trkpt>
      <trkpt lat="45.95875" lon="1.39537">
        <ele>397</ele>
        <time>2022-11-20T10:24:53Z</time>
      </trkpt>
      <trkpt lat="45.95876" lon="1.39552">
        <ele>396.2</ele>
        <time>2022-11-20T10:24:55Z</time>
      </trkpt>
      <trkpt lat="45.95878" lon="1.39559">
        <ele>396</ele>
        <time>2022-11-20T10:24:56Z</time>
      </trkpt>
      <trkpt lat="45.95874" lon="1.39597">
        <ele>395</ele>
        <time>2022-11-20T10:25:01Z</time>
      </trkpt>
      <trkpt lat="45.95868" lon="1.39605">
        <ele>394.6</ele>
        <time>2022-11-20T10:25:03Z</time>
      </trkpt>
      <trkpt lat="45.95864" lon="1.39607">
        <ele>394.4</ele>
        <time>2022-11-20T10:25:04Z</time>
      </trkpt>
      <trkpt lat="45.95861" lon="1.3961">
        <ele>394.2</ele>
        <time>2022-11-20T10:25:05Z</time>
      </trkpt>
      <trkpt lat="45.95857" lon="1.39619">
        <ele>394</ele>
        <time>2022-11-20T10:25:07Z</time>
      </trkpt>
      <trkpt lat="45.9586" lon="1.39633">
        <ele>393.4</ele>
        <time>2022-11-20T10:25:10Z</time>
      </trkpt>
      <trkpt lat="45.95863" lon="1.39638">
        <ele>393.4</ele>
        <time>2022-11-20T10:25:11Z</time>
      </trkpt>
      <trkpt lat="45.95866" lon="1.39644">
        <ele>393.4</ele>
        <time>2022-11-20T10:25:12Z</time>
      </trkpt>
      <trkpt lat="45.9587" lon="1.39649">
        <ele>393</ele>
        <time>2022-11-20T10:25:13Z</time>
      </trkpt>
      <trkpt lat="45.95877" lon="1.39662">
        <ele>392.2</ele>
        <time>2022-11-20T10:25:15Z</time>
      </trkpt>
      <trkpt lat="45.95878" lon="1.3967">
        <ele>391.8</ele>
        <time>2022-11-20T10:25:16Z</time>
      </trkpt>
      <trkpt lat="45.9588" lon="1.39678">
        <ele>391.8</ele>
        <time>2022-11-20T10:25:17Z</time>
      </trkpt>
      <trkpt lat="45.95881" lon="1.39694">
        <ele>391.2</ele>
        <time>2022-11-20T10:25:19Z</time>
      </trkpt>
      <trkpt lat="45.95882" lon="1.39711">
        <ele>391</ele>
        <time>2022-11-20T10:25:22Z</time>
      </trkpt>
      <trkpt lat="45.95883" lon="1.39712">
        <ele>390.8</ele>
        <time>2022-11-20T10:25:23Z</time>
      </trkpt>
      <trkpt lat="45.95884" lon="1.39714">
        <ele>390.6</ele>
        <time>2022-11-20T10:25:26Z</time>
      </trkpt>
    </trkseg>
  </trk>
</gpx>